<?xml version="1.0" encoding="UTF-8" standalone="no" ?>
<gpx xmlns="http://www.topografix.com/GPX/1/1" xmlns:xsi="http://www.w3.org/2001/XMLSchema-instance" xsi:schemaLocation="http://www.topografix.com/GPX/1/1 http://www.topografix.com/GPX/1/1/gpx.xsd" version="1.1" creator="VisuGPX - https://www.visugpx.com">
  <metadata>
    <name> Sortie Trail Val Sulens</name>
    <desc><![CDATA[Sortie typée Kolenta / Commando sous la flotte !]]></desc>
  </metadata>
  <trk>
    <name><![CDATA[Sortie Trail Val Sulens]]></name>
    <trkseg>
      <trkpt lat="45.84034" lon="6.3661">
        <ele>1239</ele>
        <time>2011-07-23T06:39:28.000Z</time>
      </trkpt>
      <trkpt lat="45.84036" lon="6.36611">
        <ele>1238.4000244141</ele>
        <time>2011-07-23T06:39:29.000Z</time>
      </trkpt>
      <trkpt lat="45.84035" lon="6.36617">
        <ele>1238</ele>
        <time>2011-07-23T06:39:32.000Z</time>
      </trkpt>
      <trkpt lat="45.84031" lon="6.3663">
        <ele>1238.1999511719</ele>
        <time>2011-07-23T06:39:38.000Z</time>
      </trkpt>
      <trkpt lat="45.8403" lon="6.36634">
        <ele>1238.1999511719</ele>
        <time>2011-07-23T06:39:40.000Z</time>
      </trkpt>
      <trkpt lat="45.84025" lon="6.36647">
        <ele>1238.4000244141</ele>
        <time>2011-07-23T06:39:45.000Z</time>
      </trkpt>
      <trkpt lat="45.8402" lon="6.36657">
        <ele>1239</ele>
        <time>2011-07-23T06:39:49.000Z</time>
      </trkpt>
      <trkpt lat="45.84018" lon="6.36663">
        <ele>1238.8000488281</ele>
        <time>2011-07-23T06:39:51.000Z</time>
      </trkpt>
      <trkpt lat="45.84018" lon="6.36676">
        <ele>1238.5999755859</ele>
        <time>2011-07-23T06:39:56.000Z</time>
      </trkpt>
      <trkpt lat="45.84019" lon="6.36682">
        <ele>1238.5999755859</ele>
        <time>2011-07-23T06:39:58.000Z</time>
      </trkpt>
      <trkpt lat="45.84026" lon="6.367">
        <ele>1237</ele>
        <time>2011-07-23T06:40:05.000Z</time>
      </trkpt>
      <trkpt lat="45.84027" lon="6.36706">
        <ele>1236.8000488281</ele>
        <time>2011-07-23T06:40:07.000Z</time>
      </trkpt>
      <trkpt lat="45.84032" lon="6.36717">
        <ele>1235.8000488281</ele>
        <time>2011-07-23T06:40:11.000Z</time>
      </trkpt>
      <trkpt lat="45.84038" lon="6.36729">
        <ele>1234.5999755859</ele>
        <time>2011-07-23T06:40:16.000Z</time>
      </trkpt>
      <trkpt lat="45.84038" lon="6.36732">
        <ele>1234.5999755859</ele>
        <time>2011-07-23T06:40:17.000Z</time>
      </trkpt>
      <trkpt lat="45.84038" lon="6.36752">
        <ele>1235.5999755859</ele>
        <time>2011-07-23T06:40:24.000Z</time>
      </trkpt>
      <trkpt lat="45.84037" lon="6.36755">
        <ele>1236</ele>
        <time>2011-07-23T06:40:27.000Z</time>
      </trkpt>
      <trkpt lat="45.84037" lon="6.36756">
        <ele>1236.1999511719</ele>
        <time>2011-07-23T06:40:28.000Z</time>
      </trkpt>
      <trkpt lat="45.84036" lon="6.36758">
        <ele>1236.4000244141</ele>
        <time>2011-07-23T06:40:36.000Z</time>
      </trkpt>
      <trkpt lat="45.84036" lon="6.36758">
        <ele>1236.5999755859</ele>
        <time>2011-07-23T06:40:39.000Z</time>
      </trkpt>
      <trkpt lat="45.84036" lon="6.36758">
        <ele>1236.5999755859</ele>
        <time>2011-07-23T06:40:42.000Z</time>
      </trkpt>
      <trkpt lat="45.84037" lon="6.36758">
        <ele>1236</ele>
        <time>2011-07-23T06:40:54.000Z</time>
      </trkpt>
      <trkpt lat="45.84038" lon="6.36761">
        <ele>1236.1999511719</ele>
        <time>2011-07-23T06:41:01.000Z</time>
      </trkpt>
      <trkpt lat="45.84037" lon="6.36766">
        <ele>1236.5999755859</ele>
        <time>2011-07-23T06:41:03.000Z</time>
      </trkpt>
      <trkpt lat="45.84038" lon="6.36771">
        <ele>1236.8000488281</ele>
        <time>2011-07-23T06:41:06.000Z</time>
      </trkpt>
      <trkpt lat="45.84039" lon="6.36776">
        <ele>1236.5999755859</ele>
        <time>2011-07-23T06:41:09.000Z</time>
      </trkpt>
      <trkpt lat="45.8404" lon="6.36779">
        <ele>1236.4000244141</ele>
        <time>2011-07-23T06:41:10.000Z</time>
      </trkpt>
      <trkpt lat="45.84042" lon="6.36787">
        <ele>1236.4000244141</ele>
        <time>2011-07-23T06:41:14.000Z</time>
      </trkpt>
      <trkpt lat="45.84042" lon="6.36789">
        <ele>1236.5999755859</ele>
        <time>2011-07-23T06:41:15.000Z</time>
      </trkpt>
      <trkpt lat="45.84041" lon="6.36799">
        <ele>1237.5999755859</ele>
        <time>2011-07-23T06:41:20.000Z</time>
      </trkpt>
      <trkpt lat="45.8404" lon="6.36802">
        <ele>1238</ele>
        <time>2011-07-23T06:41:21.000Z</time>
      </trkpt>
      <trkpt lat="45.84039" lon="6.36804">
        <ele>1238.4000244141</ele>
        <time>2011-07-23T06:41:22.000Z</time>
      </trkpt>
      <trkpt lat="45.84038" lon="6.3681">
        <ele>1238.8000488281</ele>
        <time>2011-07-23T06:41:25.000Z</time>
      </trkpt>
      <trkpt lat="45.84038" lon="6.36813">
        <ele>1239.1999511719</ele>
        <time>2011-07-23T06:41:30.000Z</time>
      </trkpt>
      <trkpt lat="45.8404" lon="6.36819">
        <ele>1239</ele>
        <time>2011-07-23T06:41:33.000Z</time>
      </trkpt>
      <trkpt lat="45.8404" lon="6.36822">
        <ele>1239</ele>
        <time>2011-07-23T06:41:34.000Z</time>
      </trkpt>
      <trkpt lat="45.84041" lon="6.36832">
        <ele>1239.5999755859</ele>
        <time>2011-07-23T06:41:37.000Z</time>
      </trkpt>
      <trkpt lat="45.84042" lon="6.36847">
        <ele>1240</ele>
        <time>2011-07-23T06:41:42.000Z</time>
      </trkpt>
      <trkpt lat="45.84044" lon="6.36859">
        <ele>1240.1999511719</ele>
        <time>2011-07-23T06:41:47.000Z</time>
      </trkpt>
      <trkpt lat="45.84043" lon="6.36863">
        <ele>1240.4000244141</ele>
        <time>2011-07-23T06:41:48.000Z</time>
      </trkpt>
      <trkpt lat="45.84043" lon="6.36874">
        <ele>1241</ele>
        <time>2011-07-23T06:41:51.000Z</time>
      </trkpt>
      <trkpt lat="45.84045" lon="6.3688">
        <ele>1240.8000488281</ele>
        <time>2011-07-23T06:41:53.000Z</time>
      </trkpt>
      <trkpt lat="45.84045" lon="6.36886">
        <ele>1241.1999511719</ele>
        <time>2011-07-23T06:41:55.000Z</time>
      </trkpt>
      <trkpt lat="45.84047" lon="6.36892">
        <ele>1241</ele>
        <time>2011-07-23T06:41:57.000Z</time>
      </trkpt>
      <trkpt lat="45.84051" lon="6.36903">
        <ele>1240.5999755859</ele>
        <time>2011-07-23T06:42:02.000Z</time>
      </trkpt>
      <trkpt lat="45.84056" lon="6.36905">
        <ele>1239.5999755859</ele>
        <time>2011-07-23T06:42:04.000Z</time>
      </trkpt>
      <trkpt lat="45.84062" lon="6.36909">
        <ele>1238.4000244141</ele>
        <time>2011-07-23T06:42:07.000Z</time>
      </trkpt>
      <trkpt lat="45.84067" lon="6.36921">
        <ele>1238</ele>
        <time>2011-07-23T06:42:12.000Z</time>
      </trkpt>
      <trkpt lat="45.84068" lon="6.36925">
        <ele>1238.1999511719</ele>
        <time>2011-07-23T06:42:13.000Z</time>
      </trkpt>
      <trkpt lat="45.84074" lon="6.36937">
        <ele>1238.1999511719</ele>
        <time>2011-07-23T06:42:17.000Z</time>
      </trkpt>
      <trkpt lat="45.84078" lon="6.36947">
        <ele>1238</ele>
        <time>2011-07-23T06:42:20.000Z</time>
      </trkpt>
      <trkpt lat="45.8408" lon="6.36949">
        <ele>1237.8000488281</ele>
        <time>2011-07-23T06:42:21.000Z</time>
      </trkpt>
      <trkpt lat="45.84085" lon="6.36961">
        <ele>1237.8000488281</ele>
        <time>2011-07-23T06:42:25.000Z</time>
      </trkpt>
      <trkpt lat="45.8409" lon="6.3697">
        <ele>1237.5999755859</ele>
        <time>2011-07-23T06:42:28.000Z</time>
      </trkpt>
      <trkpt lat="45.84092" lon="6.36976">
        <ele>1237.8000488281</ele>
        <time>2011-07-23T06:42:30.000Z</time>
      </trkpt>
      <trkpt lat="45.84094" lon="6.36981">
        <ele>1237.8000488281</ele>
        <time>2011-07-23T06:42:32.000Z</time>
      </trkpt>
      <trkpt lat="45.84098" lon="6.3699">
        <ele>1238</ele>
        <time>2011-07-23T06:42:35.000Z</time>
      </trkpt>
      <trkpt lat="45.84099" lon="6.36993">
        <ele>1238</ele>
        <time>2011-07-23T06:42:36.000Z</time>
      </trkpt>
      <trkpt lat="45.84101" lon="6.36998">
        <ele>1237.8000488281</ele>
        <time>2011-07-23T06:42:38.000Z</time>
      </trkpt>
      <trkpt lat="45.84105" lon="6.37004">
        <ele>1237.8000488281</ele>
        <time>2011-07-23T06:42:40.000Z</time>
      </trkpt>
      <trkpt lat="45.84109" lon="6.37017">
        <ele>1238.8000488281</ele>
        <time>2011-07-23T06:42:44.000Z</time>
      </trkpt>
      <trkpt lat="45.8411" lon="6.37021">
        <ele>1239</ele>
        <time>2011-07-23T06:42:45.000Z</time>
      </trkpt>
      <trkpt lat="45.84112" lon="6.37037">
        <ele>1240.5999755859</ele>
        <time>2011-07-23T06:42:50.000Z</time>
      </trkpt>
      <trkpt lat="45.84115" lon="6.37043">
        <ele>1240.4000244141</ele>
        <time>2011-07-23T06:42:52.000Z</time>
      </trkpt>
      <trkpt lat="45.84119" lon="6.37052">
        <ele>1240.1999511719</ele>
        <time>2011-07-23T06:42:55.000Z</time>
      </trkpt>
      <trkpt lat="45.84125" lon="6.37065">
        <ele>1239.5999755859</ele>
        <time>2011-07-23T06:42:59.000Z</time>
      </trkpt>
      <trkpt lat="45.84126" lon="6.37068">
        <ele>1239.5999755859</ele>
        <time>2011-07-23T06:43:00.000Z</time>
      </trkpt>
      <trkpt lat="45.84133" lon="6.3708">
        <ele>1237.5999755859</ele>
        <time>2011-07-23T06:43:04.000Z</time>
      </trkpt>
      <trkpt lat="45.84138" lon="6.3709">
        <ele>1236.5999755859</ele>
        <time>2011-07-23T06:43:07.000Z</time>
      </trkpt>
      <trkpt lat="45.84141" lon="6.37096">
        <ele>1235.5999755859</ele>
        <time>2011-07-23T06:43:09.000Z</time>
      </trkpt>
      <trkpt lat="45.84144" lon="6.37111">
        <ele>1235.4000244141</ele>
        <time>2011-07-23T06:43:13.000Z</time>
      </trkpt>
      <trkpt lat="45.84145" lon="6.37114">
        <ele>1235</ele>
        <time>2011-07-23T06:43:14.000Z</time>
      </trkpt>
      <trkpt lat="45.84149" lon="6.37127">
        <ele>1234.4000244141</ele>
        <time>2011-07-23T06:43:18.000Z</time>
      </trkpt>
      <trkpt lat="45.84151" lon="6.3714">
        <ele>1234.1999511719</ele>
        <time>2011-07-23T06:43:22.000Z</time>
      </trkpt>
      <trkpt lat="45.84152" lon="6.37143">
        <ele>1234</ele>
        <time>2011-07-23T06:43:23.000Z</time>
      </trkpt>
      <trkpt lat="45.84156" lon="6.3716">
        <ele>1233.4000244141</ele>
        <time>2011-07-23T06:43:29.000Z</time>
      </trkpt>
      <trkpt lat="45.84158" lon="6.37166">
        <ele>1233</ele>
        <time>2011-07-23T06:43:31.000Z</time>
      </trkpt>
      <trkpt lat="45.84158" lon="6.37176">
        <ele>1234.4000244141</ele>
        <time>2011-07-23T06:43:34.000Z</time>
      </trkpt>
      <trkpt lat="45.84155" lon="6.37192">
        <ele>1238</ele>
        <time>2011-07-23T06:43:39.000Z</time>
      </trkpt>
      <trkpt lat="45.84154" lon="6.37195">
        <ele>1238.5999755859</ele>
        <time>2011-07-23T06:43:40.000Z</time>
      </trkpt>
      <trkpt lat="45.84153" lon="6.37215">
        <ele>1242</ele>
        <time>2011-07-23T06:43:47.000Z</time>
      </trkpt>
      <trkpt lat="45.84153" lon="6.37218">
        <ele>1242.4000244141</ele>
        <time>2011-07-23T06:43:48.000Z</time>
      </trkpt>
      <trkpt lat="45.84154" lon="6.37229">
        <ele>1243.4000244141</ele>
        <time>2011-07-23T06:43:52.000Z</time>
      </trkpt>
      <trkpt lat="45.84156" lon="6.37245">
        <ele>1244.5999755859</ele>
        <time>2011-07-23T06:43:58.000Z</time>
      </trkpt>
      <trkpt lat="45.84157" lon="6.37247">
        <ele>1244.5999755859</ele>
        <time>2011-07-23T06:43:59.000Z</time>
      </trkpt>
      <trkpt lat="45.84161" lon="6.37264">
        <ele>1245.4000244141</ele>
        <time>2011-07-23T06:44:05.000Z</time>
      </trkpt>
      <trkpt lat="45.84162" lon="6.37269">
        <ele>1245.8000488281</ele>
        <time>2011-07-23T06:44:07.000Z</time>
      </trkpt>
      <trkpt lat="45.84165" lon="6.37283">
        <ele>1246.8000488281</ele>
        <time>2011-07-23T06:44:12.000Z</time>
      </trkpt>
      <trkpt lat="45.84168" lon="6.37294">
        <ele>1247.5999755859</ele>
        <time>2011-07-23T06:44:16.000Z</time>
      </trkpt>
      <trkpt lat="45.84168" lon="6.37297">
        <ele>1248</ele>
        <time>2011-07-23T06:44:17.000Z</time>
      </trkpt>
      <trkpt lat="45.84172" lon="6.37316">
        <ele>1250.4000244141</ele>
        <time>2011-07-23T06:44:24.000Z</time>
      </trkpt>
      <trkpt lat="45.84173" lon="6.37321">
        <ele>1251.1999511719</ele>
        <time>2011-07-23T06:44:26.000Z</time>
      </trkpt>
      <trkpt lat="45.84175" lon="6.37328">
        <ele>1252</ele>
        <time>2011-07-23T06:44:29.000Z</time>
      </trkpt>
      <trkpt lat="45.84179" lon="6.37341">
        <ele>1254</ele>
        <time>2011-07-23T06:44:34.000Z</time>
      </trkpt>
      <trkpt lat="45.84181" lon="6.37346">
        <ele>1255</ele>
        <time>2011-07-23T06:44:36.000Z</time>
      </trkpt>
      <trkpt lat="45.84184" lon="6.37353">
        <ele>1256.1999511719</ele>
        <time>2011-07-23T06:44:39.000Z</time>
      </trkpt>
      <trkpt lat="45.84189" lon="6.37365">
        <ele>1258.1999511719</ele>
        <time>2011-07-23T06:44:45.000Z</time>
      </trkpt>
      <trkpt lat="45.84191" lon="6.37369">
        <ele>1258.8000488281</ele>
        <time>2011-07-23T06:44:47.000Z</time>
      </trkpt>
      <trkpt lat="45.84194" lon="6.37375">
        <ele>1259.8000488281</ele>
        <time>2011-07-23T06:44:50.000Z</time>
      </trkpt>
      <trkpt lat="45.84201" lon="6.37387">
        <ele>1261.4000244141</ele>
        <time>2011-07-23T06:44:56.000Z</time>
      </trkpt>
      <trkpt lat="45.84203" lon="6.37389">
        <ele>1261.8000488281</ele>
        <time>2011-07-23T06:44:57.000Z</time>
      </trkpt>
      <trkpt lat="45.84208" lon="6.37398">
        <ele>1263</ele>
        <time>2011-07-23T06:45:01.000Z</time>
      </trkpt>
      <trkpt lat="45.84214" lon="6.37412">
        <ele>1265.1999511719</ele>
        <time>2011-07-23T06:45:07.000Z</time>
      </trkpt>
      <trkpt lat="45.8422" lon="6.37428">
        <ele>1268.1999511719</ele>
        <time>2011-07-23T06:45:14.000Z</time>
      </trkpt>
      <trkpt lat="45.84224" lon="6.37436">
        <ele>1270</ele>
        <time>2011-07-23T06:45:18.000Z</time>
      </trkpt>
      <trkpt lat="45.84225" lon="6.37438">
        <ele>1270.4000244141</ele>
        <time>2011-07-23T06:45:19.000Z</time>
      </trkpt>
      <trkpt lat="45.84226" lon="6.3744">
        <ele>1270.8000488281</ele>
        <time>2011-07-23T06:45:20.000Z</time>
      </trkpt>
      <trkpt lat="45.84229" lon="6.37447">
        <ele>1272</ele>
        <time>2011-07-23T06:45:24.000Z</time>
      </trkpt>
      <trkpt lat="45.84236" lon="6.37454">
        <ele>1273</ele>
        <time>2011-07-23T06:45:28.000Z</time>
      </trkpt>
      <trkpt lat="45.84237" lon="6.37456">
        <ele>1273.1999511719</ele>
        <time>2011-07-23T06:45:29.000Z</time>
      </trkpt>
      <trkpt lat="45.84242" lon="6.37466">
        <ele>1274.5999755859</ele>
        <time>2011-07-23T06:45:34.000Z</time>
      </trkpt>
      <trkpt lat="45.84251" lon="6.37476">
        <ele>1275.5999755859</ele>
        <time>2011-07-23T06:45:40.000Z</time>
      </trkpt>
      <trkpt lat="45.84258" lon="6.37483">
        <ele>1275.5999755859</ele>
        <time>2011-07-23T06:45:45.000Z</time>
      </trkpt>
      <trkpt lat="45.84261" lon="6.37491">
        <ele>1277</ele>
        <time>2011-07-23T06:45:50.000Z</time>
      </trkpt>
      <trkpt lat="45.8426" lon="6.37493">
        <ele>1277.4000244141</ele>
        <time>2011-07-23T06:45:51.000Z</time>
      </trkpt>
      <trkpt lat="45.84261" lon="6.37497">
        <ele>1278.1999511719</ele>
        <time>2011-07-23T06:45:53.000Z</time>
      </trkpt>
      <trkpt lat="45.84266" lon="6.37509">
        <ele>1280.5999755859</ele>
        <time>2011-07-23T06:45:59.000Z</time>
      </trkpt>
      <trkpt lat="45.8427" lon="6.37522">
        <ele>1283.1999511719</ele>
        <time>2011-07-23T06:46:05.000Z</time>
      </trkpt>
      <trkpt lat="45.8428" lon="6.37536">
        <ele>1284.8000488281</ele>
        <time>2011-07-23T06:46:12.000Z</time>
      </trkpt>
      <trkpt lat="45.84282" lon="6.37544">
        <ele>1286.5999755859</ele>
        <time>2011-07-23T06:46:15.000Z</time>
      </trkpt>
      <trkpt lat="45.84285" lon="6.37549">
        <ele>1287.1999511719</ele>
        <time>2011-07-23T06:46:17.000Z</time>
      </trkpt>
      <trkpt lat="45.84288" lon="6.37557">
        <ele>1288.8000488281</ele>
        <time>2011-07-23T06:46:21.000Z</time>
      </trkpt>
      <trkpt lat="45.84289" lon="6.3756">
        <ele>1289.4000244141</ele>
        <time>2011-07-23T06:46:22.000Z</time>
      </trkpt>
      <trkpt lat="45.84291" lon="6.37569">
        <ele>1291.1999511719</ele>
        <time>2011-07-23T06:46:26.000Z</time>
      </trkpt>
      <trkpt lat="45.84291" lon="6.37571">
        <ele>1291.8000488281</ele>
        <time>2011-07-23T06:46:27.000Z</time>
      </trkpt>
      <trkpt lat="45.84295" lon="6.37581">
        <ele>1294</ele>
        <time>2011-07-23T06:46:32.000Z</time>
      </trkpt>
      <trkpt lat="45.84297" lon="6.37587">
        <ele>1294.5999755859</ele>
        <time>2011-07-23T06:46:36.000Z</time>
      </trkpt>
      <trkpt lat="45.84297" lon="6.3759">
        <ele>1295.1999511719</ele>
        <time>2011-07-23T06:46:38.000Z</time>
      </trkpt>
      <trkpt lat="45.84299" lon="6.37593">
        <ele>1295.1999511719</ele>
        <time>2011-07-23T06:46:40.000Z</time>
      </trkpt>
      <trkpt lat="45.84303" lon="6.37601">
        <ele>1295.5999755859</ele>
        <time>2011-07-23T06:46:45.000Z</time>
      </trkpt>
      <trkpt lat="45.84308" lon="6.37608">
        <ele>1295.5999755859</ele>
        <time>2011-07-23T06:46:50.000Z</time>
      </trkpt>
      <trkpt lat="45.84309" lon="6.37609">
        <ele>1295.4000244141</ele>
        <time>2011-07-23T06:46:51.000Z</time>
      </trkpt>
      <trkpt lat="45.84312" lon="6.37612">
        <ele>1295.4000244141</ele>
        <time>2011-07-23T06:46:53.000Z</time>
      </trkpt>
      <trkpt lat="45.84315" lon="6.37618">
        <ele>1295.5999755859</ele>
        <time>2011-07-23T06:46:56.000Z</time>
      </trkpt>
      <trkpt lat="45.84318" lon="6.37622">
        <ele>1295.8000488281</ele>
        <time>2011-07-23T06:46:59.000Z</time>
      </trkpt>
      <trkpt lat="45.84319" lon="6.37625">
        <ele>1296.1999511719</ele>
        <time>2011-07-23T06:47:01.000Z</time>
      </trkpt>
      <trkpt lat="45.84322" lon="6.37635">
        <ele>1297.1999511719</ele>
        <time>2011-07-23T06:47:06.000Z</time>
      </trkpt>
      <trkpt lat="45.84325" lon="6.37646">
        <ele>1298.5999755859</ele>
        <time>2011-07-23T06:47:11.000Z</time>
      </trkpt>
      <trkpt lat="45.84329" lon="6.37658">
        <ele>1300.1999511719</ele>
        <time>2011-07-23T06:47:17.000Z</time>
      </trkpt>
      <trkpt lat="45.84332" lon="6.37662">
        <ele>1300.1999511719</ele>
        <time>2011-07-23T06:47:19.000Z</time>
      </trkpt>
      <trkpt lat="45.84334" lon="6.37665">
        <ele>1300.4000244141</ele>
        <time>2011-07-23T06:47:21.000Z</time>
      </trkpt>
      <trkpt lat="45.84336" lon="6.37668">
        <ele>1300.5999755859</ele>
        <time>2011-07-23T06:47:23.000Z</time>
      </trkpt>
      <trkpt lat="45.84341" lon="6.37672">
        <ele>1300.4000244141</ele>
        <time>2011-07-23T06:47:26.000Z</time>
      </trkpt>
      <trkpt lat="45.84344" lon="6.37674">
        <ele>1300.4000244141</ele>
        <time>2011-07-23T06:47:28.000Z</time>
      </trkpt>
      <trkpt lat="45.84349" lon="6.37678">
        <ele>1300.1999511719</ele>
        <time>2011-07-23T06:47:33.000Z</time>
      </trkpt>
      <trkpt lat="45.84351" lon="6.37682">
        <ele>1300.4000244141</ele>
        <time>2011-07-23T06:47:38.000Z</time>
      </trkpt>
      <trkpt lat="45.8436" lon="6.37686">
        <ele>1300</ele>
        <time>2011-07-23T06:47:45.000Z</time>
      </trkpt>
      <trkpt lat="45.84361" lon="6.37687">
        <ele>1299.8000488281</ele>
        <time>2011-07-23T06:47:46.000Z</time>
      </trkpt>
      <trkpt lat="45.84369" lon="6.37691">
        <ele>1299.5999755859</ele>
        <time>2011-07-23T06:47:51.000Z</time>
      </trkpt>
      <trkpt lat="45.84372" lon="6.37694">
        <ele>1299.4000244141</ele>
        <time>2011-07-23T06:47:54.000Z</time>
      </trkpt>
      <trkpt lat="45.84375" lon="6.37698">
        <ele>1299.5999755859</ele>
        <time>2011-07-23T06:47:57.000Z</time>
      </trkpt>
      <trkpt lat="45.84376" lon="6.37699">
        <ele>1299.8000488281</ele>
        <time>2011-07-23T06:47:58.000Z</time>
      </trkpt>
      <trkpt lat="45.84381" lon="6.37708">
        <ele>1300.1999511719</ele>
        <time>2011-07-23T06:48:03.000Z</time>
      </trkpt>
      <trkpt lat="45.84386" lon="6.3772">
        <ele>1301.4000244141</ele>
        <time>2011-07-23T06:48:09.000Z</time>
      </trkpt>
      <trkpt lat="45.84382" lon="6.37736">
        <ele>1303.5999755859</ele>
        <time>2011-07-23T06:48:15.000Z</time>
      </trkpt>
      <trkpt lat="45.84377" lon="6.37745">
        <ele>1305.1999511719</ele>
        <time>2011-07-23T06:48:19.000Z</time>
      </trkpt>
      <trkpt lat="45.84374" lon="6.37748">
        <ele>1305.8000488281</ele>
        <time>2011-07-23T06:48:21.000Z</time>
      </trkpt>
      <trkpt lat="45.84366" lon="6.37758">
        <ele>1307</ele>
        <time>2011-07-23T06:48:27.000Z</time>
      </trkpt>
      <trkpt lat="45.84363" lon="6.37761">
        <ele>1307.4000244141</ele>
        <time>2011-07-23T06:48:29.000Z</time>
      </trkpt>
      <trkpt lat="45.84358" lon="6.37765">
        <ele>1307.8000488281</ele>
        <time>2011-07-23T06:48:32.000Z</time>
      </trkpt>
      <trkpt lat="45.84351" lon="6.37774">
        <ele>1308.8000488281</ele>
        <time>2011-07-23T06:48:37.000Z</time>
      </trkpt>
      <trkpt lat="45.84348" lon="6.37777">
        <ele>1309</ele>
        <time>2011-07-23T06:48:39.000Z</time>
      </trkpt>
      <trkpt lat="45.84342" lon="6.37788">
        <ele>1309.8000488281</ele>
        <time>2011-07-23T06:48:44.000Z</time>
      </trkpt>
      <trkpt lat="45.84336" lon="6.37799">
        <ele>1310.5999755859</ele>
        <time>2011-07-23T06:48:49.000Z</time>
      </trkpt>
      <trkpt lat="45.84335" lon="6.37801">
        <ele>1310.5999755859</ele>
        <time>2011-07-23T06:48:50.000Z</time>
      </trkpt>
      <trkpt lat="45.84328" lon="6.37814">
        <ele>1312</ele>
        <time>2011-07-23T06:48:56.000Z</time>
      </trkpt>
      <trkpt lat="45.84324" lon="6.3782">
        <ele>1313</ele>
        <time>2011-07-23T06:48:59.000Z</time>
      </trkpt>
      <trkpt lat="45.84319" lon="6.3783">
        <ele>1314.1999511719</ele>
        <time>2011-07-23T06:49:04.000Z</time>
      </trkpt>
      <trkpt lat="45.84314" lon="6.3784">
        <ele>1315</ele>
        <time>2011-07-23T06:49:09.000Z</time>
      </trkpt>
      <trkpt lat="45.84313" lon="6.37842">
        <ele>1315</ele>
        <time>2011-07-23T06:49:10.000Z</time>
      </trkpt>
      <trkpt lat="45.84311" lon="6.37856">
        <ele>1314.8000488281</ele>
        <time>2011-07-23T06:49:16.000Z</time>
      </trkpt>
      <trkpt lat="45.8431" lon="6.37869">
        <ele>1314.4000244141</ele>
        <time>2011-07-23T06:49:21.000Z</time>
      </trkpt>
      <trkpt lat="45.84308" lon="6.37883">
        <ele>1314.1999511719</ele>
        <time>2011-07-23T06:49:27.000Z</time>
      </trkpt>
      <trkpt lat="45.84305" lon="6.37895">
        <ele>1314.1999511719</ele>
        <time>2011-07-23T06:49:32.000Z</time>
      </trkpt>
      <trkpt lat="45.843" lon="6.37908">
        <ele>1314.4000244141</ele>
        <time>2011-07-23T06:49:38.000Z</time>
      </trkpt>
      <trkpt lat="45.84294" lon="6.37915">
        <ele>1314.5999755859</ele>
        <time>2011-07-23T06:49:42.000Z</time>
      </trkpt>
      <trkpt lat="45.84291" lon="6.37917">
        <ele>1315</ele>
        <time>2011-07-23T06:49:44.000Z</time>
      </trkpt>
      <trkpt lat="45.84283" lon="6.37914">
        <ele>1316.1999511719</ele>
        <time>2011-07-23T06:49:49.000Z</time>
      </trkpt>
      <trkpt lat="45.84277" lon="6.37907">
        <ele>1317.1999511719</ele>
        <time>2011-07-23T06:49:53.000Z</time>
      </trkpt>
      <trkpt lat="45.84273" lon="6.37903">
        <ele>1318</ele>
        <time>2011-07-23T06:49:56.000Z</time>
      </trkpt>
      <trkpt lat="45.84263" lon="6.37894">
        <ele>1319.8000488281</ele>
        <time>2011-07-23T06:50:02.000Z</time>
      </trkpt>
      <trkpt lat="45.8426" lon="6.37892">
        <ele>1320.1999511719</ele>
        <time>2011-07-23T06:50:04.000Z</time>
      </trkpt>
      <trkpt lat="45.84256" lon="6.37889">
        <ele>1321</ele>
        <time>2011-07-23T06:50:07.000Z</time>
      </trkpt>
      <trkpt lat="45.84249" lon="6.37883">
        <ele>1322.5999755859</ele>
        <time>2011-07-23T06:50:12.000Z</time>
      </trkpt>
      <trkpt lat="45.84244" lon="6.37882">
        <ele>1323.8000488281</ele>
        <time>2011-07-23T06:50:15.000Z</time>
      </trkpt>
      <trkpt lat="45.84239" lon="6.3788">
        <ele>1325</ele>
        <time>2011-07-23T06:50:18.000Z</time>
      </trkpt>
      <trkpt lat="45.84231" lon="6.37881">
        <ele>1326.5999755859</ele>
        <time>2011-07-23T06:50:23.000Z</time>
      </trkpt>
      <trkpt lat="45.84226" lon="6.37883">
        <ele>1327.5999755859</ele>
        <time>2011-07-23T06:50:26.000Z</time>
      </trkpt>
      <trkpt lat="45.8422" lon="6.37885">
        <ele>1328.5999755859</ele>
        <time>2011-07-23T06:50:29.000Z</time>
      </trkpt>
      <trkpt lat="45.84212" lon="6.37886">
        <ele>1330.4000244141</ele>
        <time>2011-07-23T06:50:34.000Z</time>
      </trkpt>
      <trkpt lat="45.84208" lon="6.37883">
        <ele>1331.5999755859</ele>
        <time>2011-07-23T06:50:37.000Z</time>
      </trkpt>
      <trkpt lat="45.84204" lon="6.3788">
        <ele>1332.5999755859</ele>
        <time>2011-07-23T06:50:40.000Z</time>
      </trkpt>
      <trkpt lat="45.84198" lon="6.37871">
        <ele>1334.4000244141</ele>
        <time>2011-07-23T06:50:45.000Z</time>
      </trkpt>
      <trkpt lat="45.84195" lon="6.37864">
        <ele>1335.4000244141</ele>
        <time>2011-07-23T06:50:49.000Z</time>
      </trkpt>
      <trkpt lat="45.84194" lon="6.37861">
        <ele>1335.5999755859</ele>
        <time>2011-07-23T06:50:50.000Z</time>
      </trkpt>
      <trkpt lat="45.8419" lon="6.37849">
        <ele>1337.1999511719</ele>
        <time>2011-07-23T06:50:56.000Z</time>
      </trkpt>
      <trkpt lat="45.84187" lon="6.3784">
        <ele>1338.4000244141</ele>
        <time>2011-07-23T06:51:00.000Z</time>
      </trkpt>
      <trkpt lat="45.84185" lon="6.37836">
        <ele>1339</ele>
        <time>2011-07-23T06:51:02.000Z</time>
      </trkpt>
      <trkpt lat="45.8418" lon="6.37825">
        <ele>1339.5999755859</ele>
        <time>2011-07-23T06:51:07.000Z</time>
      </trkpt>
      <trkpt lat="45.84176" lon="6.37816">
        <ele>1339.5999755859</ele>
        <time>2011-07-23T06:51:11.000Z</time>
      </trkpt>
      <trkpt lat="45.84173" lon="6.37809">
        <ele>1339.8000488281</ele>
        <time>2011-07-23T06:51:14.000Z</time>
      </trkpt>
      <trkpt lat="45.84168" lon="6.37796">
        <ele>1340</ele>
        <time>2011-07-23T06:51:21.000Z</time>
      </trkpt>
      <trkpt lat="45.84166" lon="6.37792">
        <ele>1340.1999511719</ele>
        <time>2011-07-23T06:51:23.000Z</time>
      </trkpt>
      <trkpt lat="45.84163" lon="6.37785">
        <ele>1340.4000244141</ele>
        <time>2011-07-23T06:51:26.000Z</time>
      </trkpt>
      <trkpt lat="45.84157" lon="6.37771">
        <ele>1341.1999511719</ele>
        <time>2011-07-23T06:51:33.000Z</time>
      </trkpt>
      <trkpt lat="45.84156" lon="6.37769">
        <ele>1341.4000244141</ele>
        <time>2011-07-23T06:51:34.000Z</time>
      </trkpt>
      <trkpt lat="45.84151" lon="6.3776">
        <ele>1342.1999511719</ele>
        <time>2011-07-23T06:51:39.000Z</time>
      </trkpt>
      <trkpt lat="45.84145" lon="6.37749">
        <ele>1343.5999755859</ele>
        <time>2011-07-23T06:51:45.000Z</time>
      </trkpt>
      <trkpt lat="45.84143" lon="6.37747">
        <ele>1343.8000488281</ele>
        <time>2011-07-23T06:51:46.000Z</time>
      </trkpt>
      <trkpt lat="45.84137" lon="6.37737">
        <ele>1345.5999755859</ele>
        <time>2011-07-23T06:51:52.000Z</time>
      </trkpt>
      <trkpt lat="45.84133" lon="6.3773">
        <ele>1346.5999755859</ele>
        <time>2011-07-23T06:51:56.000Z</time>
      </trkpt>
      <trkpt lat="45.84129" lon="6.37723">
        <ele>1347.5999755859</ele>
        <time>2011-07-23T06:51:59.000Z</time>
      </trkpt>
      <trkpt lat="45.84123" lon="6.37707">
        <ele>1349</ele>
        <time>2011-07-23T06:52:06.000Z</time>
      </trkpt>
      <trkpt lat="45.84122" lon="6.37705">
        <ele>1349.1999511719</ele>
        <time>2011-07-23T06:52:07.000Z</time>
      </trkpt>
      <trkpt lat="45.84117" lon="6.37691">
        <ele>1350.1999511719</ele>
        <time>2011-07-23T06:52:14.000Z</time>
      </trkpt>
      <trkpt lat="45.84113" lon="6.37684">
        <ele>1351.5999755859</ele>
        <time>2011-07-23T06:52:19.000Z</time>
      </trkpt>
      <trkpt lat="45.84111" lon="6.37684">
        <ele>1352</ele>
        <time>2011-07-23T06:52:20.000Z</time>
      </trkpt>
      <trkpt lat="45.84104" lon="6.37686">
        <ele>1354</ele>
        <time>2011-07-23T06:52:25.000Z</time>
      </trkpt>
      <trkpt lat="45.841" lon="6.37695">
        <ele>1355.5999755859</ele>
        <time>2011-07-23T06:52:31.000Z</time>
      </trkpt>
      <trkpt lat="45.841" lon="6.37698">
        <ele>1355.8000488281</ele>
        <time>2011-07-23T06:52:33.000Z</time>
      </trkpt>
      <trkpt lat="45.84098" lon="6.37706">
        <ele>1356.4000244141</ele>
        <time>2011-07-23T06:52:37.000Z</time>
      </trkpt>
      <trkpt lat="45.84097" lon="6.37721">
        <ele>1357</ele>
        <time>2011-07-23T06:52:45.000Z</time>
      </trkpt>
      <trkpt lat="45.84096" lon="6.37724">
        <ele>1357.4000244141</ele>
        <time>2011-07-23T06:52:47.000Z</time>
      </trkpt>
      <trkpt lat="45.84093" lon="6.37732">
        <ele>1358.5999755859</ele>
        <time>2011-07-23T06:52:53.000Z</time>
      </trkpt>
      <trkpt lat="45.84088" lon="6.37747">
        <ele>1360.4000244141</ele>
        <time>2011-07-23T06:53:02.000Z</time>
      </trkpt>
      <trkpt lat="45.84082" lon="6.37758">
        <ele>1362.8000488281</ele>
        <time>2011-07-23T06:53:10.000Z</time>
      </trkpt>
      <trkpt lat="45.84075" lon="6.37767">
        <ele>1366.4000244141</ele>
        <time>2011-07-23T06:53:18.000Z</time>
      </trkpt>
      <trkpt lat="45.84074" lon="6.37767">
        <ele>1366.8000488281</ele>
        <time>2011-07-23T06:53:19.000Z</time>
      </trkpt>
      <trkpt lat="45.84067" lon="6.37777">
        <ele>1370.5999755859</ele>
        <time>2011-07-23T06:53:28.000Z</time>
      </trkpt>
      <trkpt lat="45.84061" lon="6.37785">
        <ele>1373.8000488281</ele>
        <time>2011-07-23T06:53:35.000Z</time>
      </trkpt>
      <trkpt lat="45.84058" lon="6.37788">
        <ele>1374.8000488281</ele>
        <time>2011-07-23T06:53:37.000Z</time>
      </trkpt>
      <trkpt lat="45.84049" lon="6.37799">
        <ele>1378.8000488281</ele>
        <time>2011-07-23T06:53:46.000Z</time>
      </trkpt>
      <trkpt lat="45.84047" lon="6.37802">
        <ele>1379.5999755859</ele>
        <time>2011-07-23T06:53:49.000Z</time>
      </trkpt>
      <trkpt lat="45.84042" lon="6.37809">
        <ele>1381</ele>
        <time>2011-07-23T06:53:53.000Z</time>
      </trkpt>
      <trkpt lat="45.84035" lon="6.37821">
        <ele>1383.4000244141</ele>
        <time>2011-07-23T06:54:01.000Z</time>
      </trkpt>
      <trkpt lat="45.84034" lon="6.37822">
        <ele>1383.5999755859</ele>
        <time>2011-07-23T06:54:02.000Z</time>
      </trkpt>
      <trkpt lat="45.84026" lon="6.37833">
        <ele>1385.8000488281</ele>
        <time>2011-07-23T06:54:10.000Z</time>
      </trkpt>
      <trkpt lat="45.84019" lon="6.37837">
        <ele>1388</ele>
        <time>2011-07-23T06:54:16.000Z</time>
      </trkpt>
      <trkpt lat="45.84009" lon="6.37846">
        <ele>1391</ele>
        <time>2011-07-23T06:54:24.000Z</time>
      </trkpt>
      <trkpt lat="45.84003" lon="6.37851">
        <ele>1392.8000488281</ele>
        <time>2011-07-23T06:54:29.000Z</time>
      </trkpt>
      <trkpt lat="45.83999" lon="6.37856">
        <ele>1394</ele>
        <time>2011-07-23T06:54:32.000Z</time>
      </trkpt>
      <trkpt lat="45.83989" lon="6.37866">
        <ele>1398</ele>
        <time>2011-07-23T06:54:40.000Z</time>
      </trkpt>
      <trkpt lat="45.83988" lon="6.37867">
        <ele>1398.4000244141</ele>
        <time>2011-07-23T06:54:41.000Z</time>
      </trkpt>
      <trkpt lat="45.83981" lon="6.37877">
        <ele>1400.5999755859</ele>
        <time>2011-07-23T06:54:48.000Z</time>
      </trkpt>
      <trkpt lat="45.83976" lon="6.37886">
        <ele>1401.4000244141</ele>
        <time>2011-07-23T06:54:54.000Z</time>
      </trkpt>
      <trkpt lat="45.83974" lon="6.37889">
        <ele>1401.5999755859</ele>
        <time>2011-07-23T06:54:56.000Z</time>
      </trkpt>
      <trkpt lat="45.83969" lon="6.37899">
        <ele>1402</ele>
        <time>2011-07-23T06:55:04.000Z</time>
      </trkpt>
      <trkpt lat="45.83964" lon="6.37907">
        <ele>1401.8000488281</ele>
        <time>2011-07-23T06:55:09.000Z</time>
      </trkpt>
      <trkpt lat="45.83963" lon="6.37909">
        <ele>1401.8000488281</ele>
        <time>2011-07-23T06:55:10.000Z</time>
      </trkpt>
      <trkpt lat="45.83956" lon="6.37923">
        <ele>1402</ele>
        <time>2011-07-23T06:55:19.000Z</time>
      </trkpt>
      <trkpt lat="45.83954" lon="6.3793">
        <ele>1402</ele>
        <time>2011-07-23T06:55:23.000Z</time>
      </trkpt>
      <trkpt lat="45.83951" lon="6.37938">
        <ele>1402.5999755859</ele>
        <time>2011-07-23T06:55:28.000Z</time>
      </trkpt>
      <trkpt lat="45.83946" lon="6.37951">
        <ele>1402.5999755859</ele>
        <time>2011-07-23T06:55:35.000Z</time>
      </trkpt>
      <trkpt lat="45.83946" lon="6.37953">
        <ele>1402.5999755859</ele>
        <time>2011-07-23T06:55:36.000Z</time>
      </trkpt>
      <trkpt lat="45.83943" lon="6.37964">
        <ele>1402.5999755859</ele>
        <time>2011-07-23T06:55:42.000Z</time>
      </trkpt>
      <trkpt lat="45.83938" lon="6.37979">
        <ele>1402.4000244141</ele>
        <time>2011-07-23T06:55:50.000Z</time>
      </trkpt>
      <trkpt lat="45.83938" lon="6.3798">
        <ele>1402.4000244141</ele>
        <time>2011-07-23T06:55:51.000Z</time>
      </trkpt>
      <trkpt lat="45.83934" lon="6.37991">
        <ele>1402.5999755859</ele>
        <time>2011-07-23T06:55:58.000Z</time>
      </trkpt>
      <trkpt lat="45.83927" lon="6.38">
        <ele>1403.4000244141</ele>
        <time>2011-07-23T06:56:05.000Z</time>
      </trkpt>
      <trkpt lat="45.83919" lon="6.38011">
        <ele>1405.8000488281</ele>
        <time>2011-07-23T06:56:12.000Z</time>
      </trkpt>
      <trkpt lat="45.83913" lon="6.38019">
        <ele>1407.4000244141</ele>
        <time>2011-07-23T06:56:17.000Z</time>
      </trkpt>
      <trkpt lat="45.8391" lon="6.38022">
        <ele>1408.4000244141</ele>
        <time>2011-07-23T06:56:19.000Z</time>
      </trkpt>
      <trkpt lat="45.83901" lon="6.38028">
        <ele>1411.4000244141</ele>
        <time>2011-07-23T06:56:25.000Z</time>
      </trkpt>
      <trkpt lat="45.83896" lon="6.3803">
        <ele>1412.8000488281</ele>
        <time>2011-07-23T06:56:28.000Z</time>
      </trkpt>
      <trkpt lat="45.83891" lon="6.38028">
        <ele>1414.8000488281</ele>
        <time>2011-07-23T06:56:32.000Z</time>
      </trkpt>
      <trkpt lat="45.83884" lon="6.38022">
        <ele>1417.4000244141</ele>
        <time>2011-07-23T06:56:38.000Z</time>
      </trkpt>
      <trkpt lat="45.83881" lon="6.38017">
        <ele>1418.4000244141</ele>
        <time>2011-07-23T06:56:41.000Z</time>
      </trkpt>
      <trkpt lat="45.83877" lon="6.3801">
        <ele>1419.8000488281</ele>
        <time>2011-07-23T06:56:45.000Z</time>
      </trkpt>
      <trkpt lat="45.83872" lon="6.38001">
        <ele>1421.8000488281</ele>
        <time>2011-07-23T06:56:51.000Z</time>
      </trkpt>
      <trkpt lat="45.83869" lon="6.37998">
        <ele>1423.1999511719</ele>
        <time>2011-07-23T06:56:54.000Z</time>
      </trkpt>
      <trkpt lat="45.83864" lon="6.37996">
        <ele>1425.1999511719</ele>
        <time>2011-07-23T06:56:58.000Z</time>
      </trkpt>
      <trkpt lat="45.83857" lon="6.37998">
        <ele>1427.1999511719</ele>
        <time>2011-07-23T06:57:05.000Z</time>
      </trkpt>
      <trkpt lat="45.83852" lon="6.38004">
        <ele>1428.5999755859</ele>
        <time>2011-07-23T06:57:10.000Z</time>
      </trkpt>
      <trkpt lat="45.8385" lon="6.38007">
        <ele>1429.1999511719</ele>
        <time>2011-07-23T06:57:12.000Z</time>
      </trkpt>
      <trkpt lat="45.83842" lon="6.38016">
        <ele>1431.8000488281</ele>
        <time>2011-07-23T06:57:20.000Z</time>
      </trkpt>
      <trkpt lat="45.83838" lon="6.38021">
        <ele>1433.1999511719</ele>
        <time>2011-07-23T06:57:24.000Z</time>
      </trkpt>
      <trkpt lat="45.83834" lon="6.38025">
        <ele>1434.4000244141</ele>
        <time>2011-07-23T06:57:27.000Z</time>
      </trkpt>
      <trkpt lat="45.83829" lon="6.38035">
        <ele>1436</ele>
        <time>2011-07-23T06:57:33.000Z</time>
      </trkpt>
      <trkpt lat="45.83825" lon="6.38042">
        <ele>1437</ele>
        <time>2011-07-23T06:57:38.000Z</time>
      </trkpt>
      <trkpt lat="45.83823" lon="6.38048">
        <ele>1437.8000488281</ele>
        <time>2011-07-23T06:57:41.000Z</time>
      </trkpt>
      <trkpt lat="45.83816" lon="6.38063">
        <ele>1439.1999511719</ele>
        <time>2011-07-23T06:57:49.000Z</time>
      </trkpt>
      <trkpt lat="45.83816" lon="6.38065">
        <ele>1439.4000244141</ele>
        <time>2011-07-23T06:57:50.000Z</time>
      </trkpt>
      <trkpt lat="45.83814" lon="6.38079">
        <ele>1439.4000244141</ele>
        <time>2011-07-23T06:57:56.000Z</time>
      </trkpt>
      <trkpt lat="45.83814" lon="6.38087">
        <ele>1439</ele>
        <time>2011-07-23T06:58:00.000Z</time>
      </trkpt>
      <trkpt lat="45.83815" lon="6.38091">
        <ele>1439</ele>
        <time>2011-07-23T06:58:02.000Z</time>
      </trkpt>
      <trkpt lat="45.83816" lon="6.38099">
        <ele>1438.5999755859</ele>
        <time>2011-07-23T06:58:06.000Z</time>
      </trkpt>
      <trkpt lat="45.83815" lon="6.38105">
        <ele>1438.5999755859</ele>
        <time>2011-07-23T06:58:09.000Z</time>
      </trkpt>
      <trkpt lat="45.83811" lon="6.38116">
        <ele>1439.4000244141</ele>
        <time>2011-07-23T06:58:15.000Z</time>
      </trkpt>
      <trkpt lat="45.83806" lon="6.38122">
        <ele>1440.4000244141</ele>
        <time>2011-07-23T06:58:20.000Z</time>
      </trkpt>
      <trkpt lat="45.83805" lon="6.38122">
        <ele>1440.5999755859</ele>
        <time>2011-07-23T06:58:21.000Z</time>
      </trkpt>
      <trkpt lat="45.838" lon="6.38124">
        <ele>1442</ele>
        <time>2011-07-23T06:58:25.000Z</time>
      </trkpt>
      <trkpt lat="45.83795" lon="6.38127">
        <ele>1443</ele>
        <time>2011-07-23T06:58:28.000Z</time>
      </trkpt>
      <trkpt lat="45.83785" lon="6.38124">
        <ele>1445.5999755859</ele>
        <time>2011-07-23T06:58:36.000Z</time>
      </trkpt>
      <trkpt lat="45.83781" lon="6.38115">
        <ele>1446.8000488281</ele>
        <time>2011-07-23T06:58:41.000Z</time>
      </trkpt>
      <trkpt lat="45.83781" lon="6.38114">
        <ele>1447</ele>
        <time>2011-07-23T06:58:42.000Z</time>
      </trkpt>
      <trkpt lat="45.83775" lon="6.38105">
        <ele>1449</ele>
        <time>2011-07-23T06:58:49.000Z</time>
      </trkpt>
      <trkpt lat="45.83766" lon="6.38106">
        <ele>1451</ele>
        <time>2011-07-23T06:58:56.000Z</time>
      </trkpt>
      <trkpt lat="45.83756" lon="6.38109">
        <ele>1453.4000244141</ele>
        <time>2011-07-23T06:59:05.000Z</time>
      </trkpt>
      <trkpt lat="45.83751" lon="6.381">
        <ele>1455.4000244141</ele>
        <time>2011-07-23T06:59:12.000Z</time>
      </trkpt>
      <trkpt lat="45.83744" lon="6.38093">
        <ele>1457.1999511719</ele>
        <time>2011-07-23T06:59:19.000Z</time>
      </trkpt>
      <trkpt lat="45.83742" lon="6.38092">
        <ele>1457.8000488281</ele>
        <time>2011-07-23T06:59:21.000Z</time>
      </trkpt>
      <trkpt lat="45.83737" lon="6.38094">
        <ele>1458.4000244141</ele>
        <time>2011-07-23T06:59:25.000Z</time>
      </trkpt>
      <trkpt lat="45.83735" lon="6.38094">
        <ele>1458.8000488281</ele>
        <time>2011-07-23T06:59:27.000Z</time>
      </trkpt>
      <trkpt lat="45.83734" lon="6.38094">
        <ele>1459</ele>
        <time>2011-07-23T06:59:28.000Z</time>
      </trkpt>
      <trkpt lat="45.83728" lon="6.38098">
        <ele>1459.5999755859</ele>
        <time>2011-07-23T06:59:33.000Z</time>
      </trkpt>
      <trkpt lat="45.83719" lon="6.38105">
        <ele>1460.4000244141</ele>
        <time>2011-07-23T06:59:41.000Z</time>
      </trkpt>
      <trkpt lat="45.83717" lon="6.38106">
        <ele>1460.5999755859</ele>
        <time>2011-07-23T06:59:42.000Z</time>
      </trkpt>
      <trkpt lat="45.83707" lon="6.38113">
        <ele>1461.5999755859</ele>
        <time>2011-07-23T06:59:50.000Z</time>
      </trkpt>
      <trkpt lat="45.837" lon="6.38115">
        <ele>1462.5999755859</ele>
        <time>2011-07-23T06:59:56.000Z</time>
      </trkpt>
      <trkpt lat="45.83694" lon="6.38116">
        <ele>1463.1999511719</ele>
        <time>2011-07-23T07:00:00.000Z</time>
      </trkpt>
      <trkpt lat="45.83684" lon="6.38116">
        <ele>1465</ele>
        <time>2011-07-23T07:00:08.000Z</time>
      </trkpt>
      <trkpt lat="45.83681" lon="6.38116">
        <ele>1465.4000244141</ele>
        <time>2011-07-23T07:00:10.000Z</time>
      </trkpt>
      <trkpt lat="45.83675" lon="6.38118">
        <ele>1466.1999511719</ele>
        <time>2011-07-23T07:00:15.000Z</time>
      </trkpt>
      <trkpt lat="45.83668" lon="6.38114">
        <ele>1467.5999755859</ele>
        <time>2011-07-23T07:00:21.000Z</time>
      </trkpt>
      <trkpt lat="45.83666" lon="6.38114">
        <ele>1467.8000488281</ele>
        <time>2011-07-23T07:00:22.000Z</time>
      </trkpt>
      <trkpt lat="45.83664" lon="6.38112">
        <ele>1468.1999511719</ele>
        <time>2011-07-23T07:00:24.000Z</time>
      </trkpt>
      <trkpt lat="45.8366" lon="6.38108">
        <ele>1468.8000488281</ele>
        <time>2011-07-23T07:00:27.000Z</time>
      </trkpt>
      <trkpt lat="45.83654" lon="6.38101">
        <ele>1469.8000488281</ele>
        <time>2011-07-23T07:00:33.000Z</time>
      </trkpt>
      <trkpt lat="45.83652" lon="6.38094">
        <ele>1471</ele>
        <time>2011-07-23T07:00:37.000Z</time>
      </trkpt>
      <trkpt lat="45.83651" lon="6.38088">
        <ele>1471.8000488281</ele>
        <time>2011-07-23T07:00:40.000Z</time>
      </trkpt>
      <trkpt lat="45.8365" lon="6.38075">
        <ele>1473.8000488281</ele>
        <time>2011-07-23T07:00:47.000Z</time>
      </trkpt>
      <trkpt lat="45.83649" lon="6.38067">
        <ele>1475.1999511719</ele>
        <time>2011-07-23T07:00:51.000Z</time>
      </trkpt>
      <trkpt lat="45.83647" lon="6.38058">
        <ele>1477</ele>
        <time>2011-07-23T07:00:55.000Z</time>
      </trkpt>
      <trkpt lat="45.83641" lon="6.38048">
        <ele>1479.1999511719</ele>
        <time>2011-07-23T07:01:00.000Z</time>
      </trkpt>
      <trkpt lat="45.83639" lon="6.38046">
        <ele>1479.8000488281</ele>
        <time>2011-07-23T07:01:01.000Z</time>
      </trkpt>
      <trkpt lat="45.83633" lon="6.38038">
        <ele>1481.8000488281</ele>
        <time>2011-07-23T07:01:05.000Z</time>
      </trkpt>
      <trkpt lat="45.83626" lon="6.38027">
        <ele>1484.8000488281</ele>
        <time>2011-07-23T07:01:11.000Z</time>
      </trkpt>
      <trkpt lat="45.83618" lon="6.38016">
        <ele>1488</ele>
        <time>2011-07-23T07:01:17.000Z</time>
      </trkpt>
      <trkpt lat="45.8361" lon="6.38011">
        <ele>1490.1999511719</ele>
        <time>2011-07-23T07:01:22.000Z</time>
      </trkpt>
      <trkpt lat="45.83609" lon="6.38011">
        <ele>1490.5999755859</ele>
        <time>2011-07-23T07:01:23.000Z</time>
      </trkpt>
      <trkpt lat="45.83597" lon="6.38011">
        <ele>1492</ele>
        <time>2011-07-23T07:01:30.000Z</time>
      </trkpt>
      <trkpt lat="45.83592" lon="6.38013">
        <ele>1492.4000244141</ele>
        <time>2011-07-23T07:01:33.000Z</time>
      </trkpt>
      <trkpt lat="45.83587" lon="6.38014">
        <ele>1492.5999755859</ele>
        <time>2011-07-23T07:01:36.000Z</time>
      </trkpt>
      <trkpt lat="45.8358" lon="6.38018">
        <ele>1492.4000244141</ele>
        <time>2011-07-23T07:01:41.000Z</time>
      </trkpt>
      <trkpt lat="45.83574" lon="6.38021">
        <ele>1491.8000488281</ele>
        <time>2011-07-23T07:01:45.000Z</time>
      </trkpt>
      <trkpt lat="45.83568" lon="6.38024">
        <ele>1491.4000244141</ele>
        <time>2011-07-23T07:01:48.000Z</time>
      </trkpt>
      <trkpt lat="45.83558" lon="6.38027">
        <ele>1491.1999511719</ele>
        <time>2011-07-23T07:01:54.000Z</time>
      </trkpt>
      <trkpt lat="45.83555" lon="6.38028">
        <ele>1491.1999511719</ele>
        <time>2011-07-23T07:01:56.000Z</time>
      </trkpt>
      <trkpt lat="45.83548" lon="6.38029">
        <ele>1491.4000244141</ele>
        <time>2011-07-23T07:02:00.000Z</time>
      </trkpt>
      <trkpt lat="45.83539" lon="6.38032">
        <ele>1491</ele>
        <time>2011-07-23T07:02:06.000Z</time>
      </trkpt>
      <trkpt lat="45.83536" lon="6.38033">
        <ele>1490.5999755859</ele>
        <time>2011-07-23T07:02:08.000Z</time>
      </trkpt>
      <trkpt lat="45.83529" lon="6.38036">
        <ele>1490.1999511719</ele>
        <time>2011-07-23T07:02:12.000Z</time>
      </trkpt>
      <trkpt lat="45.83517" lon="6.38038">
        <ele>1490.4000244141</ele>
        <time>2011-07-23T07:02:19.000Z</time>
      </trkpt>
      <trkpt lat="45.83505" lon="6.38036">
        <ele>1491.4000244141</ele>
        <time>2011-07-23T07:02:25.000Z</time>
      </trkpt>
      <trkpt lat="45.83498" lon="6.38032">
        <ele>1492.4000244141</ele>
        <time>2011-07-23T07:02:29.000Z</time>
      </trkpt>
      <trkpt lat="45.83496" lon="6.38031">
        <ele>1492.5999755859</ele>
        <time>2011-07-23T07:02:30.000Z</time>
      </trkpt>
      <trkpt lat="45.83486" lon="6.38019">
        <ele>1494.5999755859</ele>
        <time>2011-07-23T07:02:37.000Z</time>
      </trkpt>
      <trkpt lat="45.83483" lon="6.38015">
        <ele>1495.5999755859</ele>
        <time>2011-07-23T07:02:39.000Z</time>
      </trkpt>
      <trkpt lat="45.83478" lon="6.38007">
        <ele>1497.1999511719</ele>
        <time>2011-07-23T07:02:43.000Z</time>
      </trkpt>
      <trkpt lat="45.83471" lon="6.37994">
        <ele>1499.1999511719</ele>
        <time>2011-07-23T07:02:49.000Z</time>
      </trkpt>
      <trkpt lat="45.8347" lon="6.37992">
        <ele>1499.5999755859</ele>
        <time>2011-07-23T07:02:50.000Z</time>
      </trkpt>
      <trkpt lat="45.83463" lon="6.37977">
        <ele>1501.4000244141</ele>
        <time>2011-07-23T07:02:57.000Z</time>
      </trkpt>
      <trkpt lat="45.83461" lon="6.37973">
        <ele>1501.8000488281</ele>
        <time>2011-07-23T07:02:59.000Z</time>
      </trkpt>
      <trkpt lat="45.83455" lon="6.37959">
        <ele>1504.1999511719</ele>
        <time>2011-07-23T07:03:05.000Z</time>
      </trkpt>
      <trkpt lat="45.83452" lon="6.37948">
        <ele>1506.1999511719</ele>
        <time>2011-07-23T07:03:10.000Z</time>
      </trkpt>
      <trkpt lat="45.83451" lon="6.37945">
        <ele>1506.8000488281</ele>
        <time>2011-07-23T07:03:11.000Z</time>
      </trkpt>
      <trkpt lat="45.83447" lon="6.37933">
        <ele>1509</ele>
        <time>2011-07-23T07:03:16.000Z</time>
      </trkpt>
      <trkpt lat="45.83443" lon="6.37926">
        <ele>1510.1999511719</ele>
        <time>2011-07-23T07:03:20.000Z</time>
      </trkpt>
      <trkpt lat="45.8344" lon="6.37924">
        <ele>1510.5999755859</ele>
        <time>2011-07-23T07:03:22.000Z</time>
      </trkpt>
      <trkpt lat="45.83431" lon="6.37919">
        <ele>1511.1999511719</ele>
        <time>2011-07-23T07:03:27.000Z</time>
      </trkpt>
      <trkpt lat="45.83425" lon="6.37917">
        <ele>1511.4000244141</ele>
        <time>2011-07-23T07:03:31.000Z</time>
      </trkpt>
      <trkpt lat="45.83423" lon="6.37916">
        <ele>1511.4000244141</ele>
        <time>2011-07-23T07:03:32.000Z</time>
      </trkpt>
      <trkpt lat="45.83414" lon="6.3791">
        <ele>1512</ele>
        <time>2011-07-23T07:03:38.000Z</time>
      </trkpt>
      <trkpt lat="45.83407" lon="6.37905">
        <ele>1512.5999755859</ele>
        <time>2011-07-23T07:03:42.000Z</time>
      </trkpt>
      <trkpt lat="45.83403" lon="6.37899">
        <ele>1513.4000244141</ele>
        <time>2011-07-23T07:03:45.000Z</time>
      </trkpt>
      <trkpt lat="45.83392" lon="6.37889">
        <ele>1515</ele>
        <time>2011-07-23T07:03:52.000Z</time>
      </trkpt>
      <trkpt lat="45.83381" lon="6.37885">
        <ele>1515.5999755859</ele>
        <time>2011-07-23T07:03:58.000Z</time>
      </trkpt>
      <trkpt lat="45.83374" lon="6.37886">
        <ele>1515.5999755859</ele>
        <time>2011-07-23T07:04:02.000Z</time>
      </trkpt>
      <trkpt lat="45.83372" lon="6.37886">
        <ele>1515.4000244141</ele>
        <time>2011-07-23T07:04:03.000Z</time>
      </trkpt>
      <trkpt lat="45.83359" lon="6.37889">
        <ele>1515</ele>
        <time>2011-07-23T07:04:10.000Z</time>
      </trkpt>
      <trkpt lat="45.83355" lon="6.37888">
        <ele>1515.1999511719</ele>
        <time>2011-07-23T07:04:12.000Z</time>
      </trkpt>
      <trkpt lat="45.83349" lon="6.37885">
        <ele>1515.5999755859</ele>
        <time>2011-07-23T07:04:15.000Z</time>
      </trkpt>
      <trkpt lat="45.83338" lon="6.37879">
        <ele>1516.8000488281</ele>
        <time>2011-07-23T07:04:20.000Z</time>
      </trkpt>
      <trkpt lat="45.83335" lon="6.37877">
        <ele>1517</ele>
        <time>2011-07-23T07:04:21.000Z</time>
      </trkpt>
      <trkpt lat="45.83324" lon="6.3787">
        <ele>1518.4000244141</ele>
        <time>2011-07-23T07:04:27.000Z</time>
      </trkpt>
      <trkpt lat="45.8332" lon="6.37869">
        <ele>1518.8000488281</ele>
        <time>2011-07-23T07:04:29.000Z</time>
      </trkpt>
      <trkpt lat="45.83314" lon="6.37866">
        <ele>1519.1999511719</ele>
        <time>2011-07-23T07:04:33.000Z</time>
      </trkpt>
      <trkpt lat="45.83304" lon="6.37862">
        <ele>1520.1999511719</ele>
        <time>2011-07-23T07:04:39.000Z</time>
      </trkpt>
      <trkpt lat="45.83303" lon="6.37861">
        <ele>1520.1999511719</ele>
        <time>2011-07-23T07:04:40.000Z</time>
      </trkpt>
      <trkpt lat="45.83297" lon="6.37857">
        <ele>1521</ele>
        <time>2011-07-23T07:04:44.000Z</time>
      </trkpt>
      <trkpt lat="45.83288" lon="6.37849">
        <ele>1522.1999511719</ele>
        <time>2011-07-23T07:04:50.000Z</time>
      </trkpt>
      <trkpt lat="45.83286" lon="6.37848">
        <ele>1522.1999511719</ele>
        <time>2011-07-23T07:04:51.000Z</time>
      </trkpt>
      <trkpt lat="45.83279" lon="6.37841">
        <ele>1523.1999511719</ele>
        <time>2011-07-23T07:04:56.000Z</time>
      </trkpt>
      <trkpt lat="45.8327" lon="6.37833">
        <ele>1524.1999511719</ele>
        <time>2011-07-23T07:05:02.000Z</time>
      </trkpt>
      <trkpt lat="45.8326" lon="6.37826">
        <ele>1527.1999511719</ele>
        <time>2011-07-23T07:05:08.000Z</time>
      </trkpt>
      <trkpt lat="45.83253" lon="6.37821">
        <ele>1529.5999755859</ele>
        <time>2011-07-23T07:05:12.000Z</time>
      </trkpt>
      <trkpt lat="45.83248" lon="6.37817">
        <ele>1531.4000244141</ele>
        <time>2011-07-23T07:05:15.000Z</time>
      </trkpt>
      <trkpt lat="45.83239" lon="6.37811">
        <ele>1534.1999511719</ele>
        <time>2011-07-23T07:05:20.000Z</time>
      </trkpt>
      <trkpt lat="45.83236" lon="6.37809">
        <ele>1535.1999511719</ele>
        <time>2011-07-23T07:05:22.000Z</time>
      </trkpt>
      <trkpt lat="45.8323" lon="6.37806">
        <ele>1536.4000244141</ele>
        <time>2011-07-23T07:05:25.000Z</time>
      </trkpt>
      <trkpt lat="45.8322" lon="6.37807">
        <ele>1536.4000244141</ele>
        <time>2011-07-23T07:05:31.000Z</time>
      </trkpt>
      <trkpt lat="45.83217" lon="6.37808">
        <ele>1536</ele>
        <time>2011-07-23T07:05:33.000Z</time>
      </trkpt>
      <trkpt lat="45.83214" lon="6.37809">
        <ele>1535.8000488281</ele>
        <time>2011-07-23T07:05:35.000Z</time>
      </trkpt>
      <trkpt lat="45.83212" lon="6.3781">
        <ele>1535.4000244141</ele>
        <time>2011-07-23T07:05:37.000Z</time>
      </trkpt>
      <trkpt lat="45.83205" lon="6.37815">
        <ele>1534.1999511719</ele>
        <time>2011-07-23T07:05:43.000Z</time>
      </trkpt>
      <trkpt lat="45.83204" lon="6.37815">
        <ele>1534</ele>
        <time>2011-07-23T07:05:44.000Z</time>
      </trkpt>
      <trkpt lat="45.832" lon="6.37818">
        <ele>1533.1999511719</ele>
        <time>2011-07-23T07:05:47.000Z</time>
      </trkpt>
      <trkpt lat="45.83193" lon="6.37817">
        <ele>1533.8000488281</ele>
        <time>2011-07-23T07:05:52.000Z</time>
      </trkpt>
      <trkpt lat="45.83183" lon="6.3781">
        <ele>1536.4000244141</ele>
        <time>2011-07-23T07:06:00.000Z</time>
      </trkpt>
      <trkpt lat="45.8318" lon="6.37809">
        <ele>1536.8000488281</ele>
        <time>2011-07-23T07:06:02.000Z</time>
      </trkpt>
      <trkpt lat="45.83178" lon="6.37808">
        <ele>1537.4000244141</ele>
        <time>2011-07-23T07:06:09.000Z</time>
      </trkpt>
      <trkpt lat="45.83183" lon="6.37811">
        <ele>1536.1999511719</ele>
        <time>2011-07-23T07:06:29.000Z</time>
      </trkpt>
      <trkpt lat="45.8319" lon="6.37815">
        <ele>1534.8000488281</ele>
        <time>2011-07-23T07:06:33.000Z</time>
      </trkpt>
      <trkpt lat="45.83194" lon="6.37816">
        <ele>1534.1999511719</ele>
        <time>2011-07-23T07:06:35.000Z</time>
      </trkpt>
      <trkpt lat="45.83207" lon="6.37815">
        <ele>1533.8000488281</ele>
        <time>2011-07-23T07:06:43.000Z</time>
      </trkpt>
      <trkpt lat="45.83208" lon="6.37815">
        <ele>1533.8000488281</ele>
        <time>2011-07-23T07:06:48.000Z</time>
      </trkpt>
      <trkpt lat="45.83208" lon="6.37815">
        <ele>1534</ele>
        <time>2011-07-23T07:06:49.000Z</time>
      </trkpt>
      <trkpt lat="45.83208" lon="6.37817">
        <ele>1533.4000244141</ele>
        <time>2011-07-23T07:06:56.000Z</time>
      </trkpt>
      <trkpt lat="45.83207" lon="6.37816">
        <ele>1533.5999755859</ele>
        <time>2011-07-23T07:07:01.000Z</time>
      </trkpt>
      <trkpt lat="45.83207" lon="6.37813">
        <ele>1534.5999755859</ele>
        <time>2011-07-23T07:07:12.000Z</time>
      </trkpt>
      <trkpt lat="45.83204" lon="6.37815">
        <ele>1534.1999511719</ele>
        <time>2011-07-23T07:07:43.000Z</time>
      </trkpt>
      <trkpt lat="45.83195" lon="6.37817">
        <ele>1534</ele>
        <time>2011-07-23T07:07:50.000Z</time>
      </trkpt>
      <trkpt lat="45.83194" lon="6.37816">
        <ele>1534</ele>
        <time>2011-07-23T07:07:51.000Z</time>
      </trkpt>
      <trkpt lat="45.83185" lon="6.37813">
        <ele>1535.5999755859</ele>
        <time>2011-07-23T07:07:57.000Z</time>
      </trkpt>
      <trkpt lat="45.83178" lon="6.37809">
        <ele>1537</ele>
        <time>2011-07-23T07:08:02.000Z</time>
      </trkpt>
      <trkpt lat="45.83174" lon="6.37807">
        <ele>1537.8000488281</ele>
        <time>2011-07-23T07:08:05.000Z</time>
      </trkpt>
      <trkpt lat="45.83165" lon="6.37799">
        <ele>1540</ele>
        <time>2011-07-23T07:08:11.000Z</time>
      </trkpt>
      <trkpt lat="45.83162" lon="6.37795">
        <ele>1541.1999511719</ele>
        <time>2011-07-23T07:08:14.000Z</time>
      </trkpt>
      <trkpt lat="45.83158" lon="6.37789">
        <ele>1542.5999755859</ele>
        <time>2011-07-23T07:08:17.000Z</time>
      </trkpt>
      <trkpt lat="45.83149" lon="6.37776">
        <ele>1545.8000488281</ele>
        <time>2011-07-23T07:08:24.000Z</time>
      </trkpt>
      <trkpt lat="45.83148" lon="6.37775">
        <ele>1546.1999511719</ele>
        <time>2011-07-23T07:08:25.000Z</time>
      </trkpt>
      <trkpt lat="45.83139" lon="6.37772">
        <ele>1546.8000488281</ele>
        <time>2011-07-23T07:08:30.000Z</time>
      </trkpt>
      <trkpt lat="45.8313" lon="6.37773">
        <ele>1546.4000244141</ele>
        <time>2011-07-23T07:08:35.000Z</time>
      </trkpt>
      <trkpt lat="45.83119" lon="6.37774">
        <ele>1546</ele>
        <time>2011-07-23T07:08:40.000Z</time>
      </trkpt>
      <trkpt lat="45.83111" lon="6.37768">
        <ele>1547.1999511719</ele>
        <time>2011-07-23T07:08:44.000Z</time>
      </trkpt>
      <trkpt lat="45.83109" lon="6.37765">
        <ele>1547.8000488281</ele>
        <time>2011-07-23T07:08:45.000Z</time>
      </trkpt>
      <trkpt lat="45.83104" lon="6.37749">
        <ele>1551</ele>
        <time>2011-07-23T07:08:50.000Z</time>
      </trkpt>
      <trkpt lat="45.83102" lon="6.37743">
        <ele>1552</ele>
        <time>2011-07-23T07:08:52.000Z</time>
      </trkpt>
      <trkpt lat="45.83097" lon="6.37736">
        <ele>1553.1999511719</ele>
        <time>2011-07-23T07:08:55.000Z</time>
      </trkpt>
      <trkpt lat="45.83089" lon="6.37728">
        <ele>1554.1999511719</ele>
        <time>2011-07-23T07:09:00.000Z</time>
      </trkpt>
      <trkpt lat="45.83087" lon="6.37727">
        <ele>1554.4000244141</ele>
        <time>2011-07-23T07:09:02.000Z</time>
      </trkpt>
      <trkpt lat="45.83084" lon="6.37724">
        <ele>1554.8000488281</ele>
        <time>2011-07-23T07:09:06.000Z</time>
      </trkpt>
      <trkpt lat="45.83085" lon="6.37722">
        <ele>1555.4000244141</ele>
        <time>2011-07-23T07:09:11.000Z</time>
      </trkpt>
      <trkpt lat="45.83082" lon="6.37721">
        <ele>1555.4000244141</ele>
        <time>2011-07-23T07:09:16.000Z</time>
      </trkpt>
      <trkpt lat="45.83077" lon="6.37717">
        <ele>1556</ele>
        <time>2011-07-23T07:09:22.000Z</time>
      </trkpt>
      <trkpt lat="45.83072" lon="6.37714">
        <ele>1556.5999755859</ele>
        <time>2011-07-23T07:09:28.000Z</time>
      </trkpt>
      <trkpt lat="45.8307" lon="6.37713">
        <ele>1556.5999755859</ele>
        <time>2011-07-23T07:09:30.000Z</time>
      </trkpt>
      <trkpt lat="45.83063" lon="6.37706">
        <ele>1557.8000488281</ele>
        <time>2011-07-23T07:09:35.000Z</time>
      </trkpt>
      <trkpt lat="45.83056" lon="6.377">
        <ele>1558.5999755859</ele>
        <time>2011-07-23T07:09:39.000Z</time>
      </trkpt>
      <trkpt lat="45.83052" lon="6.37696">
        <ele>1559.1999511719</ele>
        <time>2011-07-23T07:09:41.000Z</time>
      </trkpt>
      <trkpt lat="45.8304" lon="6.37686">
        <ele>1560.1999511719</ele>
        <time>2011-07-23T07:09:47.000Z</time>
      </trkpt>
      <trkpt lat="45.8303" lon="6.3768">
        <ele>1560.8000488281</ele>
        <time>2011-07-23T07:09:51.000Z</time>
      </trkpt>
      <trkpt lat="45.8303" lon="6.37679">
        <ele>1561</ele>
        <time>2011-07-23T07:09:54.000Z</time>
      </trkpt>
      <trkpt lat="45.83023" lon="6.37682">
        <ele>1560</ele>
        <time>2011-07-23T07:10:40.000Z</time>
      </trkpt>
      <trkpt lat="45.83012" lon="6.3768">
        <ele>1560</ele>
        <time>2011-07-23T07:10:45.000Z</time>
      </trkpt>
      <trkpt lat="45.83007" lon="6.3768">
        <ele>1559.5999755859</ele>
        <time>2011-07-23T07:10:48.000Z</time>
      </trkpt>
      <trkpt lat="45.83005" lon="6.37682">
        <ele>1559.4000244141</ele>
        <time>2011-07-23T07:10:49.000Z</time>
      </trkpt>
      <trkpt lat="45.83004" lon="6.37684">
        <ele>1559</ele>
        <time>2011-07-23T07:10:50.000Z</time>
      </trkpt>
      <trkpt lat="45.83002" lon="6.37695">
        <ele>1557.5999755859</ele>
        <time>2011-07-23T07:10:54.000Z</time>
      </trkpt>
      <trkpt lat="45.83002" lon="6.37697">
        <ele>1557.1999511719</ele>
        <time>2011-07-23T07:10:55.000Z</time>
      </trkpt>
      <trkpt lat="45.83002" lon="6.37708">
        <ele>1556</ele>
        <time>2011-07-23T07:10:59.000Z</time>
      </trkpt>
      <trkpt lat="45.82998" lon="6.37715">
        <ele>1555.5999755859</ele>
        <time>2011-07-23T07:11:02.000Z</time>
      </trkpt>
      <trkpt lat="45.82988" lon="6.37725">
        <ele>1556.4000244141</ele>
        <time>2011-07-23T07:11:08.000Z</time>
      </trkpt>
      <trkpt lat="45.82986" lon="6.37727">
        <ele>1556.5999755859</ele>
        <time>2011-07-23T07:11:09.000Z</time>
      </trkpt>
      <trkpt lat="45.82977" lon="6.37732">
        <ele>1558</ele>
        <time>2011-07-23T07:11:14.000Z</time>
      </trkpt>
      <trkpt lat="45.82971" lon="6.37731">
        <ele>1559.4000244141</ele>
        <time>2011-07-23T07:11:17.000Z</time>
      </trkpt>
      <trkpt lat="45.82966" lon="6.37728">
        <ele>1560.5999755859</ele>
        <time>2011-07-23T07:11:20.000Z</time>
      </trkpt>
      <trkpt lat="45.82957" lon="6.37727">
        <ele>1562.5999755859</ele>
        <time>2011-07-23T07:11:25.000Z</time>
      </trkpt>
      <trkpt lat="45.82953" lon="6.37728">
        <ele>1563.5999755859</ele>
        <time>2011-07-23T07:11:28.000Z</time>
      </trkpt>
      <trkpt lat="45.82948" lon="6.3773">
        <ele>1564.5999755859</ele>
        <time>2011-07-23T07:11:31.000Z</time>
      </trkpt>
      <trkpt lat="45.82944" lon="6.3773">
        <ele>1565.1999511719</ele>
        <time>2011-07-23T07:11:33.000Z</time>
      </trkpt>
      <trkpt lat="45.82941" lon="6.37732">
        <ele>1565.8000488281</ele>
        <time>2011-07-23T07:11:35.000Z</time>
      </trkpt>
      <trkpt lat="45.82936" lon="6.37737">
        <ele>1566.4000244141</ele>
        <time>2011-07-23T07:11:38.000Z</time>
      </trkpt>
      <trkpt lat="45.82933" lon="6.37741">
        <ele>1566.8000488281</ele>
        <time>2011-07-23T07:11:41.000Z</time>
      </trkpt>
      <trkpt lat="45.82927" lon="6.37746">
        <ele>1567.8000488281</ele>
        <time>2011-07-23T07:11:45.000Z</time>
      </trkpt>
      <trkpt lat="45.82926" lon="6.37746">
        <ele>1568.1999511719</ele>
        <time>2011-07-23T07:11:46.000Z</time>
      </trkpt>
      <trkpt lat="45.82921" lon="6.37742">
        <ele>1569.4000244141</ele>
        <time>2011-07-23T07:11:50.000Z</time>
      </trkpt>
      <trkpt lat="45.82921" lon="6.3774">
        <ele>1569.5999755859</ele>
        <time>2011-07-23T07:11:51.000Z</time>
      </trkpt>
      <trkpt lat="45.82923" lon="6.37731">
        <ele>1569.8000488281</ele>
        <time>2011-07-23T07:11:56.000Z</time>
      </trkpt>
      <trkpt lat="45.82923" lon="6.37729">
        <ele>1569.8000488281</ele>
        <time>2011-07-23T07:11:57.000Z</time>
      </trkpt>
      <trkpt lat="45.82925" lon="6.37718">
        <ele>1570.1999511719</ele>
        <time>2011-07-23T07:12:03.000Z</time>
      </trkpt>
      <trkpt lat="45.82925" lon="6.37715">
        <ele>1570.4000244141</ele>
        <time>2011-07-23T07:12:04.000Z</time>
      </trkpt>
      <trkpt lat="45.82925" lon="6.37705">
        <ele>1571</ele>
        <time>2011-07-23T07:12:09.000Z</time>
      </trkpt>
      <trkpt lat="45.82924" lon="6.37701">
        <ele>1571.4000244141</ele>
        <time>2011-07-23T07:12:11.000Z</time>
      </trkpt>
      <trkpt lat="45.82922" lon="6.37691">
        <ele>1572.4000244141</ele>
        <time>2011-07-23T07:12:18.000Z</time>
      </trkpt>
      <trkpt lat="45.82922" lon="6.37689">
        <ele>1572.5999755859</ele>
        <time>2011-07-23T07:12:19.000Z</time>
      </trkpt>
      <trkpt lat="45.82916" lon="6.3768">
        <ele>1574.1999511719</ele>
        <time>2011-07-23T07:12:26.000Z</time>
      </trkpt>
      <trkpt lat="45.82908" lon="6.37676">
        <ele>1576.4000244141</ele>
        <time>2011-07-23T07:12:33.000Z</time>
      </trkpt>
      <trkpt lat="45.82907" lon="6.37677">
        <ele>1576.5999755859</ele>
        <time>2011-07-23T07:12:34.000Z</time>
      </trkpt>
      <trkpt lat="45.829" lon="6.37676">
        <ele>1578.4000244141</ele>
        <time>2011-07-23T07:12:39.000Z</time>
      </trkpt>
      <trkpt lat="45.82898" lon="6.37676">
        <ele>1578.8000488281</ele>
        <time>2011-07-23T07:12:40.000Z</time>
      </trkpt>
      <trkpt lat="45.82889" lon="6.37676">
        <ele>1581</ele>
        <time>2011-07-23T07:12:46.000Z</time>
      </trkpt>
      <trkpt lat="45.82885" lon="6.37682">
        <ele>1582</ele>
        <time>2011-07-23T07:12:51.000Z</time>
      </trkpt>
      <trkpt lat="45.82884" lon="6.37685">
        <ele>1582.1999511719</ele>
        <time>2011-07-23T07:12:53.000Z</time>
      </trkpt>
      <trkpt lat="45.82884" lon="6.37686">
        <ele>1582.1999511719</ele>
        <time>2011-07-23T07:12:54.000Z</time>
      </trkpt>
      <trkpt lat="45.82883" lon="6.37689">
        <ele>1582.1999511719</ele>
        <time>2011-07-23T07:12:56.000Z</time>
      </trkpt>
      <trkpt lat="45.82881" lon="6.37699">
        <ele>1582.8000488281</ele>
        <time>2011-07-23T07:13:01.000Z</time>
      </trkpt>
      <trkpt lat="45.8288" lon="6.37703">
        <ele>1583</ele>
        <time>2011-07-23T07:13:03.000Z</time>
      </trkpt>
      <trkpt lat="45.82876" lon="6.37716">
        <ele>1584.1999511719</ele>
        <time>2011-07-23T07:13:10.000Z</time>
      </trkpt>
      <trkpt lat="45.82871" lon="6.3772">
        <ele>1585.5999755859</ele>
        <time>2011-07-23T07:13:14.000Z</time>
      </trkpt>
      <trkpt lat="45.82868" lon="6.37721">
        <ele>1586.5999755859</ele>
        <time>2011-07-23T07:13:16.000Z</time>
      </trkpt>
      <trkpt lat="45.82853" lon="6.37719">
        <ele>1591</ele>
        <time>2011-07-23T07:13:26.000Z</time>
      </trkpt>
      <trkpt lat="45.82852" lon="6.37719">
        <ele>1591.4000244141</ele>
        <time>2011-07-23T07:13:27.000Z</time>
      </trkpt>
      <trkpt lat="45.8284" lon="6.3772">
        <ele>1595</ele>
        <time>2011-07-23T07:13:36.000Z</time>
      </trkpt>
      <trkpt lat="45.82833" lon="6.37721">
        <ele>1597.1999511719</ele>
        <time>2011-07-23T07:13:41.000Z</time>
      </trkpt>
      <trkpt lat="45.82826" lon="6.37719">
        <ele>1598.1999511719</ele>
        <time>2011-07-23T07:13:46.000Z</time>
      </trkpt>
      <trkpt lat="45.82815" lon="6.37715">
        <ele>1599.8000488281</ele>
        <time>2011-07-23T07:13:54.000Z</time>
      </trkpt>
      <trkpt lat="45.82809" lon="6.37701">
        <ele>1599.8000488281</ele>
        <time>2011-07-23T07:14:01.000Z</time>
      </trkpt>
      <trkpt lat="45.82805" lon="6.37692">
        <ele>1599.8000488281</ele>
        <time>2011-07-23T07:14:06.000Z</time>
      </trkpt>
      <trkpt lat="45.82804" lon="6.37691">
        <ele>1600</ele>
        <time>2011-07-23T07:14:07.000Z</time>
      </trkpt>
      <trkpt lat="45.82797" lon="6.3769">
        <ele>1601</ele>
        <time>2011-07-23T07:14:13.000Z</time>
      </trkpt>
      <trkpt lat="45.82789" lon="6.37697">
        <ele>1602.8000488281</ele>
        <time>2011-07-23T07:14:20.000Z</time>
      </trkpt>
      <trkpt lat="45.82789" lon="6.37699">
        <ele>1603</ele>
        <time>2011-07-23T07:14:21.000Z</time>
      </trkpt>
      <trkpt lat="45.82786" lon="6.37704">
        <ele>1604</ele>
        <time>2011-07-23T07:14:24.000Z</time>
      </trkpt>
      <trkpt lat="45.82777" lon="6.37709">
        <ele>1605.8000488281</ele>
        <time>2011-07-23T07:14:31.000Z</time>
      </trkpt>
      <trkpt lat="45.82773" lon="6.37709">
        <ele>1606.5999755859</ele>
        <time>2011-07-23T07:14:34.000Z</time>
      </trkpt>
      <trkpt lat="45.82765" lon="6.37708">
        <ele>1607.8000488281</ele>
        <time>2011-07-23T07:14:40.000Z</time>
      </trkpt>
      <trkpt lat="45.82757" lon="6.3771">
        <ele>1609.4000244141</ele>
        <time>2011-07-23T07:14:46.000Z</time>
      </trkpt>
      <trkpt lat="45.82757" lon="6.37711">
        <ele>1609.5999755859</ele>
        <time>2011-07-23T07:14:47.000Z</time>
      </trkpt>
      <trkpt lat="45.82756" lon="6.37713">
        <ele>1610</ele>
        <time>2011-07-23T07:14:48.000Z</time>
      </trkpt>
      <trkpt lat="45.82757" lon="6.3772">
        <ele>1610.4000244141</ele>
        <time>2011-07-23T07:14:52.000Z</time>
      </trkpt>
      <trkpt lat="45.82759" lon="6.37725">
        <ele>1610.5999755859</ele>
        <time>2011-07-23T07:14:55.000Z</time>
      </trkpt>
      <trkpt lat="45.8276" lon="6.37733">
        <ele>1611.1999511719</ele>
        <time>2011-07-23T07:14:59.000Z</time>
      </trkpt>
      <trkpt lat="45.8276" lon="6.37735">
        <ele>1611.4000244141</ele>
        <time>2011-07-23T07:15:00.000Z</time>
      </trkpt>
      <trkpt lat="45.82757" lon="6.37737">
        <ele>1612</ele>
        <time>2011-07-23T07:15:02.000Z</time>
      </trkpt>
      <trkpt lat="45.82755" lon="6.37737">
        <ele>1612.5999755859</ele>
        <time>2011-07-23T07:15:04.000Z</time>
      </trkpt>
      <trkpt lat="45.82752" lon="6.37735">
        <ele>1612.8000488281</ele>
        <time>2011-07-23T07:15:06.000Z</time>
      </trkpt>
      <trkpt lat="45.82746" lon="6.37731">
        <ele>1613.5999755859</ele>
        <time>2011-07-23T07:15:11.000Z</time>
      </trkpt>
      <trkpt lat="45.82741" lon="6.37729">
        <ele>1614.1999511719</ele>
        <time>2011-07-23T07:15:15.000Z</time>
      </trkpt>
      <trkpt lat="45.82738" lon="6.37729">
        <ele>1614.8000488281</ele>
        <time>2011-07-23T07:15:17.000Z</time>
      </trkpt>
      <trkpt lat="45.82738" lon="6.3773">
        <ele>1615</ele>
        <time>2011-07-23T07:15:18.000Z</time>
      </trkpt>
      <trkpt lat="45.82736" lon="6.37736">
        <ele>1616</ele>
        <time>2011-07-23T07:15:22.000Z</time>
      </trkpt>
      <trkpt lat="45.82739" lon="6.37748">
        <ele>1616.8000488281</ele>
        <time>2011-07-23T07:15:29.000Z</time>
      </trkpt>
      <trkpt lat="45.82739" lon="6.3775">
        <ele>1617.1999511719</ele>
        <time>2011-07-23T07:15:30.000Z</time>
      </trkpt>
      <trkpt lat="45.82734" lon="6.37754">
        <ele>1618.5999755859</ele>
        <time>2011-07-23T07:15:34.000Z</time>
      </trkpt>
      <trkpt lat="45.8273" lon="6.37751">
        <ele>1618.8000488281</ele>
        <time>2011-07-23T07:15:37.000Z</time>
      </trkpt>
      <trkpt lat="45.82726" lon="6.37747">
        <ele>1619.1999511719</ele>
        <time>2011-07-23T07:15:41.000Z</time>
      </trkpt>
      <trkpt lat="45.82723" lon="6.37749">
        <ele>1620</ele>
        <time>2011-07-23T07:15:45.000Z</time>
      </trkpt>
      <trkpt lat="45.82723" lon="6.3775">
        <ele>1620.1999511719</ele>
        <time>2011-07-23T07:15:46.000Z</time>
      </trkpt>
      <trkpt lat="45.82722" lon="6.37752">
        <ele>1620.5999755859</ele>
        <time>2011-07-23T07:15:47.000Z</time>
      </trkpt>
      <trkpt lat="45.82722" lon="6.37758">
        <ele>1621.8000488281</ele>
        <time>2011-07-23T07:15:50.000Z</time>
      </trkpt>
      <trkpt lat="45.82721" lon="6.37764">
        <ele>1623.1999511719</ele>
        <time>2011-07-23T07:15:53.000Z</time>
      </trkpt>
      <trkpt lat="45.82719" lon="6.37768">
        <ele>1624.1999511719</ele>
        <time>2011-07-23T07:15:55.000Z</time>
      </trkpt>
      <trkpt lat="45.82714" lon="6.37771">
        <ele>1625.8000488281</ele>
        <time>2011-07-23T07:15:59.000Z</time>
      </trkpt>
      <trkpt lat="45.82713" lon="6.37771">
        <ele>1626</ele>
        <time>2011-07-23T07:16:00.000Z</time>
      </trkpt>
      <trkpt lat="45.82711" lon="6.37771">
        <ele>1626.4000244141</ele>
        <time>2011-07-23T07:16:02.000Z</time>
      </trkpt>
      <trkpt lat="45.82701" lon="6.3777">
        <ele>1628.1999511719</ele>
        <time>2011-07-23T07:16:10.000Z</time>
      </trkpt>
      <trkpt lat="45.82696" lon="6.37768">
        <ele>1628.8000488281</ele>
        <time>2011-07-23T07:16:14.000Z</time>
      </trkpt>
      <trkpt lat="45.82689" lon="6.37767">
        <ele>1630</ele>
        <time>2011-07-23T07:16:20.000Z</time>
      </trkpt>
      <trkpt lat="45.8268" lon="6.37766">
        <ele>1631.5999755859</ele>
        <time>2011-07-23T07:16:27.000Z</time>
      </trkpt>
      <trkpt lat="45.82678" lon="6.37765">
        <ele>1632</ele>
        <time>2011-07-23T07:16:29.000Z</time>
      </trkpt>
      <trkpt lat="45.82672" lon="6.37761">
        <ele>1632.1999511719</ele>
        <time>2011-07-23T07:16:35.000Z</time>
      </trkpt>
      <trkpt lat="45.82664" lon="6.37754">
        <ele>1632</ele>
        <time>2011-07-23T07:16:42.000Z</time>
      </trkpt>
      <trkpt lat="45.82662" lon="6.37752">
        <ele>1631.8000488281</ele>
        <time>2011-07-23T07:16:44.000Z</time>
      </trkpt>
      <trkpt lat="45.82655" lon="6.37747">
        <ele>1631.1999511719</ele>
        <time>2011-07-23T07:16:50.000Z</time>
      </trkpt>
      <trkpt lat="45.82645" lon="6.37747">
        <ele>1632</ele>
        <time>2011-07-23T07:16:57.000Z</time>
      </trkpt>
      <trkpt lat="45.82644" lon="6.37748">
        <ele>1632.1999511719</ele>
        <time>2011-07-23T07:16:58.000Z</time>
      </trkpt>
      <trkpt lat="45.82637" lon="6.37756">
        <ele>1634.4000244141</ele>
        <time>2011-07-23T07:17:04.000Z</time>
      </trkpt>
      <trkpt lat="45.82632" lon="6.37766">
        <ele>1637.4000244141</ele>
        <time>2011-07-23T07:17:09.000Z</time>
      </trkpt>
      <trkpt lat="45.82631" lon="6.37768">
        <ele>1638.1999511719</ele>
        <time>2011-07-23T07:17:10.000Z</time>
      </trkpt>
      <trkpt lat="45.82628" lon="6.37776">
        <ele>1640.5999755859</ele>
        <time>2011-07-23T07:17:14.000Z</time>
      </trkpt>
      <trkpt lat="45.8262" lon="6.37789">
        <ele>1644.8000488281</ele>
        <time>2011-07-23T07:17:22.000Z</time>
      </trkpt>
      <trkpt lat="45.82609" lon="6.37794">
        <ele>1647.4000244141</ele>
        <time>2011-07-23T07:17:29.000Z</time>
      </trkpt>
      <trkpt lat="45.82602" lon="6.37795">
        <ele>1648.5999755859</ele>
        <time>2011-07-23T07:17:33.000Z</time>
      </trkpt>
      <trkpt lat="45.82597" lon="6.37797">
        <ele>1649.8000488281</ele>
        <time>2011-07-23T07:17:36.000Z</time>
      </trkpt>
      <trkpt lat="45.8259" lon="6.37804">
        <ele>1653</ele>
        <time>2011-07-23T07:17:42.000Z</time>
      </trkpt>
      <trkpt lat="45.82588" lon="6.37808">
        <ele>1654.4000244141</ele>
        <time>2011-07-23T07:17:44.000Z</time>
      </trkpt>
      <trkpt lat="45.82582" lon="6.37817">
        <ele>1657.8000488281</ele>
        <time>2011-07-23T07:17:49.000Z</time>
      </trkpt>
      <trkpt lat="45.82574" lon="6.37827">
        <ele>1658.5999755859</ele>
        <time>2011-07-23T07:17:56.000Z</time>
      </trkpt>
      <trkpt lat="45.82567" lon="6.37837">
        <ele>1659.5999755859</ele>
        <time>2011-07-23T07:18:02.000Z</time>
      </trkpt>
      <trkpt lat="45.82564" lon="6.37845">
        <ele>1660</ele>
        <time>2011-07-23T07:18:06.000Z</time>
      </trkpt>
      <trkpt lat="45.82563" lon="6.37848">
        <ele>1660.4000244141</ele>
        <time>2011-07-23T07:18:08.000Z</time>
      </trkpt>
      <trkpt lat="45.82563" lon="6.37849">
        <ele>1660.4000244141</ele>
        <time>2011-07-23T07:18:09.000Z</time>
      </trkpt>
      <trkpt lat="45.82563" lon="6.3785">
        <ele>1660.5999755859</ele>
        <time>2011-07-23T07:18:10.000Z</time>
      </trkpt>
      <trkpt lat="45.82562" lon="6.37854">
        <ele>1661</ele>
        <time>2011-07-23T07:18:13.000Z</time>
      </trkpt>
      <trkpt lat="45.8256" lon="6.37863">
        <ele>1662.1999511719</ele>
        <time>2011-07-23T07:18:19.000Z</time>
      </trkpt>
      <trkpt lat="45.8256" lon="6.37864">
        <ele>1662.1999511719</ele>
        <time>2011-07-23T07:18:20.000Z</time>
      </trkpt>
      <trkpt lat="45.82557" lon="6.37873">
        <ele>1662.8000488281</ele>
        <time>2011-07-23T07:18:26.000Z</time>
      </trkpt>
      <trkpt lat="45.82556" lon="6.37873">
        <ele>1662.8000488281</ele>
        <time>2011-07-23T07:18:27.000Z</time>
      </trkpt>
      <trkpt lat="45.82554" lon="6.37874">
        <ele>1662.5999755859</ele>
        <time>2011-07-23T07:18:30.000Z</time>
      </trkpt>
      <trkpt lat="45.82553" lon="6.37871">
        <ele>1661.8000488281</ele>
        <time>2011-07-23T07:18:40.000Z</time>
      </trkpt>
      <trkpt lat="45.82552" lon="6.37869">
        <ele>1661.4000244141</ele>
        <time>2011-07-23T07:18:49.000Z</time>
      </trkpt>
      <trkpt lat="45.82554" lon="6.37872">
        <ele>1662.1999511719</ele>
        <time>2011-07-23T07:19:49.000Z</time>
      </trkpt>
      <trkpt lat="45.82554" lon="6.37874">
        <ele>1662.4000244141</ele>
        <time>2011-07-23T07:20:06.000Z</time>
      </trkpt>
      <trkpt lat="45.82554" lon="6.37875">
        <ele>1662.5999755859</ele>
        <time>2011-07-23T07:20:18.000Z</time>
      </trkpt>
      <trkpt lat="45.82549" lon="6.37873">
        <ele>1661.4000244141</ele>
        <time>2011-07-23T07:21:06.000Z</time>
      </trkpt>
      <trkpt lat="45.82548" lon="6.37874">
        <ele>1661.1999511719</ele>
        <time>2011-07-23T07:21:26.000Z</time>
      </trkpt>
      <trkpt lat="45.82544" lon="6.37875">
        <ele>1660.5999755859</ele>
        <time>2011-07-23T07:21:29.000Z</time>
      </trkpt>
      <trkpt lat="45.82535" lon="6.37875">
        <ele>1658.8000488281</ele>
        <time>2011-07-23T07:21:34.000Z</time>
      </trkpt>
      <trkpt lat="45.82531" lon="6.37875">
        <ele>1657.8000488281</ele>
        <time>2011-07-23T07:21:38.000Z</time>
      </trkpt>
      <trkpt lat="45.82521" lon="6.3787">
        <ele>1654.8000488281</ele>
        <time>2011-07-23T07:21:43.000Z</time>
      </trkpt>
      <trkpt lat="45.82513" lon="6.37866">
        <ele>1652.4000244141</ele>
        <time>2011-07-23T07:21:47.000Z</time>
      </trkpt>
      <trkpt lat="45.82509" lon="6.37864">
        <ele>1651.1999511719</ele>
        <time>2011-07-23T07:21:49.000Z</time>
      </trkpt>
      <trkpt lat="45.82499" lon="6.37863">
        <ele>1648.5999755859</ele>
        <time>2011-07-23T07:21:55.000Z</time>
      </trkpt>
      <trkpt lat="45.82495" lon="6.37865">
        <ele>1648</ele>
        <time>2011-07-23T07:21:58.000Z</time>
      </trkpt>
      <trkpt lat="45.82493" lon="6.37866">
        <ele>1647.5999755859</ele>
        <time>2011-07-23T07:22:00.000Z</time>
      </trkpt>
      <trkpt lat="45.82486" lon="6.37869">
        <ele>1646.8000488281</ele>
        <time>2011-07-23T07:22:06.000Z</time>
      </trkpt>
      <trkpt lat="45.82484" lon="6.37871">
        <ele>1646.5999755859</ele>
        <time>2011-07-23T07:22:08.000Z</time>
      </trkpt>
      <trkpt lat="45.82479" lon="6.37875">
        <ele>1646.1999511719</ele>
        <time>2011-07-23T07:22:11.000Z</time>
      </trkpt>
      <trkpt lat="45.82477" lon="6.37876">
        <ele>1645.8000488281</ele>
        <time>2011-07-23T07:22:12.000Z</time>
      </trkpt>
      <trkpt lat="45.82467" lon="6.37884">
        <ele>1645</ele>
        <time>2011-07-23T07:22:17.000Z</time>
      </trkpt>
      <trkpt lat="45.82462" lon="6.37888">
        <ele>1644.1999511719</ele>
        <time>2011-07-23T07:22:20.000Z</time>
      </trkpt>
      <trkpt lat="45.82454" lon="6.37889">
        <ele>1642.4000244141</ele>
        <time>2011-07-23T07:22:23.000Z</time>
      </trkpt>
      <trkpt lat="45.82442" lon="6.37886">
        <ele>1638.8000488281</ele>
        <time>2011-07-23T07:22:28.000Z</time>
      </trkpt>
      <trkpt lat="45.82428" lon="6.37891">
        <ele>1636.1999511719</ele>
        <time>2011-07-23T07:22:32.000Z</time>
      </trkpt>
      <trkpt lat="45.82424" lon="6.37891">
        <ele>1635.1999511719</ele>
        <time>2011-07-23T07:22:33.000Z</time>
      </trkpt>
      <trkpt lat="45.82411" lon="6.37893">
        <ele>1631.4000244141</ele>
        <time>2011-07-23T07:22:37.000Z</time>
      </trkpt>
      <trkpt lat="45.82404" lon="6.37892">
        <ele>1629</ele>
        <time>2011-07-23T07:22:39.000Z</time>
      </trkpt>
      <trkpt lat="45.82393" lon="6.3789">
        <ele>1624.8000488281</ele>
        <time>2011-07-23T07:22:43.000Z</time>
      </trkpt>
      <trkpt lat="45.82384" lon="6.37889">
        <ele>1621.5999755859</ele>
        <time>2011-07-23T07:22:46.000Z</time>
      </trkpt>
      <trkpt lat="45.82379" lon="6.37889">
        <ele>1619.8000488281</ele>
        <time>2011-07-23T07:22:48.000Z</time>
      </trkpt>
      <trkpt lat="45.82364" lon="6.37887">
        <ele>1614</ele>
        <time>2011-07-23T07:22:53.000Z</time>
      </trkpt>
      <trkpt lat="45.82353" lon="6.37888">
        <ele>1610.1999511719</ele>
        <time>2011-07-23T07:22:57.000Z</time>
      </trkpt>
      <trkpt lat="45.82346" lon="6.37894">
        <ele>1608.4000244141</ele>
        <time>2011-07-23T07:23:00.000Z</time>
      </trkpt>
      <trkpt lat="45.82343" lon="6.37894">
        <ele>1607.5999755859</ele>
        <time>2011-07-23T07:23:01.000Z</time>
      </trkpt>
      <trkpt lat="45.82339" lon="6.37886">
        <ele>1605</ele>
        <time>2011-07-23T07:23:04.000Z</time>
      </trkpt>
      <trkpt lat="45.82341" lon="6.37875">
        <ele>1604.8000488281</ele>
        <time>2011-07-23T07:23:07.000Z</time>
      </trkpt>
      <trkpt lat="45.82343" lon="6.37872">
        <ele>1604.8000488281</ele>
        <time>2011-07-23T07:23:08.000Z</time>
      </trkpt>
      <trkpt lat="45.82353" lon="6.37853">
        <ele>1605.5999755859</ele>
        <time>2011-07-23T07:23:14.000Z</time>
      </trkpt>
      <trkpt lat="45.82366" lon="6.37838">
        <ele>1607.8000488281</ele>
        <time>2011-07-23T07:23:20.000Z</time>
      </trkpt>
      <trkpt lat="45.82368" lon="6.37834">
        <ele>1607.8000488281</ele>
        <time>2011-07-23T07:23:21.000Z</time>
      </trkpt>
      <trkpt lat="45.82369" lon="6.37822">
        <ele>1606.4000244141</ele>
        <time>2011-07-23T07:23:24.000Z</time>
      </trkpt>
      <trkpt lat="45.82372" lon="6.3781">
        <ele>1605.5999755859</ele>
        <time>2011-07-23T07:23:27.000Z</time>
      </trkpt>
      <trkpt lat="45.82373" lon="6.37806">
        <ele>1605</ele>
        <time>2011-07-23T07:23:28.000Z</time>
      </trkpt>
      <trkpt lat="45.82372" lon="6.37801">
        <ele>1604.1999511719</ele>
        <time>2011-07-23T07:23:29.000Z</time>
      </trkpt>
      <trkpt lat="45.82367" lon="6.3779">
        <ele>1601.1999511719</ele>
        <time>2011-07-23T07:23:32.000Z</time>
      </trkpt>
      <trkpt lat="45.82366" lon="6.37787">
        <ele>1600.4000244141</ele>
        <time>2011-07-23T07:23:33.000Z</time>
      </trkpt>
      <trkpt lat="45.82358" lon="6.37777">
        <ele>1596.8000488281</ele>
        <time>2011-07-23T07:23:37.000Z</time>
      </trkpt>
      <trkpt lat="45.82351" lon="6.3777">
        <ele>1594.1999511719</ele>
        <time>2011-07-23T07:23:40.000Z</time>
      </trkpt>
      <trkpt lat="45.82344" lon="6.37767">
        <ele>1591.5999755859</ele>
        <time>2011-07-23T07:23:43.000Z</time>
      </trkpt>
      <trkpt lat="45.82333" lon="6.37759">
        <ele>1587.8000488281</ele>
        <time>2011-07-23T07:23:47.000Z</time>
      </trkpt>
      <trkpt lat="45.82331" lon="6.37755">
        <ele>1586.5999755859</ele>
        <time>2011-07-23T07:23:48.000Z</time>
      </trkpt>
      <trkpt lat="45.82327" lon="6.37741">
        <ele>1582.5999755859</ele>
        <time>2011-07-23T07:23:52.000Z</time>
      </trkpt>
      <trkpt lat="45.82326" lon="6.37733">
        <ele>1580.8000488281</ele>
        <time>2011-07-23T07:23:54.000Z</time>
      </trkpt>
      <trkpt lat="45.82326" lon="6.37726">
        <ele>1579.1999511719</ele>
        <time>2011-07-23T07:23:56.000Z</time>
      </trkpt>
      <trkpt lat="45.82324" lon="6.37708">
        <ele>1575</ele>
        <time>2011-07-23T07:24:01.000Z</time>
      </trkpt>
      <trkpt lat="45.82324" lon="6.37704">
        <ele>1574.1999511719</ele>
        <time>2011-07-23T07:24:02.000Z</time>
      </trkpt>
      <trkpt lat="45.82327" lon="6.37689">
        <ele>1572.4000244141</ele>
        <time>2011-07-23T07:24:07.000Z</time>
      </trkpt>
      <trkpt lat="45.82329" lon="6.37681">
        <ele>1571.5999755859</ele>
        <time>2011-07-23T07:24:10.000Z</time>
      </trkpt>
      <trkpt lat="45.82331" lon="6.37675">
        <ele>1570.8000488281</ele>
        <time>2011-07-23T07:24:12.000Z</time>
      </trkpt>
      <trkpt lat="45.8233" lon="6.37662">
        <ele>1568.1999511719</ele>
        <time>2011-07-23T07:24:16.000Z</time>
      </trkpt>
      <trkpt lat="45.82328" lon="6.37657">
        <ele>1566.8000488281</ele>
        <time>2011-07-23T07:24:18.000Z</time>
      </trkpt>
      <trkpt lat="45.82326" lon="6.37656">
        <ele>1566</ele>
        <time>2011-07-23T07:24:19.000Z</time>
      </trkpt>
      <trkpt lat="45.82323" lon="6.37657">
        <ele>1565.5999755859</ele>
        <time>2011-07-23T07:24:20.000Z</time>
      </trkpt>
      <trkpt lat="45.82319" lon="6.37662">
        <ele>1565</ele>
        <time>2011-07-23T07:24:23.000Z</time>
      </trkpt>
      <trkpt lat="45.82317" lon="6.37664">
        <ele>1564.8000488281</ele>
        <time>2011-07-23T07:24:24.000Z</time>
      </trkpt>
      <trkpt lat="45.82311" lon="6.37668">
        <ele>1563.5999755859</ele>
        <time>2011-07-23T07:24:27.000Z</time>
      </trkpt>
      <trkpt lat="45.82306" lon="6.3767">
        <ele>1562.8000488281</ele>
        <time>2011-07-23T07:24:29.000Z</time>
      </trkpt>
      <trkpt lat="45.82296" lon="6.37681">
        <ele>1561.5999755859</ele>
        <time>2011-07-23T07:24:34.000Z</time>
      </trkpt>
      <trkpt lat="45.82295" lon="6.37684">
        <ele>1561.8000488281</ele>
        <time>2011-07-23T07:24:35.000Z</time>
      </trkpt>
      <trkpt lat="45.82294" lon="6.3769">
        <ele>1562.1999511719</ele>
        <time>2011-07-23T07:24:37.000Z</time>
      </trkpt>
      <trkpt lat="45.82288" lon="6.3769">
        <ele>1560.4000244141</ele>
        <time>2011-07-23T07:24:40.000Z</time>
      </trkpt>
      <trkpt lat="45.82285" lon="6.37681">
        <ele>1558.1999511719</ele>
        <time>2011-07-23T07:24:43.000Z</time>
      </trkpt>
      <trkpt lat="45.82285" lon="6.37678">
        <ele>1557.8000488281</ele>
        <time>2011-07-23T07:24:44.000Z</time>
      </trkpt>
      <trkpt lat="45.82285" lon="6.37672">
        <ele>1556.8000488281</ele>
        <time>2011-07-23T07:24:46.000Z</time>
      </trkpt>
      <trkpt lat="45.82282" lon="6.37657">
        <ele>1553.8000488281</ele>
        <time>2011-07-23T07:24:50.000Z</time>
      </trkpt>
      <trkpt lat="45.82281" lon="6.37654">
        <ele>1553.1999511719</ele>
        <time>2011-07-23T07:24:51.000Z</time>
      </trkpt>
      <trkpt lat="45.82276" lon="6.37641">
        <ele>1550.4000244141</ele>
        <time>2011-07-23T07:24:55.000Z</time>
      </trkpt>
      <trkpt lat="45.82274" lon="6.3763">
        <ele>1548.5999755859</ele>
        <time>2011-07-23T07:24:58.000Z</time>
      </trkpt>
      <trkpt lat="45.82272" lon="6.37623">
        <ele>1547.4000244141</ele>
        <time>2011-07-23T07:25:00.000Z</time>
      </trkpt>
      <trkpt lat="45.82265" lon="6.37606">
        <ele>1543.8000488281</ele>
        <time>2011-07-23T07:25:06.000Z</time>
      </trkpt>
      <trkpt lat="45.82262" lon="6.37595">
        <ele>1541.8000488281</ele>
        <time>2011-07-23T07:25:10.000Z</time>
      </trkpt>
      <trkpt lat="45.82257" lon="6.37582">
        <ele>1539.4000244141</ele>
        <time>2011-07-23T07:25:15.000Z</time>
      </trkpt>
      <trkpt lat="45.8225" lon="6.37566">
        <ele>1535.5999755859</ele>
        <time>2011-07-23T07:25:21.000Z</time>
      </trkpt>
      <trkpt lat="45.82248" lon="6.3756">
        <ele>1533.8000488281</ele>
        <time>2011-07-23T07:25:23.000Z</time>
      </trkpt>
      <trkpt lat="45.82244" lon="6.37551">
        <ele>1531</ele>
        <time>2011-07-23T07:25:26.000Z</time>
      </trkpt>
      <trkpt lat="45.82242" lon="6.37547">
        <ele>1529.4000244141</ele>
        <time>2011-07-23T07:25:28.000Z</time>
      </trkpt>
      <trkpt lat="45.82238" lon="6.37545">
        <ele>1527.5999755859</ele>
        <time>2011-07-23T07:25:30.000Z</time>
      </trkpt>
      <trkpt lat="45.82236" lon="6.37544">
        <ele>1526.5999755859</ele>
        <time>2011-07-23T07:25:31.000Z</time>
      </trkpt>
      <trkpt lat="45.82234" lon="6.37544">
        <ele>1525.5999755859</ele>
        <time>2011-07-23T07:25:32.000Z</time>
      </trkpt>
      <trkpt lat="45.82229" lon="6.37542">
        <ele>1523.5999755859</ele>
        <time>2011-07-23T07:25:34.000Z</time>
      </trkpt>
      <trkpt lat="45.82217" lon="6.37537">
        <ele>1518</ele>
        <time>2011-07-23T07:25:39.000Z</time>
      </trkpt>
      <trkpt lat="45.82215" lon="6.37535">
        <ele>1517</ele>
        <time>2011-07-23T07:25:40.000Z</time>
      </trkpt>
      <trkpt lat="45.8221" lon="6.37528">
        <ele>1514</ele>
        <time>2011-07-23T07:25:43.000Z</time>
      </trkpt>
      <trkpt lat="45.82209" lon="6.37524">
        <ele>1513.1999511719</ele>
        <time>2011-07-23T07:25:44.000Z</time>
      </trkpt>
      <trkpt lat="45.82204" lon="6.37517">
        <ele>1510.8000488281</ele>
        <time>2011-07-23T07:25:47.000Z</time>
      </trkpt>
      <trkpt lat="45.82203" lon="6.37519">
        <ele>1510.4000244141</ele>
        <time>2011-07-23T07:25:48.000Z</time>
      </trkpt>
      <trkpt lat="45.82201" lon="6.37526">
        <ele>1510.4000244141</ele>
        <time>2011-07-23T07:25:50.000Z</time>
      </trkpt>
      <trkpt lat="45.82203" lon="6.37534">
        <ele>1511.8000488281</ele>
        <time>2011-07-23T07:25:52.000Z</time>
      </trkpt>
      <trkpt lat="45.82206" lon="6.3754">
        <ele>1513.4000244141</ele>
        <time>2011-07-23T07:25:54.000Z</time>
      </trkpt>
      <trkpt lat="45.82207" lon="6.37543">
        <ele>1514.4000244141</ele>
        <time>2011-07-23T07:25:55.000Z</time>
      </trkpt>
      <trkpt lat="45.82214" lon="6.37556">
        <ele>1518.4000244141</ele>
        <time>2011-07-23T07:25:59.000Z</time>
      </trkpt>
      <trkpt lat="45.82218" lon="6.37567">
        <ele>1521.4000244141</ele>
        <time>2011-07-23T07:26:02.000Z</time>
      </trkpt>
      <trkpt lat="45.82219" lon="6.37577">
        <ele>1522.5999755859</ele>
        <time>2011-07-23T07:26:04.000Z</time>
      </trkpt>
      <trkpt lat="45.82219" lon="6.37594">
        <ele>1524</ele>
        <time>2011-07-23T07:26:08.000Z</time>
      </trkpt>
      <trkpt lat="45.82216" lon="6.37614">
        <ele>1524.1999511719</ele>
        <time>2011-07-23T07:26:13.000Z</time>
      </trkpt>
      <trkpt lat="45.82215" lon="6.37623">
        <ele>1524</ele>
        <time>2011-07-23T07:26:15.000Z</time>
      </trkpt>
      <trkpt lat="45.82212" lon="6.37631">
        <ele>1523.4000244141</ele>
        <time>2011-07-23T07:26:17.000Z</time>
      </trkpt>
      <trkpt lat="45.82205" lon="6.37646">
        <ele>1521</ele>
        <time>2011-07-23T07:26:21.000Z</time>
      </trkpt>
      <trkpt lat="45.82202" lon="6.37652">
        <ele>1519.5999755859</ele>
        <time>2011-07-23T07:26:23.000Z</time>
      </trkpt>
      <trkpt lat="45.8219" lon="6.37662">
        <ele>1513.8000488281</ele>
        <time>2011-07-23T07:26:28.000Z</time>
      </trkpt>
      <trkpt lat="45.82181" lon="6.37671">
        <ele>1510</ele>
        <time>2011-07-23T07:26:32.000Z</time>
      </trkpt>
      <trkpt lat="45.8218" lon="6.37674">
        <ele>1509.8000488281</ele>
        <time>2011-07-23T07:26:33.000Z</time>
      </trkpt>
      <trkpt lat="45.82178" lon="6.3768">
        <ele>1509.1999511719</ele>
        <time>2011-07-23T07:26:35.000Z</time>
      </trkpt>
      <trkpt lat="45.82172" lon="6.37688">
        <ele>1507.1999511719</ele>
        <time>2011-07-23T07:26:38.000Z</time>
      </trkpt>
      <trkpt lat="45.82166" lon="6.37682">
        <ele>1503.4000244141</ele>
        <time>2011-07-23T07:26:42.000Z</time>
      </trkpt>
      <trkpt lat="45.82166" lon="6.37678">
        <ele>1502.8000488281</ele>
        <time>2011-07-23T07:26:43.000Z</time>
      </trkpt>
      <trkpt lat="45.82169" lon="6.37665">
        <ele>1503</ele>
        <time>2011-07-23T07:26:47.000Z</time>
      </trkpt>
      <trkpt lat="45.82172" lon="6.37653">
        <ele>1504.1999511719</ele>
        <time>2011-07-23T07:26:50.000Z</time>
      </trkpt>
      <trkpt lat="45.82173" lon="6.3765">
        <ele>1504.8000488281</ele>
        <time>2011-07-23T07:26:51.000Z</time>
      </trkpt>
      <trkpt lat="45.82177" lon="6.37629">
        <ele>1505.5999755859</ele>
        <time>2011-07-23T07:26:56.000Z</time>
      </trkpt>
      <trkpt lat="45.82177" lon="6.37624">
        <ele>1505.4000244141</ele>
        <time>2011-07-23T07:26:57.000Z</time>
      </trkpt>
      <trkpt lat="45.82176" lon="6.37611">
        <ele>1504.4000244141</ele>
        <time>2011-07-23T07:27:00.000Z</time>
      </trkpt>
      <trkpt lat="45.82175" lon="6.37603">
        <ele>1503.4000244141</ele>
        <time>2011-07-23T07:27:02.000Z</time>
      </trkpt>
      <trkpt lat="45.82173" lon="6.376">
        <ele>1502.4000244141</ele>
        <time>2011-07-23T07:27:03.000Z</time>
      </trkpt>
      <trkpt lat="45.8217" lon="6.37597">
        <ele>1501.1999511719</ele>
        <time>2011-07-23T07:27:04.000Z</time>
      </trkpt>
      <trkpt lat="45.8216" lon="6.37592">
        <ele>1495.4000244141</ele>
        <time>2011-07-23T07:27:08.000Z</time>
      </trkpt>
      <trkpt lat="45.82158" lon="6.3759">
        <ele>1493.8000488281</ele>
        <time>2011-07-23T07:27:09.000Z</time>
      </trkpt>
      <trkpt lat="45.82155" lon="6.37588">
        <ele>1492.5999755859</ele>
        <time>2011-07-23T07:27:10.000Z</time>
      </trkpt>
      <trkpt lat="45.82149" lon="6.37581">
        <ele>1488.8000488281</ele>
        <time>2011-07-23T07:27:13.000Z</time>
      </trkpt>
      <trkpt lat="45.82147" lon="6.3758">
        <ele>1487.4000244141</ele>
        <time>2011-07-23T07:27:14.000Z</time>
      </trkpt>
      <trkpt lat="45.82143" lon="6.37583">
        <ele>1485.4000244141</ele>
        <time>2011-07-23T07:27:16.000Z</time>
      </trkpt>
      <trkpt lat="45.82143" lon="6.37587">
        <ele>1485.1999511719</ele>
        <time>2011-07-23T07:27:17.000Z</time>
      </trkpt>
      <trkpt lat="45.82146" lon="6.37598">
        <ele>1487.1999511719</ele>
        <time>2011-07-23T07:27:20.000Z</time>
      </trkpt>
      <trkpt lat="45.82145" lon="6.37609">
        <ele>1486.8000488281</ele>
        <time>2011-07-23T07:27:24.000Z</time>
      </trkpt>
      <trkpt lat="45.82138" lon="6.37604">
        <ele>1482.4000244141</ele>
        <time>2011-07-23T07:27:27.000Z</time>
      </trkpt>
      <trkpt lat="45.82131" lon="6.37594">
        <ele>1478.4000244141</ele>
        <time>2011-07-23T07:27:30.000Z</time>
      </trkpt>
      <trkpt lat="45.8213" lon="6.37591">
        <ele>1477.4000244141</ele>
        <time>2011-07-23T07:27:31.000Z</time>
      </trkpt>
      <trkpt lat="45.82125" lon="6.37568">
        <ele>1475</ele>
        <time>2011-07-23T07:27:37.000Z</time>
      </trkpt>
      <trkpt lat="45.82119" lon="6.37551">
        <ele>1472</ele>
        <time>2011-07-23T07:27:42.000Z</time>
      </trkpt>
      <trkpt lat="45.82113" lon="6.37545">
        <ele>1469</ele>
        <time>2011-07-23T07:27:45.000Z</time>
      </trkpt>
      <trkpt lat="45.8211" lon="6.37541">
        <ele>1467.1999511719</ele>
        <time>2011-07-23T07:27:47.000Z</time>
      </trkpt>
      <trkpt lat="45.821" lon="6.37531">
        <ele>1462.4000244141</ele>
        <time>2011-07-23T07:27:52.000Z</time>
      </trkpt>
      <trkpt lat="45.82098" lon="6.37529">
        <ele>1461.4000244141</ele>
        <time>2011-07-23T07:27:53.000Z</time>
      </trkpt>
      <trkpt lat="45.82092" lon="6.37521">
        <ele>1459.1999511719</ele>
        <time>2011-07-23T07:27:56.000Z</time>
      </trkpt>
      <trkpt lat="45.82091" lon="6.37518">
        <ele>1458.8000488281</ele>
        <time>2011-07-23T07:27:57.000Z</time>
      </trkpt>
      <trkpt lat="45.8209" lon="6.37515">
        <ele>1458.1999511719</ele>
        <time>2011-07-23T07:27:58.000Z</time>
      </trkpt>
      <trkpt lat="45.82087" lon="6.37513">
        <ele>1456.8000488281</ele>
        <time>2011-07-23T07:28:00.000Z</time>
      </trkpt>
      <trkpt lat="45.82087" lon="6.37513">
        <ele>1457</ele>
        <time>2011-07-23T07:28:04.000Z</time>
      </trkpt>
      <trkpt lat="45.82088" lon="6.37514">
        <ele>1457.4000244141</ele>
        <time>2011-07-23T07:28:08.000Z</time>
      </trkpt>
      <trkpt lat="45.82089" lon="6.37515">
        <ele>1457.5999755859</ele>
        <time>2011-07-23T07:28:09.000Z</time>
      </trkpt>
      <trkpt lat="45.82089" lon="6.37515">
        <ele>1457.8000488281</ele>
        <time>2011-07-23T07:28:43.000Z</time>
      </trkpt>
      <trkpt lat="45.82088" lon="6.37514">
        <ele>1457.4000244141</ele>
        <time>2011-07-23T07:28:59.000Z</time>
      </trkpt>
      <trkpt lat="45.82089" lon="6.37512">
        <ele>1458</ele>
        <time>2011-07-23T07:30:26.000Z</time>
      </trkpt>
      <trkpt lat="45.8209" lon="6.3752">
        <ele>1457.8000488281</ele>
        <time>2011-07-23T07:32:33.000Z</time>
      </trkpt>
      <trkpt lat="45.82089" lon="6.37523">
        <ele>1457.1999511719</ele>
        <time>2011-07-23T07:32:35.000Z</time>
      </trkpt>
      <trkpt lat="45.8209" lon="6.3753">
        <ele>1457.4000244141</ele>
        <time>2011-07-23T07:32:38.000Z</time>
      </trkpt>
      <trkpt lat="45.82092" lon="6.37538">
        <ele>1458.1999511719</ele>
        <time>2011-07-23T07:32:41.000Z</time>
      </trkpt>
      <trkpt lat="45.82094" lon="6.37543">
        <ele>1459</ele>
        <time>2011-07-23T07:32:43.000Z</time>
      </trkpt>
      <trkpt lat="45.82096" lon="6.37546">
        <ele>1459.5999755859</ele>
        <time>2011-07-23T07:32:44.000Z</time>
      </trkpt>
      <trkpt lat="45.82102" lon="6.37563">
        <ele>1462.1999511719</ele>
        <time>2011-07-23T07:32:50.000Z</time>
      </trkpt>
      <trkpt lat="45.82102" lon="6.37566">
        <ele>1462.1999511719</ele>
        <time>2011-07-23T07:32:51.000Z</time>
      </trkpt>
      <trkpt lat="45.82102" lon="6.37579">
        <ele>1462</ele>
        <time>2011-07-23T07:32:55.000Z</time>
      </trkpt>
      <trkpt lat="45.82104" lon="6.37593">
        <ele>1462.4000244141</ele>
        <time>2011-07-23T07:32:59.000Z</time>
      </trkpt>
      <trkpt lat="45.82104" lon="6.37599">
        <ele>1462.1999511719</ele>
        <time>2011-07-23T07:33:01.000Z</time>
      </trkpt>
      <trkpt lat="45.821" lon="6.37615">
        <ele>1459</ele>
        <time>2011-07-23T07:33:06.000Z</time>
      </trkpt>
      <trkpt lat="45.82098" lon="6.37617">
        <ele>1457.8000488281</ele>
        <time>2011-07-23T07:33:07.000Z</time>
      </trkpt>
      <trkpt lat="45.82095" lon="6.37629">
        <ele>1455</ele>
        <time>2011-07-23T07:33:11.000Z</time>
      </trkpt>
      <trkpt lat="45.82095" lon="6.37632">
        <ele>1454.8000488281</ele>
        <time>2011-07-23T07:33:12.000Z</time>
      </trkpt>
      <trkpt lat="45.82099" lon="6.37644">
        <ele>1456.8000488281</ele>
        <time>2011-07-23T07:33:15.000Z</time>
      </trkpt>
      <trkpt lat="45.82101" lon="6.37648">
        <ele>1457.5999755859</ele>
        <time>2011-07-23T07:33:16.000Z</time>
      </trkpt>
      <trkpt lat="45.82101" lon="6.37659">
        <ele>1457.4000244141</ele>
        <time>2011-07-23T07:33:19.000Z</time>
      </trkpt>
      <trkpt lat="45.82097" lon="6.3767">
        <ele>1454.5999755859</ele>
        <time>2011-07-23T07:33:22.000Z</time>
      </trkpt>
      <trkpt lat="45.82096" lon="6.37673">
        <ele>1454</ele>
        <time>2011-07-23T07:33:23.000Z</time>
      </trkpt>
      <trkpt lat="45.82091" lon="6.37689">
        <ele>1451.8000488281</ele>
        <time>2011-07-23T07:33:27.000Z</time>
      </trkpt>
      <trkpt lat="45.8209" lon="6.37694">
        <ele>1451</ele>
        <time>2011-07-23T07:33:28.000Z</time>
      </trkpt>
      <trkpt lat="45.82081" lon="6.37701">
        <ele>1445.8000488281</ele>
        <time>2011-07-23T07:33:31.000Z</time>
      </trkpt>
      <trkpt lat="45.82074" lon="6.37707">
        <ele>1442.4000244141</ele>
        <time>2011-07-23T07:33:34.000Z</time>
      </trkpt>
      <trkpt lat="45.82071" lon="6.37717">
        <ele>1441.4000244141</ele>
        <time>2011-07-23T07:33:37.000Z</time>
      </trkpt>
      <trkpt lat="45.82069" lon="6.37733">
        <ele>1441.5999755859</ele>
        <time>2011-07-23T07:33:41.000Z</time>
      </trkpt>
      <trkpt lat="45.82068" lon="6.37737">
        <ele>1441.1999511719</ele>
        <time>2011-07-23T07:33:42.000Z</time>
      </trkpt>
      <trkpt lat="45.82063" lon="6.3776">
        <ele>1439.5999755859</ele>
        <time>2011-07-23T07:33:48.000Z</time>
      </trkpt>
      <trkpt lat="45.82052" lon="6.37766">
        <ele>1434.1999511719</ele>
        <time>2011-07-23T07:33:51.000Z</time>
      </trkpt>
      <trkpt lat="45.8205" lon="6.37762">
        <ele>1433.1999511719</ele>
        <time>2011-07-23T07:33:52.000Z</time>
      </trkpt>
      <trkpt lat="45.8205" lon="6.37754">
        <ele>1432.8000488281</ele>
        <time>2011-07-23T07:33:54.000Z</time>
      </trkpt>
      <trkpt lat="45.8205" lon="6.37749">
        <ele>1432.5999755859</ele>
        <time>2011-07-23T07:33:55.000Z</time>
      </trkpt>
      <trkpt lat="45.82049" lon="6.3773">
        <ele>1430.4000244141</ele>
        <time>2011-07-23T07:33:59.000Z</time>
      </trkpt>
      <trkpt lat="45.82048" lon="6.37727">
        <ele>1429.8000488281</ele>
        <time>2011-07-23T07:34:00.000Z</time>
      </trkpt>
      <trkpt lat="45.82043" lon="6.37707">
        <ele>1425.8000488281</ele>
        <time>2011-07-23T07:34:05.000Z</time>
      </trkpt>
      <trkpt lat="45.82041" lon="6.37699">
        <ele>1424.1999511719</ele>
        <time>2011-07-23T07:34:07.000Z</time>
      </trkpt>
      <trkpt lat="45.82038" lon="6.37696">
        <ele>1422</ele>
        <time>2011-07-23T07:34:09.000Z</time>
      </trkpt>
      <trkpt lat="45.82031" lon="6.37706">
        <ele>1419.1999511719</ele>
        <time>2011-07-23T07:34:13.000Z</time>
      </trkpt>
      <trkpt lat="45.82029" lon="6.37714">
        <ele>1418.5999755859</ele>
        <time>2011-07-23T07:34:15.000Z</time>
      </trkpt>
      <trkpt lat="45.82024" lon="6.37724">
        <ele>1416.8000488281</ele>
        <time>2011-07-23T07:34:18.000Z</time>
      </trkpt>
      <trkpt lat="45.82018" lon="6.37738">
        <ele>1415</ele>
        <time>2011-07-23T07:34:22.000Z</time>
      </trkpt>
      <trkpt lat="45.82016" lon="6.37742">
        <ele>1414.4000244141</ele>
        <time>2011-07-23T07:34:23.000Z</time>
      </trkpt>
      <trkpt lat="45.82006" lon="6.37751">
        <ele>1409.8000488281</ele>
        <time>2011-07-23T07:34:27.000Z</time>
      </trkpt>
      <trkpt lat="45.82004" lon="6.37757">
        <ele>1409.1999511719</ele>
        <time>2011-07-23T07:34:29.000Z</time>
      </trkpt>
      <trkpt lat="45.82002" lon="6.37761">
        <ele>1408.5999755859</ele>
        <time>2011-07-23T07:34:30.000Z</time>
      </trkpt>
      <trkpt lat="45.81995" lon="6.37771">
        <ele>1406</ele>
        <time>2011-07-23T07:34:34.000Z</time>
      </trkpt>
      <trkpt lat="45.81994" lon="6.37772">
        <ele>1405.8000488281</ele>
        <time>2011-07-23T07:34:38.000Z</time>
      </trkpt>
      <trkpt lat="45.81991" lon="6.37775">
        <ele>1405</ele>
        <time>2011-07-23T07:34:42.000Z</time>
      </trkpt>
      <trkpt lat="45.8199" lon="6.37776">
        <ele>1404.5999755859</ele>
        <time>2011-07-23T07:34:46.000Z</time>
      </trkpt>
      <trkpt lat="45.81989" lon="6.37773">
        <ele>1404</ele>
        <time>2011-07-23T07:34:56.000Z</time>
      </trkpt>
      <trkpt lat="45.8199" lon="6.37764">
        <ele>1403.8000488281</ele>
        <time>2011-07-23T07:35:58.000Z</time>
      </trkpt>
      <trkpt lat="45.8199" lon="6.37756">
        <ele>1403.4000244141</ele>
        <time>2011-07-23T07:36:04.000Z</time>
      </trkpt>
      <trkpt lat="45.81991" lon="6.37751">
        <ele>1403.5999755859</ele>
        <time>2011-07-23T07:36:08.000Z</time>
      </trkpt>
      <trkpt lat="45.81992" lon="6.37748">
        <ele>1403.4000244141</ele>
        <time>2011-07-23T07:36:11.000Z</time>
      </trkpt>
      <trkpt lat="45.81992" lon="6.37743">
        <ele>1403.1999511719</ele>
        <time>2011-07-23T07:36:14.000Z</time>
      </trkpt>
      <trkpt lat="45.81992" lon="6.37741">
        <ele>1403</ele>
        <time>2011-07-23T07:36:15.000Z</time>
      </trkpt>
      <trkpt lat="45.81991" lon="6.37731">
        <ele>1401.8000488281</ele>
        <time>2011-07-23T07:36:20.000Z</time>
      </trkpt>
      <trkpt lat="45.81992" lon="6.37727">
        <ele>1401.5999755859</ele>
        <time>2011-07-23T07:36:22.000Z</time>
      </trkpt>
      <trkpt lat="45.81993" lon="6.37716">
        <ele>1401.1999511719</ele>
        <time>2011-07-23T07:36:26.000Z</time>
      </trkpt>
      <trkpt lat="45.81994" lon="6.37714">
        <ele>1401.4000244141</ele>
        <time>2011-07-23T07:36:27.000Z</time>
      </trkpt>
      <trkpt lat="45.81995" lon="6.37708">
        <ele>1401.1999511719</ele>
        <time>2011-07-23T07:36:30.000Z</time>
      </trkpt>
      <trkpt lat="45.81998" lon="6.37701">
        <ele>1401.5999755859</ele>
        <time>2011-07-23T07:36:33.000Z</time>
      </trkpt>
      <trkpt lat="45.81999" lon="6.37699">
        <ele>1401.5999755859</ele>
        <time>2011-07-23T07:36:34.000Z</time>
      </trkpt>
      <trkpt lat="45.82" lon="6.37693">
        <ele>1401.5999755859</ele>
        <time>2011-07-23T07:36:36.000Z</time>
      </trkpt>
      <trkpt lat="45.82001" lon="6.3768">
        <ele>1400.8000488281</ele>
        <time>2011-07-23T07:36:40.000Z</time>
      </trkpt>
      <trkpt lat="45.82001" lon="6.37673">
        <ele>1400</ele>
        <time>2011-07-23T07:36:42.000Z</time>
      </trkpt>
      <trkpt lat="45.81998" lon="6.37659">
        <ele>1398.8000488281</ele>
        <time>2011-07-23T07:36:46.000Z</time>
      </trkpt>
      <trkpt lat="45.81995" lon="6.37648">
        <ele>1398.1999511719</ele>
        <time>2011-07-23T07:36:49.000Z</time>
      </trkpt>
      <trkpt lat="45.81994" lon="6.37645">
        <ele>1398</ele>
        <time>2011-07-23T07:36:50.000Z</time>
      </trkpt>
      <trkpt lat="45.81989" lon="6.37628">
        <ele>1397.1999511719</ele>
        <time>2011-07-23T07:36:55.000Z</time>
      </trkpt>
      <trkpt lat="45.81986" lon="6.37622">
        <ele>1396.5999755859</ele>
        <time>2011-07-23T07:36:57.000Z</time>
      </trkpt>
      <trkpt lat="45.81981" lon="6.37614">
        <ele>1395.5999755859</ele>
        <time>2011-07-23T07:37:00.000Z</time>
      </trkpt>
      <trkpt lat="45.81977" lon="6.37603">
        <ele>1394.8000488281</ele>
        <time>2011-07-23T07:37:04.000Z</time>
      </trkpt>
      <trkpt lat="45.81976" lon="6.37603">
        <ele>1394.4000244141</ele>
        <time>2011-07-23T07:37:08.000Z</time>
      </trkpt>
      <trkpt lat="45.81974" lon="6.37602">
        <ele>1394</ele>
        <time>2011-07-23T07:37:11.000Z</time>
      </trkpt>
      <trkpt lat="45.81974" lon="6.376">
        <ele>1393.8000488281</ele>
        <time>2011-07-23T07:37:13.000Z</time>
      </trkpt>
      <trkpt lat="45.81973" lon="6.37599">
        <ele>1393.8000488281</ele>
        <time>2011-07-23T07:37:14.000Z</time>
      </trkpt>
      <trkpt lat="45.81971" lon="6.37584">
        <ele>1394</ele>
        <time>2011-07-23T07:37:20.000Z</time>
      </trkpt>
      <trkpt lat="45.81969" lon="6.37577">
        <ele>1394.1999511719</ele>
        <time>2011-07-23T07:37:22.000Z</time>
      </trkpt>
      <trkpt lat="45.81964" lon="6.37569">
        <ele>1393.8000488281</ele>
        <time>2011-07-23T07:37:25.000Z</time>
      </trkpt>
      <trkpt lat="45.81955" lon="6.37556">
        <ele>1392.8000488281</ele>
        <time>2011-07-23T07:37:30.000Z</time>
      </trkpt>
      <trkpt lat="45.81953" lon="6.37553">
        <ele>1392.5999755859</ele>
        <time>2011-07-23T07:37:31.000Z</time>
      </trkpt>
      <trkpt lat="45.81943" lon="6.37542">
        <ele>1390.5999755859</ele>
        <time>2011-07-23T07:37:36.000Z</time>
      </trkpt>
      <trkpt lat="45.8194" lon="6.3754">
        <ele>1390</ele>
        <time>2011-07-23T07:37:37.000Z</time>
      </trkpt>
      <trkpt lat="45.81932" lon="6.37537">
        <ele>1387.5999755859</ele>
        <time>2011-07-23T07:37:40.000Z</time>
      </trkpt>
      <trkpt lat="45.81922" lon="6.37538">
        <ele>1384.1999511719</ele>
        <time>2011-07-23T07:37:44.000Z</time>
      </trkpt>
      <trkpt lat="45.81905" lon="6.37534">
        <ele>1381.4000244141</ele>
        <time>2011-07-23T07:37:50.000Z</time>
      </trkpt>
      <trkpt lat="45.81903" lon="6.37533">
        <ele>1381.1999511719</ele>
        <time>2011-07-23T07:37:51.000Z</time>
      </trkpt>
      <trkpt lat="45.81891" lon="6.37524">
        <ele>1380.8000488281</ele>
        <time>2011-07-23T07:37:56.000Z</time>
      </trkpt>
      <trkpt lat="45.81887" lon="6.3752">
        <ele>1380.8000488281</ele>
        <time>2011-07-23T07:37:58.000Z</time>
      </trkpt>
      <trkpt lat="45.8188" lon="6.37511">
        <ele>1381</ele>
        <time>2011-07-23T07:38:02.000Z</time>
      </trkpt>
      <trkpt lat="45.81872" lon="6.37502">
        <ele>1381.4000244141</ele>
        <time>2011-07-23T07:38:06.000Z</time>
      </trkpt>
      <trkpt lat="45.81868" lon="6.37498">
        <ele>1381.5999755859</ele>
        <time>2011-07-23T07:38:08.000Z</time>
      </trkpt>
      <trkpt lat="45.81855" lon="6.37491">
        <ele>1381.5999755859</ele>
        <time>2011-07-23T07:38:13.000Z</time>
      </trkpt>
      <trkpt lat="45.81853" lon="6.37491">
        <ele>1381.4000244141</ele>
        <time>2011-07-23T07:38:14.000Z</time>
      </trkpt>
      <trkpt lat="45.81837" lon="6.37491">
        <ele>1379.1999511719</ele>
        <time>2011-07-23T07:38:20.000Z</time>
      </trkpt>
      <trkpt lat="45.81824" lon="6.37494">
        <ele>1377.1999511719</ele>
        <time>2011-07-23T07:38:25.000Z</time>
      </trkpt>
      <trkpt lat="45.81819" lon="6.37495">
        <ele>1376.1999511719</ele>
        <time>2011-07-23T07:38:27.000Z</time>
      </trkpt>
      <trkpt lat="45.81811" lon="6.37499">
        <ele>1374.4000244141</ele>
        <time>2011-07-23T07:38:30.000Z</time>
      </trkpt>
      <trkpt lat="45.81801" lon="6.37504">
        <ele>1372.4000244141</ele>
        <time>2011-07-23T07:38:34.000Z</time>
      </trkpt>
      <trkpt lat="45.81794" lon="6.37509">
        <ele>1370.8000488281</ele>
        <time>2011-07-23T07:38:37.000Z</time>
      </trkpt>
      <trkpt lat="45.81784" lon="6.37513">
        <ele>1368.8000488281</ele>
        <time>2011-07-23T07:38:41.000Z</time>
      </trkpt>
      <trkpt lat="45.81776" lon="6.37516">
        <ele>1367.4000244141</ele>
        <time>2011-07-23T07:38:44.000Z</time>
      </trkpt>
      <trkpt lat="45.81766" lon="6.37519">
        <ele>1365.5999755859</ele>
        <time>2011-07-23T07:38:48.000Z</time>
      </trkpt>
      <trkpt lat="45.81762" lon="6.37519">
        <ele>1365.1999511719</ele>
        <time>2011-07-23T07:38:50.000Z</time>
      </trkpt>
      <trkpt lat="45.8175" lon="6.3751">
        <ele>1365</ele>
        <time>2011-07-23T07:38:55.000Z</time>
      </trkpt>
      <trkpt lat="45.81739" lon="6.37498">
        <ele>1363.5999755859</ele>
        <time>2011-07-23T07:39:00.000Z</time>
      </trkpt>
      <trkpt lat="45.81736" lon="6.37492">
        <ele>1363.4000244141</ele>
        <time>2011-07-23T07:39:02.000Z</time>
      </trkpt>
      <trkpt lat="45.81734" lon="6.37482">
        <ele>1364.5999755859</ele>
        <time>2011-07-23T07:39:05.000Z</time>
      </trkpt>
      <trkpt lat="45.81731" lon="6.37465">
        <ele>1366.4000244141</ele>
        <time>2011-07-23T07:39:10.000Z</time>
      </trkpt>
      <trkpt lat="45.8173" lon="6.37463">
        <ele>1366.1999511719</ele>
        <time>2011-07-23T07:39:11.000Z</time>
      </trkpt>
      <trkpt lat="45.81723" lon="6.37459">
        <ele>1364.8000488281</ele>
        <time>2011-07-23T07:39:15.000Z</time>
      </trkpt>
      <trkpt lat="45.8172" lon="6.37458">
        <ele>1364</ele>
        <time>2011-07-23T07:39:21.000Z</time>
      </trkpt>
      <trkpt lat="45.81718" lon="6.37459">
        <ele>1363</ele>
        <time>2011-07-23T07:39:37.000Z</time>
      </trkpt>
      <trkpt lat="45.81717" lon="6.3746">
        <ele>1362.5999755859</ele>
        <time>2011-07-23T07:40:08.000Z</time>
      </trkpt>
      <trkpt lat="45.81716" lon="6.37464">
        <ele>1361.5999755859</ele>
        <time>2011-07-23T07:40:12.000Z</time>
      </trkpt>
      <trkpt lat="45.81715" lon="6.37471">
        <ele>1360.1999511719</ele>
        <time>2011-07-23T07:40:16.000Z</time>
      </trkpt>
      <trkpt lat="45.81715" lon="6.37487">
        <ele>1357.1999511719</ele>
        <time>2011-07-23T07:40:21.000Z</time>
      </trkpt>
      <trkpt lat="45.81721" lon="6.37509">
        <ele>1355.5999755859</ele>
        <time>2011-07-23T07:40:28.000Z</time>
      </trkpt>
      <trkpt lat="45.81723" lon="6.37512">
        <ele>1355.5999755859</ele>
        <time>2011-07-23T07:40:29.000Z</time>
      </trkpt>
      <trkpt lat="45.81727" lon="6.37521">
        <ele>1355.1999511719</ele>
        <time>2011-07-23T07:40:32.000Z</time>
      </trkpt>
      <trkpt lat="45.81734" lon="6.37537">
        <ele>1354.8000488281</ele>
        <time>2011-07-23T07:40:37.000Z</time>
      </trkpt>
      <trkpt lat="45.81741" lon="6.37556">
        <ele>1354</ele>
        <time>2011-07-23T07:40:42.000Z</time>
      </trkpt>
      <trkpt lat="45.81743" lon="6.37562">
        <ele>1353.8000488281</ele>
        <time>2011-07-23T07:40:44.000Z</time>
      </trkpt>
      <trkpt lat="45.81748" lon="6.37575">
        <ele>1353.4000244141</ele>
        <time>2011-07-23T07:40:48.000Z</time>
      </trkpt>
      <trkpt lat="45.81755" lon="6.37584">
        <ele>1353.4000244141</ele>
        <time>2011-07-23T07:40:52.000Z</time>
      </trkpt>
      <trkpt lat="45.81757" lon="6.37586">
        <ele>1353.1999511719</ele>
        <time>2011-07-23T07:40:53.000Z</time>
      </trkpt>
      <trkpt lat="45.81771" lon="6.37594">
        <ele>1353.1999511719</ele>
        <time>2011-07-23T07:40:59.000Z</time>
      </trkpt>
      <trkpt lat="45.81774" lon="6.37594">
        <ele>1353.4000244141</ele>
        <time>2011-07-23T07:41:00.000Z</time>
      </trkpt>
      <trkpt lat="45.81783" lon="6.376">
        <ele>1353.4000244141</ele>
        <time>2011-07-23T07:41:04.000Z</time>
      </trkpt>
      <trkpt lat="45.81792" lon="6.37606">
        <ele>1353.4000244141</ele>
        <time>2011-07-23T07:41:08.000Z</time>
      </trkpt>
      <trkpt lat="45.81796" lon="6.3761">
        <ele>1353.1999511719</ele>
        <time>2011-07-23T07:41:10.000Z</time>
      </trkpt>
      <trkpt lat="45.81807" lon="6.37621">
        <ele>1352.5999755859</ele>
        <time>2011-07-23T07:41:16.000Z</time>
      </trkpt>
      <trkpt lat="45.81809" lon="6.37622">
        <ele>1352.8000488281</ele>
        <time>2011-07-23T07:41:17.000Z</time>
      </trkpt>
      <trkpt lat="45.8182" lon="6.37632">
        <ele>1352.8000488281</ele>
        <time>2011-07-23T07:41:22.000Z</time>
      </trkpt>
      <trkpt lat="45.81824" lon="6.37637">
        <ele>1352.5999755859</ele>
        <time>2011-07-23T07:41:24.000Z</time>
      </trkpt>
      <trkpt lat="45.81827" lon="6.37645">
        <ele>1351.4000244141</ele>
        <time>2011-07-23T07:41:26.000Z</time>
      </trkpt>
      <trkpt lat="45.81825" lon="6.37661">
        <ele>1348</ele>
        <time>2011-07-23T07:41:30.000Z</time>
      </trkpt>
      <trkpt lat="45.81823" lon="6.37662">
        <ele>1347.1999511719</ele>
        <time>2011-07-23T07:41:31.000Z</time>
      </trkpt>
      <trkpt lat="45.81817" lon="6.37662">
        <ele>1345.8000488281</ele>
        <time>2011-07-23T07:41:34.000Z</time>
      </trkpt>
      <trkpt lat="45.81805" lon="6.37654">
        <ele>1344.5999755859</ele>
        <time>2011-07-23T07:41:39.000Z</time>
      </trkpt>
      <trkpt lat="45.81798" lon="6.37645">
        <ele>1345.1999511719</ele>
        <time>2011-07-23T07:41:42.000Z</time>
      </trkpt>
      <trkpt lat="45.81796" lon="6.37643">
        <ele>1345.1999511719</ele>
        <time>2011-07-23T07:41:43.000Z</time>
      </trkpt>
      <trkpt lat="45.81791" lon="6.37637">
        <ele>1345.5999755859</ele>
        <time>2011-07-23T07:41:45.000Z</time>
      </trkpt>
      <trkpt lat="45.81783" lon="6.37634">
        <ele>1344.8000488281</ele>
        <time>2011-07-23T07:41:48.000Z</time>
      </trkpt>
      <trkpt lat="45.81776" lon="6.37642">
        <ele>1341</ele>
        <time>2011-07-23T07:41:52.000Z</time>
      </trkpt>
      <trkpt lat="45.81777" lon="6.37657">
        <ele>1337.4000244141</ele>
        <time>2011-07-23T07:41:56.000Z</time>
      </trkpt>
      <trkpt lat="45.8178" lon="6.37668">
        <ele>1335.1999511719</ele>
        <time>2011-07-23T07:41:59.000Z</time>
      </trkpt>
      <trkpt lat="45.81783" lon="6.37678">
        <ele>1335</ele>
        <time>2011-07-23T07:42:02.000Z</time>
      </trkpt>
      <trkpt lat="45.81784" lon="6.37681">
        <ele>1335.1999511719</ele>
        <time>2011-07-23T07:42:03.000Z</time>
      </trkpt>
      <trkpt lat="45.81791" lon="6.37689">
        <ele>1336.4000244141</ele>
        <time>2011-07-23T07:42:06.000Z</time>
      </trkpt>
      <trkpt lat="45.81796" lon="6.37694">
        <ele>1337.1999511719</ele>
        <time>2011-07-23T07:42:08.000Z</time>
      </trkpt>
      <trkpt lat="45.818" lon="6.3771">
        <ele>1337.4000244141</ele>
        <time>2011-07-23T07:42:12.000Z</time>
      </trkpt>
      <trkpt lat="45.81799" lon="6.37729">
        <ele>1335.8000488281</ele>
        <time>2011-07-23T07:42:16.000Z</time>
      </trkpt>
      <trkpt lat="45.81801" lon="6.37739">
        <ele>1335.4000244141</ele>
        <time>2011-07-23T07:42:19.000Z</time>
      </trkpt>
      <trkpt lat="45.81802" lon="6.37747">
        <ele>1335.1999511719</ele>
        <time>2011-07-23T07:42:21.000Z</time>
      </trkpt>
      <trkpt lat="45.818" lon="6.37767">
        <ele>1333</ele>
        <time>2011-07-23T07:42:26.000Z</time>
      </trkpt>
      <trkpt lat="45.818" lon="6.3779">
        <ele>1331.1999511719</ele>
        <time>2011-07-23T07:42:32.000Z</time>
      </trkpt>
      <trkpt lat="45.81801" lon="6.37793">
        <ele>1331</ele>
        <time>2011-07-23T07:42:33.000Z</time>
      </trkpt>
      <trkpt lat="45.81802" lon="6.37806">
        <ele>1330.5999755859</ele>
        <time>2011-07-23T07:42:36.000Z</time>
      </trkpt>
      <trkpt lat="45.81804" lon="6.37821">
        <ele>1329.8000488281</ele>
        <time>2011-07-23T07:42:40.000Z</time>
      </trkpt>
      <trkpt lat="45.81805" lon="6.37825">
        <ele>1329.8000488281</ele>
        <time>2011-07-23T07:42:41.000Z</time>
      </trkpt>
      <trkpt lat="45.81802" lon="6.37841">
        <ele>1327.8000488281</ele>
        <time>2011-07-23T07:42:46.000Z</time>
      </trkpt>
      <trkpt lat="45.81797" lon="6.37844">
        <ele>1325.8000488281</ele>
        <time>2011-07-23T07:42:48.000Z</time>
      </trkpt>
      <trkpt lat="45.8179" lon="6.37846">
        <ele>1322.5999755859</ele>
        <time>2011-07-23T07:42:51.000Z</time>
      </trkpt>
      <trkpt lat="45.81781" lon="6.37836">
        <ele>1319.4000244141</ele>
        <time>2011-07-23T07:42:55.000Z</time>
      </trkpt>
      <trkpt lat="45.81776" lon="6.37828">
        <ele>1318.1999511719</ele>
        <time>2011-07-23T07:42:58.000Z</time>
      </trkpt>
      <trkpt lat="45.81774" lon="6.37821">
        <ele>1317.8000488281</ele>
        <time>2011-07-23T07:43:00.000Z</time>
      </trkpt>
      <trkpt lat="45.81771" lon="6.37815">
        <ele>1317.1999511719</ele>
        <time>2011-07-23T07:43:02.000Z</time>
      </trkpt>
      <trkpt lat="45.81768" lon="6.37808">
        <ele>1316.8000488281</ele>
        <time>2011-07-23T07:43:04.000Z</time>
      </trkpt>
      <trkpt lat="45.81762" lon="6.37792">
        <ele>1316</ele>
        <time>2011-07-23T07:43:09.000Z</time>
      </trkpt>
      <trkpt lat="45.81758" lon="6.37787">
        <ele>1314.8000488281</ele>
        <time>2011-07-23T07:43:11.000Z</time>
      </trkpt>
      <trkpt lat="45.81746" lon="6.37773">
        <ele>1312.1999511719</ele>
        <time>2011-07-23T07:43:17.000Z</time>
      </trkpt>
      <trkpt lat="45.81736" lon="6.37763">
        <ele>1310.4000244141</ele>
        <time>2011-07-23T07:43:22.000Z</time>
      </trkpt>
      <trkpt lat="45.81729" lon="6.37762">
        <ele>1308.8000488281</ele>
        <time>2011-07-23T07:43:26.000Z</time>
      </trkpt>
      <trkpt lat="45.81725" lon="6.37762">
        <ele>1307.5999755859</ele>
        <time>2011-07-23T07:43:27.000Z</time>
      </trkpt>
      <trkpt lat="45.8172" lon="6.37773">
        <ele>1305.1999511719</ele>
        <time>2011-07-23T07:43:31.000Z</time>
      </trkpt>
      <trkpt lat="45.8172" lon="6.37781">
        <ele>1304</ele>
        <time>2011-07-23T07:43:34.000Z</time>
      </trkpt>
      <trkpt lat="45.81722" lon="6.37791">
        <ele>1303.4000244141</ele>
        <time>2011-07-23T07:43:37.000Z</time>
      </trkpt>
      <trkpt lat="45.81727" lon="6.37806">
        <ele>1303.1999511719</ele>
        <time>2011-07-23T07:43:40.000Z</time>
      </trkpt>
      <trkpt lat="45.81728" lon="6.37808">
        <ele>1303.1999511719</ele>
        <time>2011-07-23T07:43:41.000Z</time>
      </trkpt>
      <trkpt lat="45.81734" lon="6.37823">
        <ele>1303.4000244141</ele>
        <time>2011-07-23T07:43:47.000Z</time>
      </trkpt>
      <trkpt lat="45.81738" lon="6.37829">
        <ele>1303.5999755859</ele>
        <time>2011-07-23T07:43:48.000Z</time>
      </trkpt>
      <trkpt lat="45.81743" lon="6.37839">
        <ele>1304.4000244141</ele>
        <time>2011-07-23T07:43:51.000Z</time>
      </trkpt>
      <trkpt lat="45.81746" lon="6.37856">
        <ele>1304.4000244141</ele>
        <time>2011-07-23T07:43:55.000Z</time>
      </trkpt>
      <trkpt lat="45.81748" lon="6.37863">
        <ele>1304.5999755859</ele>
        <time>2011-07-23T07:43:57.000Z</time>
      </trkpt>
      <trkpt lat="45.81752" lon="6.37883">
        <ele>1304.5999755859</ele>
        <time>2011-07-23T07:44:03.000Z</time>
      </trkpt>
      <trkpt lat="45.81753" lon="6.37897">
        <ele>1304.4000244141</ele>
        <time>2011-07-23T07:44:06.000Z</time>
      </trkpt>
      <trkpt lat="45.81754" lon="6.37901">
        <ele>1304.4000244141</ele>
        <time>2011-07-23T07:44:08.000Z</time>
      </trkpt>
      <trkpt lat="45.81754" lon="6.37912">
        <ele>1304.1999511719</ele>
        <time>2011-07-23T07:44:11.000Z</time>
      </trkpt>
      <trkpt lat="45.81754" lon="6.3792">
        <ele>1303.5999755859</ele>
        <time>2011-07-23T07:44:13.000Z</time>
      </trkpt>
      <trkpt lat="45.81751" lon="6.3794">
        <ele>1302.1999511719</ele>
        <time>2011-07-23T07:44:18.000Z</time>
      </trkpt>
      <trkpt lat="45.8175" lon="6.37945">
        <ele>1301.8000488281</ele>
        <time>2011-07-23T07:44:19.000Z</time>
      </trkpt>
      <trkpt lat="45.81746" lon="6.37964">
        <ele>1300.5999755859</ele>
        <time>2011-07-23T07:44:24.000Z</time>
      </trkpt>
      <trkpt lat="45.81746" lon="6.37968">
        <ele>1300.4000244141</ele>
        <time>2011-07-23T07:44:25.000Z</time>
      </trkpt>
      <trkpt lat="45.8174" lon="6.37987">
        <ele>1298.8000488281</ele>
        <time>2011-07-23T07:44:30.000Z</time>
      </trkpt>
      <trkpt lat="45.81739" lon="6.37995">
        <ele>1298.1999511719</ele>
        <time>2011-07-23T07:44:32.000Z</time>
      </trkpt>
      <trkpt lat="45.81738" lon="6.38003">
        <ele>1297.8000488281</ele>
        <time>2011-07-23T07:44:34.000Z</time>
      </trkpt>
      <trkpt lat="45.81734" lon="6.3802">
        <ele>1297</ele>
        <time>2011-07-23T07:44:39.000Z</time>
      </trkpt>
      <trkpt lat="45.81731" lon="6.38031">
        <ele>1296.1999511719</ele>
        <time>2011-07-23T07:44:42.000Z</time>
      </trkpt>
      <trkpt lat="45.81727" lon="6.38036">
        <ele>1295.1999511719</ele>
        <time>2011-07-23T07:44:44.000Z</time>
      </trkpt>
      <trkpt lat="45.81721" lon="6.38038">
        <ele>1293.5999755859</ele>
        <time>2011-07-23T07:44:46.000Z</time>
      </trkpt>
      <trkpt lat="45.81713" lon="6.38037">
        <ele>1290.8000488281</ele>
        <time>2011-07-23T07:44:49.000Z</time>
      </trkpt>
      <trkpt lat="45.81705" lon="6.38033">
        <ele>1288</ele>
        <time>2011-07-23T07:44:52.000Z</time>
      </trkpt>
      <trkpt lat="45.81702" lon="6.38031">
        <ele>1287</ele>
        <time>2011-07-23T07:44:53.000Z</time>
      </trkpt>
      <trkpt lat="45.817" lon="6.3803">
        <ele>1286.1999511719</ele>
        <time>2011-07-23T07:44:54.000Z</time>
      </trkpt>
      <trkpt lat="45.81688" lon="6.3802">
        <ele>1282</ele>
        <time>2011-07-23T07:44:59.000Z</time>
      </trkpt>
      <trkpt lat="45.81686" lon="6.38017">
        <ele>1281.1999511719</ele>
        <time>2011-07-23T07:45:00.000Z</time>
      </trkpt>
      <trkpt lat="45.81677" lon="6.38009">
        <ele>1277.5999755859</ele>
        <time>2011-07-23T07:45:05.000Z</time>
      </trkpt>
      <trkpt lat="45.81676" lon="6.38009">
        <ele>1277.4000244141</ele>
        <time>2011-07-23T07:45:06.000Z</time>
      </trkpt>
      <trkpt lat="45.81675" lon="6.38007">
        <ele>1276.8000488281</ele>
        <time>2011-07-23T07:45:09.000Z</time>
      </trkpt>
      <trkpt lat="45.81673" lon="6.38004">
        <ele>1276.1999511719</ele>
        <time>2011-07-23T07:45:11.000Z</time>
      </trkpt>
      <trkpt lat="45.81671" lon="6.38002">
        <ele>1275.5999755859</ele>
        <time>2011-07-23T07:45:12.000Z</time>
      </trkpt>
      <trkpt lat="45.8167" lon="6.38">
        <ele>1275</ele>
        <time>2011-07-23T07:45:13.000Z</time>
      </trkpt>
      <trkpt lat="45.8166" lon="6.37984">
        <ele>1272.5999755859</ele>
        <time>2011-07-23T07:45:19.000Z</time>
      </trkpt>
      <trkpt lat="45.81658" lon="6.37981">
        <ele>1272.1999511719</ele>
        <time>2011-07-23T07:45:20.000Z</time>
      </trkpt>
      <trkpt lat="45.81649" lon="6.37959">
        <ele>1270.5999755859</ele>
        <time>2011-07-23T07:45:27.000Z</time>
      </trkpt>
      <trkpt lat="45.81642" lon="6.37938">
        <ele>1269.5999755859</ele>
        <time>2011-07-23T07:45:33.000Z</time>
      </trkpt>
      <trkpt lat="45.81641" lon="6.37934">
        <ele>1269.4000244141</ele>
        <time>2011-07-23T07:45:34.000Z</time>
      </trkpt>
      <trkpt lat="45.81636" lon="6.37921">
        <ele>1268.8000488281</ele>
        <time>2011-07-23T07:45:38.000Z</time>
      </trkpt>
      <trkpt lat="45.81632" lon="6.3791">
        <ele>1268.5999755859</ele>
        <time>2011-07-23T07:45:41.000Z</time>
      </trkpt>
      <trkpt lat="45.8163" lon="6.37903">
        <ele>1268.5999755859</ele>
        <time>2011-07-23T07:45:43.000Z</time>
      </trkpt>
      <trkpt lat="45.81623" lon="6.3789">
        <ele>1268</ele>
        <time>2011-07-23T07:45:47.000Z</time>
      </trkpt>
      <trkpt lat="45.81622" lon="6.37887">
        <ele>1267.8000488281</ele>
        <time>2011-07-23T07:45:48.000Z</time>
      </trkpt>
      <trkpt lat="45.81611" lon="6.37868">
        <ele>1266.1999511719</ele>
        <time>2011-07-23T07:45:54.000Z</time>
      </trkpt>
      <trkpt lat="45.81609" lon="6.37865">
        <ele>1266</ele>
        <time>2011-07-23T07:45:55.000Z</time>
      </trkpt>
      <trkpt lat="45.81597" lon="6.37854">
        <ele>1263.5999755859</ele>
        <time>2011-07-23T07:46:00.000Z</time>
      </trkpt>
      <trkpt lat="45.81592" lon="6.3785">
        <ele>1262.5999755859</ele>
        <time>2011-07-23T07:46:02.000Z</time>
      </trkpt>
      <trkpt lat="45.81583" lon="6.37843">
        <ele>1260.5999755859</ele>
        <time>2011-07-23T07:46:06.000Z</time>
      </trkpt>
      <trkpt lat="45.81576" lon="6.37836">
        <ele>1259.1999511719</ele>
        <time>2011-07-23T07:46:09.000Z</time>
      </trkpt>
      <trkpt lat="45.81572" lon="6.37831">
        <ele>1258.5999755859</ele>
        <time>2011-07-23T07:46:11.000Z</time>
      </trkpt>
      <trkpt lat="45.81567" lon="6.37824">
        <ele>1257.5999755859</ele>
        <time>2011-07-23T07:46:15.000Z</time>
      </trkpt>
      <trkpt lat="45.81565" lon="6.37828">
        <ele>1257.1999511719</ele>
        <time>2011-07-23T07:46:27.000Z</time>
      </trkpt>
      <trkpt lat="45.81566" lon="6.37832">
        <ele>1257.1999511719</ele>
        <time>2011-07-23T07:46:36.000Z</time>
      </trkpt>
      <trkpt lat="45.81567" lon="6.37835">
        <ele>1257.4000244141</ele>
        <time>2011-07-23T07:46:38.000Z</time>
      </trkpt>
      <trkpt lat="45.81567" lon="6.37837">
        <ele>1257.1999511719</ele>
        <time>2011-07-23T07:46:40.000Z</time>
      </trkpt>
      <trkpt lat="45.81565" lon="6.37847">
        <ele>1256.5999755859</ele>
        <time>2011-07-23T07:46:45.000Z</time>
      </trkpt>
      <trkpt lat="45.81564" lon="6.37857">
        <ele>1256</ele>
        <time>2011-07-23T07:46:50.000Z</time>
      </trkpt>
      <trkpt lat="45.81564" lon="6.37859">
        <ele>1256</ele>
        <time>2011-07-23T07:46:51.000Z</time>
      </trkpt>
      <trkpt lat="45.81564" lon="6.3786">
        <ele>1255.8000488281</ele>
        <time>2011-07-23T07:46:52.000Z</time>
      </trkpt>
      <trkpt lat="45.81563" lon="6.37863">
        <ele>1255.5999755859</ele>
        <time>2011-07-23T07:46:55.000Z</time>
      </trkpt>
      <trkpt lat="45.81563" lon="6.37865">
        <ele>1255.4000244141</ele>
        <time>2011-07-23T07:46:57.000Z</time>
      </trkpt>
      <trkpt lat="45.81561" lon="6.37875">
        <ele>1254.8000488281</ele>
        <time>2011-07-23T07:47:04.000Z</time>
      </trkpt>
      <trkpt lat="45.81561" lon="6.37878">
        <ele>1254.5999755859</ele>
        <time>2011-07-23T07:47:06.000Z</time>
      </trkpt>
      <trkpt lat="45.81561" lon="6.37884">
        <ele>1254.4000244141</ele>
        <time>2011-07-23T07:47:09.000Z</time>
      </trkpt>
      <trkpt lat="45.81561" lon="6.37885">
        <ele>1254.4000244141</ele>
        <time>2011-07-23T07:47:10.000Z</time>
      </trkpt>
      <trkpt lat="45.81562" lon="6.37889">
        <ele>1254.5999755859</ele>
        <time>2011-07-23T07:47:13.000Z</time>
      </trkpt>
      <trkpt lat="45.81563" lon="6.37894">
        <ele>1254.4000244141</ele>
        <time>2011-07-23T07:47:17.000Z</time>
      </trkpt>
      <trkpt lat="45.81563" lon="6.37908">
        <ele>1254.1999511719</ele>
        <time>2011-07-23T07:47:24.000Z</time>
      </trkpt>
      <trkpt lat="45.81564" lon="6.37912">
        <ele>1254.1999511719</ele>
        <time>2011-07-23T07:47:26.000Z</time>
      </trkpt>
      <trkpt lat="45.81565" lon="6.37915">
        <ele>1254.4000244141</ele>
        <time>2011-07-23T07:47:27.000Z</time>
      </trkpt>
      <trkpt lat="45.81565" lon="6.3792">
        <ele>1254</ele>
        <time>2011-07-23T07:47:30.000Z</time>
      </trkpt>
      <trkpt lat="45.81565" lon="6.37936">
        <ele>1253</ele>
        <time>2011-07-23T07:47:36.000Z</time>
      </trkpt>
      <trkpt lat="45.81564" lon="6.37938">
        <ele>1252.8000488281</ele>
        <time>2011-07-23T07:47:37.000Z</time>
      </trkpt>
      <trkpt lat="45.81564" lon="6.37955">
        <ele>1252</ele>
        <time>2011-07-23T07:47:42.000Z</time>
      </trkpt>
      <trkpt lat="45.81564" lon="6.37957">
        <ele>1251.8000488281</ele>
        <time>2011-07-23T07:47:43.000Z</time>
      </trkpt>
      <trkpt lat="45.81562" lon="6.37964">
        <ele>1250.8000488281</ele>
        <time>2011-07-23T07:47:47.000Z</time>
      </trkpt>
      <trkpt lat="45.81561" lon="6.37968">
        <ele>1250.4000244141</ele>
        <time>2011-07-23T07:47:50.000Z</time>
      </trkpt>
      <trkpt lat="45.81562" lon="6.37968">
        <ele>1250.5999755859</ele>
        <time>2011-07-23T07:47:53.000Z</time>
      </trkpt>
      <trkpt lat="45.81563" lon="6.37974">
        <ele>1250.4000244141</ele>
        <time>2011-07-23T07:48:00.000Z</time>
      </trkpt>
      <trkpt lat="45.81563" lon="6.37979">
        <ele>1250.1999511719</ele>
        <time>2011-07-23T07:48:06.000Z</time>
      </trkpt>
      <trkpt lat="45.81563" lon="6.3798">
        <ele>1250.1999511719</ele>
        <time>2011-07-23T07:48:07.000Z</time>
      </trkpt>
      <trkpt lat="45.81563" lon="6.37983">
        <ele>1250</ele>
        <time>2011-07-23T07:48:10.000Z</time>
      </trkpt>
      <trkpt lat="45.81563" lon="6.37984">
        <ele>1250</ele>
        <time>2011-07-23T07:48:11.000Z</time>
      </trkpt>
      <trkpt lat="45.81561" lon="6.37986">
        <ele>1249.4000244141</ele>
        <time>2011-07-23T07:48:14.000Z</time>
      </trkpt>
      <trkpt lat="45.81561" lon="6.37987">
        <ele>1249.1999511719</ele>
        <time>2011-07-23T07:48:15.000Z</time>
      </trkpt>
      <trkpt lat="45.8156" lon="6.37989">
        <ele>1249</ele>
        <time>2011-07-23T07:48:16.000Z</time>
      </trkpt>
      <trkpt lat="45.81558" lon="6.37992">
        <ele>1248.1999511719</ele>
        <time>2011-07-23T07:48:19.000Z</time>
      </trkpt>
      <trkpt lat="45.81556" lon="6.37999">
        <ele>1247.4000244141</ele>
        <time>2011-07-23T07:48:24.000Z</time>
      </trkpt>
      <trkpt lat="45.81556" lon="6.38007">
        <ele>1247.1999511719</ele>
        <time>2011-07-23T07:48:30.000Z</time>
      </trkpt>
      <trkpt lat="45.81556" lon="6.38008">
        <ele>1247.1999511719</ele>
        <time>2011-07-23T07:48:31.000Z</time>
      </trkpt>
      <trkpt lat="45.81556" lon="6.38012">
        <ele>1246.8000488281</ele>
        <time>2011-07-23T07:48:34.000Z</time>
      </trkpt>
      <trkpt lat="45.81556" lon="6.38014">
        <ele>1246.8000488281</ele>
        <time>2011-07-23T07:48:35.000Z</time>
      </trkpt>
      <trkpt lat="45.81557" lon="6.38015">
        <ele>1247</ele>
        <time>2011-07-23T07:48:36.000Z</time>
      </trkpt>
      <trkpt lat="45.81558" lon="6.38018">
        <ele>1247.1999511719</ele>
        <time>2011-07-23T07:48:38.000Z</time>
      </trkpt>
      <trkpt lat="45.81558" lon="6.38022">
        <ele>1247.1999511719</ele>
        <time>2011-07-23T07:48:40.000Z</time>
      </trkpt>
      <trkpt lat="45.81559" lon="6.38027">
        <ele>1247.1999511719</ele>
        <time>2011-07-23T07:48:42.000Z</time>
      </trkpt>
      <trkpt lat="45.81558" lon="6.38035">
        <ele>1246.8000488281</ele>
        <time>2011-07-23T07:48:45.000Z</time>
      </trkpt>
      <trkpt lat="45.81558" lon="6.38038">
        <ele>1246.5999755859</ele>
        <time>2011-07-23T07:48:46.000Z</time>
      </trkpt>
      <trkpt lat="45.81557" lon="6.38052">
        <ele>1245.8000488281</ele>
        <time>2011-07-23T07:48:50.000Z</time>
      </trkpt>
      <trkpt lat="45.81554" lon="6.38064">
        <ele>1244.4000244141</ele>
        <time>2011-07-23T07:48:54.000Z</time>
      </trkpt>
      <trkpt lat="45.81553" lon="6.38067">
        <ele>1244</ele>
        <time>2011-07-23T07:48:55.000Z</time>
      </trkpt>
      <trkpt lat="45.8155" lon="6.38081">
        <ele>1242.4000244141</ele>
        <time>2011-07-23T07:49:00.000Z</time>
      </trkpt>
      <trkpt lat="45.81548" lon="6.38089">
        <ele>1241.8000488281</ele>
        <time>2011-07-23T07:49:03.000Z</time>
      </trkpt>
      <trkpt lat="45.81547" lon="6.38091">
        <ele>1241.5999755859</ele>
        <time>2011-07-23T07:49:04.000Z</time>
      </trkpt>
      <trkpt lat="45.81547" lon="6.38094">
        <ele>1241.8000488281</ele>
        <time>2011-07-23T07:49:05.000Z</time>
      </trkpt>
      <trkpt lat="45.81547" lon="6.38107">
        <ele>1241.8000488281</ele>
        <time>2011-07-23T07:49:09.000Z</time>
      </trkpt>
      <trkpt lat="45.81546" lon="6.38115">
        <ele>1241.5999755859</ele>
        <time>2011-07-23T07:49:12.000Z</time>
      </trkpt>
      <trkpt lat="45.81545" lon="6.38122">
        <ele>1241.4000244141</ele>
        <time>2011-07-23T07:49:14.000Z</time>
      </trkpt>
      <trkpt lat="45.81545" lon="6.38137">
        <ele>1241.4000244141</ele>
        <time>2011-07-23T07:49:19.000Z</time>
      </trkpt>
      <trkpt lat="45.81547" lon="6.38143">
        <ele>1241.8000488281</ele>
        <time>2011-07-23T07:49:21.000Z</time>
      </trkpt>
      <trkpt lat="45.81548" lon="6.38152">
        <ele>1242.4000244141</ele>
        <time>2011-07-23T07:49:24.000Z</time>
      </trkpt>
      <trkpt lat="45.81548" lon="6.38158">
        <ele>1242.1999511719</ele>
        <time>2011-07-23T07:49:26.000Z</time>
      </trkpt>
      <trkpt lat="45.81547" lon="6.38163">
        <ele>1242.1999511719</ele>
        <time>2011-07-23T07:49:27.000Z</time>
      </trkpt>
      <trkpt lat="45.81545" lon="6.3817">
        <ele>1241.5999755859</ele>
        <time>2011-07-23T07:49:30.000Z</time>
      </trkpt>
      <trkpt lat="45.81544" lon="6.38173">
        <ele>1241.4000244141</ele>
        <time>2011-07-23T07:49:31.000Z</time>
      </trkpt>
      <trkpt lat="45.81542" lon="6.38183">
        <ele>1241.1999511719</ele>
        <time>2011-07-23T07:49:34.000Z</time>
      </trkpt>
      <trkpt lat="45.81541" lon="6.38187">
        <ele>1241.1999511719</ele>
        <time>2011-07-23T07:49:35.000Z</time>
      </trkpt>
      <trkpt lat="45.8154" lon="6.38195">
        <ele>1240.8000488281</ele>
        <time>2011-07-23T07:49:37.000Z</time>
      </trkpt>
      <trkpt lat="45.8154" lon="6.38206">
        <ele>1241.4000244141</ele>
        <time>2011-07-23T07:49:40.000Z</time>
      </trkpt>
      <trkpt lat="45.8154" lon="6.38209">
        <ele>1241.5999755859</ele>
        <time>2011-07-23T07:49:41.000Z</time>
      </trkpt>
      <trkpt lat="45.81539" lon="6.38215">
        <ele>1241.5999755859</ele>
        <time>2011-07-23T07:49:43.000Z</time>
      </trkpt>
      <trkpt lat="45.81539" lon="6.38221">
        <ele>1241.8000488281</ele>
        <time>2011-07-23T07:49:45.000Z</time>
      </trkpt>
      <trkpt lat="45.81538" lon="6.3823">
        <ele>1241.8000488281</ele>
        <time>2011-07-23T07:49:48.000Z</time>
      </trkpt>
      <trkpt lat="45.81537" lon="6.3824">
        <ele>1241.8000488281</ele>
        <time>2011-07-23T07:49:52.000Z</time>
      </trkpt>
      <trkpt lat="45.8154" lon="6.38246">
        <ele>1243.1999511719</ele>
        <time>2011-07-23T07:49:55.000Z</time>
      </trkpt>
      <trkpt lat="45.81541" lon="6.38248">
        <ele>1243.5999755859</ele>
        <time>2011-07-23T07:49:56.000Z</time>
      </trkpt>
      <trkpt lat="45.81542" lon="6.38249">
        <ele>1244</ele>
        <time>2011-07-23T07:49:59.000Z</time>
      </trkpt>
      <trkpt lat="45.81543" lon="6.3825">
        <ele>1244.5999755859</ele>
        <time>2011-07-23T07:50:00.000Z</time>
      </trkpt>
      <trkpt lat="45.81547" lon="6.38256">
        <ele>1246.4000244141</ele>
        <time>2011-07-23T07:50:10.000Z</time>
      </trkpt>
      <trkpt lat="45.81547" lon="6.38262">
        <ele>1246.4000244141</ele>
        <time>2011-07-23T07:50:17.000Z</time>
      </trkpt>
      <trkpt lat="45.81548" lon="6.38266">
        <ele>1247.1999511719</ele>
        <time>2011-07-23T07:50:19.000Z</time>
      </trkpt>
      <trkpt lat="45.81548" lon="6.38271">
        <ele>1247.5999755859</ele>
        <time>2011-07-23T07:50:21.000Z</time>
      </trkpt>
      <trkpt lat="45.81548" lon="6.38273">
        <ele>1247.4000244141</ele>
        <time>2011-07-23T07:50:22.000Z</time>
      </trkpt>
      <trkpt lat="45.81549" lon="6.38282">
        <ele>1248.5999755859</ele>
        <time>2011-07-23T07:50:26.000Z</time>
      </trkpt>
      <trkpt lat="45.81558" lon="6.38289">
        <ele>1252.4000244141</ele>
        <time>2011-07-23T07:50:31.000Z</time>
      </trkpt>
      <trkpt lat="45.81561" lon="6.38295">
        <ele>1254.1999511719</ele>
        <time>2011-07-23T07:50:33.000Z</time>
      </trkpt>
      <trkpt lat="45.81562" lon="6.38302">
        <ele>1255</ele>
        <time>2011-07-23T07:50:35.000Z</time>
      </trkpt>
      <trkpt lat="45.81559" lon="6.38314">
        <ele>1254.8000488281</ele>
        <time>2011-07-23T07:50:39.000Z</time>
      </trkpt>
      <trkpt lat="45.81559" lon="6.38317">
        <ele>1254.8000488281</ele>
        <time>2011-07-23T07:50:40.000Z</time>
      </trkpt>
      <trkpt lat="45.81557" lon="6.3832">
        <ele>1254.4000244141</ele>
        <time>2011-07-23T07:50:41.000Z</time>
      </trkpt>
      <trkpt lat="45.81555" lon="6.3833">
        <ele>1253.5999755859</ele>
        <time>2011-07-23T07:50:45.000Z</time>
      </trkpt>
      <trkpt lat="45.81553" lon="6.38335">
        <ele>1253.1999511719</ele>
        <time>2011-07-23T07:50:47.000Z</time>
      </trkpt>
      <trkpt lat="45.81552" lon="6.3834">
        <ele>1252.4000244141</ele>
        <time>2011-07-23T07:50:49.000Z</time>
      </trkpt>
      <trkpt lat="45.81552" lon="6.38342">
        <ele>1252.4000244141</ele>
        <time>2011-07-23T07:50:50.000Z</time>
      </trkpt>
      <trkpt lat="45.81552" lon="6.38344">
        <ele>1252.1999511719</ele>
        <time>2011-07-23T07:50:51.000Z</time>
      </trkpt>
      <trkpt lat="45.81551" lon="6.38357">
        <ele>1251.5999755859</ele>
        <time>2011-07-23T07:50:55.000Z</time>
      </trkpt>
      <trkpt lat="45.8155" lon="6.38365">
        <ele>1251.1999511719</ele>
        <time>2011-07-23T07:50:57.000Z</time>
      </trkpt>
      <trkpt lat="45.8155" lon="6.38369">
        <ele>1251.1999511719</ele>
        <time>2011-07-23T07:50:58.000Z</time>
      </trkpt>
      <trkpt lat="45.81549" lon="6.38376">
        <ele>1250.8000488281</ele>
        <time>2011-07-23T07:51:00.000Z</time>
      </trkpt>
      <trkpt lat="45.81548" lon="6.38393">
        <ele>1250</ele>
        <time>2011-07-23T07:51:05.000Z</time>
      </trkpt>
      <trkpt lat="45.81548" lon="6.38396">
        <ele>1250</ele>
        <time>2011-07-23T07:51:06.000Z</time>
      </trkpt>
      <trkpt lat="45.81547" lon="6.38404">
        <ele>1249.8000488281</ele>
        <time>2011-07-23T07:51:09.000Z</time>
      </trkpt>
      <trkpt lat="45.81548" lon="6.38407">
        <ele>1250</ele>
        <time>2011-07-23T07:51:10.000Z</time>
      </trkpt>
      <trkpt lat="45.81553" lon="6.3842">
        <ele>1251.5999755859</ele>
        <time>2011-07-23T07:51:15.000Z</time>
      </trkpt>
      <trkpt lat="45.81555" lon="6.38427">
        <ele>1252</ele>
        <time>2011-07-23T07:51:17.000Z</time>
      </trkpt>
      <trkpt lat="45.81557" lon="6.38431">
        <ele>1252.4000244141</ele>
        <time>2011-07-23T07:51:19.000Z</time>
      </trkpt>
      <trkpt lat="45.81562" lon="6.38442">
        <ele>1253.4000244141</ele>
        <time>2011-07-23T07:51:23.000Z</time>
      </trkpt>
      <trkpt lat="45.81565" lon="6.38448">
        <ele>1253.8000488281</ele>
        <time>2011-07-23T07:51:25.000Z</time>
      </trkpt>
      <trkpt lat="45.81568" lon="6.38459">
        <ele>1253.5999755859</ele>
        <time>2011-07-23T07:51:29.000Z</time>
      </trkpt>
      <trkpt lat="45.81568" lon="6.38462">
        <ele>1253.4000244141</ele>
        <time>2011-07-23T07:51:30.000Z</time>
      </trkpt>
      <trkpt lat="45.81568" lon="6.38468">
        <ele>1252.8000488281</ele>
        <time>2011-07-23T07:51:32.000Z</time>
      </trkpt>
      <trkpt lat="45.81567" lon="6.38471">
        <ele>1252.5999755859</ele>
        <time>2011-07-23T07:51:33.000Z</time>
      </trkpt>
      <trkpt lat="45.81567" lon="6.38478">
        <ele>1252.1999511719</ele>
        <time>2011-07-23T07:51:35.000Z</time>
      </trkpt>
      <trkpt lat="45.81567" lon="6.38494">
        <ele>1251</ele>
        <time>2011-07-23T07:51:39.000Z</time>
      </trkpt>
      <trkpt lat="45.81567" lon="6.38497">
        <ele>1250.8000488281</ele>
        <time>2011-07-23T07:51:40.000Z</time>
      </trkpt>
      <trkpt lat="45.81568" lon="6.38518">
        <ele>1250.4000244141</ele>
        <time>2011-07-23T07:51:44.000Z</time>
      </trkpt>
      <trkpt lat="45.81568" lon="6.38525">
        <ele>1250.1999511719</ele>
        <time>2011-07-23T07:51:45.000Z</time>
      </trkpt>
      <trkpt lat="45.8157" lon="6.38531">
        <ele>1250</ele>
        <time>2011-07-23T07:51:46.000Z</time>
      </trkpt>
      <trkpt lat="45.81572" lon="6.38537">
        <ele>1249.8000488281</ele>
        <time>2011-07-23T07:51:47.000Z</time>
      </trkpt>
      <trkpt lat="45.81574" lon="6.38554">
        <ele>1249</ele>
        <time>2011-07-23T07:51:50.000Z</time>
      </trkpt>
      <trkpt lat="45.81573" lon="6.38558">
        <ele>1249</ele>
        <time>2011-07-23T07:51:51.000Z</time>
      </trkpt>
      <trkpt lat="45.8157" lon="6.38561">
        <ele>1249.4000244141</ele>
        <time>2011-07-23T07:51:52.000Z</time>
      </trkpt>
      <trkpt lat="45.81568" lon="6.38564">
        <ele>1249.5999755859</ele>
        <time>2011-07-23T07:51:54.000Z</time>
      </trkpt>
      <trkpt lat="45.8156" lon="6.38564">
        <ele>1250.8000488281</ele>
        <time>2011-07-23T07:51:59.000Z</time>
      </trkpt>
      <trkpt lat="45.81555" lon="6.38562">
        <ele>1251.4000244141</ele>
        <time>2011-07-23T07:52:02.000Z</time>
      </trkpt>
      <trkpt lat="45.81553" lon="6.38559">
        <ele>1251.4000244141</ele>
        <time>2011-07-23T07:52:04.000Z</time>
      </trkpt>
      <trkpt lat="45.81554" lon="6.38555">
        <ele>1251.1999511719</ele>
        <time>2011-07-23T07:52:07.000Z</time>
      </trkpt>
      <trkpt lat="45.81553" lon="6.38552">
        <ele>1251.1999511719</ele>
        <time>2011-07-23T07:52:09.000Z</time>
      </trkpt>
      <trkpt lat="45.81552" lon="6.3855">
        <ele>1251.4000244141</ele>
        <time>2011-07-23T07:52:11.000Z</time>
      </trkpt>
      <trkpt lat="45.81549" lon="6.38549">
        <ele>1251.5999755859</ele>
        <time>2011-07-23T07:52:13.000Z</time>
      </trkpt>
      <trkpt lat="45.81549" lon="6.3855">
        <ele>1251.5999755859</ele>
        <time>2011-07-23T07:52:14.000Z</time>
      </trkpt>
      <trkpt lat="45.81548" lon="6.38549">
        <ele>1251.5999755859</ele>
        <time>2011-07-23T07:52:18.000Z</time>
      </trkpt>
      <trkpt lat="45.81547" lon="6.38552">
        <ele>1251.8000488281</ele>
        <time>2011-07-23T07:52:20.000Z</time>
      </trkpt>
      <trkpt lat="45.81545" lon="6.38554">
        <ele>1252.1999511719</ele>
        <time>2011-07-23T07:52:23.000Z</time>
      </trkpt>
      <trkpt lat="45.81544" lon="6.38554">
        <ele>1252.4000244141</ele>
        <time>2011-07-23T07:52:24.000Z</time>
      </trkpt>
      <trkpt lat="45.81543" lon="6.38554">
        <ele>1252.4000244141</ele>
        <time>2011-07-23T07:52:25.000Z</time>
      </trkpt>
      <trkpt lat="45.81544" lon="6.38558">
        <ele>1252.5999755859</ele>
        <time>2011-07-23T07:52:28.000Z</time>
      </trkpt>
      <trkpt lat="45.81546" lon="6.38558">
        <ele>1252.4000244141</ele>
        <time>2011-07-23T07:52:30.000Z</time>
      </trkpt>
      <trkpt lat="45.81548" lon="6.38556">
        <ele>1252</ele>
        <time>2011-07-23T07:52:34.000Z</time>
      </trkpt>
      <trkpt lat="45.81549" lon="6.38557">
        <ele>1252</ele>
        <time>2011-07-23T07:52:36.000Z</time>
      </trkpt>
      <trkpt lat="45.81549" lon="6.38559">
        <ele>1252</ele>
        <time>2011-07-23T07:52:38.000Z</time>
      </trkpt>
      <trkpt lat="45.8155" lon="6.38563">
        <ele>1252.1999511719</ele>
        <time>2011-07-23T07:52:42.000Z</time>
      </trkpt>
      <trkpt lat="45.81545" lon="6.38561">
        <ele>1252.5999755859</ele>
        <time>2011-07-23T07:52:48.000Z</time>
      </trkpt>
      <trkpt lat="45.81544" lon="6.3856">
        <ele>1252.8000488281</ele>
        <time>2011-07-23T07:52:49.000Z</time>
      </trkpt>
      <trkpt lat="45.81543" lon="6.38564">
        <ele>1253.1999511719</ele>
        <time>2011-07-23T07:52:52.000Z</time>
      </trkpt>
      <trkpt lat="45.81545" lon="6.38568">
        <ele>1253.1999511719</ele>
        <time>2011-07-23T07:52:55.000Z</time>
      </trkpt>
      <trkpt lat="45.81546" lon="6.3857">
        <ele>1253.1999511719</ele>
        <time>2011-07-23T07:52:56.000Z</time>
      </trkpt>
      <trkpt lat="45.81546" lon="6.38571">
        <ele>1253.1999511719</ele>
        <time>2011-07-23T07:52:57.000Z</time>
      </trkpt>
      <trkpt lat="45.81547" lon="6.38571">
        <ele>1253.1999511719</ele>
        <time>2011-07-23T07:52:58.000Z</time>
      </trkpt>
      <trkpt lat="45.81547" lon="6.38574">
        <ele>1253.1999511719</ele>
        <time>2011-07-23T07:53:00.000Z</time>
      </trkpt>
      <trkpt lat="45.81549" lon="6.38573">
        <ele>1252.8000488281</ele>
        <time>2011-07-23T07:53:05.000Z</time>
      </trkpt>
      <trkpt lat="45.8155" lon="6.38572">
        <ele>1252.5999755859</ele>
        <time>2011-07-23T07:53:06.000Z</time>
      </trkpt>
      <trkpt lat="45.81555" lon="6.38574">
        <ele>1251.8000488281</ele>
        <time>2011-07-23T07:53:10.000Z</time>
      </trkpt>
      <trkpt lat="45.81557" lon="6.38581">
        <ele>1251.5999755859</ele>
        <time>2011-07-23T07:53:14.000Z</time>
      </trkpt>
      <trkpt lat="45.81556" lon="6.38582">
        <ele>1251.5999755859</ele>
        <time>2011-07-23T07:53:15.000Z</time>
      </trkpt>
      <trkpt lat="45.81556" lon="6.38584">
        <ele>1251.8000488281</ele>
        <time>2011-07-23T07:53:16.000Z</time>
      </trkpt>
      <trkpt lat="45.81556" lon="6.38588">
        <ele>1252.8000488281</ele>
        <time>2011-07-23T07:53:20.000Z</time>
      </trkpt>
      <trkpt lat="45.81554" lon="6.38592">
        <ele>1253.5999755859</ele>
        <time>2011-07-23T07:53:25.000Z</time>
      </trkpt>
      <trkpt lat="45.81551" lon="6.38597">
        <ele>1255</ele>
        <time>2011-07-23T07:53:33.000Z</time>
      </trkpt>
      <trkpt lat="45.81553" lon="6.38601">
        <ele>1255.4000244141</ele>
        <time>2011-07-23T07:53:37.000Z</time>
      </trkpt>
      <trkpt lat="45.81552" lon="6.38602">
        <ele>1255.5999755859</ele>
        <time>2011-07-23T07:53:38.000Z</time>
      </trkpt>
      <trkpt lat="45.81551" lon="6.38607">
        <ele>1256.8000488281</ele>
        <time>2011-07-23T07:53:43.000Z</time>
      </trkpt>
      <trkpt lat="45.81549" lon="6.38614">
        <ele>1258.4000244141</ele>
        <time>2011-07-23T07:53:47.000Z</time>
      </trkpt>
      <trkpt lat="45.8155" lon="6.38617">
        <ele>1258.5999755859</ele>
        <time>2011-07-23T07:53:49.000Z</time>
      </trkpt>
      <trkpt lat="45.81553" lon="6.38621">
        <ele>1258.5999755859</ele>
        <time>2011-07-23T07:53:51.000Z</time>
      </trkpt>
      <trkpt lat="45.81555" lon="6.38627">
        <ele>1259.4000244141</ele>
        <time>2011-07-23T07:53:54.000Z</time>
      </trkpt>
      <trkpt lat="45.81538" lon="6.38635">
        <ele>1263.5999755859</ele>
        <time>2011-07-23T07:54:08.000Z</time>
      </trkpt>
      <trkpt lat="45.81532" lon="6.3863">
        <ele>1264</ele>
        <time>2011-07-23T07:54:12.000Z</time>
      </trkpt>
      <trkpt lat="45.8153" lon="6.38631">
        <ele>1264.1999511719</ele>
        <time>2011-07-23T07:54:13.000Z</time>
      </trkpt>
      <trkpt lat="45.81527" lon="6.38631">
        <ele>1264.8000488281</ele>
        <time>2011-07-23T07:54:17.000Z</time>
      </trkpt>
      <trkpt lat="45.81522" lon="6.38641">
        <ele>1267.1999511719</ele>
        <time>2011-07-23T07:54:31.000Z</time>
      </trkpt>
      <trkpt lat="45.81519" lon="6.38643">
        <ele>1267.8000488281</ele>
        <time>2011-07-23T07:54:34.000Z</time>
      </trkpt>
      <trkpt lat="45.81512" lon="6.3864">
        <ele>1268.5999755859</ele>
        <time>2011-07-23T07:54:43.000Z</time>
      </trkpt>
      <trkpt lat="45.8151" lon="6.38638">
        <ele>1268.8000488281</ele>
        <time>2011-07-23T07:54:46.000Z</time>
      </trkpt>
      <trkpt lat="45.8151" lon="6.38634">
        <ele>1268.1999511719</ele>
        <time>2011-07-23T07:54:49.000Z</time>
      </trkpt>
      <trkpt lat="45.81509" lon="6.38631">
        <ele>1268.1999511719</ele>
        <time>2011-07-23T07:54:56.000Z</time>
      </trkpt>
      <trkpt lat="45.81508" lon="6.38631">
        <ele>1268.1999511719</ele>
        <time>2011-07-23T07:54:57.000Z</time>
      </trkpt>
      <trkpt lat="45.81506" lon="6.3863">
        <ele>1268.4000244141</ele>
        <time>2011-07-23T07:55:00.000Z</time>
      </trkpt>
      <trkpt lat="45.81502" lon="6.38626">
        <ele>1268.5999755859</ele>
        <time>2011-07-23T07:55:06.000Z</time>
      </trkpt>
      <trkpt lat="45.81503" lon="6.38625">
        <ele>1268.4000244141</ele>
        <time>2011-07-23T07:55:07.000Z</time>
      </trkpt>
      <trkpt lat="45.81503" lon="6.38622">
        <ele>1268</ele>
        <time>2011-07-23T07:55:10.000Z</time>
      </trkpt>
      <trkpt lat="45.81502" lon="6.38621">
        <ele>1268</ele>
        <time>2011-07-23T07:55:11.000Z</time>
      </trkpt>
      <trkpt lat="45.81497" lon="6.38615">
        <ele>1268.4000244141</ele>
        <time>2011-07-23T07:55:17.000Z</time>
      </trkpt>
      <trkpt lat="45.81496" lon="6.38613">
        <ele>1268.1999511719</ele>
        <time>2011-07-23T07:55:18.000Z</time>
      </trkpt>
      <trkpt lat="45.81491" lon="6.38608">
        <ele>1268.5999755859</ele>
        <time>2011-07-23T07:55:23.000Z</time>
      </trkpt>
      <trkpt lat="45.81489" lon="6.38607">
        <ele>1268.8000488281</ele>
        <time>2011-07-23T07:55:25.000Z</time>
      </trkpt>
      <trkpt lat="45.81483" lon="6.38604">
        <ele>1269.5999755859</ele>
        <time>2011-07-23T07:55:31.000Z</time>
      </trkpt>
      <trkpt lat="45.81479" lon="6.38604">
        <ele>1270.4000244141</ele>
        <time>2011-07-23T07:55:34.000Z</time>
      </trkpt>
      <trkpt lat="45.81473" lon="6.38605">
        <ele>1271.5999755859</ele>
        <time>2011-07-23T07:55:38.000Z</time>
      </trkpt>
      <trkpt lat="45.81469" lon="6.38598">
        <ele>1271.4000244141</ele>
        <time>2011-07-23T07:55:46.000Z</time>
      </trkpt>
      <trkpt lat="45.81468" lon="6.3859">
        <ele>1270.5999755859</ele>
        <time>2011-07-23T07:55:53.000Z</time>
      </trkpt>
      <trkpt lat="45.81467" lon="6.38588">
        <ele>1270.4000244141</ele>
        <time>2011-07-23T07:55:55.000Z</time>
      </trkpt>
      <trkpt lat="45.81466" lon="6.38587">
        <ele>1270.4000244141</ele>
        <time>2011-07-23T07:55:56.000Z</time>
      </trkpt>
      <trkpt lat="45.81463" lon="6.38584">
        <ele>1270.5999755859</ele>
        <time>2011-07-23T07:55:59.000Z</time>
      </trkpt>
      <trkpt lat="45.81461" lon="6.38583">
        <ele>1270.8000488281</ele>
        <time>2011-07-23T07:56:01.000Z</time>
      </trkpt>
      <trkpt lat="45.81456" lon="6.38587">
        <ele>1272.1999511719</ele>
        <time>2011-07-23T07:56:06.000Z</time>
      </trkpt>
      <trkpt lat="45.81454" lon="6.38588">
        <ele>1272.8000488281</ele>
        <time>2011-07-23T07:56:08.000Z</time>
      </trkpt>
      <trkpt lat="45.81449" lon="6.38589">
        <ele>1273.8000488281</ele>
        <time>2011-07-23T07:56:12.000Z</time>
      </trkpt>
      <trkpt lat="45.8144" lon="6.38584">
        <ele>1274.8000488281</ele>
        <time>2011-07-23T07:56:18.000Z</time>
      </trkpt>
      <trkpt lat="45.81432" lon="6.38578">
        <ele>1275.4000244141</ele>
        <time>2011-07-23T07:56:23.000Z</time>
      </trkpt>
      <trkpt lat="45.81428" lon="6.38575">
        <ele>1275.8000488281</ele>
        <time>2011-07-23T07:56:25.000Z</time>
      </trkpt>
      <trkpt lat="45.81417" lon="6.38564">
        <ele>1276.5999755859</ele>
        <time>2011-07-23T07:56:32.000Z</time>
      </trkpt>
      <trkpt lat="45.81416" lon="6.38563">
        <ele>1276.8000488281</ele>
        <time>2011-07-23T07:56:33.000Z</time>
      </trkpt>
      <trkpt lat="45.81407" lon="6.38555">
        <ele>1277.1999511719</ele>
        <time>2011-07-23T07:56:39.000Z</time>
      </trkpt>
      <trkpt lat="45.81399" lon="6.38552">
        <ele>1277.8000488281</ele>
        <time>2011-07-23T07:56:43.000Z</time>
      </trkpt>
      <trkpt lat="45.81394" lon="6.38552">
        <ele>1278.4000244141</ele>
        <time>2011-07-23T07:56:45.000Z</time>
      </trkpt>
      <trkpt lat="45.81381" lon="6.3855">
        <ele>1279.8000488281</ele>
        <time>2011-07-23T07:56:51.000Z</time>
      </trkpt>
      <trkpt lat="45.81379" lon="6.38548">
        <ele>1279.8000488281</ele>
        <time>2011-07-23T07:56:52.000Z</time>
      </trkpt>
      <trkpt lat="45.81369" lon="6.38544">
        <ele>1280.5999755859</ele>
        <time>2011-07-23T07:56:58.000Z</time>
      </trkpt>
      <trkpt lat="45.81365" lon="6.38543">
        <ele>1281.1999511719</ele>
        <time>2011-07-23T07:57:01.000Z</time>
      </trkpt>
      <trkpt lat="45.81363" lon="6.38543">
        <ele>1281.1999511719</ele>
        <time>2011-07-23T07:57:03.000Z</time>
      </trkpt>
      <trkpt lat="45.81363" lon="6.38543">
        <ele>1281.1999511719</ele>
        <time>2011-07-23T07:57:04.000Z</time>
      </trkpt>
      <trkpt lat="45.81362" lon="6.38542">
        <ele>1281.4000244141</ele>
        <time>2011-07-23T07:57:05.000Z</time>
      </trkpt>
      <trkpt lat="45.81361" lon="6.38537">
        <ele>1281</ele>
        <time>2011-07-23T07:57:09.000Z</time>
      </trkpt>
      <trkpt lat="45.81357" lon="6.38531">
        <ele>1280.5999755859</ele>
        <time>2011-07-23T07:57:13.000Z</time>
      </trkpt>
      <trkpt lat="45.8135" lon="6.38525">
        <ele>1280.8000488281</ele>
        <time>2011-07-23T07:57:18.000Z</time>
      </trkpt>
      <trkpt lat="45.81347" lon="6.38522">
        <ele>1280.8000488281</ele>
        <time>2011-07-23T07:57:20.000Z</time>
      </trkpt>
      <trkpt lat="45.81335" lon="6.38512">
        <ele>1281.1999511719</ele>
        <time>2011-07-23T07:57:26.000Z</time>
      </trkpt>
      <trkpt lat="45.81333" lon="6.3851">
        <ele>1281.1999511719</ele>
        <time>2011-07-23T07:57:27.000Z</time>
      </trkpt>
      <trkpt lat="45.81321" lon="6.38505">
        <ele>1280.5999755859</ele>
        <time>2011-07-23T07:57:32.000Z</time>
      </trkpt>
      <trkpt lat="45.81317" lon="6.38502">
        <ele>1280.1999511719</ele>
        <time>2011-07-23T07:57:34.000Z</time>
      </trkpt>
      <trkpt lat="45.8131" lon="6.38501">
        <ele>1280</ele>
        <time>2011-07-23T07:57:37.000Z</time>
      </trkpt>
      <trkpt lat="45.81297" lon="6.38503">
        <ele>1280.4000244141</ele>
        <time>2011-07-23T07:57:42.000Z</time>
      </trkpt>
      <trkpt lat="45.81287" lon="6.38504">
        <ele>1280.8000488281</ele>
        <time>2011-07-23T07:57:46.000Z</time>
      </trkpt>
      <trkpt lat="45.81277" lon="6.38506">
        <ele>1281</ele>
        <time>2011-07-23T07:57:51.000Z</time>
      </trkpt>
      <trkpt lat="45.81276" lon="6.38505">
        <ele>1281</ele>
        <time>2011-07-23T07:57:52.000Z</time>
      </trkpt>
      <trkpt lat="45.81264" lon="6.38505">
        <ele>1281</ele>
        <time>2011-07-23T07:57:57.000Z</time>
      </trkpt>
      <trkpt lat="45.81259" lon="6.38503">
        <ele>1280.5999755859</ele>
        <time>2011-07-23T07:57:59.000Z</time>
      </trkpt>
      <trkpt lat="45.8125" lon="6.38504">
        <ele>1280.8000488281</ele>
        <time>2011-07-23T07:58:03.000Z</time>
      </trkpt>
      <trkpt lat="45.81246" lon="6.38504">
        <ele>1281.8000488281</ele>
        <time>2011-07-23T07:58:05.000Z</time>
      </trkpt>
      <trkpt lat="45.81242" lon="6.38504">
        <ele>1282.8000488281</ele>
        <time>2011-07-23T07:58:07.000Z</time>
      </trkpt>
      <trkpt lat="45.8124" lon="6.38504">
        <ele>1283.4000244141</ele>
        <time>2011-07-23T07:58:08.000Z</time>
      </trkpt>
      <trkpt lat="45.81227" lon="6.38507">
        <ele>1287.8000488281</ele>
        <time>2011-07-23T07:58:14.000Z</time>
      </trkpt>
      <trkpt lat="45.81223" lon="6.3851">
        <ele>1289.5999755859</ele>
        <time>2011-07-23T07:58:16.000Z</time>
      </trkpt>
      <trkpt lat="45.81219" lon="6.38513">
        <ele>1291.4000244141</ele>
        <time>2011-07-23T07:58:18.000Z</time>
      </trkpt>
      <trkpt lat="45.81209" lon="6.38519">
        <ele>1295.5999755859</ele>
        <time>2011-07-23T07:58:23.000Z</time>
      </trkpt>
      <trkpt lat="45.81206" lon="6.38523">
        <ele>1297.1999511719</ele>
        <time>2011-07-23T07:58:25.000Z</time>
      </trkpt>
      <trkpt lat="45.81205" lon="6.38526">
        <ele>1298.1999511719</ele>
        <time>2011-07-23T07:58:27.000Z</time>
      </trkpt>
      <trkpt lat="45.81203" lon="6.38527">
        <ele>1299</ele>
        <time>2011-07-23T07:58:28.000Z</time>
      </trkpt>
      <trkpt lat="45.81201" lon="6.38533">
        <ele>1301</ele>
        <time>2011-07-23T07:58:32.000Z</time>
      </trkpt>
      <trkpt lat="45.812" lon="6.38532">
        <ele>1301</ele>
        <time>2011-07-23T07:58:37.000Z</time>
      </trkpt>
      <trkpt lat="45.81197" lon="6.38534">
        <ele>1302.4000244141</ele>
        <time>2011-07-23T07:58:55.000Z</time>
      </trkpt>
      <trkpt lat="45.81195" lon="6.38534">
        <ele>1302.8000488281</ele>
        <time>2011-07-23T07:58:59.000Z</time>
      </trkpt>
      <trkpt lat="45.81194" lon="6.38533">
        <ele>1303</ele>
        <time>2011-07-23T07:59:02.000Z</time>
      </trkpt>
      <trkpt lat="45.81191" lon="6.3853">
        <ele>1303.1999511719</ele>
        <time>2011-07-23T07:59:05.000Z</time>
      </trkpt>
      <trkpt lat="45.81191" lon="6.38529">
        <ele>1302.5999755859</ele>
        <time>2011-07-23T07:59:06.000Z</time>
      </trkpt>
      <trkpt lat="45.81191" lon="6.3852">
        <ele>1300.4000244141</ele>
        <time>2011-07-23T07:59:09.000Z</time>
      </trkpt>
      <trkpt lat="45.81193" lon="6.38512">
        <ele>1298</ele>
        <time>2011-07-23T07:59:12.000Z</time>
      </trkpt>
      <trkpt lat="45.81192" lon="6.38509">
        <ele>1297.1999511719</ele>
        <time>2011-07-23T07:59:14.000Z</time>
      </trkpt>
      <trkpt lat="45.81192" lon="6.38496">
        <ele>1294.4000244141</ele>
        <time>2011-07-23T07:59:21.000Z</time>
      </trkpt>
      <trkpt lat="45.81191" lon="6.38486">
        <ele>1292.5999755859</ele>
        <time>2011-07-23T07:59:26.000Z</time>
      </trkpt>
      <trkpt lat="45.81191" lon="6.38484">
        <ele>1292</ele>
        <time>2011-07-23T07:59:27.000Z</time>
      </trkpt>
      <trkpt lat="45.81191" lon="6.3847">
        <ele>1289.4000244141</ele>
        <time>2011-07-23T07:59:31.000Z</time>
      </trkpt>
      <trkpt lat="45.81191" lon="6.38459">
        <ele>1287.1999511719</ele>
        <time>2011-07-23T07:59:34.000Z</time>
      </trkpt>
      <trkpt lat="45.8119" lon="6.38457">
        <ele>1287</ele>
        <time>2011-07-23T07:59:35.000Z</time>
      </trkpt>
      <trkpt lat="45.81188" lon="6.38452">
        <ele>1286.5999755859</ele>
        <time>2011-07-23T07:59:37.000Z</time>
      </trkpt>
      <trkpt lat="45.81179" lon="6.38438">
        <ele>1285.4000244141</ele>
        <time>2011-07-23T07:59:42.000Z</time>
      </trkpt>
      <trkpt lat="45.81166" lon="6.38427">
        <ele>1285.1999511719</ele>
        <time>2011-07-23T07:59:47.000Z</time>
      </trkpt>
      <trkpt lat="45.81162" lon="6.38422">
        <ele>1284.1999511719</ele>
        <time>2011-07-23T07:59:49.000Z</time>
      </trkpt>
      <trkpt lat="45.81155" lon="6.38415">
        <ele>1282.8000488281</ele>
        <time>2011-07-23T07:59:52.000Z</time>
      </trkpt>
      <trkpt lat="45.81146" lon="6.38405">
        <ele>1281.1999511719</ele>
        <time>2011-07-23T07:59:57.000Z</time>
      </trkpt>
      <trkpt lat="45.81134" lon="6.38398">
        <ele>1280.1999511719</ele>
        <time>2011-07-23T08:00:03.000Z</time>
      </trkpt>
      <trkpt lat="45.81128" lon="6.38394">
        <ele>1279.8000488281</ele>
        <time>2011-07-23T08:00:07.000Z</time>
      </trkpt>
      <trkpt lat="45.81123" lon="6.38391">
        <ele>1279.4000244141</ele>
        <time>2011-07-23T08:00:09.000Z</time>
      </trkpt>
      <trkpt lat="45.81113" lon="6.38385">
        <ele>1278.8000488281</ele>
        <time>2011-07-23T08:00:14.000Z</time>
      </trkpt>
      <trkpt lat="45.81109" lon="6.38382">
        <ele>1278.5999755859</ele>
        <time>2011-07-23T08:00:16.000Z</time>
      </trkpt>
      <trkpt lat="45.81104" lon="6.38379">
        <ele>1278.1999511719</ele>
        <time>2011-07-23T08:00:19.000Z</time>
      </trkpt>
      <trkpt lat="45.81096" lon="6.38376">
        <ele>1278</ele>
        <time>2011-07-23T08:00:23.000Z</time>
      </trkpt>
      <trkpt lat="45.81091" lon="6.38373">
        <ele>1277.8000488281</ele>
        <time>2011-07-23T08:00:26.000Z</time>
      </trkpt>
      <trkpt lat="45.81085" lon="6.38371">
        <ele>1277.8000488281</ele>
        <time>2011-07-23T08:00:29.000Z</time>
      </trkpt>
      <trkpt lat="45.81071" lon="6.38368">
        <ele>1277.8000488281</ele>
        <time>2011-07-23T08:00:35.000Z</time>
      </trkpt>
      <trkpt lat="45.81056" lon="6.38367">
        <ele>1278.1999511719</ele>
        <time>2011-07-23T08:00:43.000Z</time>
      </trkpt>
      <trkpt lat="45.81052" lon="6.3837">
        <ele>1278.5999755859</ele>
        <time>2011-07-23T08:00:45.000Z</time>
      </trkpt>
      <trkpt lat="45.81044" lon="6.38375">
        <ele>1279.5999755859</ele>
        <time>2011-07-23T08:00:50.000Z</time>
      </trkpt>
      <trkpt lat="45.81039" lon="6.38382">
        <ele>1280.8000488281</ele>
        <time>2011-07-23T08:00:56.000Z</time>
      </trkpt>
      <trkpt lat="45.8104" lon="6.38382">
        <ele>1280.8000488281</ele>
        <time>2011-07-23T08:01:03.000Z</time>
      </trkpt>
      <trkpt lat="45.81041" lon="6.38384">
        <ele>1281</ele>
        <time>2011-07-23T08:01:27.000Z</time>
      </trkpt>
      <trkpt lat="45.8104" lon="6.38386">
        <ele>1281.1999511719</ele>
        <time>2011-07-23T08:01:29.000Z</time>
      </trkpt>
      <trkpt lat="45.81039" lon="6.38397">
        <ele>1283.1999511719</ele>
        <time>2011-07-23T08:01:37.000Z</time>
      </trkpt>
      <trkpt lat="45.81038" lon="6.3841">
        <ele>1285</ele>
        <time>2011-07-23T08:01:44.000Z</time>
      </trkpt>
      <trkpt lat="45.81037" lon="6.38424">
        <ele>1287.8000488281</ele>
        <time>2011-07-23T08:01:52.000Z</time>
      </trkpt>
      <trkpt lat="45.81036" lon="6.38437">
        <ele>1291.4000244141</ele>
        <time>2011-07-23T08:02:00.000Z</time>
      </trkpt>
      <trkpt lat="45.81036" lon="6.38439">
        <ele>1291.8000488281</ele>
        <time>2011-07-23T08:02:01.000Z</time>
      </trkpt>
      <trkpt lat="45.81043" lon="6.38447">
        <ele>1293.8000488281</ele>
        <time>2011-07-23T08:02:08.000Z</time>
      </trkpt>
      <trkpt lat="45.81048" lon="6.38453">
        <ele>1295</ele>
        <time>2011-07-23T08:02:13.000Z</time>
      </trkpt>
      <trkpt lat="45.81049" lon="6.38454">
        <ele>1295.5999755859</ele>
        <time>2011-07-23T08:02:15.000Z</time>
      </trkpt>
      <trkpt lat="45.81049" lon="6.38455">
        <ele>1295.8000488281</ele>
        <time>2011-07-23T08:02:16.000Z</time>
      </trkpt>
      <trkpt lat="45.81053" lon="6.38459">
        <ele>1296.5999755859</ele>
        <time>2011-07-23T08:02:19.000Z</time>
      </trkpt>
      <trkpt lat="45.81056" lon="6.38462">
        <ele>1297.4000244141</ele>
        <time>2011-07-23T08:02:22.000Z</time>
      </trkpt>
      <trkpt lat="45.8106" lon="6.38472">
        <ele>1300.4000244141</ele>
        <time>2011-07-23T08:02:30.000Z</time>
      </trkpt>
      <trkpt lat="45.81061" lon="6.38474">
        <ele>1300.8000488281</ele>
        <time>2011-07-23T08:02:31.000Z</time>
      </trkpt>
      <trkpt lat="45.81062" lon="6.38479">
        <ele>1302.1999511719</ele>
        <time>2011-07-23T08:02:34.000Z</time>
      </trkpt>
      <trkpt lat="45.81063" lon="6.38482">
        <ele>1303</ele>
        <time>2011-07-23T08:02:36.000Z</time>
      </trkpt>
      <trkpt lat="45.81063" lon="6.38484">
        <ele>1303.8000488281</ele>
        <time>2011-07-23T08:02:38.000Z</time>
      </trkpt>
      <trkpt lat="45.81066" lon="6.3849">
        <ele>1305.4000244141</ele>
        <time>2011-07-23T08:02:43.000Z</time>
      </trkpt>
      <trkpt lat="45.81067" lon="6.38492">
        <ele>1306</ele>
        <time>2011-07-23T08:02:45.000Z</time>
      </trkpt>
      <trkpt lat="45.81069" lon="6.38498">
        <ele>1307.8000488281</ele>
        <time>2011-07-23T08:02:49.000Z</time>
      </trkpt>
      <trkpt lat="45.8107" lon="6.38501">
        <ele>1308.5999755859</ele>
        <time>2011-07-23T08:02:51.000Z</time>
      </trkpt>
      <trkpt lat="45.81073" lon="6.3851">
        <ele>1310.4000244141</ele>
        <time>2011-07-23T08:02:58.000Z</time>
      </trkpt>
      <trkpt lat="45.81077" lon="6.38522">
        <ele>1313</ele>
        <time>2011-07-23T08:03:06.000Z</time>
      </trkpt>
      <trkpt lat="45.81078" lon="6.38523">
        <ele>1313.4000244141</ele>
        <time>2011-07-23T08:03:07.000Z</time>
      </trkpt>
      <trkpt lat="45.81078" lon="6.3853">
        <ele>1314.8000488281</ele>
        <time>2011-07-23T08:03:13.000Z</time>
      </trkpt>
      <trkpt lat="45.81078" lon="6.3854">
        <ele>1317</ele>
        <time>2011-07-23T08:03:21.000Z</time>
      </trkpt>
      <trkpt lat="45.81078" lon="6.38548">
        <ele>1318.4000244141</ele>
        <time>2011-07-23T08:03:28.000Z</time>
      </trkpt>
      <trkpt lat="45.81078" lon="6.38549">
        <ele>1318.5999755859</ele>
        <time>2011-07-23T08:03:29.000Z</time>
      </trkpt>
      <trkpt lat="45.81075" lon="6.38562">
        <ele>1321.1999511719</ele>
        <time>2011-07-23T08:03:38.000Z</time>
      </trkpt>
      <trkpt lat="45.81073" lon="6.38573">
        <ele>1323.4000244141</ele>
        <time>2011-07-23T08:03:47.000Z</time>
      </trkpt>
      <trkpt lat="45.81071" lon="6.38585">
        <ele>1325.5999755859</ele>
        <time>2011-07-23T08:03:55.000Z</time>
      </trkpt>
      <trkpt lat="45.81071" lon="6.38597">
        <ele>1327.4000244141</ele>
        <time>2011-07-23T08:04:03.000Z</time>
      </trkpt>
      <trkpt lat="45.81071" lon="6.38599">
        <ele>1327.8000488281</ele>
        <time>2011-07-23T08:04:04.000Z</time>
      </trkpt>
      <trkpt lat="45.81068" lon="6.3861">
        <ele>1329.4000244141</ele>
        <time>2011-07-23T08:04:11.000Z</time>
      </trkpt>
      <trkpt lat="45.81067" lon="6.38621">
        <ele>1331</ele>
        <time>2011-07-23T08:04:19.000Z</time>
      </trkpt>
      <trkpt lat="45.81066" lon="6.38624">
        <ele>1331.5999755859</ele>
        <time>2011-07-23T08:04:22.000Z</time>
      </trkpt>
      <trkpt lat="45.81064" lon="6.38631">
        <ele>1332.5999755859</ele>
        <time>2011-07-23T08:04:27.000Z</time>
      </trkpt>
      <trkpt lat="45.81058" lon="6.38644">
        <ele>1334.8000488281</ele>
        <time>2011-07-23T08:04:36.000Z</time>
      </trkpt>
      <trkpt lat="45.81056" lon="6.38647">
        <ele>1335.1999511719</ele>
        <time>2011-07-23T08:04:38.000Z</time>
      </trkpt>
      <trkpt lat="45.81055" lon="6.38654">
        <ele>1336.4000244141</ele>
        <time>2011-07-23T08:04:44.000Z</time>
      </trkpt>
      <trkpt lat="45.81056" lon="6.38663">
        <ele>1338</ele>
        <time>2011-07-23T08:04:51.000Z</time>
      </trkpt>
      <trkpt lat="45.81056" lon="6.38672">
        <ele>1339.4000244141</ele>
        <time>2011-07-23T08:04:56.000Z</time>
      </trkpt>
      <trkpt lat="45.81056" lon="6.38675">
        <ele>1339.8000488281</ele>
        <time>2011-07-23T08:04:58.000Z</time>
      </trkpt>
      <trkpt lat="45.81055" lon="6.38683">
        <ele>1341</ele>
        <time>2011-07-23T08:05:04.000Z</time>
      </trkpt>
      <trkpt lat="45.81055" lon="6.38685">
        <ele>1341.4000244141</ele>
        <time>2011-07-23T08:05:06.000Z</time>
      </trkpt>
      <trkpt lat="45.81053" lon="6.38691">
        <ele>1342.4000244141</ele>
        <time>2011-07-23T08:05:10.000Z</time>
      </trkpt>
      <trkpt lat="45.81051" lon="6.38697">
        <ele>1343.1999511719</ele>
        <time>2011-07-23T08:05:14.000Z</time>
      </trkpt>
      <trkpt lat="45.81048" lon="6.38701">
        <ele>1343.8000488281</ele>
        <time>2011-07-23T08:05:18.000Z</time>
      </trkpt>
      <trkpt lat="45.81043" lon="6.38712">
        <ele>1345.4000244141</ele>
        <time>2011-07-23T08:05:27.000Z</time>
      </trkpt>
      <trkpt lat="45.8104" lon="6.38718">
        <ele>1346.1999511719</ele>
        <time>2011-07-23T08:05:31.000Z</time>
      </trkpt>
      <trkpt lat="45.81038" lon="6.38724">
        <ele>1347.1999511719</ele>
        <time>2011-07-23T08:05:35.000Z</time>
      </trkpt>
      <trkpt lat="45.81031" lon="6.38735">
        <ele>1348.5999755859</ele>
        <time>2011-07-23T08:05:43.000Z</time>
      </trkpt>
      <trkpt lat="45.81029" lon="6.3874">
        <ele>1349.1999511719</ele>
        <time>2011-07-23T08:05:47.000Z</time>
      </trkpt>
      <trkpt lat="45.81027" lon="6.38744">
        <ele>1349.5999755859</ele>
        <time>2011-07-23T08:05:50.000Z</time>
      </trkpt>
      <trkpt lat="45.81023" lon="6.38752">
        <ele>1350.8000488281</ele>
        <time>2011-07-23T08:05:56.000Z</time>
      </trkpt>
      <trkpt lat="45.81019" lon="6.38761">
        <ele>1352.5999755859</ele>
        <time>2011-07-23T08:06:02.000Z</time>
      </trkpt>
      <trkpt lat="45.81018" lon="6.38764">
        <ele>1353</ele>
        <time>2011-07-23T08:06:04.000Z</time>
      </trkpt>
      <trkpt lat="45.81014" lon="6.38772">
        <ele>1354.1999511719</ele>
        <time>2011-07-23T08:06:10.000Z</time>
      </trkpt>
      <trkpt lat="45.81012" lon="6.3878">
        <ele>1355.8000488281</ele>
        <time>2011-07-23T08:06:17.000Z</time>
      </trkpt>
      <trkpt lat="45.81009" lon="6.38785">
        <ele>1356.5999755859</ele>
        <time>2011-07-23T08:06:22.000Z</time>
      </trkpt>
      <trkpt lat="45.81008" lon="6.38787">
        <ele>1356.8000488281</ele>
        <time>2011-07-23T08:06:24.000Z</time>
      </trkpt>
      <trkpt lat="45.81" lon="6.38794">
        <ele>1357.8000488281</ele>
        <time>2011-07-23T08:06:33.000Z</time>
      </trkpt>
      <trkpt lat="45.80993" lon="6.38797">
        <ele>1358</ele>
        <time>2011-07-23T08:06:40.000Z</time>
      </trkpt>
      <trkpt lat="45.80992" lon="6.38798">
        <ele>1358.1999511719</ele>
        <time>2011-07-23T08:06:41.000Z</time>
      </trkpt>
      <trkpt lat="45.80987" lon="6.38802">
        <ele>1358.5999755859</ele>
        <time>2011-07-23T08:06:48.000Z</time>
      </trkpt>
      <trkpt lat="45.80985" lon="6.38804">
        <ele>1358.8000488281</ele>
        <time>2011-07-23T08:06:50.000Z</time>
      </trkpt>
      <trkpt lat="45.80985" lon="6.38809">
        <ele>1359.8000488281</ele>
        <time>2011-07-23T08:06:54.000Z</time>
      </trkpt>
      <trkpt lat="45.80986" lon="6.38813">
        <ele>1360.4000244141</ele>
        <time>2011-07-23T08:06:57.000Z</time>
      </trkpt>
      <trkpt lat="45.80987" lon="6.38817">
        <ele>1361.1999511719</ele>
        <time>2011-07-23T08:07:00.000Z</time>
      </trkpt>
      <trkpt lat="45.80986" lon="6.38819">
        <ele>1361.5999755859</ele>
        <time>2011-07-23T08:07:02.000Z</time>
      </trkpt>
      <trkpt lat="45.80987" lon="6.3883">
        <ele>1363.8000488281</ele>
        <time>2011-07-23T08:07:09.000Z</time>
      </trkpt>
      <trkpt lat="45.8099" lon="6.38843">
        <ele>1366</ele>
        <time>2011-07-23T08:07:17.000Z</time>
      </trkpt>
      <trkpt lat="45.8099" lon="6.38844">
        <ele>1366.1999511719</ele>
        <time>2011-07-23T08:07:18.000Z</time>
      </trkpt>
      <trkpt lat="45.80989" lon="6.38849">
        <ele>1366.8000488281</ele>
        <time>2011-07-23T08:07:21.000Z</time>
      </trkpt>
      <trkpt lat="45.80988" lon="6.38855">
        <ele>1367.8000488281</ele>
        <time>2011-07-23T08:07:25.000Z</time>
      </trkpt>
      <trkpt lat="45.80985" lon="6.38868">
        <ele>1369.8000488281</ele>
        <time>2011-07-23T08:07:31.000Z</time>
      </trkpt>
      <trkpt lat="45.80982" lon="6.38879">
        <ele>1371.4000244141</ele>
        <time>2011-07-23T08:07:38.000Z</time>
      </trkpt>
      <trkpt lat="45.8098" lon="6.38891">
        <ele>1373.4000244141</ele>
        <time>2011-07-23T08:07:45.000Z</time>
      </trkpt>
      <trkpt lat="45.80979" lon="6.38894">
        <ele>1374</ele>
        <time>2011-07-23T08:07:47.000Z</time>
      </trkpt>
      <trkpt lat="45.80978" lon="6.38902">
        <ele>1375.1999511719</ele>
        <time>2011-07-23T08:07:52.000Z</time>
      </trkpt>
      <trkpt lat="45.80978" lon="6.38903">
        <ele>1375.4000244141</ele>
        <time>2011-07-23T08:07:53.000Z</time>
      </trkpt>
      <trkpt lat="45.80978" lon="6.38908">
        <ele>1376.1999511719</ele>
        <time>2011-07-23T08:07:56.000Z</time>
      </trkpt>
      <trkpt lat="45.80979" lon="6.38909">
        <ele>1376.4000244141</ele>
        <time>2011-07-23T08:07:57.000Z</time>
      </trkpt>
      <trkpt lat="45.80979" lon="6.38917">
        <ele>1377.5999755859</ele>
        <time>2011-07-23T08:08:01.000Z</time>
      </trkpt>
      <trkpt lat="45.80978" lon="6.38919">
        <ele>1378.1999511719</ele>
        <time>2011-07-23T08:08:03.000Z</time>
      </trkpt>
      <trkpt lat="45.80981" lon="6.38926">
        <ele>1379.5999755859</ele>
        <time>2011-07-23T08:08:07.000Z</time>
      </trkpt>
      <trkpt lat="45.80982" lon="6.38933">
        <ele>1381</ele>
        <time>2011-07-23T08:08:12.000Z</time>
      </trkpt>
      <trkpt lat="45.8098" lon="6.38939">
        <ele>1382.4000244141</ele>
        <time>2011-07-23T08:08:17.000Z</time>
      </trkpt>
      <trkpt lat="45.8098" lon="6.3894">
        <ele>1382.5999755859</ele>
        <time>2011-07-23T08:08:18.000Z</time>
      </trkpt>
      <trkpt lat="45.8098" lon="6.38942">
        <ele>1383</ele>
        <time>2011-07-23T08:08:20.000Z</time>
      </trkpt>
      <trkpt lat="45.80981" lon="6.38947">
        <ele>1383.8000488281</ele>
        <time>2011-07-23T08:08:22.000Z</time>
      </trkpt>
      <trkpt lat="45.8098" lon="6.38949">
        <ele>1384.4000244141</ele>
        <time>2011-07-23T08:08:23.000Z</time>
      </trkpt>
      <trkpt lat="45.80981" lon="6.38953">
        <ele>1385.1999511719</ele>
        <time>2011-07-23T08:08:26.000Z</time>
      </trkpt>
      <trkpt lat="45.80981" lon="6.38955">
        <ele>1385.5999755859</ele>
        <time>2011-07-23T08:08:27.000Z</time>
      </trkpt>
      <trkpt lat="45.80983" lon="6.38965">
        <ele>1387.5999755859</ele>
        <time>2011-07-23T08:08:32.000Z</time>
      </trkpt>
      <trkpt lat="45.80984" lon="6.38967">
        <ele>1388</ele>
        <time>2011-07-23T08:08:34.000Z</time>
      </trkpt>
      <trkpt lat="45.80983" lon="6.38969">
        <ele>1388.4000244141</ele>
        <time>2011-07-23T08:08:35.000Z</time>
      </trkpt>
      <trkpt lat="45.80984" lon="6.38972">
        <ele>1389</ele>
        <time>2011-07-23T08:08:37.000Z</time>
      </trkpt>
      <trkpt lat="45.80984" lon="6.38974">
        <ele>1389.5999755859</ele>
        <time>2011-07-23T08:08:38.000Z</time>
      </trkpt>
      <trkpt lat="45.80984" lon="6.38979">
        <ele>1390.5999755859</ele>
        <time>2011-07-23T08:08:40.000Z</time>
      </trkpt>
      <trkpt lat="45.80984" lon="6.3898">
        <ele>1390.8000488281</ele>
        <time>2011-07-23T08:08:41.000Z</time>
      </trkpt>
      <trkpt lat="45.80985" lon="6.38983">
        <ele>1391.4000244141</ele>
        <time>2011-07-23T08:08:43.000Z</time>
      </trkpt>
      <trkpt lat="45.80986" lon="6.38986">
        <ele>1392</ele>
        <time>2011-07-23T08:08:47.000Z</time>
      </trkpt>
      <trkpt lat="45.80986" lon="6.38987">
        <ele>1392.1999511719</ele>
        <time>2011-07-23T08:08:48.000Z</time>
      </trkpt>
      <trkpt lat="45.80988" lon="6.3899">
        <ele>1392.8000488281</ele>
        <time>2011-07-23T08:08:51.000Z</time>
      </trkpt>
      <trkpt lat="45.80988" lon="6.38993">
        <ele>1393.4000244141</ele>
        <time>2011-07-23T08:08:54.000Z</time>
      </trkpt>
      <trkpt lat="45.80989" lon="6.38998">
        <ele>1394.5999755859</ele>
        <time>2011-07-23T08:08:59.000Z</time>
      </trkpt>
      <trkpt lat="45.80988" lon="6.38999">
        <ele>1394.8000488281</ele>
        <time>2011-07-23T08:09:00.000Z</time>
      </trkpt>
      <trkpt lat="45.80989" lon="6.39001">
        <ele>1395</ele>
        <time>2011-07-23T08:09:01.000Z</time>
      </trkpt>
      <trkpt lat="45.8099" lon="6.39005">
        <ele>1395.8000488281</ele>
        <time>2011-07-23T08:09:04.000Z</time>
      </trkpt>
      <trkpt lat="45.80992" lon="6.3901">
        <ele>1396.8000488281</ele>
        <time>2011-07-23T08:09:09.000Z</time>
      </trkpt>
      <trkpt lat="45.80993" lon="6.39015">
        <ele>1397.5999755859</ele>
        <time>2011-07-23T08:09:14.000Z</time>
      </trkpt>
      <trkpt lat="45.80992" lon="6.39017">
        <ele>1398</ele>
        <time>2011-07-23T08:09:15.000Z</time>
      </trkpt>
      <trkpt lat="45.80995" lon="6.39023">
        <ele>1399</ele>
        <time>2011-07-23T08:09:20.000Z</time>
      </trkpt>
      <trkpt lat="45.80996" lon="6.39027">
        <ele>1399.5999755859</ele>
        <time>2011-07-23T08:09:23.000Z</time>
      </trkpt>
      <trkpt lat="45.80996" lon="6.39028">
        <ele>1400</ele>
        <time>2011-07-23T08:09:24.000Z</time>
      </trkpt>
      <trkpt lat="45.80996" lon="6.39029">
        <ele>1400.1999511719</ele>
        <time>2011-07-23T08:09:27.000Z</time>
      </trkpt>
      <trkpt lat="45.80997" lon="6.39037">
        <ele>1401.5999755859</ele>
        <time>2011-07-23T08:11:21.000Z</time>
      </trkpt>
      <trkpt lat="45.81" lon="6.39038">
        <ele>1401.8000488281</ele>
        <time>2011-07-23T08:11:24.000Z</time>
      </trkpt>
      <trkpt lat="45.81001" lon="6.39041">
        <ele>1402.1999511719</ele>
        <time>2011-07-23T08:11:28.000Z</time>
      </trkpt>
      <trkpt lat="45.81" lon="6.39042">
        <ele>1402.5999755859</ele>
        <time>2011-07-23T08:11:31.000Z</time>
      </trkpt>
      <trkpt lat="45.81003" lon="6.39046">
        <ele>1403.4000244141</ele>
        <time>2011-07-23T08:11:35.000Z</time>
      </trkpt>
      <trkpt lat="45.81004" lon="6.39049">
        <ele>1404.1999511719</ele>
        <time>2011-07-23T08:11:38.000Z</time>
      </trkpt>
      <trkpt lat="45.81006" lon="6.39052">
        <ele>1404.8000488281</ele>
        <time>2011-07-23T08:11:41.000Z</time>
      </trkpt>
      <trkpt lat="45.8101" lon="6.39061">
        <ele>1407</ele>
        <time>2011-07-23T08:11:49.000Z</time>
      </trkpt>
      <trkpt lat="45.8101" lon="6.39064">
        <ele>1407.4000244141</ele>
        <time>2011-07-23T08:11:51.000Z</time>
      </trkpt>
      <trkpt lat="45.81013" lon="6.39072">
        <ele>1409</ele>
        <time>2011-07-23T08:11:57.000Z</time>
      </trkpt>
      <trkpt lat="45.81015" lon="6.39082">
        <ele>1411</ele>
        <time>2011-07-23T08:12:04.000Z</time>
      </trkpt>
      <trkpt lat="45.81017" lon="6.39088">
        <ele>1412.4000244141</ele>
        <time>2011-07-23T08:12:09.000Z</time>
      </trkpt>
      <trkpt lat="45.81018" lon="6.3909">
        <ele>1412.8000488281</ele>
        <time>2011-07-23T08:12:11.000Z</time>
      </trkpt>
      <trkpt lat="45.81021" lon="6.39099">
        <ele>1414.5999755859</ele>
        <time>2011-07-23T08:12:18.000Z</time>
      </trkpt>
      <trkpt lat="45.81025" lon="6.39106">
        <ele>1416.1999511719</ele>
        <time>2011-07-23T08:12:26.000Z</time>
      </trkpt>
      <trkpt lat="45.81027" lon="6.3911">
        <ele>1417</ele>
        <time>2011-07-23T08:12:29.000Z</time>
      </trkpt>
      <trkpt lat="45.81028" lon="6.39114">
        <ele>1417.5999755859</ele>
        <time>2011-07-23T08:12:33.000Z</time>
      </trkpt>
      <trkpt lat="45.81032" lon="6.3912">
        <ele>1419</ele>
        <time>2011-07-23T08:12:41.000Z</time>
      </trkpt>
      <trkpt lat="45.81035" lon="6.39128">
        <ele>1420.4000244141</ele>
        <time>2011-07-23T08:12:49.000Z</time>
      </trkpt>
      <trkpt lat="45.81038" lon="6.39131">
        <ele>1421</ele>
        <time>2011-07-23T08:12:52.000Z</time>
      </trkpt>
      <trkpt lat="45.81042" lon="6.39138">
        <ele>1422</ele>
        <time>2011-07-23T08:12:59.000Z</time>
      </trkpt>
      <trkpt lat="45.81046" lon="6.39148">
        <ele>1423.5999755859</ele>
        <time>2011-07-23T08:13:07.000Z</time>
      </trkpt>
      <trkpt lat="45.81047" lon="6.39154">
        <ele>1424.5999755859</ele>
        <time>2011-07-23T08:13:11.000Z</time>
      </trkpt>
      <trkpt lat="45.81049" lon="6.39159">
        <ele>1425.1999511719</ele>
        <time>2011-07-23T08:13:15.000Z</time>
      </trkpt>
      <trkpt lat="45.81053" lon="6.39169">
        <ele>1426.8000488281</ele>
        <time>2011-07-23T08:13:22.000Z</time>
      </trkpt>
      <trkpt lat="45.81057" lon="6.39177">
        <ele>1427.8000488281</ele>
        <time>2011-07-23T08:13:26.000Z</time>
      </trkpt>
      <trkpt lat="45.81059" lon="6.39179">
        <ele>1428.1999511719</ele>
        <time>2011-07-23T08:13:27.000Z</time>
      </trkpt>
      <trkpt lat="45.81066" lon="6.39188">
        <ele>1429.4000244141</ele>
        <time>2011-07-23T08:13:31.000Z</time>
      </trkpt>
      <trkpt lat="45.81071" lon="6.39196">
        <ele>1430.4000244141</ele>
        <time>2011-07-23T08:13:36.000Z</time>
      </trkpt>
      <trkpt lat="45.81071" lon="6.39197">
        <ele>1430.5999755859</ele>
        <time>2011-07-23T08:13:37.000Z</time>
      </trkpt>
      <trkpt lat="45.81074" lon="6.39207">
        <ele>1432</ele>
        <time>2011-07-23T08:13:44.000Z</time>
      </trkpt>
      <trkpt lat="45.81079" lon="6.39217">
        <ele>1433.4000244141</ele>
        <time>2011-07-23T08:13:52.000Z</time>
      </trkpt>
      <trkpt lat="45.81079" lon="6.39219">
        <ele>1433.5999755859</ele>
        <time>2011-07-23T08:13:53.000Z</time>
      </trkpt>
      <trkpt lat="45.81086" lon="6.39227">
        <ele>1434.8000488281</ele>
        <time>2011-07-23T08:13:59.000Z</time>
      </trkpt>
      <trkpt lat="45.81093" lon="6.39236">
        <ele>1436.5999755859</ele>
        <time>2011-07-23T08:14:04.000Z</time>
      </trkpt>
      <trkpt lat="45.81096" lon="6.3924">
        <ele>1437.4000244141</ele>
        <time>2011-07-23T08:14:06.000Z</time>
      </trkpt>
      <trkpt lat="45.81104" lon="6.39251">
        <ele>1439.8000488281</ele>
        <time>2011-07-23T08:14:12.000Z</time>
      </trkpt>
      <trkpt lat="45.81107" lon="6.39255">
        <ele>1441</ele>
        <time>2011-07-23T08:14:14.000Z</time>
      </trkpt>
      <trkpt lat="45.81109" lon="6.39259">
        <ele>1442.1999511719</ele>
        <time>2011-07-23T08:14:16.000Z</time>
      </trkpt>
      <trkpt lat="45.81112" lon="6.39265">
        <ele>1443.8000488281</ele>
        <time>2011-07-23T08:14:20.000Z</time>
      </trkpt>
      <trkpt lat="45.81113" lon="6.39265">
        <ele>1443.8000488281</ele>
        <time>2011-07-23T08:14:21.000Z</time>
      </trkpt>
      <trkpt lat="45.81118" lon="6.39269">
        <ele>1445.4000244141</ele>
        <time>2011-07-23T08:14:26.000Z</time>
      </trkpt>
      <trkpt lat="45.81119" lon="6.39273">
        <ele>1446.4000244141</ele>
        <time>2011-07-23T08:14:29.000Z</time>
      </trkpt>
      <trkpt lat="45.81119" lon="6.39275">
        <ele>1446.5999755859</ele>
        <time>2011-07-23T08:14:30.000Z</time>
      </trkpt>
      <trkpt lat="45.81119" lon="6.39277">
        <ele>1447.1999511719</ele>
        <time>2011-07-23T08:14:32.000Z</time>
      </trkpt>
      <trkpt lat="45.81124" lon="6.39278">
        <ele>1447.8000488281</ele>
        <time>2011-07-23T08:14:37.000Z</time>
      </trkpt>
      <trkpt lat="45.81125" lon="6.39278">
        <ele>1448</ele>
        <time>2011-07-23T08:14:38.000Z</time>
      </trkpt>
      <trkpt lat="45.81132" lon="6.39275">
        <ele>1447.8000488281</ele>
        <time>2011-07-23T08:14:45.000Z</time>
      </trkpt>
      <trkpt lat="45.81134" lon="6.39276">
        <ele>1448</ele>
        <time>2011-07-23T08:14:47.000Z</time>
      </trkpt>
      <trkpt lat="45.81138" lon="6.39278">
        <ele>1448.8000488281</ele>
        <time>2011-07-23T08:14:52.000Z</time>
      </trkpt>
      <trkpt lat="45.81142" lon="6.39279">
        <ele>1449.4000244141</ele>
        <time>2011-07-23T08:14:56.000Z</time>
      </trkpt>
      <trkpt lat="45.81143" lon="6.39281">
        <ele>1450</ele>
        <time>2011-07-23T08:14:58.000Z</time>
      </trkpt>
      <trkpt lat="45.81147" lon="6.39287">
        <ele>1451.8000488281</ele>
        <time>2011-07-23T08:15:04.000Z</time>
      </trkpt>
      <trkpt lat="45.81149" lon="6.39289">
        <ele>1452.4000244141</ele>
        <time>2011-07-23T08:15:07.000Z</time>
      </trkpt>
      <trkpt lat="45.81153" lon="6.39293">
        <ele>1453.5999755859</ele>
        <time>2011-07-23T08:15:13.000Z</time>
      </trkpt>
      <trkpt lat="45.81154" lon="6.39292">
        <ele>1453.5999755859</ele>
        <time>2011-07-23T08:15:14.000Z</time>
      </trkpt>
      <trkpt lat="45.81157" lon="6.39293">
        <ele>1454</ele>
        <time>2011-07-23T08:15:17.000Z</time>
      </trkpt>
      <trkpt lat="45.81163" lon="6.39297">
        <ele>1455.1999511719</ele>
        <time>2011-07-23T08:15:23.000Z</time>
      </trkpt>
      <trkpt lat="45.81164" lon="6.39298">
        <ele>1455.5999755859</ele>
        <time>2011-07-23T08:15:24.000Z</time>
      </trkpt>
      <trkpt lat="45.81165" lon="6.39298">
        <ele>1455.8000488281</ele>
        <time>2011-07-23T08:15:25.000Z</time>
      </trkpt>
      <trkpt lat="45.81168" lon="6.393">
        <ele>1456.4000244141</ele>
        <time>2011-07-23T08:15:28.000Z</time>
      </trkpt>
      <trkpt lat="45.8117" lon="6.39301">
        <ele>1456.8000488281</ele>
        <time>2011-07-23T08:15:30.000Z</time>
      </trkpt>
      <trkpt lat="45.81176" lon="6.39306">
        <ele>1458.4000244141</ele>
        <time>2011-07-23T08:15:37.000Z</time>
      </trkpt>
      <trkpt lat="45.81181" lon="6.3931">
        <ele>1459.4000244141</ele>
        <time>2011-07-23T08:15:44.000Z</time>
      </trkpt>
      <trkpt lat="45.81182" lon="6.39311">
        <ele>1459.5999755859</ele>
        <time>2011-07-23T08:15:45.000Z</time>
      </trkpt>
      <trkpt lat="45.81183" lon="6.39312">
        <ele>1460.1999511719</ele>
        <time>2011-07-23T08:15:48.000Z</time>
      </trkpt>
      <trkpt lat="45.81188" lon="6.39313">
        <ele>1460.5999755859</ele>
        <time>2011-07-23T08:15:53.000Z</time>
      </trkpt>
      <trkpt lat="45.8119" lon="6.39317">
        <ele>1461.8000488281</ele>
        <time>2011-07-23T08:15:59.000Z</time>
      </trkpt>
      <trkpt lat="45.81194" lon="6.39322">
        <ele>1463</ele>
        <time>2011-07-23T08:16:06.000Z</time>
      </trkpt>
      <trkpt lat="45.81197" lon="6.39325">
        <ele>1464</ele>
        <time>2011-07-23T08:16:10.000Z</time>
      </trkpt>
      <trkpt lat="45.81198" lon="6.39329">
        <ele>1465</ele>
        <time>2011-07-23T08:16:14.000Z</time>
      </trkpt>
      <trkpt lat="45.81199" lon="6.39332">
        <ele>1466</ele>
        <time>2011-07-23T08:16:17.000Z</time>
      </trkpt>
      <trkpt lat="45.81199" lon="6.39337">
        <ele>1467</ele>
        <time>2011-07-23T08:16:21.000Z</time>
      </trkpt>
      <trkpt lat="45.81201" lon="6.39345">
        <ele>1469</ele>
        <time>2011-07-23T08:16:28.000Z</time>
      </trkpt>
      <trkpt lat="45.81202" lon="6.3935">
        <ele>1470.1999511719</ele>
        <time>2011-07-23T08:16:32.000Z</time>
      </trkpt>
      <trkpt lat="45.81201" lon="6.39357">
        <ele>1471.8000488281</ele>
        <time>2011-07-23T08:16:37.000Z</time>
      </trkpt>
      <trkpt lat="45.81201" lon="6.39358">
        <ele>1472</ele>
        <time>2011-07-23T08:16:38.000Z</time>
      </trkpt>
      <trkpt lat="45.81199" lon="6.39363">
        <ele>1472.8000488281</ele>
        <time>2011-07-23T08:16:42.000Z</time>
      </trkpt>
      <trkpt lat="45.812" lon="6.39364">
        <ele>1473</ele>
        <time>2011-07-23T08:16:43.000Z</time>
      </trkpt>
      <trkpt lat="45.81197" lon="6.39371">
        <ele>1474.4000244141</ele>
        <time>2011-07-23T08:16:49.000Z</time>
      </trkpt>
      <trkpt lat="45.81196" lon="6.39373">
        <ele>1474.5999755859</ele>
        <time>2011-07-23T08:16:52.000Z</time>
      </trkpt>
      <trkpt lat="45.81196" lon="6.39373">
        <ele>1474.5999755859</ele>
        <time>2011-07-23T08:16:57.000Z</time>
      </trkpt>
      <trkpt lat="45.81194" lon="6.39377">
        <ele>1475.4000244141</ele>
        <time>2011-07-23T08:17:07.000Z</time>
      </trkpt>
      <trkpt lat="45.8119" lon="6.39388">
        <ele>1477.1999511719</ele>
        <time>2011-07-23T08:17:15.000Z</time>
      </trkpt>
      <trkpt lat="45.81188" lon="6.39395">
        <ele>1478.4000244141</ele>
        <time>2011-07-23T08:17:19.000Z</time>
      </trkpt>
      <trkpt lat="45.81187" lon="6.39399">
        <ele>1479</ele>
        <time>2011-07-23T08:17:21.000Z</time>
      </trkpt>
      <trkpt lat="45.81181" lon="6.39412">
        <ele>1480.8000488281</ele>
        <time>2011-07-23T08:17:29.000Z</time>
      </trkpt>
      <trkpt lat="45.81178" lon="6.39418">
        <ele>1481.8000488281</ele>
        <time>2011-07-23T08:17:33.000Z</time>
      </trkpt>
      <trkpt lat="45.81176" lon="6.39421">
        <ele>1482</ele>
        <time>2011-07-23T08:17:35.000Z</time>
      </trkpt>
      <trkpt lat="45.81171" lon="6.39431">
        <ele>1483</ele>
        <time>2011-07-23T08:17:41.000Z</time>
      </trkpt>
      <trkpt lat="45.81169" lon="6.3944">
        <ele>1484</ele>
        <time>2011-07-23T08:17:46.000Z</time>
      </trkpt>
      <trkpt lat="45.81168" lon="6.39442">
        <ele>1484.1999511719</ele>
        <time>2011-07-23T08:17:47.000Z</time>
      </trkpt>
      <trkpt lat="45.81165" lon="6.39456">
        <ele>1486</ele>
        <time>2011-07-23T08:17:54.000Z</time>
      </trkpt>
      <trkpt lat="45.81163" lon="6.39466">
        <ele>1487.4000244141</ele>
        <time>2011-07-23T08:17:59.000Z</time>
      </trkpt>
      <trkpt lat="45.81163" lon="6.39468">
        <ele>1487.8000488281</ele>
        <time>2011-07-23T08:18:00.000Z</time>
      </trkpt>
      <trkpt lat="45.8116" lon="6.39483">
        <ele>1490</ele>
        <time>2011-07-23T08:18:07.000Z</time>
      </trkpt>
      <trkpt lat="45.8116" lon="6.39491">
        <ele>1491.1999511719</ele>
        <time>2011-07-23T08:18:11.000Z</time>
      </trkpt>
      <trkpt lat="45.81159" lon="6.39495">
        <ele>1491.8000488281</ele>
        <time>2011-07-23T08:18:13.000Z</time>
      </trkpt>
      <trkpt lat="45.81159" lon="6.39505">
        <ele>1493.4000244141</ele>
        <time>2011-07-23T08:18:17.000Z</time>
      </trkpt>
      <trkpt lat="45.81158" lon="6.39518">
        <ele>1496</ele>
        <time>2011-07-23T08:18:23.000Z</time>
      </trkpt>
      <trkpt lat="45.81158" lon="6.3952">
        <ele>1496.4000244141</ele>
        <time>2011-07-23T08:18:24.000Z</time>
      </trkpt>
      <trkpt lat="45.81156" lon="6.39533">
        <ele>1498.5999755859</ele>
        <time>2011-07-23T08:18:31.000Z</time>
      </trkpt>
      <trkpt lat="45.81154" lon="6.39545">
        <ele>1500.8000488281</ele>
        <time>2011-07-23T08:18:37.000Z</time>
      </trkpt>
      <trkpt lat="45.81153" lon="6.39546">
        <ele>1501.1999511719</ele>
        <time>2011-07-23T08:18:38.000Z</time>
      </trkpt>
      <trkpt lat="45.81149" lon="6.3956">
        <ele>1503.5999755859</ele>
        <time>2011-07-23T08:18:46.000Z</time>
      </trkpt>
      <trkpt lat="45.81146" lon="6.39569">
        <ele>1505.1999511719</ele>
        <time>2011-07-23T08:18:53.000Z</time>
      </trkpt>
      <trkpt lat="45.81146" lon="6.39572">
        <ele>1505.8000488281</ele>
        <time>2011-07-23T08:18:55.000Z</time>
      </trkpt>
      <trkpt lat="45.81144" lon="6.39584">
        <ele>1507.8000488281</ele>
        <time>2011-07-23T08:19:02.000Z</time>
      </trkpt>
      <trkpt lat="45.81148" lon="6.39584">
        <ele>1508</ele>
        <time>2011-07-23T08:19:07.000Z</time>
      </trkpt>
      <trkpt lat="45.81148" lon="6.39582">
        <ele>1507.8000488281</ele>
        <time>2011-07-23T08:19:08.000Z</time>
      </trkpt>
      <trkpt lat="45.81149" lon="6.3958">
        <ele>1507.4000244141</ele>
        <time>2011-07-23T08:19:09.000Z</time>
      </trkpt>
      <trkpt lat="45.81153" lon="6.39571">
        <ele>1506</ele>
        <time>2011-07-23T08:19:12.000Z</time>
      </trkpt>
      <trkpt lat="45.8116" lon="6.39557">
        <ele>1503.5999755859</ele>
        <time>2011-07-23T08:19:17.000Z</time>
      </trkpt>
      <trkpt lat="45.81164" lon="6.39552">
        <ele>1502.5999755859</ele>
        <time>2011-07-23T08:19:19.000Z</time>
      </trkpt>
      <trkpt lat="45.81174" lon="6.39535">
        <ele>1501.1999511719</ele>
        <time>2011-07-23T08:19:25.000Z</time>
      </trkpt>
      <trkpt lat="45.81175" lon="6.39532">
        <ele>1501</ele>
        <time>2011-07-23T08:19:26.000Z</time>
      </trkpt>
      <trkpt lat="45.81184" lon="6.39513">
        <ele>1499</ele>
        <time>2011-07-23T08:19:32.000Z</time>
      </trkpt>
      <trkpt lat="45.81185" lon="6.3951">
        <ele>1498.5999755859</ele>
        <time>2011-07-23T08:19:33.000Z</time>
      </trkpt>
      <trkpt lat="45.81192" lon="6.39495">
        <ele>1497.1999511719</ele>
        <time>2011-07-23T08:19:38.000Z</time>
      </trkpt>
      <trkpt lat="45.81194" lon="6.39491">
        <ele>1496.8000488281</ele>
        <time>2011-07-23T08:19:39.000Z</time>
      </trkpt>
      <trkpt lat="45.81202" lon="6.39476">
        <ele>1495.8000488281</ele>
        <time>2011-07-23T08:19:44.000Z</time>
      </trkpt>
      <trkpt lat="45.81205" lon="6.3947">
        <ele>1495.1999511719</ele>
        <time>2011-07-23T08:19:46.000Z</time>
      </trkpt>
      <trkpt lat="45.81213" lon="6.39458">
        <ele>1494.4000244141</ele>
        <time>2011-07-23T08:19:50.000Z</time>
      </trkpt>
      <trkpt lat="45.81219" lon="6.39449">
        <ele>1493.5999755859</ele>
        <time>2011-07-23T08:19:53.000Z</time>
      </trkpt>
      <trkpt lat="45.81223" lon="6.39444">
        <ele>1493.5999755859</ele>
        <time>2011-07-23T08:19:55.000Z</time>
      </trkpt>
      <trkpt lat="45.81237" lon="6.3944">
        <ele>1494.8000488281</ele>
        <time>2011-07-23T08:20:01.000Z</time>
      </trkpt>
      <trkpt lat="45.81249" lon="6.39443">
        <ele>1497.4000244141</ele>
        <time>2011-07-23T08:20:07.000Z</time>
      </trkpt>
      <trkpt lat="45.81256" lon="6.39449">
        <ele>1498.5999755859</ele>
        <time>2011-07-23T08:20:11.000Z</time>
      </trkpt>
      <trkpt lat="45.81262" lon="6.39454">
        <ele>1499.5999755859</ele>
        <time>2011-07-23T08:20:15.000Z</time>
      </trkpt>
      <trkpt lat="45.81272" lon="6.39462">
        <ele>1500.8000488281</ele>
        <time>2011-07-23T08:20:21.000Z</time>
      </trkpt>
      <trkpt lat="45.81284" lon="6.3947">
        <ele>1502</ele>
        <time>2011-07-23T08:20:29.000Z</time>
      </trkpt>
      <trkpt lat="45.81288" lon="6.39474">
        <ele>1502.8000488281</ele>
        <time>2011-07-23T08:20:32.000Z</time>
      </trkpt>
      <trkpt lat="45.81291" lon="6.39477">
        <ele>1503.4000244141</ele>
        <time>2011-07-23T08:20:34.000Z</time>
      </trkpt>
      <trkpt lat="45.81299" lon="6.39488">
        <ele>1505.4000244141</ele>
        <time>2011-07-23T08:20:40.000Z</time>
      </trkpt>
      <trkpt lat="45.81301" lon="6.39492">
        <ele>1506.1999511719</ele>
        <time>2011-07-23T08:20:42.000Z</time>
      </trkpt>
      <trkpt lat="45.81304" lon="6.395">
        <ele>1508</ele>
        <time>2011-07-23T08:20:46.000Z</time>
      </trkpt>
      <trkpt lat="45.81308" lon="6.39512">
        <ele>1511</ele>
        <time>2011-07-23T08:20:51.000Z</time>
      </trkpt>
      <trkpt lat="45.8131" lon="6.39516">
        <ele>1512.1999511719</ele>
        <time>2011-07-23T08:20:53.000Z</time>
      </trkpt>
      <trkpt lat="45.81315" lon="6.39526">
        <ele>1514.8000488281</ele>
        <time>2011-07-23T08:20:58.000Z</time>
      </trkpt>
      <trkpt lat="45.81322" lon="6.39537">
        <ele>1517.8000488281</ele>
        <time>2011-07-23T08:21:04.000Z</time>
      </trkpt>
      <trkpt lat="45.81326" lon="6.39544">
        <ele>1519.5999755859</ele>
        <time>2011-07-23T08:21:09.000Z</time>
      </trkpt>
      <trkpt lat="45.81335" lon="6.39552">
        <ele>1521.8000488281</ele>
        <time>2011-07-23T08:21:18.000Z</time>
      </trkpt>
      <trkpt lat="45.81336" lon="6.39553">
        <ele>1522</ele>
        <time>2011-07-23T08:21:19.000Z</time>
      </trkpt>
      <trkpt lat="45.81347" lon="6.39557">
        <ele>1523.1999511719</ele>
        <time>2011-07-23T08:21:27.000Z</time>
      </trkpt>
      <trkpt lat="45.81355" lon="6.39558">
        <ele>1523.5999755859</ele>
        <time>2011-07-23T08:21:33.000Z</time>
      </trkpt>
      <trkpt lat="45.81356" lon="6.39558">
        <ele>1523.5999755859</ele>
        <time>2011-07-23T08:21:34.000Z</time>
      </trkpt>
      <trkpt lat="45.81366" lon="6.39559">
        <ele>1524</ele>
        <time>2011-07-23T08:21:42.000Z</time>
      </trkpt>
      <trkpt lat="45.81373" lon="6.39557">
        <ele>1523.4000244141</ele>
        <time>2011-07-23T08:21:47.000Z</time>
      </trkpt>
      <trkpt lat="45.81377" lon="6.39556">
        <ele>1523</ele>
        <time>2011-07-23T08:21:50.000Z</time>
      </trkpt>
      <trkpt lat="45.81389" lon="6.39548">
        <ele>1520.8000488281</ele>
        <time>2011-07-23T08:22:00.000Z</time>
      </trkpt>
      <trkpt lat="45.8139" lon="6.39547">
        <ele>1520.4000244141</ele>
        <time>2011-07-23T08:22:01.000Z</time>
      </trkpt>
      <trkpt lat="45.814" lon="6.39545">
        <ele>1519.8000488281</ele>
        <time>2011-07-23T08:22:10.000Z</time>
      </trkpt>
      <trkpt lat="45.81406" lon="6.39549">
        <ele>1521</ele>
        <time>2011-07-23T08:22:17.000Z</time>
      </trkpt>
      <trkpt lat="45.81407" lon="6.3955">
        <ele>1521.4000244141</ele>
        <time>2011-07-23T08:22:18.000Z</time>
      </trkpt>
      <trkpt lat="45.81414" lon="6.39559">
        <ele>1524</ele>
        <time>2011-07-23T08:22:26.000Z</time>
      </trkpt>
      <trkpt lat="45.81421" lon="6.39569">
        <ele>1526.4000244141</ele>
        <time>2011-07-23T08:22:33.000Z</time>
      </trkpt>
      <trkpt lat="45.81422" lon="6.3957">
        <ele>1526.4000244141</ele>
        <time>2011-07-23T08:22:34.000Z</time>
      </trkpt>
      <trkpt lat="45.81427" lon="6.3958">
        <ele>1528.5999755859</ele>
        <time>2011-07-23T08:22:42.000Z</time>
      </trkpt>
      <trkpt lat="45.81433" lon="6.39588">
        <ele>1530.1999511719</ele>
        <time>2011-07-23T08:22:50.000Z</time>
      </trkpt>
      <trkpt lat="45.81434" lon="6.3959">
        <ele>1530.4000244141</ele>
        <time>2011-07-23T08:22:51.000Z</time>
      </trkpt>
      <trkpt lat="45.81442" lon="6.39599">
        <ele>1531.4000244141</ele>
        <time>2011-07-23T08:23:00.000Z</time>
      </trkpt>
      <trkpt lat="45.81448" lon="6.39605">
        <ele>1532.1999511719</ele>
        <time>2011-07-23T08:23:08.000Z</time>
      </trkpt>
      <trkpt lat="45.8145" lon="6.39608">
        <ele>1532.5999755859</ele>
        <time>2011-07-23T08:23:11.000Z</time>
      </trkpt>
      <trkpt lat="45.8146" lon="6.3962">
        <ele>1533.8000488281</ele>
        <time>2011-07-23T08:23:23.000Z</time>
      </trkpt>
      <trkpt lat="45.81461" lon="6.39622">
        <ele>1534</ele>
        <time>2011-07-23T08:23:25.000Z</time>
      </trkpt>
      <trkpt lat="45.81467" lon="6.39631">
        <ele>1535</ele>
        <time>2011-07-23T08:23:32.000Z</time>
      </trkpt>
      <trkpt lat="45.81474" lon="6.39642">
        <ele>1536.1999511719</ele>
        <time>2011-07-23T08:23:41.000Z</time>
      </trkpt>
      <trkpt lat="45.81476" lon="6.39645">
        <ele>1536.4000244141</ele>
        <time>2011-07-23T08:23:43.000Z</time>
      </trkpt>
      <trkpt lat="45.81481" lon="6.39654">
        <ele>1537.1999511719</ele>
        <time>2011-07-23T08:23:50.000Z</time>
      </trkpt>
      <trkpt lat="45.81486" lon="6.39662">
        <ele>1538</ele>
        <time>2011-07-23T08:23:56.000Z</time>
      </trkpt>
      <trkpt lat="45.81488" lon="6.39667">
        <ele>1538.5999755859</ele>
        <time>2011-07-23T08:23:59.000Z</time>
      </trkpt>
      <trkpt lat="45.81493" lon="6.39683">
        <ele>1540</ele>
        <time>2011-07-23T08:24:06.000Z</time>
      </trkpt>
      <trkpt lat="45.81494" lon="6.39685">
        <ele>1540.1999511719</ele>
        <time>2011-07-23T08:24:07.000Z</time>
      </trkpt>
      <trkpt lat="45.81498" lon="6.39699">
        <ele>1541.8000488281</ele>
        <time>2011-07-23T08:24:12.000Z</time>
      </trkpt>
      <trkpt lat="45.81499" lon="6.3971">
        <ele>1543.4000244141</ele>
        <time>2011-07-23T08:24:16.000Z</time>
      </trkpt>
      <trkpt lat="45.815" lon="6.39716">
        <ele>1544.1999511719</ele>
        <time>2011-07-23T08:24:18.000Z</time>
      </trkpt>
      <trkpt lat="45.815" lon="6.39736">
        <ele>1547.5999755859</ele>
        <time>2011-07-23T08:24:25.000Z</time>
      </trkpt>
      <trkpt lat="45.815" lon="6.39738">
        <ele>1548</ele>
        <time>2011-07-23T08:24:26.000Z</time>
      </trkpt>
      <trkpt lat="45.81496" lon="6.39762">
        <ele>1551.4000244141</ele>
        <time>2011-07-23T08:24:34.000Z</time>
      </trkpt>
      <trkpt lat="45.81495" lon="6.39765">
        <ele>1551.8000488281</ele>
        <time>2011-07-23T08:24:35.000Z</time>
      </trkpt>
      <trkpt lat="45.81491" lon="6.3978">
        <ele>1553.5999755859</ele>
        <time>2011-07-23T08:24:40.000Z</time>
      </trkpt>
      <trkpt lat="45.81489" lon="6.39791">
        <ele>1554.8000488281</ele>
        <time>2011-07-23T08:24:44.000Z</time>
      </trkpt>
      <trkpt lat="45.81489" lon="6.39798">
        <ele>1555.1999511719</ele>
        <time>2011-07-23T08:24:46.000Z</time>
      </trkpt>
      <trkpt lat="45.8149" lon="6.39812">
        <ele>1555.5999755859</ele>
        <time>2011-07-23T08:24:51.000Z</time>
      </trkpt>
      <trkpt lat="45.81491" lon="6.39819">
        <ele>1555.5999755859</ele>
        <time>2011-07-23T08:24:54.000Z</time>
      </trkpt>
      <trkpt lat="45.81492" lon="6.39824">
        <ele>1555.4000244141</ele>
        <time>2011-07-23T08:24:56.000Z</time>
      </trkpt>
      <trkpt lat="45.81494" lon="6.39837">
        <ele>1555.5999755859</ele>
        <time>2011-07-23T08:25:02.000Z</time>
      </trkpt>
      <trkpt lat="45.81493" lon="6.39846">
        <ele>1557.1999511719</ele>
        <time>2011-07-23T08:25:07.000Z</time>
      </trkpt>
      <trkpt lat="45.81494" lon="6.39849">
        <ele>1557.8000488281</ele>
        <time>2011-07-23T08:25:09.000Z</time>
      </trkpt>
      <trkpt lat="45.81493" lon="6.39859">
        <ele>1560</ele>
        <time>2011-07-23T08:25:16.000Z</time>
      </trkpt>
      <trkpt lat="45.81491" lon="6.39872">
        <ele>1563.4000244141</ele>
        <time>2011-07-23T08:25:25.000Z</time>
      </trkpt>
      <trkpt lat="45.81488" lon="6.39886">
        <ele>1567.5999755859</ele>
        <time>2011-07-23T08:25:35.000Z</time>
      </trkpt>
      <trkpt lat="45.81486" lon="6.39896">
        <ele>1570.4000244141</ele>
        <time>2011-07-23T08:25:42.000Z</time>
      </trkpt>
      <trkpt lat="45.81486" lon="6.399">
        <ele>1571</ele>
        <time>2011-07-23T08:25:44.000Z</time>
      </trkpt>
      <trkpt lat="45.81489" lon="6.39917">
        <ele>1573.1999511719</ele>
        <time>2011-07-23T08:25:54.000Z</time>
      </trkpt>
      <trkpt lat="45.8149" lon="6.39922">
        <ele>1573.8000488281</ele>
        <time>2011-07-23T08:25:57.000Z</time>
      </trkpt>
      <trkpt lat="45.81493" lon="6.39931">
        <ele>1574.1999511719</ele>
        <time>2011-07-23T08:26:01.000Z</time>
      </trkpt>
      <trkpt lat="45.81497" lon="6.39943">
        <ele>1575</ele>
        <time>2011-07-23T08:26:06.000Z</time>
      </trkpt>
      <trkpt lat="45.81498" lon="6.39947">
        <ele>1575.1999511719</ele>
        <time>2011-07-23T08:26:08.000Z</time>
      </trkpt>
      <trkpt lat="45.81502" lon="6.39956">
        <ele>1575.8000488281</ele>
        <time>2011-07-23T08:26:12.000Z</time>
      </trkpt>
      <trkpt lat="45.81507" lon="6.39968">
        <ele>1577</ele>
        <time>2011-07-23T08:26:18.000Z</time>
      </trkpt>
      <trkpt lat="45.81508" lon="6.3997">
        <ele>1577.1999511719</ele>
        <time>2011-07-23T08:26:19.000Z</time>
      </trkpt>
      <trkpt lat="45.81513" lon="6.3998">
        <ele>1578.1999511719</ele>
        <time>2011-07-23T08:26:24.000Z</time>
      </trkpt>
      <trkpt lat="45.81518" lon="6.39992">
        <ele>1579.5999755859</ele>
        <time>2011-07-23T08:26:30.000Z</time>
      </trkpt>
      <trkpt lat="45.81519" lon="6.39993">
        <ele>1579.5999755859</ele>
        <time>2011-07-23T08:26:31.000Z</time>
      </trkpt>
      <trkpt lat="45.81524" lon="6.40008">
        <ele>1582.5999755859</ele>
        <time>2011-07-23T08:26:41.000Z</time>
      </trkpt>
      <trkpt lat="45.81527" lon="6.40016">
        <ele>1584.1999511719</ele>
        <time>2011-07-23T08:26:46.000Z</time>
      </trkpt>
      <trkpt lat="45.8153" lon="6.40024">
        <ele>1585.8000488281</ele>
        <time>2011-07-23T08:26:51.000Z</time>
      </trkpt>
      <trkpt lat="45.81536" lon="6.40038">
        <ele>1588.4000244141</ele>
        <time>2011-07-23T08:27:01.000Z</time>
      </trkpt>
      <trkpt lat="45.81537" lon="6.40039">
        <ele>1588.8000488281</ele>
        <time>2011-07-23T08:27:02.000Z</time>
      </trkpt>
      <trkpt lat="45.81542" lon="6.4005">
        <ele>1590.5999755859</ele>
        <time>2011-07-23T08:27:10.000Z</time>
      </trkpt>
      <trkpt lat="45.81547" lon="6.40061">
        <ele>1592.1999511719</ele>
        <time>2011-07-23T08:27:18.000Z</time>
      </trkpt>
      <trkpt lat="45.81549" lon="6.40063">
        <ele>1592.5999755859</ele>
        <time>2011-07-23T08:27:20.000Z</time>
      </trkpt>
      <trkpt lat="45.81557" lon="6.40075">
        <ele>1593.5999755859</ele>
        <time>2011-07-23T08:27:29.000Z</time>
      </trkpt>
      <trkpt lat="45.81561" lon="6.40078">
        <ele>1593.8000488281</ele>
        <time>2011-07-23T08:27:32.000Z</time>
      </trkpt>
      <trkpt lat="45.81567" lon="6.40087">
        <ele>1594.1999511719</ele>
        <time>2011-07-23T08:27:39.000Z</time>
      </trkpt>
      <trkpt lat="45.81575" lon="6.40096">
        <ele>1594.4000244141</ele>
        <time>2011-07-23T08:27:47.000Z</time>
      </trkpt>
      <trkpt lat="45.81577" lon="6.40098">
        <ele>1594.4000244141</ele>
        <time>2011-07-23T08:27:49.000Z</time>
      </trkpt>
      <trkpt lat="45.81588" lon="6.40106">
        <ele>1594</ele>
        <time>2011-07-23T08:27:58.000Z</time>
      </trkpt>
      <trkpt lat="45.81591" lon="6.40107">
        <ele>1594.4000244141</ele>
        <time>2011-07-23T08:28:00.000Z</time>
      </trkpt>
      <trkpt lat="45.816" lon="6.40112">
        <ele>1594.8000488281</ele>
        <time>2011-07-23T08:28:07.000Z</time>
      </trkpt>
      <trkpt lat="45.81608" lon="6.40117">
        <ele>1595.4000244141</ele>
        <time>2011-07-23T08:28:14.000Z</time>
      </trkpt>
      <trkpt lat="45.81614" lon="6.40119">
        <ele>1595.5999755859</ele>
        <time>2011-07-23T08:28:18.000Z</time>
      </trkpt>
      <trkpt lat="45.81625" lon="6.40124">
        <ele>1596.1999511719</ele>
        <time>2011-07-23T08:28:27.000Z</time>
      </trkpt>
      <trkpt lat="45.81637" lon="6.40136">
        <ele>1598.8000488281</ele>
        <time>2011-07-23T08:28:35.000Z</time>
      </trkpt>
      <trkpt lat="45.8164" lon="6.4014">
        <ele>1599.8000488281</ele>
        <time>2011-07-23T08:28:37.000Z</time>
      </trkpt>
      <trkpt lat="45.81645" lon="6.40146">
        <ele>1601.4000244141</ele>
        <time>2011-07-23T08:28:40.000Z</time>
      </trkpt>
      <trkpt lat="45.81652" lon="6.40156">
        <ele>1604.1999511719</ele>
        <time>2011-07-23T08:28:45.000Z</time>
      </trkpt>
      <trkpt lat="45.81654" lon="6.40158">
        <ele>1604.5999755859</ele>
        <time>2011-07-23T08:28:46.000Z</time>
      </trkpt>
      <trkpt lat="45.81658" lon="6.40163">
        <ele>1606.1999511719</ele>
        <time>2011-07-23T08:28:50.000Z</time>
      </trkpt>
      <trkpt lat="45.81657" lon="6.40168">
        <ele>1607.4000244141</ele>
        <time>2011-07-23T08:28:57.000Z</time>
      </trkpt>
      <trkpt lat="45.81657" lon="6.40168">
        <ele>1607.5999755859</ele>
        <time>2011-07-23T08:29:06.000Z</time>
      </trkpt>
      <trkpt lat="45.81655" lon="6.40173">
        <ele>1608.8000488281</ele>
        <time>2011-07-23T08:30:33.000Z</time>
      </trkpt>
      <trkpt lat="45.81653" lon="6.40175">
        <ele>1609.4000244141</ele>
        <time>2011-07-23T08:30:35.000Z</time>
      </trkpt>
      <trkpt lat="45.8165" lon="6.40177">
        <ele>1610</ele>
        <time>2011-07-23T08:30:38.000Z</time>
      </trkpt>
      <trkpt lat="45.81645" lon="6.40175">
        <ele>1609.8000488281</ele>
        <time>2011-07-23T08:30:42.000Z</time>
      </trkpt>
      <trkpt lat="45.81643" lon="6.40174">
        <ele>1609.8000488281</ele>
        <time>2011-07-23T08:30:44.000Z</time>
      </trkpt>
      <trkpt lat="45.81637" lon="6.40171">
        <ele>1609</ele>
        <time>2011-07-23T08:30:49.000Z</time>
      </trkpt>
      <trkpt lat="45.81636" lon="6.4017">
        <ele>1608.8000488281</ele>
        <time>2011-07-23T08:30:50.000Z</time>
      </trkpt>
      <trkpt lat="45.8163" lon="6.40165">
        <ele>1607.8000488281</ele>
        <time>2011-07-23T08:30:56.000Z</time>
      </trkpt>
      <trkpt lat="45.81622" lon="6.40166">
        <ele>1608.4000244141</ele>
        <time>2011-07-23T08:31:03.000Z</time>
      </trkpt>
      <trkpt lat="45.8162" lon="6.40169">
        <ele>1609.1999511719</ele>
        <time>2011-07-23T08:31:05.000Z</time>
      </trkpt>
      <trkpt lat="45.8162" lon="6.40172">
        <ele>1610</ele>
        <time>2011-07-23T08:31:07.000Z</time>
      </trkpt>
      <trkpt lat="45.8162" lon="6.40175">
        <ele>1610.8000488281</ele>
        <time>2011-07-23T08:31:09.000Z</time>
      </trkpt>
      <trkpt lat="45.81626" lon="6.40185">
        <ele>1613.1999511719</ele>
        <time>2011-07-23T08:31:15.000Z</time>
      </trkpt>
      <trkpt lat="45.81629" lon="6.40192">
        <ele>1614.8000488281</ele>
        <time>2011-07-23T08:31:19.000Z</time>
      </trkpt>
      <trkpt lat="45.81629" lon="6.40193">
        <ele>1615.1999511719</ele>
        <time>2011-07-23T08:31:20.000Z</time>
      </trkpt>
      <trkpt lat="45.8163" lon="6.40195">
        <ele>1615.5999755859</ele>
        <time>2011-07-23T08:31:21.000Z</time>
      </trkpt>
      <trkpt lat="45.81633" lon="6.40208">
        <ele>1618.5999755859</ele>
        <time>2011-07-23T08:31:29.000Z</time>
      </trkpt>
      <trkpt lat="45.81635" lon="6.40216">
        <ele>1620.5999755859</ele>
        <time>2011-07-23T08:31:34.000Z</time>
      </trkpt>
      <trkpt lat="45.81638" lon="6.4022">
        <ele>1621.4000244141</ele>
        <time>2011-07-23T08:31:37.000Z</time>
      </trkpt>
      <trkpt lat="45.81644" lon="6.40236">
        <ele>1624.8000488281</ele>
        <time>2011-07-23T08:31:48.000Z</time>
      </trkpt>
      <trkpt lat="45.81644" lon="6.40239">
        <ele>1625.4000244141</ele>
        <time>2011-07-23T08:31:50.000Z</time>
      </trkpt>
      <trkpt lat="45.81648" lon="6.40248">
        <ele>1627.5999755859</ele>
        <time>2011-07-23T08:31:57.000Z</time>
      </trkpt>
      <trkpt lat="45.81651" lon="6.40262">
        <ele>1630.1999511719</ele>
        <time>2011-07-23T08:32:06.000Z</time>
      </trkpt>
      <trkpt lat="45.81651" lon="6.40263">
        <ele>1630.5999755859</ele>
        <time>2011-07-23T08:32:07.000Z</time>
      </trkpt>
      <trkpt lat="45.81655" lon="6.40275">
        <ele>1632.5999755859</ele>
        <time>2011-07-23T08:32:14.000Z</time>
      </trkpt>
      <trkpt lat="45.81659" lon="6.40286">
        <ele>1634.5999755859</ele>
        <time>2011-07-23T08:32:21.000Z</time>
      </trkpt>
      <trkpt lat="45.81661" lon="6.40291">
        <ele>1635.4000244141</ele>
        <time>2011-07-23T08:32:24.000Z</time>
      </trkpt>
      <trkpt lat="45.81665" lon="6.40309">
        <ele>1638.4000244141</ele>
        <time>2011-07-23T08:32:35.000Z</time>
      </trkpt>
      <trkpt lat="45.81665" lon="6.40311">
        <ele>1638.5999755859</ele>
        <time>2011-07-23T08:32:36.000Z</time>
      </trkpt>
      <trkpt lat="45.81669" lon="6.40322">
        <ele>1640.4000244141</ele>
        <time>2011-07-23T08:32:43.000Z</time>
      </trkpt>
      <trkpt lat="45.81674" lon="6.40333">
        <ele>1642.8000488281</ele>
        <time>2011-07-23T08:32:51.000Z</time>
      </trkpt>
      <trkpt lat="45.81674" lon="6.40335">
        <ele>1643.1999511719</ele>
        <time>2011-07-23T08:32:52.000Z</time>
      </trkpt>
      <trkpt lat="45.81679" lon="6.40346">
        <ele>1646.1999511719</ele>
        <time>2011-07-23T08:33:00.000Z</time>
      </trkpt>
      <trkpt lat="45.81684" lon="6.40356">
        <ele>1649</ele>
        <time>2011-07-23T08:33:07.000Z</time>
      </trkpt>
      <trkpt lat="45.81687" lon="6.40362">
        <ele>1650.4000244141</ele>
        <time>2011-07-23T08:33:11.000Z</time>
      </trkpt>
      <trkpt lat="45.81695" lon="6.40374">
        <ele>1653.1999511719</ele>
        <time>2011-07-23T08:33:21.000Z</time>
      </trkpt>
      <trkpt lat="45.81696" lon="6.40376">
        <ele>1653.5999755859</ele>
        <time>2011-07-23T08:33:23.000Z</time>
      </trkpt>
      <trkpt lat="45.81702" lon="6.40382">
        <ele>1655</ele>
        <time>2011-07-23T08:33:29.000Z</time>
      </trkpt>
      <trkpt lat="45.81709" lon="6.40392">
        <ele>1657.1999511719</ele>
        <time>2011-07-23T08:33:37.000Z</time>
      </trkpt>
      <trkpt lat="45.8171" lon="6.40393">
        <ele>1657.4000244141</ele>
        <time>2011-07-23T08:33:38.000Z</time>
      </trkpt>
      <trkpt lat="45.81718" lon="6.404">
        <ele>1658.5999755859</ele>
        <time>2011-07-23T08:33:47.000Z</time>
      </trkpt>
      <trkpt lat="45.81727" lon="6.40404">
        <ele>1658.8000488281</ele>
        <time>2011-07-23T08:33:55.000Z</time>
      </trkpt>
      <trkpt lat="45.81737" lon="6.40404">
        <ele>1658.1999511719</ele>
        <time>2011-07-23T08:34:04.000Z</time>
      </trkpt>
      <trkpt lat="45.81744" lon="6.40403">
        <ele>1657.1999511719</ele>
        <time>2011-07-23T08:34:12.000Z</time>
      </trkpt>
      <trkpt lat="45.81746" lon="6.40403">
        <ele>1657.1999511719</ele>
        <time>2011-07-23T08:34:13.000Z</time>
      </trkpt>
      <trkpt lat="45.81756" lon="6.4041">
        <ele>1658.5999755859</ele>
        <time>2011-07-23T08:34:22.000Z</time>
      </trkpt>
      <trkpt lat="45.8176" lon="6.40415">
        <ele>1659.8000488281</ele>
        <time>2011-07-23T08:34:26.000Z</time>
      </trkpt>
      <trkpt lat="45.81766" lon="6.40425">
        <ele>1661.8000488281</ele>
        <time>2011-07-23T08:34:32.000Z</time>
      </trkpt>
      <trkpt lat="45.81771" lon="6.40437">
        <ele>1664.1999511719</ele>
        <time>2011-07-23T08:34:39.000Z</time>
      </trkpt>
      <trkpt lat="45.81774" lon="6.40442">
        <ele>1665</ele>
        <time>2011-07-23T08:34:42.000Z</time>
      </trkpt>
      <trkpt lat="45.81783" lon="6.40454">
        <ele>1667.1999511719</ele>
        <time>2011-07-23T08:34:51.000Z</time>
      </trkpt>
      <trkpt lat="45.81785" lon="6.40456">
        <ele>1667.5999755859</ele>
        <time>2011-07-23T08:34:53.000Z</time>
      </trkpt>
      <trkpt lat="45.81793" lon="6.40467">
        <ele>1669.1999511719</ele>
        <time>2011-07-23T08:35:02.000Z</time>
      </trkpt>
      <trkpt lat="45.81799" lon="6.40473">
        <ele>1670.4000244141</ele>
        <time>2011-07-23T08:35:08.000Z</time>
      </trkpt>
      <trkpt lat="45.81801" lon="6.40476">
        <ele>1670.8000488281</ele>
        <time>2011-07-23T08:35:10.000Z</time>
      </trkpt>
      <trkpt lat="45.8181" lon="6.40488">
        <ele>1672.5999755859</ele>
        <time>2011-07-23T08:35:20.000Z</time>
      </trkpt>
      <trkpt lat="45.81812" lon="6.40491">
        <ele>1673</ele>
        <time>2011-07-23T08:35:22.000Z</time>
      </trkpt>
      <trkpt lat="45.81822" lon="6.40503">
        <ele>1674.5999755859</ele>
        <time>2011-07-23T08:35:32.000Z</time>
      </trkpt>
      <trkpt lat="45.81826" lon="6.40508">
        <ele>1675.1999511719</ele>
        <time>2011-07-23T08:35:36.000Z</time>
      </trkpt>
      <trkpt lat="45.81833" lon="6.40519">
        <ele>1676.4000244141</ele>
        <time>2011-07-23T08:35:43.000Z</time>
      </trkpt>
      <trkpt lat="45.81838" lon="6.40526">
        <ele>1678</ele>
        <time>2011-07-23T08:35:47.000Z</time>
      </trkpt>
      <trkpt lat="45.81841" lon="6.40529">
        <ele>1678.5999755859</ele>
        <time>2011-07-23T08:35:49.000Z</time>
      </trkpt>
      <trkpt lat="45.8185" lon="6.40539">
        <ele>1680.8000488281</ele>
        <time>2011-07-23T08:35:56.000Z</time>
      </trkpt>
      <trkpt lat="45.81853" lon="6.40542">
        <ele>1681.4000244141</ele>
        <time>2011-07-23T08:35:58.000Z</time>
      </trkpt>
      <trkpt lat="45.81859" lon="6.40548">
        <ele>1682.5999755859</ele>
        <time>2011-07-23T08:36:02.000Z</time>
      </trkpt>
      <trkpt lat="45.8187" lon="6.40554">
        <ele>1684.1999511719</ele>
        <time>2011-07-23T08:36:08.000Z</time>
      </trkpt>
      <trkpt lat="45.81878" lon="6.40558">
        <ele>1685.1999511719</ele>
        <time>2011-07-23T08:36:13.000Z</time>
      </trkpt>
      <trkpt lat="45.81887" lon="6.40562">
        <ele>1686.1999511719</ele>
        <time>2011-07-23T08:36:18.000Z</time>
      </trkpt>
      <trkpt lat="45.81889" lon="6.40563">
        <ele>1686.4000244141</ele>
        <time>2011-07-23T08:36:19.000Z</time>
      </trkpt>
      <trkpt lat="45.81901" lon="6.40566">
        <ele>1687.4000244141</ele>
        <time>2011-07-23T08:36:26.000Z</time>
      </trkpt>
      <trkpt lat="45.81905" lon="6.40567">
        <ele>1687.8000488281</ele>
        <time>2011-07-23T08:36:30.000Z</time>
      </trkpt>
      <trkpt lat="45.81909" lon="6.40567">
        <ele>1688</ele>
        <time>2011-07-23T08:36:33.000Z</time>
      </trkpt>
      <trkpt lat="45.8192" lon="6.40565">
        <ele>1689.1999511719</ele>
        <time>2011-07-23T08:36:42.000Z</time>
      </trkpt>
      <trkpt lat="45.81923" lon="6.40564">
        <ele>1689.5999755859</ele>
        <time>2011-07-23T08:36:45.000Z</time>
      </trkpt>
      <trkpt lat="45.81925" lon="6.40564">
        <ele>1690</ele>
        <time>2011-07-23T08:36:47.000Z</time>
      </trkpt>
      <trkpt lat="45.81928" lon="6.40565">
        <ele>1690.5999755859</ele>
        <time>2011-07-23T08:36:49.000Z</time>
      </trkpt>
      <trkpt lat="45.81932" lon="6.40573">
        <ele>1691.5999755859</ele>
        <time>2011-07-23T08:36:54.000Z</time>
      </trkpt>
      <trkpt lat="45.81932" lon="6.40575">
        <ele>1691.5999755859</ele>
        <time>2011-07-23T08:36:55.000Z</time>
      </trkpt>
      <trkpt lat="45.81933" lon="6.40582">
        <ele>1692</ele>
        <time>2011-07-23T08:36:58.000Z</time>
      </trkpt>
      <trkpt lat="45.81933" lon="6.40588">
        <ele>1691.8000488281</ele>
        <time>2011-07-23T08:37:02.000Z</time>
      </trkpt>
      <trkpt lat="45.81933" lon="6.4059">
        <ele>1691.8000488281</ele>
        <time>2011-07-23T08:37:04.000Z</time>
      </trkpt>
      <trkpt lat="45.81935" lon="6.40595">
        <ele>1691.8000488281</ele>
        <time>2011-07-23T08:37:07.000Z</time>
      </trkpt>
      <trkpt lat="45.81936" lon="6.40599">
        <ele>1691.8000488281</ele>
        <time>2011-07-23T08:37:10.000Z</time>
      </trkpt>
      <trkpt lat="45.81939" lon="6.40607">
        <ele>1691.8000488281</ele>
        <time>2011-07-23T08:37:15.000Z</time>
      </trkpt>
      <trkpt lat="45.81942" lon="6.40619">
        <ele>1691.5999755859</ele>
        <time>2011-07-23T08:37:23.000Z</time>
      </trkpt>
      <trkpt lat="45.81945" lon="6.40632">
        <ele>1691.1999511719</ele>
        <time>2011-07-23T08:37:31.000Z</time>
      </trkpt>
      <trkpt lat="45.81947" lon="6.40641">
        <ele>1690.8000488281</ele>
        <time>2011-07-23T08:37:37.000Z</time>
      </trkpt>
      <trkpt lat="45.81948" lon="6.40642">
        <ele>1690.8000488281</ele>
        <time>2011-07-23T08:37:38.000Z</time>
      </trkpt>
      <trkpt lat="45.81949" lon="6.40644">
        <ele>1690.5999755859</ele>
        <time>2011-07-23T08:37:40.000Z</time>
      </trkpt>
      <trkpt lat="45.81947" lon="6.40646">
        <ele>1690.4000244141</ele>
        <time>2011-07-23T08:37:43.000Z</time>
      </trkpt>
      <trkpt lat="45.81949" lon="6.40646">
        <ele>1690.5999755859</ele>
        <time>2011-07-23T08:37:48.000Z</time>
      </trkpt>
      <trkpt lat="45.81951" lon="6.40649">
        <ele>1690.4000244141</ele>
        <time>2011-07-23T08:37:51.000Z</time>
      </trkpt>
      <trkpt lat="45.81952" lon="6.40651">
        <ele>1690.4000244141</ele>
        <time>2011-07-23T08:37:52.000Z</time>
      </trkpt>
      <trkpt lat="45.81955" lon="6.40653">
        <ele>1690.4000244141</ele>
        <time>2011-07-23T08:37:55.000Z</time>
      </trkpt>
      <trkpt lat="45.81958" lon="6.40652">
        <ele>1690.5999755859</ele>
        <time>2011-07-23T08:37:57.000Z</time>
      </trkpt>
      <trkpt lat="45.81964" lon="6.40651">
        <ele>1691.1999511719</ele>
        <time>2011-07-23T08:38:03.000Z</time>
      </trkpt>
      <trkpt lat="45.81966" lon="6.40652">
        <ele>1691.1999511719</ele>
        <time>2011-07-23T08:38:06.000Z</time>
      </trkpt>
      <trkpt lat="45.81968" lon="6.40652">
        <ele>1691.4000244141</ele>
        <time>2011-07-23T08:38:09.000Z</time>
      </trkpt>
      <trkpt lat="45.81968" lon="6.40652">
        <ele>1691.4000244141</ele>
        <time>2011-07-23T08:38:10.000Z</time>
      </trkpt>
      <trkpt lat="45.81973" lon="6.40648">
        <ele>1692.1999511719</ele>
        <time>2011-07-23T08:38:15.000Z</time>
      </trkpt>
      <trkpt lat="45.81975" lon="6.40646">
        <ele>1692.4000244141</ele>
        <time>2011-07-23T08:38:18.000Z</time>
      </trkpt>
      <trkpt lat="45.81978" lon="6.40645">
        <ele>1692.8000488281</ele>
        <time>2011-07-23T08:38:21.000Z</time>
      </trkpt>
      <trkpt lat="45.8198" lon="6.40643">
        <ele>1693.1999511719</ele>
        <time>2011-07-23T08:38:23.000Z</time>
      </trkpt>
      <trkpt lat="45.81982" lon="6.40641">
        <ele>1693.8000488281</ele>
        <time>2011-07-23T08:38:26.000Z</time>
      </trkpt>
      <trkpt lat="45.81984" lon="6.40639">
        <ele>1694.1999511719</ele>
        <time>2011-07-23T08:38:28.000Z</time>
      </trkpt>
      <trkpt lat="45.8199" lon="6.40636">
        <ele>1695</ele>
        <time>2011-07-23T08:38:34.000Z</time>
      </trkpt>
      <trkpt lat="45.81996" lon="6.40631">
        <ele>1696.4000244141</ele>
        <time>2011-07-23T08:38:41.000Z</time>
      </trkpt>
      <trkpt lat="45.81999" lon="6.40628">
        <ele>1697.4000244141</ele>
        <time>2011-07-23T08:38:45.000Z</time>
      </trkpt>
      <trkpt lat="45.82" lon="6.40627">
        <ele>1697.5999755859</ele>
        <time>2011-07-23T08:38:46.000Z</time>
      </trkpt>
      <trkpt lat="45.82002" lon="6.40624">
        <ele>1698</ele>
        <time>2011-07-23T08:38:49.000Z</time>
      </trkpt>
      <trkpt lat="45.82006" lon="6.40614">
        <ele>1699.5999755859</ele>
        <time>2011-07-23T08:38:57.000Z</time>
      </trkpt>
      <trkpt lat="45.82006" lon="6.40613">
        <ele>1699.8000488281</ele>
        <time>2011-07-23T08:38:58.000Z</time>
      </trkpt>
      <trkpt lat="45.82006" lon="6.40611">
        <ele>1700.1999511719</ele>
        <time>2011-07-23T08:39:00.000Z</time>
      </trkpt>
      <trkpt lat="45.82008" lon="6.40607">
        <ele>1701</ele>
        <time>2011-07-23T08:39:03.000Z</time>
      </trkpt>
      <trkpt lat="45.82008" lon="6.40606">
        <ele>1701.1999511719</ele>
        <time>2011-07-23T08:39:04.000Z</time>
      </trkpt>
      <trkpt lat="45.82008" lon="6.40604">
        <ele>1701.5999755859</ele>
        <time>2011-07-23T08:39:06.000Z</time>
      </trkpt>
      <trkpt lat="45.82008" lon="6.40602">
        <ele>1702</ele>
        <time>2011-07-23T08:39:09.000Z</time>
      </trkpt>
      <trkpt lat="45.82008" lon="6.40598">
        <ele>1702.8000488281</ele>
        <time>2011-07-23T08:39:14.000Z</time>
      </trkpt>
      <trkpt lat="45.82009" lon="6.40591">
        <ele>1704.1999511719</ele>
        <time>2011-07-23T08:39:20.000Z</time>
      </trkpt>
      <trkpt lat="45.82009" lon="6.40587">
        <ele>1705.1999511719</ele>
        <time>2011-07-23T08:39:24.000Z</time>
      </trkpt>
      <trkpt lat="45.82009" lon="6.40584">
        <ele>1705.8000488281</ele>
        <time>2011-07-23T08:39:27.000Z</time>
      </trkpt>
      <trkpt lat="45.8201" lon="6.40579">
        <ele>1705.8000488281</ele>
        <time>2011-07-23T08:39:32.000Z</time>
      </trkpt>
      <trkpt lat="45.8201" lon="6.40578">
        <ele>1705.8000488281</ele>
        <time>2011-07-23T08:39:33.000Z</time>
      </trkpt>
      <trkpt lat="45.82011" lon="6.40575">
        <ele>1705.8000488281</ele>
        <time>2011-07-23T08:39:37.000Z</time>
      </trkpt>
      <trkpt lat="45.82011" lon="6.40568">
        <ele>1705.5999755859</ele>
        <time>2011-07-23T08:39:45.000Z</time>
      </trkpt>
      <trkpt lat="45.82013" lon="6.40564">
        <ele>1705.8000488281</ele>
        <time>2011-07-23T08:39:50.000Z</time>
      </trkpt>
      <trkpt lat="45.82015" lon="6.40558">
        <ele>1705.8000488281</ele>
        <time>2011-07-23T08:39:55.000Z</time>
      </trkpt>
      <trkpt lat="45.82016" lon="6.40556">
        <ele>1706</ele>
        <time>2011-07-23T08:40:00.000Z</time>
      </trkpt>
      <trkpt lat="45.82017" lon="6.40555">
        <ele>1706</ele>
        <time>2011-07-23T08:40:02.000Z</time>
      </trkpt>
      <trkpt lat="45.82017" lon="6.40554">
        <ele>1706.1999511719</ele>
        <time>2011-07-23T08:40:04.000Z</time>
      </trkpt>
      <trkpt lat="45.8202" lon="6.40551">
        <ele>1706.5999755859</ele>
        <time>2011-07-23T08:40:09.000Z</time>
      </trkpt>
      <trkpt lat="45.82024" lon="6.4055">
        <ele>1707.1999511719</ele>
        <time>2011-07-23T08:40:14.000Z</time>
      </trkpt>
      <trkpt lat="45.82029" lon="6.4055">
        <ele>1707.8000488281</ele>
        <time>2011-07-23T08:40:19.000Z</time>
      </trkpt>
      <trkpt lat="45.82032" lon="6.40549">
        <ele>1708.5999755859</ele>
        <time>2011-07-23T08:40:23.000Z</time>
      </trkpt>
      <trkpt lat="45.82034" lon="6.40547">
        <ele>1708.8000488281</ele>
        <time>2011-07-23T08:40:25.000Z</time>
      </trkpt>
      <trkpt lat="45.82039" lon="6.40542">
        <ele>1709.8000488281</ele>
        <time>2011-07-23T08:40:32.000Z</time>
      </trkpt>
      <trkpt lat="45.82046" lon="6.40537">
        <ele>1711</ele>
        <time>2011-07-23T08:40:39.000Z</time>
      </trkpt>
      <trkpt lat="45.82048" lon="6.40536">
        <ele>1711.4000244141</ele>
        <time>2011-07-23T08:40:41.000Z</time>
      </trkpt>
      <trkpt lat="45.82053" lon="6.40531">
        <ele>1712.5999755859</ele>
        <time>2011-07-23T08:40:46.000Z</time>
      </trkpt>
      <trkpt lat="45.82058" lon="6.4053">
        <ele>1713.5999755859</ele>
        <time>2011-07-23T08:40:51.000Z</time>
      </trkpt>
      <trkpt lat="45.82064" lon="6.40528">
        <ele>1714.8000488281</ele>
        <time>2011-07-23T08:40:57.000Z</time>
      </trkpt>
      <trkpt lat="45.82065" lon="6.40527">
        <ele>1715</ele>
        <time>2011-07-23T08:40:58.000Z</time>
      </trkpt>
      <trkpt lat="45.82067" lon="6.40526">
        <ele>1715.4000244141</ele>
        <time>2011-07-23T08:40:59.000Z</time>
      </trkpt>
      <trkpt lat="45.82068" lon="6.40525">
        <ele>1715.8000488281</ele>
        <time>2011-07-23T08:41:01.000Z</time>
      </trkpt>
      <trkpt lat="45.82071" lon="6.40525">
        <ele>1716.4000244141</ele>
        <time>2011-07-23T08:41:05.000Z</time>
      </trkpt>
      <trkpt lat="45.82073" lon="6.40525">
        <ele>1716.8000488281</ele>
        <time>2011-07-23T08:41:08.000Z</time>
      </trkpt>
      <trkpt lat="45.82075" lon="6.40525">
        <ele>1717</ele>
        <time>2011-07-23T08:41:10.000Z</time>
      </trkpt>
      <trkpt lat="45.8208" lon="6.40525">
        <ele>1718.1999511719</ele>
        <time>2011-07-23T08:41:16.000Z</time>
      </trkpt>
      <trkpt lat="45.82083" lon="6.40526">
        <ele>1718.8000488281</ele>
        <time>2011-07-23T08:41:19.000Z</time>
      </trkpt>
      <trkpt lat="45.82087" lon="6.40525">
        <ele>1719.1999511719</ele>
        <time>2011-07-23T08:41:22.000Z</time>
      </trkpt>
      <trkpt lat="45.82094" lon="6.40524">
        <ele>1720</ele>
        <time>2011-07-23T08:41:28.000Z</time>
      </trkpt>
      <trkpt lat="45.82102" lon="6.40524">
        <ele>1720.8000488281</ele>
        <time>2011-07-23T08:41:34.000Z</time>
      </trkpt>
      <trkpt lat="45.82107" lon="6.40525">
        <ele>1721.1999511719</ele>
        <time>2011-07-23T08:41:41.000Z</time>
      </trkpt>
      <trkpt lat="45.82112" lon="6.40527">
        <ele>1721.4000244141</ele>
        <time>2011-07-23T08:41:47.000Z</time>
      </trkpt>
      <trkpt lat="45.82119" lon="6.40528">
        <ele>1722</ele>
        <time>2011-07-23T08:41:53.000Z</time>
      </trkpt>
      <trkpt lat="45.8212" lon="6.40528">
        <ele>1722</ele>
        <time>2011-07-23T08:41:54.000Z</time>
      </trkpt>
      <trkpt lat="45.82121" lon="6.40529">
        <ele>1722</ele>
        <time>2011-07-23T08:41:55.000Z</time>
      </trkpt>
      <trkpt lat="45.82123" lon="6.40532">
        <ele>1721.8000488281</ele>
        <time>2011-07-23T08:41:58.000Z</time>
      </trkpt>
      <trkpt lat="45.82125" lon="6.40534">
        <ele>1721.5999755859</ele>
        <time>2011-07-23T08:42:00.000Z</time>
      </trkpt>
      <trkpt lat="45.82128" lon="6.4054">
        <ele>1721</ele>
        <time>2011-07-23T08:42:05.000Z</time>
      </trkpt>
      <trkpt lat="45.82133" lon="6.40543">
        <ele>1720.8000488281</ele>
        <time>2011-07-23T08:42:12.000Z</time>
      </trkpt>
      <trkpt lat="45.82134" lon="6.40543">
        <ele>1720.8000488281</ele>
        <time>2011-07-23T08:42:15.000Z</time>
      </trkpt>
      <trkpt lat="45.82137" lon="6.40541">
        <ele>1721.4000244141</ele>
        <time>2011-07-23T08:42:18.000Z</time>
      </trkpt>
      <trkpt lat="45.82142" lon="6.40539">
        <ele>1722.1999511719</ele>
        <time>2011-07-23T08:42:24.000Z</time>
      </trkpt>
      <trkpt lat="45.82146" lon="6.40535">
        <ele>1723.1999511719</ele>
        <time>2011-07-23T08:42:30.000Z</time>
      </trkpt>
      <trkpt lat="45.82151" lon="6.40532">
        <ele>1724.1999511719</ele>
        <time>2011-07-23T08:42:36.000Z</time>
      </trkpt>
      <trkpt lat="45.82152" lon="6.40532">
        <ele>1724.4000244141</ele>
        <time>2011-07-23T08:42:37.000Z</time>
      </trkpt>
      <trkpt lat="45.82154" lon="6.40531">
        <ele>1724.8000488281</ele>
        <time>2011-07-23T08:42:40.000Z</time>
      </trkpt>
      <trkpt lat="45.82157" lon="6.40529">
        <ele>1725.4000244141</ele>
        <time>2011-07-23T08:42:43.000Z</time>
      </trkpt>
      <trkpt lat="45.82164" lon="6.40527">
        <ele>1726.5999755859</ele>
        <time>2011-07-23T08:42:52.000Z</time>
      </trkpt>
      <trkpt lat="45.82165" lon="6.40527">
        <ele>1726.5999755859</ele>
        <time>2011-07-23T08:42:53.000Z</time>
      </trkpt>
      <trkpt lat="45.82169" lon="6.40528">
        <ele>1726.8000488281</ele>
        <time>2011-07-23T08:43:00.000Z</time>
      </trkpt>
      <trkpt lat="45.82174" lon="6.40527">
        <ele>1727.5999755859</ele>
        <time>2011-07-23T08:43:08.000Z</time>
      </trkpt>
      <trkpt lat="45.82179" lon="6.40526">
        <ele>1728.4000244141</ele>
        <time>2011-07-23T08:43:14.000Z</time>
      </trkpt>
      <trkpt lat="45.82185" lon="6.40527">
        <ele>1729</ele>
        <time>2011-07-23T08:43:20.000Z</time>
      </trkpt>
      <trkpt lat="45.82187" lon="6.40528">
        <ele>1728.8000488281</ele>
        <time>2011-07-23T08:43:22.000Z</time>
      </trkpt>
      <trkpt lat="45.82192" lon="6.40535">
        <ele>1728</ele>
        <time>2011-07-23T08:43:28.000Z</time>
      </trkpt>
      <trkpt lat="45.82198" lon="6.40542">
        <ele>1726.8000488281</ele>
        <time>2011-07-23T08:43:35.000Z</time>
      </trkpt>
      <trkpt lat="45.82201" lon="6.40544">
        <ele>1726.4000244141</ele>
        <time>2011-07-23T08:43:38.000Z</time>
      </trkpt>
      <trkpt lat="45.82206" lon="6.40545">
        <ele>1726.8000488281</ele>
        <time>2011-07-23T08:43:42.000Z</time>
      </trkpt>
      <trkpt lat="45.82214" lon="6.40543">
        <ele>1728.1999511719</ele>
        <time>2011-07-23T08:43:49.000Z</time>
      </trkpt>
      <trkpt lat="45.82219" lon="6.40542">
        <ele>1729</ele>
        <time>2011-07-23T08:43:53.000Z</time>
      </trkpt>
      <trkpt lat="45.82224" lon="6.4054">
        <ele>1730.1999511719</ele>
        <time>2011-07-23T08:43:57.000Z</time>
      </trkpt>
      <trkpt lat="45.82234" lon="6.40539">
        <ele>1731.5999755859</ele>
        <time>2011-07-23T08:44:03.000Z</time>
      </trkpt>
      <trkpt lat="45.82237" lon="6.40538">
        <ele>1732</ele>
        <time>2011-07-23T08:44:05.000Z</time>
      </trkpt>
      <trkpt lat="45.82245" lon="6.40537">
        <ele>1733.1999511719</ele>
        <time>2011-07-23T08:44:10.000Z</time>
      </trkpt>
      <trkpt lat="45.82253" lon="6.40534">
        <ele>1734.5999755859</ele>
        <time>2011-07-23T08:44:17.000Z</time>
      </trkpt>
      <trkpt lat="45.82255" lon="6.40534">
        <ele>1734.5999755859</ele>
        <time>2011-07-23T08:44:19.000Z</time>
      </trkpt>
      <trkpt lat="45.8226" lon="6.40533">
        <ele>1734.5999755859</ele>
        <time>2011-07-23T08:44:23.000Z</time>
      </trkpt>
      <trkpt lat="45.82262" lon="6.40533">
        <ele>1734.5999755859</ele>
        <time>2011-07-23T08:44:25.000Z</time>
      </trkpt>
      <trkpt lat="45.82266" lon="6.40532">
        <ele>1734.5999755859</ele>
        <time>2011-07-23T08:44:29.000Z</time>
      </trkpt>
      <trkpt lat="45.82268" lon="6.40531">
        <ele>1734.5999755859</ele>
        <time>2011-07-23T08:44:31.000Z</time>
      </trkpt>
      <trkpt lat="45.82269" lon="6.40531">
        <ele>1734.5999755859</ele>
        <time>2011-07-23T08:44:32.000Z</time>
      </trkpt>
      <trkpt lat="45.82274" lon="6.4053">
        <ele>1734.4000244141</ele>
        <time>2011-07-23T08:44:39.000Z</time>
      </trkpt>
      <trkpt lat="45.82275" lon="6.4053">
        <ele>1734.4000244141</ele>
        <time>2011-07-23T08:44:40.000Z</time>
      </trkpt>
      <trkpt lat="45.82279" lon="6.40532">
        <ele>1734</ele>
        <time>2011-07-23T08:44:45.000Z</time>
      </trkpt>
      <trkpt lat="45.82279" lon="6.40533">
        <ele>1733.5999755859</ele>
        <time>2011-07-23T08:44:46.000Z</time>
      </trkpt>
      <trkpt lat="45.82281" lon="6.40536">
        <ele>1733</ele>
        <time>2011-07-23T08:44:48.000Z</time>
      </trkpt>
      <trkpt lat="45.82283" lon="6.40541">
        <ele>1731.8000488281</ele>
        <time>2011-07-23T08:44:52.000Z</time>
      </trkpt>
      <trkpt lat="45.82283" lon="6.40542">
        <ele>1731.5999755859</ele>
        <time>2011-07-23T08:44:53.000Z</time>
      </trkpt>
      <trkpt lat="45.82283" lon="6.40543">
        <ele>1731.4000244141</ele>
        <time>2011-07-23T08:44:58.000Z</time>
      </trkpt>
      <trkpt lat="45.8228" lon="6.40539">
        <ele>1732.1999511719</ele>
        <time>2011-07-23T08:46:03.000Z</time>
      </trkpt>
      <trkpt lat="45.8228" lon="6.40538">
        <ele>1732.4000244141</ele>
        <time>2011-07-23T08:46:04.000Z</time>
      </trkpt>
      <trkpt lat="45.82281" lon="6.40532">
        <ele>1733.8000488281</ele>
        <time>2011-07-23T08:46:09.000Z</time>
      </trkpt>
      <trkpt lat="45.82283" lon="6.40531">
        <ele>1734</ele>
        <time>2011-07-23T08:46:15.000Z</time>
      </trkpt>
      <trkpt lat="45.82287" lon="6.4053">
        <ele>1734</ele>
        <time>2011-07-23T08:46:25.000Z</time>
      </trkpt>
      <trkpt lat="45.8229" lon="6.40529">
        <ele>1734</ele>
        <time>2011-07-23T08:46:31.000Z</time>
      </trkpt>
      <trkpt lat="45.82292" lon="6.40526">
        <ele>1734.4000244141</ele>
        <time>2011-07-23T08:46:35.000Z</time>
      </trkpt>
      <trkpt lat="45.82293" lon="6.40525">
        <ele>1734.4000244141</ele>
        <time>2011-07-23T08:46:36.000Z</time>
      </trkpt>
      <trkpt lat="45.82301" lon="6.40523">
        <ele>1734.4000244141</ele>
        <time>2011-07-23T08:46:42.000Z</time>
      </trkpt>
      <trkpt lat="45.8231" lon="6.4052">
        <ele>1734.1999511719</ele>
        <time>2011-07-23T08:46:46.000Z</time>
      </trkpt>
      <trkpt lat="45.82314" lon="6.40518">
        <ele>1734</ele>
        <time>2011-07-23T08:46:48.000Z</time>
      </trkpt>
      <trkpt lat="45.82322" lon="6.40515">
        <ele>1733.8000488281</ele>
        <time>2011-07-23T08:46:54.000Z</time>
      </trkpt>
      <trkpt lat="45.82323" lon="6.40517">
        <ele>1733.4000244141</ele>
        <time>2011-07-23T08:47:05.000Z</time>
      </trkpt>
      <trkpt lat="45.82325" lon="6.40521">
        <ele>1732.8000488281</ele>
        <time>2011-07-23T08:47:07.000Z</time>
      </trkpt>
      <trkpt lat="45.82329" lon="6.40528">
        <ele>1731.8000488281</ele>
        <time>2011-07-23T08:47:10.000Z</time>
      </trkpt>
      <trkpt lat="45.82336" lon="6.4054">
        <ele>1729.8000488281</ele>
        <time>2011-07-23T08:47:16.000Z</time>
      </trkpt>
      <trkpt lat="45.82337" lon="6.40543">
        <ele>1729.4000244141</ele>
        <time>2011-07-23T08:47:17.000Z</time>
      </trkpt>
      <trkpt lat="45.82344" lon="6.40557">
        <ele>1726.8000488281</ele>
        <time>2011-07-23T08:47:23.000Z</time>
      </trkpt>
      <trkpt lat="45.82348" lon="6.40565">
        <ele>1725.4000244141</ele>
        <time>2011-07-23T08:47:27.000Z</time>
      </trkpt>
      <trkpt lat="45.82351" lon="6.40569">
        <ele>1724.5999755859</ele>
        <time>2011-07-23T08:47:29.000Z</time>
      </trkpt>
      <trkpt lat="45.82358" lon="6.40585">
        <ele>1722.1999511719</ele>
        <time>2011-07-23T08:47:35.000Z</time>
      </trkpt>
      <trkpt lat="45.82359" lon="6.40588">
        <ele>1721.1999511719</ele>
        <time>2011-07-23T08:47:36.000Z</time>
      </trkpt>
      <trkpt lat="45.82366" lon="6.40599">
        <ele>1716.8000488281</ele>
        <time>2011-07-23T08:47:41.000Z</time>
      </trkpt>
      <trkpt lat="45.82372" lon="6.40607">
        <ele>1714</ele>
        <time>2011-07-23T08:47:45.000Z</time>
      </trkpt>
      <trkpt lat="45.82375" lon="6.4061">
        <ele>1713</ele>
        <time>2011-07-23T08:47:47.000Z</time>
      </trkpt>
      <trkpt lat="45.82378" lon="6.40615">
        <ele>1711.8000488281</ele>
        <time>2011-07-23T08:47:50.000Z</time>
      </trkpt>
      <trkpt lat="45.82381" lon="6.40615">
        <ele>1711.5999755859</ele>
        <time>2011-07-23T08:47:52.000Z</time>
      </trkpt>
      <trkpt lat="45.82387" lon="6.4061">
        <ele>1712.4000244141</ele>
        <time>2011-07-23T08:47:57.000Z</time>
      </trkpt>
      <trkpt lat="45.82388" lon="6.4061">
        <ele>1712.4000244141</ele>
        <time>2011-07-23T08:47:58.000Z</time>
      </trkpt>
      <trkpt lat="45.82395" lon="6.40613">
        <ele>1711.8000488281</ele>
        <time>2011-07-23T08:48:01.000Z</time>
      </trkpt>
      <trkpt lat="45.82399" lon="6.40615">
        <ele>1711.1999511719</ele>
        <time>2011-07-23T08:48:04.000Z</time>
      </trkpt>
      <trkpt lat="45.82402" lon="6.40618">
        <ele>1711</ele>
        <time>2011-07-23T08:48:06.000Z</time>
      </trkpt>
      <trkpt lat="45.82403" lon="6.40617">
        <ele>1711</ele>
        <time>2011-07-23T08:48:09.000Z</time>
      </trkpt>
      <trkpt lat="45.82404" lon="6.40617">
        <ele>1711</ele>
        <time>2011-07-23T08:48:10.000Z</time>
      </trkpt>
      <trkpt lat="45.82405" lon="6.40618">
        <ele>1710.8000488281</ele>
        <time>2011-07-23T08:48:11.000Z</time>
      </trkpt>
      <trkpt lat="45.82408" lon="6.40621">
        <ele>1710.5999755859</ele>
        <time>2011-07-23T08:48:13.000Z</time>
      </trkpt>
      <trkpt lat="45.8241" lon="6.40625">
        <ele>1710.1999511719</ele>
        <time>2011-07-23T08:48:15.000Z</time>
      </trkpt>
      <trkpt lat="45.82411" lon="6.40627">
        <ele>1710</ele>
        <time>2011-07-23T08:48:17.000Z</time>
      </trkpt>
      <trkpt lat="45.82414" lon="6.40627">
        <ele>1710.1999511719</ele>
        <time>2011-07-23T08:48:19.000Z</time>
      </trkpt>
      <trkpt lat="45.82415" lon="6.40627">
        <ele>1710.1999511719</ele>
        <time>2011-07-23T08:48:20.000Z</time>
      </trkpt>
      <trkpt lat="45.8242" lon="6.40629">
        <ele>1709.8000488281</ele>
        <time>2011-07-23T08:48:23.000Z</time>
      </trkpt>
      <trkpt lat="45.82422" lon="6.4063">
        <ele>1709.8000488281</ele>
        <time>2011-07-23T08:48:24.000Z</time>
      </trkpt>
      <trkpt lat="45.82423" lon="6.40631">
        <ele>1709.5999755859</ele>
        <time>2011-07-23T08:48:25.000Z</time>
      </trkpt>
      <trkpt lat="45.82428" lon="6.40636">
        <ele>1709.1999511719</ele>
        <time>2011-07-23T08:48:28.000Z</time>
      </trkpt>
      <trkpt lat="45.82429" lon="6.40637">
        <ele>1709</ele>
        <time>2011-07-23T08:48:29.000Z</time>
      </trkpt>
      <trkpt lat="45.82433" lon="6.40641">
        <ele>1708.8000488281</ele>
        <time>2011-07-23T08:48:32.000Z</time>
      </trkpt>
      <trkpt lat="45.82436" lon="6.40644">
        <ele>1708.5999755859</ele>
        <time>2011-07-23T08:48:34.000Z</time>
      </trkpt>
      <trkpt lat="45.82442" lon="6.40649">
        <ele>1708.4000244141</ele>
        <time>2011-07-23T08:48:38.000Z</time>
      </trkpt>
      <trkpt lat="45.82443" lon="6.40649">
        <ele>1708.1999511719</ele>
        <time>2011-07-23T08:48:39.000Z</time>
      </trkpt>
      <trkpt lat="45.82448" lon="6.4065">
        <ele>1708.1999511719</ele>
        <time>2011-07-23T08:48:42.000Z</time>
      </trkpt>
      <trkpt lat="45.82453" lon="6.4065">
        <ele>1708</ele>
        <time>2011-07-23T08:48:47.000Z</time>
      </trkpt>
      <trkpt lat="45.82454" lon="6.4065">
        <ele>1708</ele>
        <time>2011-07-23T08:48:48.000Z</time>
      </trkpt>
      <trkpt lat="45.82459" lon="6.40654">
        <ele>1708</ele>
        <time>2011-07-23T08:48:53.000Z</time>
      </trkpt>
      <trkpt lat="45.82467" lon="6.40657">
        <ele>1708</ele>
        <time>2011-07-23T08:48:59.000Z</time>
      </trkpt>
      <trkpt lat="45.8247" lon="6.40659">
        <ele>1708.1999511719</ele>
        <time>2011-07-23T08:49:01.000Z</time>
      </trkpt>
      <trkpt lat="45.82477" lon="6.40662">
        <ele>1708.4000244141</ele>
        <time>2011-07-23T08:49:05.000Z</time>
      </trkpt>
      <trkpt lat="45.82488" lon="6.40665">
        <ele>1708.5999755859</ele>
        <time>2011-07-23T08:49:10.000Z</time>
      </trkpt>
      <trkpt lat="45.82498" lon="6.40663">
        <ele>1708.5999755859</ele>
        <time>2011-07-23T08:49:15.000Z</time>
      </trkpt>
      <trkpt lat="45.82506" lon="6.40663">
        <ele>1708.4000244141</ele>
        <time>2011-07-23T08:49:19.000Z</time>
      </trkpt>
      <trkpt lat="45.82508" lon="6.40663">
        <ele>1708.4000244141</ele>
        <time>2011-07-23T08:49:20.000Z</time>
      </trkpt>
      <trkpt lat="45.82518" lon="6.40663">
        <ele>1708.4000244141</ele>
        <time>2011-07-23T08:49:25.000Z</time>
      </trkpt>
      <trkpt lat="45.82524" lon="6.4066">
        <ele>1708</ele>
        <time>2011-07-23T08:49:28.000Z</time>
      </trkpt>
      <trkpt lat="45.82526" lon="6.40659">
        <ele>1707.8000488281</ele>
        <time>2011-07-23T08:49:29.000Z</time>
      </trkpt>
      <trkpt lat="45.82537" lon="6.40655">
        <ele>1707.1999511719</ele>
        <time>2011-07-23T08:49:34.000Z</time>
      </trkpt>
      <trkpt lat="45.82543" lon="6.40653">
        <ele>1707</ele>
        <time>2011-07-23T08:49:37.000Z</time>
      </trkpt>
      <trkpt lat="45.82548" lon="6.40652">
        <ele>1706.8000488281</ele>
        <time>2011-07-23T08:49:39.000Z</time>
      </trkpt>
      <trkpt lat="45.82557" lon="6.4065">
        <ele>1706.4000244141</ele>
        <time>2011-07-23T08:49:43.000Z</time>
      </trkpt>
      <trkpt lat="45.8256" lon="6.40651">
        <ele>1706.4000244141</ele>
        <time>2011-07-23T08:49:44.000Z</time>
      </trkpt>
      <trkpt lat="45.82569" lon="6.40652">
        <ele>1706.4000244141</ele>
        <time>2011-07-23T08:49:47.000Z</time>
      </trkpt>
      <trkpt lat="45.82579" lon="6.40654">
        <ele>1706.8000488281</ele>
        <time>2011-07-23T08:49:51.000Z</time>
      </trkpt>
      <trkpt lat="45.82581" lon="6.40655">
        <ele>1707</ele>
        <time>2011-07-23T08:49:52.000Z</time>
      </trkpt>
      <trkpt lat="45.82592" lon="6.40658">
        <ele>1707.4000244141</ele>
        <time>2011-07-23T08:49:57.000Z</time>
      </trkpt>
      <trkpt lat="45.82597" lon="6.40658">
        <ele>1707.1999511719</ele>
        <time>2011-07-23T08:49:59.000Z</time>
      </trkpt>
      <trkpt lat="45.82604" lon="6.40656">
        <ele>1706.8000488281</ele>
        <time>2011-07-23T08:50:02.000Z</time>
      </trkpt>
      <trkpt lat="45.82615" lon="6.40653">
        <ele>1706.4000244141</ele>
        <time>2011-07-23T08:50:07.000Z</time>
      </trkpt>
      <trkpt lat="45.82626" lon="6.40651">
        <ele>1706.1999511719</ele>
        <time>2011-07-23T08:50:12.000Z</time>
      </trkpt>
      <trkpt lat="45.82633" lon="6.40649">
        <ele>1705.8000488281</ele>
        <time>2011-07-23T08:50:15.000Z</time>
      </trkpt>
      <trkpt lat="45.82638" lon="6.40648">
        <ele>1705.8000488281</ele>
        <time>2011-07-23T08:50:17.000Z</time>
      </trkpt>
      <trkpt lat="45.8265" lon="6.40646">
        <ele>1705.5999755859</ele>
        <time>2011-07-23T08:50:22.000Z</time>
      </trkpt>
      <trkpt lat="45.82652" lon="6.40645">
        <ele>1705.5999755859</ele>
        <time>2011-07-23T08:50:23.000Z</time>
      </trkpt>
      <trkpt lat="45.82662" lon="6.40641">
        <ele>1705.4000244141</ele>
        <time>2011-07-23T08:50:28.000Z</time>
      </trkpt>
      <trkpt lat="45.82665" lon="6.40639">
        <ele>1705.1999511719</ele>
        <time>2011-07-23T08:50:30.000Z</time>
      </trkpt>
      <trkpt lat="45.8267" lon="6.40635">
        <ele>1705.1999511719</ele>
        <time>2011-07-23T08:50:33.000Z</time>
      </trkpt>
      <trkpt lat="45.82671" lon="6.40634">
        <ele>1705.1999511719</ele>
        <time>2011-07-23T08:50:34.000Z</time>
      </trkpt>
      <trkpt lat="45.82672" lon="6.40633">
        <ele>1705</ele>
        <time>2011-07-23T08:50:36.000Z</time>
      </trkpt>
      <trkpt lat="45.82673" lon="6.40631">
        <ele>1705</ele>
        <time>2011-07-23T08:50:38.000Z</time>
      </trkpt>
      <trkpt lat="45.82674" lon="6.4063">
        <ele>1705</ele>
        <time>2011-07-23T08:50:39.000Z</time>
      </trkpt>
      <trkpt lat="45.82676" lon="6.40628">
        <ele>1705.1999511719</ele>
        <time>2011-07-23T08:50:44.000Z</time>
      </trkpt>
      <trkpt lat="45.82681" lon="6.40622">
        <ele>1705.4000244141</ele>
        <time>2011-07-23T08:50:50.000Z</time>
      </trkpt>
      <trkpt lat="45.82684" lon="6.40619">
        <ele>1705.5999755859</ele>
        <time>2011-07-23T08:50:54.000Z</time>
      </trkpt>
      <trkpt lat="45.82686" lon="6.40617">
        <ele>1706</ele>
        <time>2011-07-23T08:50:57.000Z</time>
      </trkpt>
      <trkpt lat="45.82692" lon="6.40614">
        <ele>1706.8000488281</ele>
        <time>2011-07-23T08:51:05.000Z</time>
      </trkpt>
      <trkpt lat="45.82701" lon="6.40612">
        <ele>1707.8000488281</ele>
        <time>2011-07-23T08:51:15.000Z</time>
      </trkpt>
      <trkpt lat="45.82707" lon="6.40611">
        <ele>1708.8000488281</ele>
        <time>2011-07-23T08:51:24.000Z</time>
      </trkpt>
      <trkpt lat="45.82712" lon="6.40609">
        <ele>1709.5999755859</ele>
        <time>2011-07-23T08:51:32.000Z</time>
      </trkpt>
      <trkpt lat="45.82718" lon="6.40607">
        <ele>1710.8000488281</ele>
        <time>2011-07-23T08:51:40.000Z</time>
      </trkpt>
      <trkpt lat="45.82722" lon="6.40607">
        <ele>1711.1999511719</ele>
        <time>2011-07-23T08:51:47.000Z</time>
      </trkpt>
      <trkpt lat="45.82725" lon="6.40608">
        <ele>1711.4000244141</ele>
        <time>2011-07-23T08:51:52.000Z</time>
      </trkpt>
      <trkpt lat="45.82728" lon="6.40609">
        <ele>1711.8000488281</ele>
        <time>2011-07-23T08:51:56.000Z</time>
      </trkpt>
      <trkpt lat="45.82734" lon="6.40608">
        <ele>1712.8000488281</ele>
        <time>2011-07-23T08:52:03.000Z</time>
      </trkpt>
      <trkpt lat="45.82736" lon="6.40607">
        <ele>1713.4000244141</ele>
        <time>2011-07-23T08:52:06.000Z</time>
      </trkpt>
      <trkpt lat="45.82737" lon="6.40607">
        <ele>1713.4000244141</ele>
        <time>2011-07-23T08:52:07.000Z</time>
      </trkpt>
      <trkpt lat="45.82739" lon="6.40608">
        <ele>1713.5999755859</ele>
        <time>2011-07-23T08:52:10.000Z</time>
      </trkpt>
      <trkpt lat="45.8274" lon="6.40609">
        <ele>1713.5999755859</ele>
        <time>2011-07-23T08:52:11.000Z</time>
      </trkpt>
      <trkpt lat="45.82745" lon="6.40611">
        <ele>1713.8000488281</ele>
        <time>2011-07-23T08:52:17.000Z</time>
      </trkpt>
      <trkpt lat="45.8275" lon="6.40612">
        <ele>1714</ele>
        <time>2011-07-23T08:52:22.000Z</time>
      </trkpt>
      <trkpt lat="45.82752" lon="6.40613">
        <ele>1714</ele>
        <time>2011-07-23T08:52:24.000Z</time>
      </trkpt>
      <trkpt lat="45.82754" lon="6.40613">
        <ele>1714.1999511719</ele>
        <time>2011-07-23T08:52:26.000Z</time>
      </trkpt>
      <trkpt lat="45.82761" lon="6.40611">
        <ele>1715.4000244141</ele>
        <time>2011-07-23T08:52:34.000Z</time>
      </trkpt>
      <trkpt lat="45.82766" lon="6.40605">
        <ele>1717.5999755859</ele>
        <time>2011-07-23T08:52:41.000Z</time>
      </trkpt>
      <trkpt lat="45.8277" lon="6.40603">
        <ele>1718.5999755859</ele>
        <time>2011-07-23T08:52:46.000Z</time>
      </trkpt>
      <trkpt lat="45.82772" lon="6.40602">
        <ele>1719.1999511719</ele>
        <time>2011-07-23T08:52:48.000Z</time>
      </trkpt>
      <trkpt lat="45.82778" lon="6.40597">
        <ele>1721.1999511719</ele>
        <time>2011-07-23T08:52:56.000Z</time>
      </trkpt>
      <trkpt lat="45.82782" lon="6.40593">
        <ele>1723</ele>
        <time>2011-07-23T08:53:02.000Z</time>
      </trkpt>
      <trkpt lat="45.82783" lon="6.40592">
        <ele>1723.4000244141</ele>
        <time>2011-07-23T08:53:04.000Z</time>
      </trkpt>
      <trkpt lat="45.82786" lon="6.40589">
        <ele>1724.5999755859</ele>
        <time>2011-07-23T08:53:10.000Z</time>
      </trkpt>
      <trkpt lat="45.82791" lon="6.40585">
        <ele>1726.5999755859</ele>
        <time>2011-07-23T08:53:17.000Z</time>
      </trkpt>
      <trkpt lat="45.82797" lon="6.40584">
        <ele>1728</ele>
        <time>2011-07-23T08:53:23.000Z</time>
      </trkpt>
      <trkpt lat="45.82803" lon="6.40583">
        <ele>1728.8000488281</ele>
        <time>2011-07-23T08:53:30.000Z</time>
      </trkpt>
      <trkpt lat="45.82805" lon="6.40582">
        <ele>1729</ele>
        <time>2011-07-23T08:53:32.000Z</time>
      </trkpt>
      <trkpt lat="45.82809" lon="6.40581">
        <ele>1729.1999511719</ele>
        <time>2011-07-23T08:53:36.000Z</time>
      </trkpt>
      <trkpt lat="45.82812" lon="6.40579">
        <ele>1729.4000244141</ele>
        <time>2011-07-23T08:53:39.000Z</time>
      </trkpt>
      <trkpt lat="45.82814" lon="6.40578">
        <ele>1729.5999755859</ele>
        <time>2011-07-23T08:53:42.000Z</time>
      </trkpt>
      <trkpt lat="45.82818" lon="6.40578">
        <ele>1730</ele>
        <time>2011-07-23T08:53:47.000Z</time>
      </trkpt>
      <trkpt lat="45.8282" lon="6.40578">
        <ele>1730.1999511719</ele>
        <time>2011-07-23T08:53:49.000Z</time>
      </trkpt>
      <trkpt lat="45.8282" lon="6.40577">
        <ele>1730.1999511719</ele>
        <time>2011-07-23T08:53:50.000Z</time>
      </trkpt>
      <trkpt lat="45.82822" lon="6.40576">
        <ele>1730.4000244141</ele>
        <time>2011-07-23T08:53:53.000Z</time>
      </trkpt>
      <trkpt lat="45.82825" lon="6.40573">
        <ele>1730.1999511719</ele>
        <time>2011-07-23T08:53:58.000Z</time>
      </trkpt>
      <trkpt lat="45.82826" lon="6.40572">
        <ele>1730.1999511719</ele>
        <time>2011-07-23T08:54:04.000Z</time>
      </trkpt>
      <trkpt lat="45.82826" lon="6.4057">
        <ele>1730</ele>
        <time>2011-07-23T08:54:19.000Z</time>
      </trkpt>
      <trkpt lat="45.82825" lon="6.4057">
        <ele>1729.8000488281</ele>
        <time>2011-07-23T08:54:33.000Z</time>
      </trkpt>
      <trkpt lat="45.82828" lon="6.40572">
        <ele>1730.4000244141</ele>
        <time>2011-07-23T08:56:47.000Z</time>
      </trkpt>
      <trkpt lat="45.82829" lon="6.40571">
        <ele>1730.4000244141</ele>
        <time>2011-07-23T08:56:50.000Z</time>
      </trkpt>
      <trkpt lat="45.82831" lon="6.40576">
        <ele>1731.4000244141</ele>
        <time>2011-07-23T08:56:55.000Z</time>
      </trkpt>
      <trkpt lat="45.82835" lon="6.40577">
        <ele>1731.1999511719</ele>
        <time>2011-07-23T08:56:59.000Z</time>
      </trkpt>
      <trkpt lat="45.82842" lon="6.40579">
        <ele>1729</ele>
        <time>2011-07-23T08:57:04.000Z</time>
      </trkpt>
      <trkpt lat="45.82851" lon="6.40579">
        <ele>1726</ele>
        <time>2011-07-23T08:57:09.000Z</time>
      </trkpt>
      <trkpt lat="45.82853" lon="6.40579">
        <ele>1725.4000244141</ele>
        <time>2011-07-23T08:57:10.000Z</time>
      </trkpt>
      <trkpt lat="45.82857" lon="6.40586">
        <ele>1723.8000488281</ele>
        <time>2011-07-23T08:57:13.000Z</time>
      </trkpt>
      <trkpt lat="45.82857" lon="6.40589">
        <ele>1722.8000488281</ele>
        <time>2011-07-23T08:57:14.000Z</time>
      </trkpt>
      <trkpt lat="45.82857" lon="6.40599">
        <ele>1720.1999511719</ele>
        <time>2011-07-23T08:57:18.000Z</time>
      </trkpt>
      <trkpt lat="45.82855" lon="6.40606">
        <ele>1718.8000488281</ele>
        <time>2011-07-23T08:57:22.000Z</time>
      </trkpt>
      <trkpt lat="45.82858" lon="6.40608">
        <ele>1717.1999511719</ele>
        <time>2011-07-23T08:57:24.000Z</time>
      </trkpt>
      <trkpt lat="45.82864" lon="6.4061">
        <ele>1715.4000244141</ele>
        <time>2011-07-23T08:57:27.000Z</time>
      </trkpt>
      <trkpt lat="45.82866" lon="6.40611">
        <ele>1714.8000488281</ele>
        <time>2011-07-23T08:57:28.000Z</time>
      </trkpt>
      <trkpt lat="45.82872" lon="6.40612">
        <ele>1713</ele>
        <time>2011-07-23T08:57:32.000Z</time>
      </trkpt>
      <trkpt lat="45.82875" lon="6.40612">
        <ele>1712.1999511719</ele>
        <time>2011-07-23T08:57:35.000Z</time>
      </trkpt>
      <trkpt lat="45.82877" lon="6.4061">
        <ele>1712</ele>
        <time>2011-07-23T08:57:37.000Z</time>
      </trkpt>
      <trkpt lat="45.82879" lon="6.40611">
        <ele>1711.4000244141</ele>
        <time>2011-07-23T08:57:41.000Z</time>
      </trkpt>
      <trkpt lat="45.8288" lon="6.40611">
        <ele>1711.1999511719</ele>
        <time>2011-07-23T08:57:52.000Z</time>
      </trkpt>
      <trkpt lat="45.8288" lon="6.40617">
        <ele>1710</ele>
        <time>2011-07-23T08:57:55.000Z</time>
      </trkpt>
      <trkpt lat="45.82874" lon="6.40629">
        <ele>1708.5999755859</ele>
        <time>2011-07-23T08:58:01.000Z</time>
      </trkpt>
      <trkpt lat="45.82869" lon="6.40637">
        <ele>1707.8000488281</ele>
        <time>2011-07-23T08:58:05.000Z</time>
      </trkpt>
      <trkpt lat="45.82868" lon="6.4064">
        <ele>1707</ele>
        <time>2011-07-23T08:58:08.000Z</time>
      </trkpt>
      <trkpt lat="45.8287" lon="6.4064">
        <ele>1706.8000488281</ele>
        <time>2011-07-23T08:58:09.000Z</time>
      </trkpt>
      <trkpt lat="45.82876" lon="6.40637">
        <ele>1706.8000488281</ele>
        <time>2011-07-23T08:58:12.000Z</time>
      </trkpt>
      <trkpt lat="45.82878" lon="6.40636">
        <ele>1706.5999755859</ele>
        <time>2011-07-23T08:58:13.000Z</time>
      </trkpt>
      <trkpt lat="45.82882" lon="6.40634">
        <ele>1706.4000244141</ele>
        <time>2011-07-23T08:58:15.000Z</time>
      </trkpt>
      <trkpt lat="45.82888" lon="6.4063">
        <ele>1706.1999511719</ele>
        <time>2011-07-23T08:58:18.000Z</time>
      </trkpt>
      <trkpt lat="45.82894" lon="6.40624">
        <ele>1706.1999511719</ele>
        <time>2011-07-23T08:58:22.000Z</time>
      </trkpt>
      <trkpt lat="45.82897" lon="6.40619">
        <ele>1706.1999511719</ele>
        <time>2011-07-23T08:58:24.000Z</time>
      </trkpt>
      <trkpt lat="45.82902" lon="6.40608">
        <ele>1706.4000244141</ele>
        <time>2011-07-23T08:58:29.000Z</time>
      </trkpt>
      <trkpt lat="45.82904" lon="6.40602">
        <ele>1706.4000244141</ele>
        <time>2011-07-23T08:58:31.000Z</time>
      </trkpt>
      <trkpt lat="45.82907" lon="6.40596">
        <ele>1706.1999511719</ele>
        <time>2011-07-23T08:58:34.000Z</time>
      </trkpt>
      <trkpt lat="45.82911" lon="6.40602">
        <ele>1704.4000244141</ele>
        <time>2011-07-23T08:58:38.000Z</time>
      </trkpt>
      <trkpt lat="45.82915" lon="6.40606">
        <ele>1703.4000244141</ele>
        <time>2011-07-23T08:58:41.000Z</time>
      </trkpt>
      <trkpt lat="45.82916" lon="6.40609">
        <ele>1702.8000488281</ele>
        <time>2011-07-23T08:58:43.000Z</time>
      </trkpt>
      <trkpt lat="45.8292" lon="6.4062">
        <ele>1701.1999511719</ele>
        <time>2011-07-23T08:58:48.000Z</time>
      </trkpt>
      <trkpt lat="45.82923" lon="6.40634">
        <ele>1700</ele>
        <time>2011-07-23T08:58:52.000Z</time>
      </trkpt>
      <trkpt lat="45.82924" lon="6.40638">
        <ele>1699.4000244141</ele>
        <time>2011-07-23T08:58:53.000Z</time>
      </trkpt>
      <trkpt lat="45.8293" lon="6.40657">
        <ele>1697.5999755859</ele>
        <time>2011-07-23T08:58:58.000Z</time>
      </trkpt>
      <trkpt lat="45.82932" lon="6.4066">
        <ele>1697.1999511719</ele>
        <time>2011-07-23T08:58:59.000Z</time>
      </trkpt>
      <trkpt lat="45.82938" lon="6.40664">
        <ele>1695.8000488281</ele>
        <time>2011-07-23T08:59:02.000Z</time>
      </trkpt>
      <trkpt lat="45.8294" lon="6.40663">
        <ele>1695.4000244141</ele>
        <time>2011-07-23T08:59:03.000Z</time>
      </trkpt>
      <trkpt lat="45.82948" lon="6.40661">
        <ele>1693.8000488281</ele>
        <time>2011-07-23T08:59:06.000Z</time>
      </trkpt>
      <trkpt lat="45.82955" lon="6.4066">
        <ele>1692.4000244141</ele>
        <time>2011-07-23T08:59:09.000Z</time>
      </trkpt>
      <trkpt lat="45.82965" lon="6.40659">
        <ele>1690.1999511719</ele>
        <time>2011-07-23T08:59:13.000Z</time>
      </trkpt>
      <trkpt lat="45.82968" lon="6.40659">
        <ele>1689.5999755859</ele>
        <time>2011-07-23T08:59:14.000Z</time>
      </trkpt>
      <trkpt lat="45.82979" lon="6.40655">
        <ele>1686.8000488281</ele>
        <time>2011-07-23T08:59:18.000Z</time>
      </trkpt>
      <trkpt lat="45.82986" lon="6.40651">
        <ele>1684.8000488281</ele>
        <time>2011-07-23T08:59:21.000Z</time>
      </trkpt>
      <trkpt lat="45.8299" lon="6.40646">
        <ele>1683.1999511719</ele>
        <time>2011-07-23T08:59:23.000Z</time>
      </trkpt>
      <trkpt lat="45.82997" lon="6.4063">
        <ele>1679.4000244141</ele>
        <time>2011-07-23T08:59:28.000Z</time>
      </trkpt>
      <trkpt lat="45.83001" lon="6.40617">
        <ele>1676.1999511719</ele>
        <time>2011-07-23T08:59:32.000Z</time>
      </trkpt>
      <trkpt lat="45.83002" lon="6.40614">
        <ele>1675.1999511719</ele>
        <time>2011-07-23T08:59:33.000Z</time>
      </trkpt>
      <trkpt lat="45.83007" lon="6.40606">
        <ele>1671.8000488281</ele>
        <time>2011-07-23T08:59:36.000Z</time>
      </trkpt>
      <trkpt lat="45.83013" lon="6.40599">
        <ele>1668.4000244141</ele>
        <time>2011-07-23T08:59:39.000Z</time>
      </trkpt>
      <trkpt lat="45.83022" lon="6.40589">
        <ele>1664.1999511719</ele>
        <time>2011-07-23T08:59:43.000Z</time>
      </trkpt>
      <trkpt lat="45.83024" lon="6.40586">
        <ele>1663.1999511719</ele>
        <time>2011-07-23T08:59:44.000Z</time>
      </trkpt>
      <trkpt lat="45.83036" lon="6.40575">
        <ele>1658.4000244141</ele>
        <time>2011-07-23T08:59:49.000Z</time>
      </trkpt>
      <trkpt lat="45.83038" lon="6.40571">
        <ele>1657.4000244141</ele>
        <time>2011-07-23T08:59:50.000Z</time>
      </trkpt>
      <trkpt lat="45.83045" lon="6.40563">
        <ele>1654.5999755859</ele>
        <time>2011-07-23T08:59:53.000Z</time>
      </trkpt>
      <trkpt lat="45.83053" lon="6.40558">
        <ele>1651.4000244141</ele>
        <time>2011-07-23T08:59:57.000Z</time>
      </trkpt>
      <trkpt lat="45.83055" lon="6.40557">
        <ele>1650.5999755859</ele>
        <time>2011-07-23T08:59:58.000Z</time>
      </trkpt>
      <trkpt lat="45.83059" lon="6.4055">
        <ele>1648.8000488281</ele>
        <time>2011-07-23T09:00:02.000Z</time>
      </trkpt>
      <trkpt lat="45.83065" lon="6.40545">
        <ele>1646.5999755859</ele>
        <time>2011-07-23T09:00:05.000Z</time>
      </trkpt>
      <trkpt lat="45.83067" lon="6.40545">
        <ele>1646</ele>
        <time>2011-07-23T09:00:06.000Z</time>
      </trkpt>
      <trkpt lat="45.8307" lon="6.40544">
        <ele>1645.1999511719</ele>
        <time>2011-07-23T09:00:08.000Z</time>
      </trkpt>
      <trkpt lat="45.83071" lon="6.4054">
        <ele>1644.5999755859</ele>
        <time>2011-07-23T09:00:10.000Z</time>
      </trkpt>
      <trkpt lat="45.83075" lon="6.40535">
        <ele>1643</ele>
        <time>2011-07-23T09:00:14.000Z</time>
      </trkpt>
      <trkpt lat="45.83078" lon="6.4053">
        <ele>1642</ele>
        <time>2011-07-23T09:00:19.000Z</time>
      </trkpt>
      <trkpt lat="45.83079" lon="6.40533">
        <ele>1641.4000244141</ele>
        <time>2011-07-23T09:00:26.000Z</time>
      </trkpt>
      <trkpt lat="45.83081" lon="6.40537">
        <ele>1641</ele>
        <time>2011-07-23T09:00:29.000Z</time>
      </trkpt>
      <trkpt lat="45.83082" lon="6.4054">
        <ele>1641</ele>
        <time>2011-07-23T09:00:31.000Z</time>
      </trkpt>
      <trkpt lat="45.83086" lon="6.40552">
        <ele>1640</ele>
        <time>2011-07-23T09:00:38.000Z</time>
      </trkpt>
      <trkpt lat="45.83089" lon="6.40559">
        <ele>1639.4000244141</ele>
        <time>2011-07-23T09:00:42.000Z</time>
      </trkpt>
      <trkpt lat="45.83089" lon="6.4056">
        <ele>1639.1999511719</ele>
        <time>2011-07-23T09:00:43.000Z</time>
      </trkpt>
      <trkpt lat="45.83091" lon="6.40567">
        <ele>1639</ele>
        <time>2011-07-23T09:00:47.000Z</time>
      </trkpt>
      <trkpt lat="45.83094" lon="6.40565">
        <ele>1637.8000488281</ele>
        <time>2011-07-23T09:00:50.000Z</time>
      </trkpt>
      <trkpt lat="45.83096" lon="6.40564">
        <ele>1637.1999511719</ele>
        <time>2011-07-23T09:00:51.000Z</time>
      </trkpt>
      <trkpt lat="45.83101" lon="6.40567">
        <ele>1636</ele>
        <time>2011-07-23T09:00:55.000Z</time>
      </trkpt>
      <trkpt lat="45.83101" lon="6.40567">
        <ele>1635.8000488281</ele>
        <time>2011-07-23T09:00:56.000Z</time>
      </trkpt>
      <trkpt lat="45.83101" lon="6.40567">
        <ele>1635.8000488281</ele>
        <time>2011-07-23T09:00:58.000Z</time>
      </trkpt>
      <trkpt lat="45.83102" lon="6.40567">
        <ele>1635.5999755859</ele>
        <time>2011-07-23T09:01:00.000Z</time>
      </trkpt>
      <trkpt lat="45.83103" lon="6.40565">
        <ele>1635</ele>
        <time>2011-07-23T09:01:07.000Z</time>
      </trkpt>
      <trkpt lat="45.83105" lon="6.40562">
        <ele>1634.1999511719</ele>
        <time>2011-07-23T09:01:13.000Z</time>
      </trkpt>
      <trkpt lat="45.83108" lon="6.40559">
        <ele>1633.4000244141</ele>
        <time>2011-07-23T09:01:19.000Z</time>
      </trkpt>
      <trkpt lat="45.83109" lon="6.40558">
        <ele>1632.8000488281</ele>
        <time>2011-07-23T09:01:21.000Z</time>
      </trkpt>
      <trkpt lat="45.83114" lon="6.40559">
        <ele>1631.5999755859</ele>
        <time>2011-07-23T09:01:24.000Z</time>
      </trkpt>
      <trkpt lat="45.83117" lon="6.40558">
        <ele>1630.5999755859</ele>
        <time>2011-07-23T09:01:26.000Z</time>
      </trkpt>
      <trkpt lat="45.83123" lon="6.40561">
        <ele>1628.8000488281</ele>
        <time>2011-07-23T09:01:29.000Z</time>
      </trkpt>
      <trkpt lat="45.83131" lon="6.40562">
        <ele>1626.1999511719</ele>
        <time>2011-07-23T09:01:33.000Z</time>
      </trkpt>
      <trkpt lat="45.83137" lon="6.40563">
        <ele>1624.5999755859</ele>
        <time>2011-07-23T09:01:35.000Z</time>
      </trkpt>
      <trkpt lat="45.83142" lon="6.40564">
        <ele>1623</ele>
        <time>2011-07-23T09:01:37.000Z</time>
      </trkpt>
      <trkpt lat="45.83147" lon="6.40565">
        <ele>1621.4000244141</ele>
        <time>2011-07-23T09:01:39.000Z</time>
      </trkpt>
      <trkpt lat="45.83153" lon="6.40566">
        <ele>1619.4000244141</ele>
        <time>2011-07-23T09:01:41.000Z</time>
      </trkpt>
      <trkpt lat="45.83157" lon="6.40566">
        <ele>1618.4000244141</ele>
        <time>2011-07-23T09:01:42.000Z</time>
      </trkpt>
      <trkpt lat="45.83166" lon="6.40564">
        <ele>1615.4000244141</ele>
        <time>2011-07-23T09:01:45.000Z</time>
      </trkpt>
      <trkpt lat="45.83176" lon="6.4056">
        <ele>1612.8000488281</ele>
        <time>2011-07-23T09:01:48.000Z</time>
      </trkpt>
      <trkpt lat="45.83179" lon="6.40557">
        <ele>1612</ele>
        <time>2011-07-23T09:01:49.000Z</time>
      </trkpt>
      <trkpt lat="45.83191" lon="6.40546">
        <ele>1609.4000244141</ele>
        <time>2011-07-23T09:01:53.000Z</time>
      </trkpt>
      <trkpt lat="45.83193" lon="6.40542">
        <ele>1608.8000488281</ele>
        <time>2011-07-23T09:01:54.000Z</time>
      </trkpt>
      <trkpt lat="45.83204" lon="6.40528">
        <ele>1607</ele>
        <time>2011-07-23T09:01:58.000Z</time>
      </trkpt>
      <trkpt lat="45.83207" lon="6.40526">
        <ele>1606.5999755859</ele>
        <time>2011-07-23T09:01:59.000Z</time>
      </trkpt>
      <trkpt lat="45.83214" lon="6.40517">
        <ele>1605.8000488281</ele>
        <time>2011-07-23T09:02:02.000Z</time>
      </trkpt>
      <trkpt lat="45.83222" lon="6.40505">
        <ele>1605.1999511719</ele>
        <time>2011-07-23T09:02:06.000Z</time>
      </trkpt>
      <trkpt lat="45.83234" lon="6.40487">
        <ele>1602.5999755859</ele>
        <time>2011-07-23T09:02:12.000Z</time>
      </trkpt>
      <trkpt lat="45.83236" lon="6.40484">
        <ele>1602</ele>
        <time>2011-07-23T09:02:13.000Z</time>
      </trkpt>
      <trkpt lat="45.83241" lon="6.40472">
        <ele>1600.1999511719</ele>
        <time>2011-07-23T09:02:16.000Z</time>
      </trkpt>
      <trkpt lat="45.83248" lon="6.40461">
        <ele>1598.4000244141</ele>
        <time>2011-07-23T09:02:20.000Z</time>
      </trkpt>
      <trkpt lat="45.83252" lon="6.40452">
        <ele>1596.8000488281</ele>
        <time>2011-07-23T09:02:24.000Z</time>
      </trkpt>
      <trkpt lat="45.83253" lon="6.40449">
        <ele>1596.1999511719</ele>
        <time>2011-07-23T09:02:26.000Z</time>
      </trkpt>
      <trkpt lat="45.83254" lon="6.40446">
        <ele>1595.4000244141</ele>
        <time>2011-07-23T09:02:30.000Z</time>
      </trkpt>
      <trkpt lat="45.83254" lon="6.40447">
        <ele>1595.4000244141</ele>
        <time>2011-07-23T09:02:35.000Z</time>
      </trkpt>
      <trkpt lat="45.83253" lon="6.40441">
        <ele>1595.1999511719</ele>
        <time>2011-07-23T09:02:40.000Z</time>
      </trkpt>
      <trkpt lat="45.83254" lon="6.4044">
        <ele>1594.8000488281</ele>
        <time>2011-07-23T09:02:41.000Z</time>
      </trkpt>
      <trkpt lat="45.83254" lon="6.40438">
        <ele>1594.5999755859</ele>
        <time>2011-07-23T09:02:42.000Z</time>
      </trkpt>
      <trkpt lat="45.83256" lon="6.40431">
        <ele>1593.4000244141</ele>
        <time>2011-07-23T09:02:45.000Z</time>
      </trkpt>
      <trkpt lat="45.83251" lon="6.40425">
        <ele>1594.1999511719</ele>
        <time>2011-07-23T09:02:49.000Z</time>
      </trkpt>
      <trkpt lat="45.83247" lon="6.40423">
        <ele>1594.5999755859</ele>
        <time>2011-07-23T09:02:51.000Z</time>
      </trkpt>
      <trkpt lat="45.83243" lon="6.40421">
        <ele>1594.8000488281</ele>
        <time>2011-07-23T09:02:53.000Z</time>
      </trkpt>
      <trkpt lat="45.83241" lon="6.4042">
        <ele>1594.8000488281</ele>
        <time>2011-07-23T09:02:54.000Z</time>
      </trkpt>
      <trkpt lat="45.83232" lon="6.40421">
        <ele>1595.5999755859</ele>
        <time>2011-07-23T09:02:58.000Z</time>
      </trkpt>
      <trkpt lat="45.8323" lon="6.40422">
        <ele>1596</ele>
        <time>2011-07-23T09:02:59.000Z</time>
      </trkpt>
      <trkpt lat="45.83227" lon="6.40422">
        <ele>1596.1999511719</ele>
        <time>2011-07-23T09:03:00.000Z</time>
      </trkpt>
      <trkpt lat="45.83222" lon="6.4042">
        <ele>1596.4000244141</ele>
        <time>2011-07-23T09:03:02.000Z</time>
      </trkpt>
      <trkpt lat="45.83212" lon="6.40416">
        <ele>1596.5999755859</ele>
        <time>2011-07-23T09:03:06.000Z</time>
      </trkpt>
      <trkpt lat="45.83207" lon="6.40413">
        <ele>1596</ele>
        <time>2011-07-23T09:03:08.000Z</time>
      </trkpt>
      <trkpt lat="45.83196" lon="6.40402">
        <ele>1594.4000244141</ele>
        <time>2011-07-23T09:03:13.000Z</time>
      </trkpt>
      <trkpt lat="45.83182" lon="6.40388">
        <ele>1592.1999511719</ele>
        <time>2011-07-23T09:03:19.000Z</time>
      </trkpt>
      <trkpt lat="45.83179" lon="6.40385">
        <ele>1591.5999755859</ele>
        <time>2011-07-23T09:03:20.000Z</time>
      </trkpt>
      <trkpt lat="45.83169" lon="6.40372">
        <ele>1589.4000244141</ele>
        <time>2011-07-23T09:03:25.000Z</time>
      </trkpt>
      <trkpt lat="45.83164" lon="6.40368">
        <ele>1589.4000244141</ele>
        <time>2011-07-23T09:03:27.000Z</time>
      </trkpt>
      <trkpt lat="45.83156" lon="6.40359">
        <ele>1589.1999511719</ele>
        <time>2011-07-23T09:03:30.000Z</time>
      </trkpt>
      <trkpt lat="45.83149" lon="6.40351">
        <ele>1589</ele>
        <time>2011-07-23T09:03:33.000Z</time>
      </trkpt>
      <trkpt lat="45.83146" lon="6.40349">
        <ele>1589.1999511719</ele>
        <time>2011-07-23T09:03:34.000Z</time>
      </trkpt>
      <trkpt lat="45.83135" lon="6.4034">
        <ele>1589.4000244141</ele>
        <time>2011-07-23T09:03:39.000Z</time>
      </trkpt>
      <trkpt lat="45.83132" lon="6.40338">
        <ele>1589.4000244141</ele>
        <time>2011-07-23T09:03:40.000Z</time>
      </trkpt>
      <trkpt lat="45.8313" lon="6.40332">
        <ele>1588.5999755859</ele>
        <time>2011-07-23T09:03:42.000Z</time>
      </trkpt>
      <trkpt lat="45.83129" lon="6.40329">
        <ele>1588</ele>
        <time>2011-07-23T09:03:43.000Z</time>
      </trkpt>
      <trkpt lat="45.8313" lon="6.40329">
        <ele>1587.5999755859</ele>
        <time>2011-07-23T09:03:48.000Z</time>
      </trkpt>
      <trkpt lat="45.83131" lon="6.40329">
        <ele>1587.5999755859</ele>
        <time>2011-07-23T09:03:53.000Z</time>
      </trkpt>
      <trkpt lat="45.83135" lon="6.40335">
        <ele>1588.1999511719</ele>
        <time>2011-07-23T09:04:01.000Z</time>
      </trkpt>
      <trkpt lat="45.83138" lon="6.40338">
        <ele>1588.4000244141</ele>
        <time>2011-07-23T09:04:06.000Z</time>
      </trkpt>
      <trkpt lat="45.8314" lon="6.4034">
        <ele>1588.4000244141</ele>
        <time>2011-07-23T09:04:09.000Z</time>
      </trkpt>
      <trkpt lat="45.83147" lon="6.40348">
        <ele>1588.5999755859</ele>
        <time>2011-07-23T09:04:16.000Z</time>
      </trkpt>
      <trkpt lat="45.83152" lon="6.40355">
        <ele>1589.1999511719</ele>
        <time>2011-07-23T09:04:20.000Z</time>
      </trkpt>
      <trkpt lat="45.83156" lon="6.4036">
        <ele>1589.5999755859</ele>
        <time>2011-07-23T09:04:23.000Z</time>
      </trkpt>
      <trkpt lat="45.83163" lon="6.40369">
        <ele>1589.8000488281</ele>
        <time>2011-07-23T09:04:29.000Z</time>
      </trkpt>
      <trkpt lat="45.83167" lon="6.40372">
        <ele>1589.8000488281</ele>
        <time>2011-07-23T09:04:33.000Z</time>
      </trkpt>
      <trkpt lat="45.83168" lon="6.40374">
        <ele>1590</ele>
        <time>2011-07-23T09:04:35.000Z</time>
      </trkpt>
      <trkpt lat="45.83173" lon="6.4038">
        <ele>1590.8000488281</ele>
        <time>2011-07-23T09:04:42.000Z</time>
      </trkpt>
      <trkpt lat="45.83175" lon="6.40381">
        <ele>1591</ele>
        <time>2011-07-23T09:04:44.000Z</time>
      </trkpt>
      <trkpt lat="45.83178" lon="6.40385">
        <ele>1591.8000488281</ele>
        <time>2011-07-23T09:04:48.000Z</time>
      </trkpt>
      <trkpt lat="45.83181" lon="6.40388">
        <ele>1592.1999511719</ele>
        <time>2011-07-23T09:04:52.000Z</time>
      </trkpt>
      <trkpt lat="45.83182" lon="6.4039">
        <ele>1592.4000244141</ele>
        <time>2011-07-23T09:04:54.000Z</time>
      </trkpt>
      <trkpt lat="45.83182" lon="6.4039">
        <ele>1592.5999755859</ele>
        <time>2011-07-23T09:04:55.000Z</time>
      </trkpt>
      <trkpt lat="45.83183" lon="6.40391">
        <ele>1592.5999755859</ele>
        <time>2011-07-23T09:04:57.000Z</time>
      </trkpt>
      <trkpt lat="45.83186" lon="6.40391">
        <ele>1592.5999755859</ele>
        <time>2011-07-23T09:05:01.000Z</time>
      </trkpt>
      <trkpt lat="45.83186" lon="6.40392">
        <ele>1592.8000488281</ele>
        <time>2011-07-23T09:05:29.000Z</time>
      </trkpt>
      <trkpt lat="45.83184" lon="6.40392">
        <ele>1592.8000488281</ele>
        <time>2011-07-23T09:05:50.000Z</time>
      </trkpt>
      <trkpt lat="45.8318" lon="6.40387">
        <ele>1592.1999511719</ele>
        <time>2011-07-23T09:05:53.000Z</time>
      </trkpt>
      <trkpt lat="45.83175" lon="6.40381">
        <ele>1591.1999511719</ele>
        <time>2011-07-23T09:05:56.000Z</time>
      </trkpt>
      <trkpt lat="45.83166" lon="6.40371">
        <ele>1589.5999755859</ele>
        <time>2011-07-23T09:06:01.000Z</time>
      </trkpt>
      <trkpt lat="45.83165" lon="6.40369">
        <ele>1589.4000244141</ele>
        <time>2011-07-23T09:06:02.000Z</time>
      </trkpt>
      <trkpt lat="45.83154" lon="6.40356">
        <ele>1589</ele>
        <time>2011-07-23T09:06:08.000Z</time>
      </trkpt>
      <trkpt lat="45.83152" lon="6.40353">
        <ele>1588.8000488281</ele>
        <time>2011-07-23T09:06:09.000Z</time>
      </trkpt>
      <trkpt lat="45.83146" lon="6.40347">
        <ele>1588.8000488281</ele>
        <time>2011-07-23T09:06:12.000Z</time>
      </trkpt>
      <trkpt lat="45.83137" lon="6.40339">
        <ele>1588.8000488281</ele>
        <time>2011-07-23T09:06:17.000Z</time>
      </trkpt>
      <trkpt lat="45.83135" lon="6.40337">
        <ele>1588.5999755859</ele>
        <time>2011-07-23T09:06:18.000Z</time>
      </trkpt>
      <trkpt lat="45.8313" lon="6.40327">
        <ele>1587.1999511719</ele>
        <time>2011-07-23T09:06:21.000Z</time>
      </trkpt>
      <trkpt lat="45.83128" lon="6.40313">
        <ele>1583.8000488281</ele>
        <time>2011-07-23T09:06:25.000Z</time>
      </trkpt>
      <trkpt lat="45.83127" lon="6.40309">
        <ele>1583</ele>
        <time>2011-07-23T09:06:26.000Z</time>
      </trkpt>
      <trkpt lat="45.83122" lon="6.40292">
        <ele>1579.8000488281</ele>
        <time>2011-07-23T09:06:31.000Z</time>
      </trkpt>
      <trkpt lat="45.83119" lon="6.40287">
        <ele>1579</ele>
        <time>2011-07-23T09:06:33.000Z</time>
      </trkpt>
      <trkpt lat="45.83114" lon="6.4028">
        <ele>1578.1999511719</ele>
        <time>2011-07-23T09:06:36.000Z</time>
      </trkpt>
      <trkpt lat="45.83106" lon="6.40272">
        <ele>1577.5999755859</ele>
        <time>2011-07-23T09:06:40.000Z</time>
      </trkpt>
      <trkpt lat="45.83104" lon="6.4027">
        <ele>1577.8000488281</ele>
        <time>2011-07-23T09:06:41.000Z</time>
      </trkpt>
      <trkpt lat="45.83098" lon="6.40264">
        <ele>1577.4000244141</ele>
        <time>2011-07-23T09:06:44.000Z</time>
      </trkpt>
      <trkpt lat="45.83091" lon="6.40252">
        <ele>1575.8000488281</ele>
        <time>2011-07-23T09:06:48.000Z</time>
      </trkpt>
      <trkpt lat="45.8309" lon="6.40247">
        <ele>1574.5999755859</ele>
        <time>2011-07-23T09:06:49.000Z</time>
      </trkpt>
      <trkpt lat="45.83088" lon="6.40236">
        <ele>1570.8000488281</ele>
        <time>2011-07-23T09:06:52.000Z</time>
      </trkpt>
      <trkpt lat="45.83086" lon="6.40233">
        <ele>1570</ele>
        <time>2011-07-23T09:06:53.000Z</time>
      </trkpt>
      <trkpt lat="45.83087" lon="6.40226">
        <ele>1567.5999755859</ele>
        <time>2011-07-23T09:06:55.000Z</time>
      </trkpt>
      <trkpt lat="45.8309" lon="6.40223">
        <ele>1565.8000488281</ele>
        <time>2011-07-23T09:06:56.000Z</time>
      </trkpt>
      <trkpt lat="45.83099" lon="6.40225">
        <ele>1564.4000244141</ele>
        <time>2011-07-23T09:06:59.000Z</time>
      </trkpt>
      <trkpt lat="45.83102" lon="6.40227">
        <ele>1564.8000488281</ele>
        <time>2011-07-23T09:07:00.000Z</time>
      </trkpt>
      <trkpt lat="45.83105" lon="6.4023">
        <ele>1565.1999511719</ele>
        <time>2011-07-23T09:07:01.000Z</time>
      </trkpt>
      <trkpt lat="45.83118" lon="6.40244">
        <ele>1567.1999511719</ele>
        <time>2011-07-23T09:07:06.000Z</time>
      </trkpt>
      <trkpt lat="45.8313" lon="6.4025">
        <ele>1567</ele>
        <time>2011-07-23T09:07:10.000Z</time>
      </trkpt>
      <trkpt lat="45.83137" lon="6.40251">
        <ele>1565.5999755859</ele>
        <time>2011-07-23T09:07:12.000Z</time>
      </trkpt>
      <trkpt lat="45.83153" lon="6.40252">
        <ele>1562.4000244141</ele>
        <time>2011-07-23T09:07:16.000Z</time>
      </trkpt>
      <trkpt lat="45.83156" lon="6.40252">
        <ele>1561.5999755859</ele>
        <time>2011-07-23T09:07:17.000Z</time>
      </trkpt>
      <trkpt lat="45.83172" lon="6.40258">
        <ele>1560</ele>
        <time>2011-07-23T09:07:22.000Z</time>
      </trkpt>
      <trkpt lat="45.83174" lon="6.4026">
        <ele>1560</ele>
        <time>2011-07-23T09:07:23.000Z</time>
      </trkpt>
      <trkpt lat="45.83181" lon="6.40268">
        <ele>1561.1999511719</ele>
        <time>2011-07-23T09:07:26.000Z</time>
      </trkpt>
      <trkpt lat="45.8319" lon="6.40272">
        <ele>1560.4000244141</ele>
        <time>2011-07-23T09:07:29.000Z</time>
      </trkpt>
      <trkpt lat="45.83192" lon="6.40271">
        <ele>1559.8000488281</ele>
        <time>2011-07-23T09:07:30.000Z</time>
      </trkpt>
      <trkpt lat="45.832" lon="6.4027">
        <ele>1558.1999511719</ele>
        <time>2011-07-23T09:07:33.000Z</time>
      </trkpt>
      <trkpt lat="45.83203" lon="6.4027">
        <ele>1557.5999755859</ele>
        <time>2011-07-23T09:07:34.000Z</time>
      </trkpt>
      <trkpt lat="45.83208" lon="6.40269">
        <ele>1556.4000244141</ele>
        <time>2011-07-23T09:07:36.000Z</time>
      </trkpt>
      <trkpt lat="45.83219" lon="6.4027">
        <ele>1554.8000488281</ele>
        <time>2011-07-23T09:07:40.000Z</time>
      </trkpt>
      <trkpt lat="45.83228" lon="6.40272">
        <ele>1553.5999755859</ele>
        <time>2011-07-23T09:07:43.000Z</time>
      </trkpt>
      <trkpt lat="45.83237" lon="6.4027">
        <ele>1551.5999755859</ele>
        <time>2011-07-23T09:07:46.000Z</time>
      </trkpt>
      <trkpt lat="45.83248" lon="6.40265">
        <ele>1547.5999755859</ele>
        <time>2011-07-23T09:07:50.000Z</time>
      </trkpt>
      <trkpt lat="45.83253" lon="6.40261">
        <ele>1545.5999755859</ele>
        <time>2011-07-23T09:07:52.000Z</time>
      </trkpt>
      <trkpt lat="45.83265" lon="6.40251">
        <ele>1541</ele>
        <time>2011-07-23T09:07:57.000Z</time>
      </trkpt>
      <trkpt lat="45.83283" lon="6.4024">
        <ele>1535.5999755859</ele>
        <time>2011-07-23T09:08:03.000Z</time>
      </trkpt>
      <trkpt lat="45.83299" lon="6.40233">
        <ele>1531.8000488281</ele>
        <time>2011-07-23T09:08:08.000Z</time>
      </trkpt>
      <trkpt lat="45.83302" lon="6.40231">
        <ele>1531.1999511719</ele>
        <time>2011-07-23T09:08:09.000Z</time>
      </trkpt>
      <trkpt lat="45.83318" lon="6.40228">
        <ele>1528.8000488281</ele>
        <time>2011-07-23T09:08:14.000Z</time>
      </trkpt>
      <trkpt lat="45.83321" lon="6.40228">
        <ele>1528.4000244141</ele>
        <time>2011-07-23T09:08:15.000Z</time>
      </trkpt>
      <trkpt lat="45.83338" lon="6.4023">
        <ele>1527.4000244141</ele>
        <time>2011-07-23T09:08:20.000Z</time>
      </trkpt>
      <trkpt lat="45.83341" lon="6.40232">
        <ele>1527.1999511719</ele>
        <time>2011-07-23T09:08:21.000Z</time>
      </trkpt>
      <trkpt lat="45.83351" lon="6.40235">
        <ele>1526.1999511719</ele>
        <time>2011-07-23T09:08:24.000Z</time>
      </trkpt>
      <trkpt lat="45.8336" lon="6.40236">
        <ele>1525</ele>
        <time>2011-07-23T09:08:27.000Z</time>
      </trkpt>
      <trkpt lat="45.83372" lon="6.40238">
        <ele>1523.4000244141</ele>
        <time>2011-07-23T09:08:31.000Z</time>
      </trkpt>
      <trkpt lat="45.83378" lon="6.40239">
        <ele>1522.5999755859</ele>
        <time>2011-07-23T09:08:33.000Z</time>
      </trkpt>
      <trkpt lat="45.8339" lon="6.40242">
        <ele>1521.4000244141</ele>
        <time>2011-07-23T09:08:37.000Z</time>
      </trkpt>
      <trkpt lat="45.83398" lon="6.40246">
        <ele>1521.1999511719</ele>
        <time>2011-07-23T09:08:40.000Z</time>
      </trkpt>
      <trkpt lat="45.83401" lon="6.40248">
        <ele>1521.1999511719</ele>
        <time>2011-07-23T09:08:41.000Z</time>
      </trkpt>
      <trkpt lat="45.83415" lon="6.40251">
        <ele>1519.4000244141</ele>
        <time>2011-07-23T09:08:46.000Z</time>
      </trkpt>
      <trkpt lat="45.83418" lon="6.40251">
        <ele>1519</ele>
        <time>2011-07-23T09:08:47.000Z</time>
      </trkpt>
      <trkpt lat="45.83432" lon="6.40251">
        <ele>1515</ele>
        <time>2011-07-23T09:08:52.000Z</time>
      </trkpt>
      <trkpt lat="45.83437" lon="6.40251">
        <ele>1513.4000244141</ele>
        <time>2011-07-23T09:08:54.000Z</time>
      </trkpt>
      <trkpt lat="45.83446" lon="6.40251">
        <ele>1511</ele>
        <time>2011-07-23T09:08:57.000Z</time>
      </trkpt>
      <trkpt lat="45.83455" lon="6.40252">
        <ele>1508.5999755859</ele>
        <time>2011-07-23T09:09:00.000Z</time>
      </trkpt>
      <trkpt lat="45.83461" lon="6.40252">
        <ele>1507</ele>
        <time>2011-07-23T09:09:02.000Z</time>
      </trkpt>
      <trkpt lat="45.83476" lon="6.40252">
        <ele>1502.8000488281</ele>
        <time>2011-07-23T09:09:08.000Z</time>
      </trkpt>
      <trkpt lat="45.83479" lon="6.40252">
        <ele>1502</ele>
        <time>2011-07-23T09:09:09.000Z</time>
      </trkpt>
      <trkpt lat="45.83496" lon="6.40254">
        <ele>1497.5999755859</ele>
        <time>2011-07-23T09:09:15.000Z</time>
      </trkpt>
      <trkpt lat="45.83506" lon="6.40261">
        <ele>1494.1999511719</ele>
        <time>2011-07-23T09:09:19.000Z</time>
      </trkpt>
      <trkpt lat="45.83512" lon="6.4027">
        <ele>1491.5999755859</ele>
        <time>2011-07-23T09:09:22.000Z</time>
      </trkpt>
      <trkpt lat="45.83516" lon="6.40276">
        <ele>1490.4000244141</ele>
        <time>2011-07-23T09:09:24.000Z</time>
      </trkpt>
      <trkpt lat="45.8352" lon="6.40287">
        <ele>1489.4000244141</ele>
        <time>2011-07-23T09:09:29.000Z</time>
      </trkpt>
      <trkpt lat="45.83521" lon="6.40293">
        <ele>1489.4000244141</ele>
        <time>2011-07-23T09:09:32.000Z</time>
      </trkpt>
      <trkpt lat="45.83521" lon="6.40298">
        <ele>1490</ele>
        <time>2011-07-23T09:09:35.000Z</time>
      </trkpt>
      <trkpt lat="45.83522" lon="6.40303">
        <ele>1490.1999511719</ele>
        <time>2011-07-23T09:09:38.000Z</time>
      </trkpt>
      <trkpt lat="45.83522" lon="6.40304">
        <ele>1490.5999755859</ele>
        <time>2011-07-23T09:09:40.000Z</time>
      </trkpt>
      <trkpt lat="45.83523" lon="6.40305">
        <ele>1489.5999755859</ele>
        <time>2011-07-23T09:09:49.000Z</time>
      </trkpt>
      <trkpt lat="45.83517" lon="6.40307">
        <ele>1493.5999755859</ele>
        <time>2011-07-23T09:10:13.000Z</time>
      </trkpt>
      <trkpt lat="45.83518" lon="6.40307">
        <ele>1492.8000488281</ele>
        <time>2011-07-23T09:10:27.000Z</time>
      </trkpt>
      <trkpt lat="45.83518" lon="6.40307">
        <ele>1492.5999755859</ele>
        <time>2011-07-23T09:10:31.000Z</time>
      </trkpt>
      <trkpt lat="45.83518" lon="6.40307">
        <ele>1492.8000488281</ele>
        <time>2011-07-23T09:10:37.000Z</time>
      </trkpt>
      <trkpt lat="45.83518" lon="6.40307">
        <ele>1492.8000488281</ele>
        <time>2011-07-23T09:10:44.000Z</time>
      </trkpt>
      <trkpt lat="45.83517" lon="6.40307">
        <ele>1493.4000244141</ele>
        <time>2011-07-23T09:11:12.000Z</time>
      </trkpt>
      <trkpt lat="45.83521" lon="6.40305">
        <ele>1490.8000488281</ele>
        <time>2011-07-23T09:11:22.000Z</time>
      </trkpt>
      <trkpt lat="45.83525" lon="6.40304">
        <ele>1488.5999755859</ele>
        <time>2011-07-23T09:11:37.000Z</time>
      </trkpt>
      <trkpt lat="45.83526" lon="6.40304">
        <ele>1488.1999511719</ele>
        <time>2011-07-23T09:11:47.000Z</time>
      </trkpt>
      <trkpt lat="45.83524" lon="6.40303">
        <ele>1489.1999511719</ele>
        <time>2011-07-23T09:12:07.000Z</time>
      </trkpt>
      <trkpt lat="45.83523" lon="6.40296">
        <ele>1489</ele>
        <time>2011-07-23T09:12:10.000Z</time>
      </trkpt>
      <trkpt lat="45.83525" lon="6.40285">
        <ele>1486.8000488281</ele>
        <time>2011-07-23T09:12:13.000Z</time>
      </trkpt>
      <trkpt lat="45.83525" lon="6.40281">
        <ele>1485.8000488281</ele>
        <time>2011-07-23T09:12:14.000Z</time>
      </trkpt>
      <trkpt lat="45.83524" lon="6.40267">
        <ele>1485</ele>
        <time>2011-07-23T09:12:18.000Z</time>
      </trkpt>
      <trkpt lat="45.83522" lon="6.4026">
        <ele>1485</ele>
        <time>2011-07-23T09:12:20.000Z</time>
      </trkpt>
      <trkpt lat="45.83522" lon="6.40253">
        <ele>1484.5999755859</ele>
        <time>2011-07-23T09:12:22.000Z</time>
      </trkpt>
      <trkpt lat="45.83522" lon="6.40239">
        <ele>1481</ele>
        <time>2011-07-23T09:12:27.000Z</time>
      </trkpt>
      <trkpt lat="45.83522" lon="6.40233">
        <ele>1480</ele>
        <time>2011-07-23T09:12:29.000Z</time>
      </trkpt>
      <trkpt lat="45.8352" lon="6.40223">
        <ele>1478.4000244141</ele>
        <time>2011-07-23T09:12:32.000Z</time>
      </trkpt>
      <trkpt lat="45.83518" lon="6.40212">
        <ele>1476.5999755859</ele>
        <time>2011-07-23T09:12:35.000Z</time>
      </trkpt>
      <trkpt lat="45.83516" lon="6.40209">
        <ele>1476.5999755859</ele>
        <time>2011-07-23T09:12:36.000Z</time>
      </trkpt>
      <trkpt lat="45.83509" lon="6.40198">
        <ele>1476.8000488281</ele>
        <time>2011-07-23T09:12:41.000Z</time>
      </trkpt>
      <trkpt lat="45.83504" lon="6.40189">
        <ele>1476.8000488281</ele>
        <time>2011-07-23T09:12:44.000Z</time>
      </trkpt>
      <trkpt lat="45.83502" lon="6.40187">
        <ele>1476.5999755859</ele>
        <time>2011-07-23T09:12:45.000Z</time>
      </trkpt>
      <trkpt lat="45.83501" lon="6.40184">
        <ele>1476.5999755859</ele>
        <time>2011-07-23T09:12:46.000Z</time>
      </trkpt>
      <trkpt lat="45.83494" lon="6.40172">
        <ele>1474.5999755859</ele>
        <time>2011-07-23T09:12:51.000Z</time>
      </trkpt>
      <trkpt lat="45.83492" lon="6.40169">
        <ele>1474.1999511719</ele>
        <time>2011-07-23T09:12:52.000Z</time>
      </trkpt>
      <trkpt lat="45.83487" lon="6.40162">
        <ele>1473</ele>
        <time>2011-07-23T09:12:55.000Z</time>
      </trkpt>
      <trkpt lat="45.8348" lon="6.40154">
        <ele>1471.5999755859</ele>
        <time>2011-07-23T09:12:59.000Z</time>
      </trkpt>
      <trkpt lat="45.8348" lon="6.40154">
        <ele>1471.4000244141</ele>
        <time>2011-07-23T09:13:00.000Z</time>
      </trkpt>
      <trkpt lat="45.83478" lon="6.40154">
        <ele>1472</ele>
        <time>2011-07-23T09:13:07.000Z</time>
      </trkpt>
      <trkpt lat="45.83474" lon="6.40149">
        <ele>1471.1999511719</ele>
        <time>2011-07-23T09:13:09.000Z</time>
      </trkpt>
      <trkpt lat="45.83475" lon="6.40136">
        <ele>1466.1999511719</ele>
        <time>2011-07-23T09:13:13.000Z</time>
      </trkpt>
      <trkpt lat="45.83477" lon="6.40134">
        <ele>1465.4000244141</ele>
        <time>2011-07-23T09:13:14.000Z</time>
      </trkpt>
      <trkpt lat="45.83485" lon="6.40132">
        <ele>1463</ele>
        <time>2011-07-23T09:13:17.000Z</time>
      </trkpt>
      <trkpt lat="45.83488" lon="6.40132">
        <ele>1462.1999511719</ele>
        <time>2011-07-23T09:13:18.000Z</time>
      </trkpt>
      <trkpt lat="45.83497" lon="6.40134">
        <ele>1461.1999511719</ele>
        <time>2011-07-23T09:13:21.000Z</time>
      </trkpt>
      <trkpt lat="45.83502" lon="6.40137">
        <ele>1461</ele>
        <time>2011-07-23T09:13:23.000Z</time>
      </trkpt>
      <trkpt lat="45.83513" lon="6.40147">
        <ele>1460.4000244141</ele>
        <time>2011-07-23T09:13:28.000Z</time>
      </trkpt>
      <trkpt lat="45.83524" lon="6.40154">
        <ele>1458.8000488281</ele>
        <time>2011-07-23T09:13:32.000Z</time>
      </trkpt>
      <trkpt lat="45.83527" lon="6.40148">
        <ele>1456</ele>
        <time>2011-07-23T09:13:34.000Z</time>
      </trkpt>
      <trkpt lat="45.83527" lon="6.40145">
        <ele>1454.8000488281</ele>
        <time>2011-07-23T09:13:35.000Z</time>
      </trkpt>
      <trkpt lat="45.83525" lon="6.40138">
        <ele>1453.4000244141</ele>
        <time>2011-07-23T09:13:37.000Z</time>
      </trkpt>
      <trkpt lat="45.83523" lon="6.4013">
        <ele>1451.5999755859</ele>
        <time>2011-07-23T09:13:39.000Z</time>
      </trkpt>
      <trkpt lat="45.83522" lon="6.40122">
        <ele>1449.5999755859</ele>
        <time>2011-07-23T09:13:41.000Z</time>
      </trkpt>
      <trkpt lat="45.83518" lon="6.40111">
        <ele>1447.5999755859</ele>
        <time>2011-07-23T09:13:44.000Z</time>
      </trkpt>
      <trkpt lat="45.83512" lon="6.40099">
        <ele>1445.4000244141</ele>
        <time>2011-07-23T09:13:48.000Z</time>
      </trkpt>
      <trkpt lat="45.83511" lon="6.40097">
        <ele>1444.8000488281</ele>
        <time>2011-07-23T09:13:49.000Z</time>
      </trkpt>
      <trkpt lat="45.83501" lon="6.40087">
        <ele>1444</ele>
        <time>2011-07-23T09:13:53.000Z</time>
      </trkpt>
      <trkpt lat="45.83496" lon="6.40082">
        <ele>1443.4000244141</ele>
        <time>2011-07-23T09:13:55.000Z</time>
      </trkpt>
      <trkpt lat="45.83491" lon="6.40079">
        <ele>1443.1999511719</ele>
        <time>2011-07-23T09:13:57.000Z</time>
      </trkpt>
      <trkpt lat="45.83482" lon="6.40075">
        <ele>1443.8000488281</ele>
        <time>2011-07-23T09:14:01.000Z</time>
      </trkpt>
      <trkpt lat="45.8348" lon="6.40075">
        <ele>1444.1999511719</ele>
        <time>2011-07-23T09:14:02.000Z</time>
      </trkpt>
      <trkpt lat="45.83478" lon="6.40075">
        <ele>1444.5999755859</ele>
        <time>2011-07-23T09:14:03.000Z</time>
      </trkpt>
      <trkpt lat="45.83474" lon="6.40074">
        <ele>1445.1999511719</ele>
        <time>2011-07-23T09:14:05.000Z</time>
      </trkpt>
      <trkpt lat="45.8347" lon="6.40074">
        <ele>1445.8000488281</ele>
        <time>2011-07-23T09:14:07.000Z</time>
      </trkpt>
      <trkpt lat="45.83458" lon="6.40073">
        <ele>1447.8000488281</ele>
        <time>2011-07-23T09:14:12.000Z</time>
      </trkpt>
      <trkpt lat="45.83442" lon="6.40068">
        <ele>1449</ele>
        <time>2011-07-23T09:14:17.000Z</time>
      </trkpt>
      <trkpt lat="45.83429" lon="6.40067">
        <ele>1451.1999511719</ele>
        <time>2011-07-23T09:14:21.000Z</time>
      </trkpt>
      <trkpt lat="45.83425" lon="6.40064">
        <ele>1451</ele>
        <time>2011-07-23T09:14:23.000Z</time>
      </trkpt>
      <trkpt lat="45.83422" lon="6.40062">
        <ele>1450.4000244141</ele>
        <time>2011-07-23T09:14:24.000Z</time>
      </trkpt>
      <trkpt lat="45.8342" lon="6.40059">
        <ele>1449.5999755859</ele>
        <time>2011-07-23T09:14:25.000Z</time>
      </trkpt>
      <trkpt lat="45.83409" lon="6.40047">
        <ele>1447</ele>
        <time>2011-07-23T09:14:29.000Z</time>
      </trkpt>
      <trkpt lat="45.83407" lon="6.40044">
        <ele>1446.5999755859</ele>
        <time>2011-07-23T09:14:30.000Z</time>
      </trkpt>
      <trkpt lat="45.83399" lon="6.40029">
        <ele>1442.8000488281</ele>
        <time>2011-07-23T09:14:34.000Z</time>
      </trkpt>
      <trkpt lat="45.83396" lon="6.40022">
        <ele>1440.8000488281</ele>
        <time>2011-07-23T09:14:36.000Z</time>
      </trkpt>
      <trkpt lat="45.83391" lon="6.4001">
        <ele>1437.8000488281</ele>
        <time>2011-07-23T09:14:39.000Z</time>
      </trkpt>
      <trkpt lat="45.83386" lon="6.39999">
        <ele>1435</ele>
        <time>2011-07-23T09:14:42.000Z</time>
      </trkpt>
      <trkpt lat="45.83377" lon="6.39988">
        <ele>1433.1999511719</ele>
        <time>2011-07-23T09:14:46.000Z</time>
      </trkpt>
      <trkpt lat="45.8337" lon="6.39981">
        <ele>1432.4000244141</ele>
        <time>2011-07-23T09:14:49.000Z</time>
      </trkpt>
      <trkpt lat="45.83365" lon="6.39978">
        <ele>1432.4000244141</ele>
        <time>2011-07-23T09:14:51.000Z</time>
      </trkpt>
      <trkpt lat="45.83353" lon="6.3997">
        <ele>1432.4000244141</ele>
        <time>2011-07-23T09:14:56.000Z</time>
      </trkpt>
      <trkpt lat="45.8334" lon="6.39963">
        <ele>1432.4000244141</ele>
        <time>2011-07-23T09:15:01.000Z</time>
      </trkpt>
      <trkpt lat="45.83335" lon="6.3996">
        <ele>1432.1999511719</ele>
        <time>2011-07-23T09:15:03.000Z</time>
      </trkpt>
      <trkpt lat="45.8332" lon="6.39951">
        <ele>1430.8000488281</ele>
        <time>2011-07-23T09:15:09.000Z</time>
      </trkpt>
      <trkpt lat="45.83317" lon="6.3995">
        <ele>1430.8000488281</ele>
        <time>2011-07-23T09:15:10.000Z</time>
      </trkpt>
      <trkpt lat="45.83302" lon="6.39942">
        <ele>1429.5999755859</ele>
        <time>2011-07-23T09:15:16.000Z</time>
      </trkpt>
      <trkpt lat="45.83299" lon="6.39941">
        <ele>1429.5999755859</ele>
        <time>2011-07-23T09:15:17.000Z</time>
      </trkpt>
      <trkpt lat="45.83285" lon="6.39939">
        <ele>1431</ele>
        <time>2011-07-23T09:15:22.000Z</time>
      </trkpt>
      <trkpt lat="45.83279" lon="6.3994">
        <ele>1432.4000244141</ele>
        <time>2011-07-23T09:15:25.000Z</time>
      </trkpt>
      <trkpt lat="45.83275" lon="6.39943">
        <ele>1434.1999511719</ele>
        <time>2011-07-23T09:15:27.000Z</time>
      </trkpt>
      <trkpt lat="45.83265" lon="6.39956">
        <ele>1440.4000244141</ele>
        <time>2011-07-23T09:15:33.000Z</time>
      </trkpt>
      <trkpt lat="45.83259" lon="6.39958">
        <ele>1441.8000488281</ele>
        <time>2011-07-23T09:15:35.000Z</time>
      </trkpt>
      <trkpt lat="45.83254" lon="6.39957">
        <ele>1442.1999511719</ele>
        <time>2011-07-23T09:15:37.000Z</time>
      </trkpt>
      <trkpt lat="45.83248" lon="6.39951">
        <ele>1441.4000244141</ele>
        <time>2011-07-23T09:15:39.000Z</time>
      </trkpt>
      <trkpt lat="45.83245" lon="6.39943">
        <ele>1439.4000244141</ele>
        <time>2011-07-23T09:15:41.000Z</time>
      </trkpt>
      <trkpt lat="45.83244" lon="6.39938">
        <ele>1438.1999511719</ele>
        <time>2011-07-23T09:15:42.000Z</time>
      </trkpt>
      <trkpt lat="45.83242" lon="6.39926">
        <ele>1434</ele>
        <time>2011-07-23T09:15:45.000Z</time>
      </trkpt>
      <trkpt lat="45.83242" lon="6.39923">
        <ele>1433.1999511719</ele>
        <time>2011-07-23T09:15:46.000Z</time>
      </trkpt>
      <trkpt lat="45.83241" lon="6.39911">
        <ele>1429.1999511719</ele>
        <time>2011-07-23T09:15:49.000Z</time>
      </trkpt>
      <trkpt lat="45.83238" lon="6.39904">
        <ele>1427.1999511719</ele>
        <time>2011-07-23T09:15:51.000Z</time>
      </trkpt>
      <trkpt lat="45.83236" lon="6.399">
        <ele>1426.1999511719</ele>
        <time>2011-07-23T09:15:52.000Z</time>
      </trkpt>
      <trkpt lat="45.8323" lon="6.3989">
        <ele>1424</ele>
        <time>2011-07-23T09:15:56.000Z</time>
      </trkpt>
      <trkpt lat="45.83222" lon="6.39884">
        <ele>1423.4000244141</ele>
        <time>2011-07-23T09:15:59.000Z</time>
      </trkpt>
      <trkpt lat="45.83219" lon="6.39879">
        <ele>1422.5999755859</ele>
        <time>2011-07-23T09:16:01.000Z</time>
      </trkpt>
      <trkpt lat="45.83206" lon="6.39868">
        <ele>1421.5999755859</ele>
        <time>2011-07-23T09:16:06.000Z</time>
      </trkpt>
      <trkpt lat="45.83198" lon="6.39854">
        <ele>1418.8000488281</ele>
        <time>2011-07-23T09:16:11.000Z</time>
      </trkpt>
      <trkpt lat="45.83192" lon="6.39849">
        <ele>1418.1999511719</ele>
        <time>2011-07-23T09:16:14.000Z</time>
      </trkpt>
      <trkpt lat="45.83183" lon="6.39846">
        <ele>1419.5999755859</ele>
        <time>2011-07-23T09:16:17.000Z</time>
      </trkpt>
      <trkpt lat="45.83174" lon="6.39843">
        <ele>1420.8000488281</ele>
        <time>2011-07-23T09:16:20.000Z</time>
      </trkpt>
      <trkpt lat="45.83168" lon="6.39841">
        <ele>1421.5999755859</ele>
        <time>2011-07-23T09:16:22.000Z</time>
      </trkpt>
      <trkpt lat="45.83156" lon="6.39837">
        <ele>1421.5999755859</ele>
        <time>2011-07-23T09:16:26.000Z</time>
      </trkpt>
      <trkpt lat="45.83153" lon="6.39836">
        <ele>1421.4000244141</ele>
        <time>2011-07-23T09:16:27.000Z</time>
      </trkpt>
      <trkpt lat="45.83137" lon="6.39829">
        <ele>1420.1999511719</ele>
        <time>2011-07-23T09:16:32.000Z</time>
      </trkpt>
      <trkpt lat="45.83121" lon="6.39819">
        <ele>1418</ele>
        <time>2011-07-23T09:16:38.000Z</time>
      </trkpt>
      <trkpt lat="45.83119" lon="6.39817">
        <ele>1417.5999755859</ele>
        <time>2011-07-23T09:16:39.000Z</time>
      </trkpt>
      <trkpt lat="45.83117" lon="6.39814">
        <ele>1416.8000488281</ele>
        <time>2011-07-23T09:16:40.000Z</time>
      </trkpt>
      <trkpt lat="45.83115" lon="6.39807">
        <ele>1414.4000244141</ele>
        <time>2011-07-23T09:16:42.000Z</time>
      </trkpt>
      <trkpt lat="45.8311" lon="6.39794">
        <ele>1410</ele>
        <time>2011-07-23T09:16:45.000Z</time>
      </trkpt>
      <trkpt lat="45.83108" lon="6.39786">
        <ele>1407.4000244141</ele>
        <time>2011-07-23T09:16:47.000Z</time>
      </trkpt>
      <trkpt lat="45.83103" lon="6.39775">
        <ele>1404</ele>
        <time>2011-07-23T09:16:50.000Z</time>
      </trkpt>
      <trkpt lat="45.831" lon="6.3977">
        <ele>1402.5999755859</ele>
        <time>2011-07-23T09:16:52.000Z</time>
      </trkpt>
      <trkpt lat="45.8309" lon="6.39756">
        <ele>1399</ele>
        <time>2011-07-23T09:16:57.000Z</time>
      </trkpt>
      <trkpt lat="45.83087" lon="6.39753">
        <ele>1398.5999755859</ele>
        <time>2011-07-23T09:16:58.000Z</time>
      </trkpt>
      <trkpt lat="45.83078" lon="6.39748">
        <ele>1399.4000244141</ele>
        <time>2011-07-23T09:17:01.000Z</time>
      </trkpt>
      <trkpt lat="45.8307" lon="6.39739">
        <ele>1401</ele>
        <time>2011-07-23T09:17:04.000Z</time>
      </trkpt>
      <trkpt lat="45.83068" lon="6.39736">
        <ele>1401.5999755859</ele>
        <time>2011-07-23T09:17:05.000Z</time>
      </trkpt>
      <trkpt lat="45.8306" lon="6.39725">
        <ele>1403.1999511719</ele>
        <time>2011-07-23T09:17:09.000Z</time>
      </trkpt>
      <trkpt lat="45.83056" lon="6.3972">
        <ele>1404</ele>
        <time>2011-07-23T09:17:11.000Z</time>
      </trkpt>
      <trkpt lat="45.83053" lon="6.39714">
        <ele>1404.5999755859</ele>
        <time>2011-07-23T09:17:13.000Z</time>
      </trkpt>
      <trkpt lat="45.83051" lon="6.39711">
        <ele>1405</ele>
        <time>2011-07-23T09:17:14.000Z</time>
      </trkpt>
      <trkpt lat="45.83045" lon="6.39703">
        <ele>1406.1999511719</ele>
        <time>2011-07-23T09:17:17.000Z</time>
      </trkpt>
      <trkpt lat="45.83042" lon="6.39699">
        <ele>1406.5999755859</ele>
        <time>2011-07-23T09:17:19.000Z</time>
      </trkpt>
      <trkpt lat="45.83039" lon="6.39693">
        <ele>1407.1999511719</ele>
        <time>2011-07-23T09:17:21.000Z</time>
      </trkpt>
      <trkpt lat="45.83028" lon="6.39682">
        <ele>1409.4000244141</ele>
        <time>2011-07-23T09:17:25.000Z</time>
      </trkpt>
      <trkpt lat="45.83026" lon="6.39681">
        <ele>1409.5999755859</ele>
        <time>2011-07-23T09:17:26.000Z</time>
      </trkpt>
      <trkpt lat="45.83025" lon="6.3968">
        <ele>1409.8000488281</ele>
        <time>2011-07-23T09:17:27.000Z</time>
      </trkpt>
      <trkpt lat="45.83024" lon="6.39677">
        <ele>1410</ele>
        <time>2011-07-23T09:17:29.000Z</time>
      </trkpt>
      <trkpt lat="45.83025" lon="6.39672">
        <ele>1409.4000244141</ele>
        <time>2011-07-23T09:17:31.000Z</time>
      </trkpt>
      <trkpt lat="45.83032" lon="6.39667">
        <ele>1407.5999755859</ele>
        <time>2011-07-23T09:17:34.000Z</time>
      </trkpt>
      <trkpt lat="45.83034" lon="6.39667">
        <ele>1407.1999511719</ele>
        <time>2011-07-23T09:17:35.000Z</time>
      </trkpt>
      <trkpt lat="45.83036" lon="6.39666">
        <ele>1406.8000488281</ele>
        <time>2011-07-23T09:17:36.000Z</time>
      </trkpt>
      <trkpt lat="45.83044" lon="6.39662">
        <ele>1405.4000244141</ele>
        <time>2011-07-23T09:17:41.000Z</time>
      </trkpt>
      <trkpt lat="45.83051" lon="6.39659">
        <ele>1404.1999511719</ele>
        <time>2011-07-23T09:17:45.000Z</time>
      </trkpt>
      <trkpt lat="45.83052" lon="6.39658">
        <ele>1404.1999511719</ele>
        <time>2011-07-23T09:17:46.000Z</time>
      </trkpt>
      <trkpt lat="45.83056" lon="6.39655">
        <ele>1403.4000244141</ele>
        <time>2011-07-23T09:17:49.000Z</time>
      </trkpt>
      <trkpt lat="45.83058" lon="6.39654">
        <ele>1403.1999511719</ele>
        <time>2011-07-23T09:17:51.000Z</time>
      </trkpt>
      <trkpt lat="45.83065" lon="6.39651">
        <ele>1401.5999755859</ele>
        <time>2011-07-23T09:17:57.000Z</time>
      </trkpt>
      <trkpt lat="45.83068" lon="6.39649">
        <ele>1401.1999511719</ele>
        <time>2011-07-23T09:17:59.000Z</time>
      </trkpt>
      <trkpt lat="45.83073" lon="6.39645">
        <ele>1400.4000244141</ele>
        <time>2011-07-23T09:18:03.000Z</time>
      </trkpt>
      <trkpt lat="45.83084" lon="6.39633">
        <ele>1399</ele>
        <time>2011-07-23T09:18:10.000Z</time>
      </trkpt>
      <trkpt lat="45.83092" lon="6.39622">
        <ele>1398.8000488281</ele>
        <time>2011-07-23T09:18:16.000Z</time>
      </trkpt>
      <trkpt lat="45.83097" lon="6.39613">
        <ele>1398.8000488281</ele>
        <time>2011-07-23T09:18:20.000Z</time>
      </trkpt>
      <trkpt lat="45.83101" lon="6.39602">
        <ele>1399.4000244141</ele>
        <time>2011-07-23T09:18:24.000Z</time>
      </trkpt>
      <trkpt lat="45.83107" lon="6.39589">
        <ele>1399.5999755859</ele>
        <time>2011-07-23T09:18:29.000Z</time>
      </trkpt>
      <trkpt lat="45.83114" lon="6.39576">
        <ele>1399.5999755859</ele>
        <time>2011-07-23T09:18:34.000Z</time>
      </trkpt>
      <trkpt lat="45.8312" lon="6.39571">
        <ele>1398.8000488281</ele>
        <time>2011-07-23T09:18:37.000Z</time>
      </trkpt>
      <trkpt lat="45.83123" lon="6.39568">
        <ele>1398.5999755859</ele>
        <time>2011-07-23T09:18:39.000Z</time>
      </trkpt>
      <trkpt lat="45.83136" lon="6.39565">
        <ele>1396.8000488281</ele>
        <time>2011-07-23T09:18:44.000Z</time>
      </trkpt>
      <trkpt lat="45.83139" lon="6.39565">
        <ele>1396.4000244141</ele>
        <time>2011-07-23T09:18:45.000Z</time>
      </trkpt>
      <trkpt lat="45.83152" lon="6.39566">
        <ele>1394.4000244141</ele>
        <time>2011-07-23T09:18:50.000Z</time>
      </trkpt>
      <trkpt lat="45.83157" lon="6.39567">
        <ele>1393.5999755859</ele>
        <time>2011-07-23T09:18:52.000Z</time>
      </trkpt>
      <trkpt lat="45.83165" lon="6.39567">
        <ele>1392.5999755859</ele>
        <time>2011-07-23T09:18:55.000Z</time>
      </trkpt>
      <trkpt lat="45.83177" lon="6.39562">
        <ele>1391</ele>
        <time>2011-07-23T09:19:00.000Z</time>
      </trkpt>
      <trkpt lat="45.83187" lon="6.39551">
        <ele>1390.4000244141</ele>
        <time>2011-07-23T09:19:05.000Z</time>
      </trkpt>
      <trkpt lat="45.83191" lon="6.39546">
        <ele>1390.1999511719</ele>
        <time>2011-07-23T09:19:07.000Z</time>
      </trkpt>
      <trkpt lat="45.83197" lon="6.3954">
        <ele>1390</ele>
        <time>2011-07-23T09:19:10.000Z</time>
      </trkpt>
      <trkpt lat="45.83207" lon="6.39528">
        <ele>1390</ele>
        <time>2011-07-23T09:19:15.000Z</time>
      </trkpt>
      <trkpt lat="45.83208" lon="6.39526">
        <ele>1390.1999511719</ele>
        <time>2011-07-23T09:19:16.000Z</time>
      </trkpt>
      <trkpt lat="45.83212" lon="6.39509">
        <ele>1391.8000488281</ele>
        <time>2011-07-23T09:19:21.000Z</time>
      </trkpt>
      <trkpt lat="45.83211" lon="6.39503">
        <ele>1392.8000488281</ele>
        <time>2011-07-23T09:19:23.000Z</time>
      </trkpt>
      <trkpt lat="45.83209" lon="6.395">
        <ele>1393.1999511719</ele>
        <time>2011-07-23T09:19:24.000Z</time>
      </trkpt>
      <trkpt lat="45.83208" lon="6.39498">
        <ele>1393.4000244141</ele>
        <time>2011-07-23T09:19:25.000Z</time>
      </trkpt>
      <trkpt lat="45.83193" lon="6.39492">
        <ele>1395</ele>
        <time>2011-07-23T09:19:31.000Z</time>
      </trkpt>
      <trkpt lat="45.8318" lon="6.3949">
        <ele>1396.4000244141</ele>
        <time>2011-07-23T09:19:36.000Z</time>
      </trkpt>
      <trkpt lat="45.83175" lon="6.39487">
        <ele>1397</ele>
        <time>2011-07-23T09:19:38.000Z</time>
      </trkpt>
      <trkpt lat="45.8317" lon="6.39486">
        <ele>1397.5999755859</ele>
        <time>2011-07-23T09:19:40.000Z</time>
      </trkpt>
      <trkpt lat="45.83161" lon="6.39475">
        <ele>1398.5999755859</ele>
        <time>2011-07-23T09:19:44.000Z</time>
      </trkpt>
      <trkpt lat="45.83161" lon="6.39471">
        <ele>1398.5999755859</ele>
        <time>2011-07-23T09:19:45.000Z</time>
      </trkpt>
      <trkpt lat="45.83163" lon="6.39461">
        <ele>1398.4000244141</ele>
        <time>2011-07-23T09:19:48.000Z</time>
      </trkpt>
      <trkpt lat="45.83168" lon="6.39454">
        <ele>1397.5999755859</ele>
        <time>2011-07-23T09:19:51.000Z</time>
      </trkpt>
      <trkpt lat="45.83173" lon="6.3945">
        <ele>1397.1999511719</ele>
        <time>2011-07-23T09:19:53.000Z</time>
      </trkpt>
      <trkpt lat="45.83186" lon="6.39443">
        <ele>1395.5999755859</ele>
        <time>2011-07-23T09:19:58.000Z</time>
      </trkpt>
      <trkpt lat="45.8319" lon="6.39441">
        <ele>1395.1999511719</ele>
        <time>2011-07-23T09:20:00.000Z</time>
      </trkpt>
      <trkpt lat="45.83192" lon="6.39439">
        <ele>1395</ele>
        <time>2011-07-23T09:20:02.000Z</time>
      </trkpt>
      <trkpt lat="45.83197" lon="6.39436">
        <ele>1394.4000244141</ele>
        <time>2011-07-23T09:20:06.000Z</time>
      </trkpt>
      <trkpt lat="45.83205" lon="6.39433">
        <ele>1393.4000244141</ele>
        <time>2011-07-23T09:20:14.000Z</time>
      </trkpt>
      <trkpt lat="45.83204" lon="6.39432">
        <ele>1393.4000244141</ele>
        <time>2011-07-23T09:20:24.000Z</time>
      </trkpt>
      <trkpt lat="45.83204" lon="6.39433">
        <ele>1393.4000244141</ele>
        <time>2011-07-23T09:20:30.000Z</time>
      </trkpt>
      <trkpt lat="45.83204" lon="6.39432">
        <ele>1393.4000244141</ele>
        <time>2011-07-23T09:20:56.000Z</time>
      </trkpt>
      <trkpt lat="45.83203" lon="6.3943">
        <ele>1393.5999755859</ele>
        <time>2011-07-23T09:21:56.000Z</time>
      </trkpt>
      <trkpt lat="45.83205" lon="6.39432">
        <ele>1393.4000244141</ele>
        <time>2011-07-23T09:23:16.000Z</time>
      </trkpt>
      <trkpt lat="45.83206" lon="6.39435">
        <ele>1393.4000244141</ele>
        <time>2011-07-23T09:23:38.000Z</time>
      </trkpt>
      <trkpt lat="45.83207" lon="6.39434">
        <ele>1393.1999511719</ele>
        <time>2011-07-23T09:23:43.000Z</time>
      </trkpt>
      <trkpt lat="45.83209" lon="6.39432">
        <ele>1393</ele>
        <time>2011-07-23T09:24:00.000Z</time>
      </trkpt>
      <trkpt lat="45.83215" lon="6.39432">
        <ele>1392.1999511719</ele>
        <time>2011-07-23T09:24:05.000Z</time>
      </trkpt>
      <trkpt lat="45.83221" lon="6.39432">
        <ele>1391.5999755859</ele>
        <time>2011-07-23T09:24:08.000Z</time>
      </trkpt>
      <trkpt lat="45.83231" lon="6.3943">
        <ele>1390.4000244141</ele>
        <time>2011-07-23T09:24:12.000Z</time>
      </trkpt>
      <trkpt lat="45.8324" lon="6.3943">
        <ele>1389.1999511719</ele>
        <time>2011-07-23T09:24:15.000Z</time>
      </trkpt>
      <trkpt lat="45.83246" lon="6.39427">
        <ele>1388.4000244141</ele>
        <time>2011-07-23T09:24:17.000Z</time>
      </trkpt>
      <trkpt lat="45.83256" lon="6.39417">
        <ele>1386.8000488281</ele>
        <time>2011-07-23T09:24:20.000Z</time>
      </trkpt>
      <trkpt lat="45.83258" lon="6.39413">
        <ele>1386.1999511719</ele>
        <time>2011-07-23T09:24:21.000Z</time>
      </trkpt>
      <trkpt lat="45.83267" lon="6.39398">
        <ele>1384.1999511719</ele>
        <time>2011-07-23T09:24:24.000Z</time>
      </trkpt>
      <trkpt lat="45.83274" lon="6.39386">
        <ele>1382.8000488281</ele>
        <time>2011-07-23T09:24:26.000Z</time>
      </trkpt>
      <trkpt lat="45.83277" lon="6.39381">
        <ele>1382.1999511719</ele>
        <time>2011-07-23T09:24:27.000Z</time>
      </trkpt>
      <trkpt lat="45.8328" lon="6.39375">
        <ele>1381.5999755859</ele>
        <time>2011-07-23T09:24:28.000Z</time>
      </trkpt>
      <trkpt lat="45.83286" lon="6.39366">
        <ele>1380.4000244141</ele>
        <time>2011-07-23T09:24:30.000Z</time>
      </trkpt>
      <trkpt lat="45.83292" lon="6.39351">
        <ele>1379</ele>
        <time>2011-07-23T09:24:33.000Z</time>
      </trkpt>
      <trkpt lat="45.83293" lon="6.39346">
        <ele>1378.8000488281</ele>
        <time>2011-07-23T09:24:34.000Z</time>
      </trkpt>
      <trkpt lat="45.83293" lon="6.39341">
        <ele>1378.8000488281</ele>
        <time>2011-07-23T09:24:35.000Z</time>
      </trkpt>
      <trkpt lat="45.83291" lon="6.39324">
        <ele>1379.8000488281</ele>
        <time>2011-07-23T09:24:38.000Z</time>
      </trkpt>
      <trkpt lat="45.83287" lon="6.39314">
        <ele>1381</ele>
        <time>2011-07-23T09:24:40.000Z</time>
      </trkpt>
      <trkpt lat="45.8328" lon="6.39303">
        <ele>1382.8000488281</ele>
        <time>2011-07-23T09:24:42.000Z</time>
      </trkpt>
      <trkpt lat="45.83274" lon="6.39293">
        <ele>1384.4000244141</ele>
        <time>2011-07-23T09:24:44.000Z</time>
      </trkpt>
      <trkpt lat="45.83265" lon="6.39279">
        <ele>1386.8000488281</ele>
        <time>2011-07-23T09:24:47.000Z</time>
      </trkpt>
      <trkpt lat="45.83263" lon="6.39273">
        <ele>1387.4000244141</ele>
        <time>2011-07-23T09:24:48.000Z</time>
      </trkpt>
      <trkpt lat="45.83262" lon="6.39267">
        <ele>1388</ele>
        <time>2011-07-23T09:24:49.000Z</time>
      </trkpt>
      <trkpt lat="45.83269" lon="6.39263">
        <ele>1387</ele>
        <time>2011-07-23T09:24:51.000Z</time>
      </trkpt>
      <trkpt lat="45.83272" lon="6.39264">
        <ele>1386.5999755859</ele>
        <time>2011-07-23T09:24:52.000Z</time>
      </trkpt>
      <trkpt lat="45.83277" lon="6.39265">
        <ele>1385.8000488281</ele>
        <time>2011-07-23T09:24:53.000Z</time>
      </trkpt>
      <trkpt lat="45.83282" lon="6.39268">
        <ele>1384.5999755859</ele>
        <time>2011-07-23T09:24:55.000Z</time>
      </trkpt>
      <trkpt lat="45.83291" lon="6.39272">
        <ele>1383</ele>
        <time>2011-07-23T09:24:58.000Z</time>
      </trkpt>
      <trkpt lat="45.83296" lon="6.39275">
        <ele>1382</ele>
        <time>2011-07-23T09:25:00.000Z</time>
      </trkpt>
      <trkpt lat="45.83308" lon="6.39282">
        <ele>1379.8000488281</ele>
        <time>2011-07-23T09:25:04.000Z</time>
      </trkpt>
      <trkpt lat="45.8331" lon="6.39284">
        <ele>1379.1999511719</ele>
        <time>2011-07-23T09:25:05.000Z</time>
      </trkpt>
      <trkpt lat="45.83323" lon="6.3929">
        <ele>1376.8000488281</ele>
        <time>2011-07-23T09:25:10.000Z</time>
      </trkpt>
      <trkpt lat="45.8333" lon="6.3929">
        <ele>1375.5999755859</ele>
        <time>2011-07-23T09:25:13.000Z</time>
      </trkpt>
      <trkpt lat="45.83336" lon="6.39291">
        <ele>1374.5999755859</ele>
        <time>2011-07-23T09:25:15.000Z</time>
      </trkpt>
      <trkpt lat="45.83341" lon="6.39292">
        <ele>1374</ele>
        <time>2011-07-23T09:25:18.000Z</time>
      </trkpt>
      <trkpt lat="45.83342" lon="6.39292">
        <ele>1373.8000488281</ele>
        <time>2011-07-23T09:25:19.000Z</time>
      </trkpt>
      <trkpt lat="45.8335" lon="6.39295">
        <ele>1372.5999755859</ele>
        <time>2011-07-23T09:25:22.000Z</time>
      </trkpt>
      <trkpt lat="45.83351" lon="6.39296">
        <ele>1372.4000244141</ele>
        <time>2011-07-23T09:25:23.000Z</time>
      </trkpt>
      <trkpt lat="45.83355" lon="6.39298">
        <ele>1371.8000488281</ele>
        <time>2011-07-23T09:25:25.000Z</time>
      </trkpt>
      <trkpt lat="45.83362" lon="6.39299">
        <ele>1370.8000488281</ele>
        <time>2011-07-23T09:25:28.000Z</time>
      </trkpt>
      <trkpt lat="45.83368" lon="6.39299">
        <ele>1370</ele>
        <time>2011-07-23T09:25:30.000Z</time>
      </trkpt>
      <trkpt lat="45.83372" lon="6.393">
        <ele>1369.4000244141</ele>
        <time>2011-07-23T09:25:31.000Z</time>
      </trkpt>
      <trkpt lat="45.83376" lon="6.39299">
        <ele>1369</ele>
        <time>2011-07-23T09:25:33.000Z</time>
      </trkpt>
      <trkpt lat="45.83389" lon="6.39298">
        <ele>1367.5999755859</ele>
        <time>2011-07-23T09:25:37.000Z</time>
      </trkpt>
      <trkpt lat="45.83394" lon="6.39297">
        <ele>1367</ele>
        <time>2011-07-23T09:25:39.000Z</time>
      </trkpt>
      <trkpt lat="45.83404" lon="6.39296">
        <ele>1366</ele>
        <time>2011-07-23T09:25:43.000Z</time>
      </trkpt>
      <trkpt lat="45.83407" lon="6.39295">
        <ele>1365.5999755859</ele>
        <time>2011-07-23T09:25:46.000Z</time>
      </trkpt>
      <trkpt lat="45.83415" lon="6.39293">
        <ele>1365</ele>
        <time>2011-07-23T09:25:50.000Z</time>
      </trkpt>
      <trkpt lat="45.83426" lon="6.39286">
        <ele>1364.5999755859</ele>
        <time>2011-07-23T09:25:56.000Z</time>
      </trkpt>
      <trkpt lat="45.83435" lon="6.39286">
        <ele>1363.8000488281</ele>
        <time>2011-07-23T09:25:59.000Z</time>
      </trkpt>
      <trkpt lat="45.83437" lon="6.39284">
        <ele>1363.8000488281</ele>
        <time>2011-07-23T09:26:00.000Z</time>
      </trkpt>
      <trkpt lat="45.83445" lon="6.3928">
        <ele>1363.5999755859</ele>
        <time>2011-07-23T09:26:03.000Z</time>
      </trkpt>
      <trkpt lat="45.83449" lon="6.39277">
        <ele>1363.5999755859</ele>
        <time>2011-07-23T09:26:04.000Z</time>
      </trkpt>
      <trkpt lat="45.83452" lon="6.39274">
        <ele>1363.5999755859</ele>
        <time>2011-07-23T09:26:05.000Z</time>
      </trkpt>
      <trkpt lat="45.83464" lon="6.39267">
        <ele>1363.4000244141</ele>
        <time>2011-07-23T09:26:10.000Z</time>
      </trkpt>
      <trkpt lat="45.8347" lon="6.39265">
        <ele>1363</ele>
        <time>2011-07-23T09:26:14.000Z</time>
      </trkpt>
      <trkpt lat="45.83472" lon="6.39264">
        <ele>1362.8000488281</ele>
        <time>2011-07-23T09:26:15.000Z</time>
      </trkpt>
      <trkpt lat="45.8348" lon="6.39261">
        <ele>1362.5999755859</ele>
        <time>2011-07-23T09:26:18.000Z</time>
      </trkpt>
      <trkpt lat="45.83485" lon="6.39259">
        <ele>1362.1999511719</ele>
        <time>2011-07-23T09:26:20.000Z</time>
      </trkpt>
      <trkpt lat="45.83498" lon="6.3926">
        <ele>1360.8000488281</ele>
        <time>2011-07-23T09:26:25.000Z</time>
      </trkpt>
      <trkpt lat="45.83517" lon="6.39267">
        <ele>1359.4000244141</ele>
        <time>2011-07-23T09:26:31.000Z</time>
      </trkpt>
      <trkpt lat="45.83535" lon="6.39277">
        <ele>1357.5999755859</ele>
        <time>2011-07-23T09:26:37.000Z</time>
      </trkpt>
      <trkpt lat="45.83554" lon="6.39282">
        <ele>1356.1999511719</ele>
        <time>2011-07-23T09:26:43.000Z</time>
      </trkpt>
      <trkpt lat="45.83573" lon="6.39289">
        <ele>1354.1999511719</ele>
        <time>2011-07-23T09:26:49.000Z</time>
      </trkpt>
      <trkpt lat="45.83591" lon="6.39294">
        <ele>1352.4000244141</ele>
        <time>2011-07-23T09:26:54.000Z</time>
      </trkpt>
      <trkpt lat="45.83594" lon="6.39295">
        <ele>1352</ele>
        <time>2011-07-23T09:26:55.000Z</time>
      </trkpt>
      <trkpt lat="45.83603" lon="6.39301">
        <ele>1350.1999511719</ele>
        <time>2011-07-23T09:26:59.000Z</time>
      </trkpt>
      <trkpt lat="45.83605" lon="6.393">
        <ele>1350.1999511719</ele>
        <time>2011-07-23T09:27:04.000Z</time>
      </trkpt>
      <trkpt lat="45.83606" lon="6.39301">
        <ele>1350</ele>
        <time>2011-07-23T09:27:12.000Z</time>
      </trkpt>
      <trkpt lat="45.8361" lon="6.39301">
        <ele>1349.8000488281</ele>
        <time>2011-07-23T09:27:17.000Z</time>
      </trkpt>
      <trkpt lat="45.83611" lon="6.39301">
        <ele>1349.5999755859</ele>
        <time>2011-07-23T09:27:18.000Z</time>
      </trkpt>
      <trkpt lat="45.83614" lon="6.39303">
        <ele>1349.1999511719</ele>
        <time>2011-07-23T09:27:23.000Z</time>
      </trkpt>
      <trkpt lat="45.83617" lon="6.39304">
        <ele>1348.8000488281</ele>
        <time>2011-07-23T09:27:38.000Z</time>
      </trkpt>
      <trkpt lat="45.83619" lon="6.39305">
        <ele>1348.4000244141</ele>
        <time>2011-07-23T09:27:46.000Z</time>
      </trkpt>
      <trkpt lat="45.83626" lon="6.39303">
        <ele>1348.1999511719</ele>
        <time>2011-07-23T09:28:31.000Z</time>
      </trkpt>
      <trkpt lat="45.83637" lon="6.39302">
        <ele>1347.4000244141</ele>
        <time>2011-07-23T09:28:37.000Z</time>
      </trkpt>
      <trkpt lat="45.83643" lon="6.39303">
        <ele>1347</ele>
        <time>2011-07-23T09:28:40.000Z</time>
      </trkpt>
      <trkpt lat="45.83651" lon="6.39304">
        <ele>1346.1999511719</ele>
        <time>2011-07-23T09:28:44.000Z</time>
      </trkpt>
      <trkpt lat="45.83662" lon="6.39303">
        <ele>1345.5999755859</ele>
        <time>2011-07-23T09:28:49.000Z</time>
      </trkpt>
      <trkpt lat="45.83665" lon="6.39302">
        <ele>1345.4000244141</ele>
        <time>2011-07-23T09:28:50.000Z</time>
      </trkpt>
      <trkpt lat="45.83676" lon="6.39301">
        <ele>1344.4000244141</ele>
        <time>2011-07-23T09:28:55.000Z</time>
      </trkpt>
      <trkpt lat="45.83681" lon="6.39301">
        <ele>1343.8000488281</ele>
        <time>2011-07-23T09:28:57.000Z</time>
      </trkpt>
      <trkpt lat="45.8369" lon="6.39303">
        <ele>1342.4000244141</ele>
        <time>2011-07-23T09:29:01.000Z</time>
      </trkpt>
      <trkpt lat="45.837" lon="6.39306">
        <ele>1341</ele>
        <time>2011-07-23T09:29:05.000Z</time>
      </trkpt>
      <trkpt lat="45.83705" lon="6.39307">
        <ele>1340.4000244141</ele>
        <time>2011-07-23T09:29:07.000Z</time>
      </trkpt>
      <trkpt lat="45.83718" lon="6.39304">
        <ele>1339.1999511719</ele>
        <time>2011-07-23T09:29:14.000Z</time>
      </trkpt>
      <trkpt lat="45.83726" lon="6.39299">
        <ele>1338.8000488281</ele>
        <time>2011-07-23T09:29:18.000Z</time>
      </trkpt>
      <trkpt lat="45.83736" lon="6.39295">
        <ele>1338</ele>
        <time>2011-07-23T09:29:22.000Z</time>
      </trkpt>
      <trkpt lat="45.83752" lon="6.393">
        <ele>1335.5999755859</ele>
        <time>2011-07-23T09:29:26.000Z</time>
      </trkpt>
      <trkpt lat="45.83763" lon="6.39306">
        <ele>1333.1999511719</ele>
        <time>2011-07-23T09:29:30.000Z</time>
      </trkpt>
      <trkpt lat="45.83772" lon="6.39312">
        <ele>1331.1999511719</ele>
        <time>2011-07-23T09:29:33.000Z</time>
      </trkpt>
      <trkpt lat="45.83779" lon="6.39318">
        <ele>1329.5999755859</ele>
        <time>2011-07-23T09:29:37.000Z</time>
      </trkpt>
      <trkpt lat="45.83791" lon="6.39322">
        <ele>1327.5999755859</ele>
        <time>2011-07-23T09:29:41.000Z</time>
      </trkpt>
      <trkpt lat="45.83794" lon="6.39323">
        <ele>1327.1999511719</ele>
        <time>2011-07-23T09:29:42.000Z</time>
      </trkpt>
      <trkpt lat="45.83806" lon="6.39323">
        <ele>1325.4000244141</ele>
        <time>2011-07-23T09:29:47.000Z</time>
      </trkpt>
      <trkpt lat="45.83809" lon="6.39323">
        <ele>1325</ele>
        <time>2011-07-23T09:29:48.000Z</time>
      </trkpt>
      <trkpt lat="45.83817" lon="6.39322">
        <ele>1324</ele>
        <time>2011-07-23T09:29:51.000Z</time>
      </trkpt>
      <trkpt lat="45.83827" lon="6.39318">
        <ele>1322.8000488281</ele>
        <time>2011-07-23T09:29:55.000Z</time>
      </trkpt>
      <trkpt lat="45.8383" lon="6.39319">
        <ele>1322.4000244141</ele>
        <time>2011-07-23T09:29:56.000Z</time>
      </trkpt>
      <trkpt lat="45.83843" lon="6.39317">
        <ele>1320.5999755859</ele>
        <time>2011-07-23T09:30:01.000Z</time>
      </trkpt>
      <trkpt lat="45.83846" lon="6.39317">
        <ele>1320</ele>
        <time>2011-07-23T09:30:02.000Z</time>
      </trkpt>
      <trkpt lat="45.83856" lon="6.39315">
        <ele>1318.5999755859</ele>
        <time>2011-07-23T09:30:06.000Z</time>
      </trkpt>
      <trkpt lat="45.83863" lon="6.39312">
        <ele>1317.5999755859</ele>
        <time>2011-07-23T09:30:10.000Z</time>
      </trkpt>
      <trkpt lat="45.83865" lon="6.39312">
        <ele>1317.4000244141</ele>
        <time>2011-07-23T09:30:11.000Z</time>
      </trkpt>
      <trkpt lat="45.83875" lon="6.39308">
        <ele>1316</ele>
        <time>2011-07-23T09:30:15.000Z</time>
      </trkpt>
      <trkpt lat="45.83883" lon="6.39303">
        <ele>1314.8000488281</ele>
        <time>2011-07-23T09:30:19.000Z</time>
      </trkpt>
      <trkpt lat="45.83894" lon="6.39299">
        <ele>1313</ele>
        <time>2011-07-23T09:30:24.000Z</time>
      </trkpt>
      <trkpt lat="45.83901" lon="6.39296">
        <ele>1312</ele>
        <time>2011-07-23T09:30:27.000Z</time>
      </trkpt>
      <trkpt lat="45.83909" lon="6.3929">
        <ele>1310.8000488281</ele>
        <time>2011-07-23T09:30:31.000Z</time>
      </trkpt>
      <trkpt lat="45.83918" lon="6.39285">
        <ele>1309.4000244141</ele>
        <time>2011-07-23T09:30:35.000Z</time>
      </trkpt>
      <trkpt lat="45.83923" lon="6.39284">
        <ele>1308.5999755859</ele>
        <time>2011-07-23T09:30:37.000Z</time>
      </trkpt>
      <trkpt lat="45.83937" lon="6.39278">
        <ele>1306.8000488281</ele>
        <time>2011-07-23T09:30:42.000Z</time>
      </trkpt>
      <trkpt lat="45.83947" lon="6.39269">
        <ele>1305.8000488281</ele>
        <time>2011-07-23T09:30:47.000Z</time>
      </trkpt>
      <trkpt lat="45.83952" lon="6.39264">
        <ele>1305.1999511719</ele>
        <time>2011-07-23T09:30:50.000Z</time>
      </trkpt>
      <trkpt lat="45.83957" lon="6.3926">
        <ele>1304.8000488281</ele>
        <time>2011-07-23T09:30:52.000Z</time>
      </trkpt>
      <trkpt lat="45.83968" lon="6.39251">
        <ele>1303.5999755859</ele>
        <time>2011-07-23T09:30:57.000Z</time>
      </trkpt>
      <trkpt lat="45.83981" lon="6.39243">
        <ele>1302</ele>
        <time>2011-07-23T09:31:02.000Z</time>
      </trkpt>
      <trkpt lat="45.83986" lon="6.3924">
        <ele>1301.1999511719</ele>
        <time>2011-07-23T09:31:04.000Z</time>
      </trkpt>
      <trkpt lat="45.83997" lon="6.39232">
        <ele>1299.4000244141</ele>
        <time>2011-07-23T09:31:09.000Z</time>
      </trkpt>
      <trkpt lat="45.84004" lon="6.39229">
        <ele>1298</ele>
        <time>2011-07-23T09:31:12.000Z</time>
      </trkpt>
      <trkpt lat="45.84012" lon="6.39229">
        <ele>1296.4000244141</ele>
        <time>2011-07-23T09:31:15.000Z</time>
      </trkpt>
      <trkpt lat="45.84023" lon="6.39229">
        <ele>1294</ele>
        <time>2011-07-23T09:31:19.000Z</time>
      </trkpt>
      <trkpt lat="45.84025" lon="6.39228">
        <ele>1293.5999755859</ele>
        <time>2011-07-23T09:31:20.000Z</time>
      </trkpt>
      <trkpt lat="45.84042" lon="6.39225">
        <ele>1289.8000488281</ele>
        <time>2011-07-23T09:31:27.000Z</time>
      </trkpt>
      <trkpt lat="45.84052" lon="6.3922">
        <ele>1287.5999755859</ele>
        <time>2011-07-23T09:31:32.000Z</time>
      </trkpt>
      <trkpt lat="45.84058" lon="6.39215">
        <ele>1286.1999511719</ele>
        <time>2011-07-23T09:31:35.000Z</time>
      </trkpt>
      <trkpt lat="45.84065" lon="6.3921">
        <ele>1284.8000488281</ele>
        <time>2011-07-23T09:31:38.000Z</time>
      </trkpt>
      <trkpt lat="45.84075" lon="6.39202">
        <ele>1282.4000244141</ele>
        <time>2011-07-23T09:31:43.000Z</time>
      </trkpt>
      <trkpt lat="45.84077" lon="6.39201">
        <ele>1282</ele>
        <time>2011-07-23T09:31:44.000Z</time>
      </trkpt>
      <trkpt lat="45.8409" lon="6.39192">
        <ele>1279.8000488281</ele>
        <time>2011-07-23T09:31:50.000Z</time>
      </trkpt>
      <trkpt lat="45.84092" lon="6.39191">
        <ele>1279.5999755859</ele>
        <time>2011-07-23T09:31:51.000Z</time>
      </trkpt>
      <trkpt lat="45.84102" lon="6.39184">
        <ele>1278.1999511719</ele>
        <time>2011-07-23T09:31:56.000Z</time>
      </trkpt>
      <trkpt lat="45.84109" lon="6.39178">
        <ele>1277.1999511719</ele>
        <time>2011-07-23T09:32:00.000Z</time>
      </trkpt>
      <trkpt lat="45.84111" lon="6.39175">
        <ele>1277</ele>
        <time>2011-07-23T09:32:01.000Z</time>
      </trkpt>
      <trkpt lat="45.84114" lon="6.39172">
        <ele>1276.4000244141</ele>
        <time>2011-07-23T09:32:04.000Z</time>
      </trkpt>
      <trkpt lat="45.84115" lon="6.39172">
        <ele>1276.1999511719</ele>
        <time>2011-07-23T09:32:06.000Z</time>
      </trkpt>
      <trkpt lat="45.84118" lon="6.39172">
        <ele>1276</ele>
        <time>2011-07-23T09:32:17.000Z</time>
      </trkpt>
      <trkpt lat="45.84118" lon="6.39173">
        <ele>1276</ele>
        <time>2011-07-23T09:32:56.000Z</time>
      </trkpt>
      <trkpt lat="45.84118" lon="6.39173">
        <ele>1276</ele>
        <time>2011-07-23T09:33:04.000Z</time>
      </trkpt>
      <trkpt lat="45.84118" lon="6.39173">
        <ele>1276</ele>
        <time>2011-07-23T09:33:16.000Z</time>
      </trkpt>
      <trkpt lat="45.84117" lon="6.39173">
        <ele>1276.1999511719</ele>
        <time>2011-07-23T09:33:25.000Z</time>
      </trkpt>
      <trkpt lat="45.84118" lon="6.39172">
        <ele>1276</ele>
        <time>2011-07-23T09:33:33.000Z</time>
      </trkpt>
      <trkpt lat="45.84118" lon="6.39173">
        <ele>1276</ele>
        <time>2011-07-23T09:33:37.000Z</time>
      </trkpt>
      <trkpt lat="45.84118" lon="6.39173">
        <ele>1276</ele>
        <time>2011-07-23T09:33:45.000Z</time>
      </trkpt>
      <trkpt lat="45.84118" lon="6.39172">
        <ele>1276</ele>
        <time>2011-07-23T09:34:19.000Z</time>
      </trkpt>
      <trkpt lat="45.84114" lon="6.39157">
        <ele>1275</ele>
        <time>2011-07-23T09:34:25.000Z</time>
      </trkpt>
      <trkpt lat="45.84112" lon="6.39154">
        <ele>1275</ele>
        <time>2011-07-23T09:34:26.000Z</time>
      </trkpt>
      <trkpt lat="45.84105" lon="6.39149">
        <ele>1275.4000244141</ele>
        <time>2011-07-23T09:34:29.000Z</time>
      </trkpt>
      <trkpt lat="45.84097" lon="6.39144">
        <ele>1275.5999755859</ele>
        <time>2011-07-23T09:34:32.000Z</time>
      </trkpt>
      <trkpt lat="45.84095" lon="6.39141">
        <ele>1275.5999755859</ele>
        <time>2011-07-23T09:34:33.000Z</time>
      </trkpt>
      <trkpt lat="45.84084" lon="6.3913">
        <ele>1275.4000244141</ele>
        <time>2011-07-23T09:34:38.000Z</time>
      </trkpt>
      <trkpt lat="45.84082" lon="6.39127">
        <ele>1275.4000244141</ele>
        <time>2011-07-23T09:34:39.000Z</time>
      </trkpt>
      <trkpt lat="45.84075" lon="6.39112">
        <ele>1274.8000488281</ele>
        <time>2011-07-23T09:34:44.000Z</time>
      </trkpt>
      <trkpt lat="45.84075" lon="6.39109">
        <ele>1274.4000244141</ele>
        <time>2011-07-23T09:34:45.000Z</time>
      </trkpt>
      <trkpt lat="45.84077" lon="6.39102">
        <ele>1273.1999511719</ele>
        <time>2011-07-23T09:34:47.000Z</time>
      </trkpt>
      <trkpt lat="45.84078" lon="6.39099">
        <ele>1272.8000488281</ele>
        <time>2011-07-23T09:34:48.000Z</time>
      </trkpt>
      <trkpt lat="45.8408" lon="6.39095">
        <ele>1271.8000488281</ele>
        <time>2011-07-23T09:34:50.000Z</time>
      </trkpt>
      <trkpt lat="45.84085" lon="6.39093">
        <ele>1271</ele>
        <time>2011-07-23T09:34:52.000Z</time>
      </trkpt>
      <trkpt lat="45.84094" lon="6.39094">
        <ele>1270.1999511719</ele>
        <time>2011-07-23T09:34:55.000Z</time>
      </trkpt>
      <trkpt lat="45.84105" lon="6.39096">
        <ele>1269.1999511719</ele>
        <time>2011-07-23T09:34:59.000Z</time>
      </trkpt>
      <trkpt lat="45.84113" lon="6.391">
        <ele>1269</ele>
        <time>2011-07-23T09:35:02.000Z</time>
      </trkpt>
      <trkpt lat="45.84118" lon="6.39102">
        <ele>1268.5999755859</ele>
        <time>2011-07-23T09:35:04.000Z</time>
      </trkpt>
      <trkpt lat="45.84128" lon="6.39102">
        <ele>1267.5999755859</ele>
        <time>2011-07-23T09:35:09.000Z</time>
      </trkpt>
      <trkpt lat="45.84148" lon="6.39093">
        <ele>1264.8000488281</ele>
        <time>2011-07-23T09:35:15.000Z</time>
      </trkpt>
      <trkpt lat="45.8415" lon="6.39092">
        <ele>1264.4000244141</ele>
        <time>2011-07-23T09:35:16.000Z</time>
      </trkpt>
      <trkpt lat="45.84159" lon="6.39087">
        <ele>1263</ele>
        <time>2011-07-23T09:35:21.000Z</time>
      </trkpt>
      <trkpt lat="45.84168" lon="6.39081">
        <ele>1261.4000244141</ele>
        <time>2011-07-23T09:35:24.000Z</time>
      </trkpt>
      <trkpt lat="45.84173" lon="6.39078">
        <ele>1260.5999755859</ele>
        <time>2011-07-23T09:35:26.000Z</time>
      </trkpt>
      <trkpt lat="45.84186" lon="6.39073">
        <ele>1258.4000244141</ele>
        <time>2011-07-23T09:35:31.000Z</time>
      </trkpt>
      <trkpt lat="45.84188" lon="6.39071">
        <ele>1258</ele>
        <time>2011-07-23T09:35:32.000Z</time>
      </trkpt>
      <trkpt lat="45.84205" lon="6.39061">
        <ele>1254.8000488281</ele>
        <time>2011-07-23T09:35:39.000Z</time>
      </trkpt>
      <trkpt lat="45.84222" lon="6.3905">
        <ele>1252</ele>
        <time>2011-07-23T09:35:46.000Z</time>
      </trkpt>
      <trkpt lat="45.84224" lon="6.39048">
        <ele>1251.4000244141</ele>
        <time>2011-07-23T09:35:47.000Z</time>
      </trkpt>
      <trkpt lat="45.84237" lon="6.39033">
        <ele>1248.5999755859</ele>
        <time>2011-07-23T09:35:53.000Z</time>
      </trkpt>
      <trkpt lat="45.84239" lon="6.39031">
        <ele>1248.1999511719</ele>
        <time>2011-07-23T09:35:54.000Z</time>
      </trkpt>
      <trkpt lat="45.84249" lon="6.39018">
        <ele>1245.8000488281</ele>
        <time>2011-07-23T09:35:59.000Z</time>
      </trkpt>
      <trkpt lat="45.84251" lon="6.39015">
        <ele>1245.4000244141</ele>
        <time>2011-07-23T09:36:00.000Z</time>
      </trkpt>
      <trkpt lat="45.84259" lon="6.39001">
        <ele>1242.5999755859</ele>
        <time>2011-07-23T09:36:05.000Z</time>
      </trkpt>
      <trkpt lat="45.84263" lon="6.38995">
        <ele>1241.5999755859</ele>
        <time>2011-07-23T09:36:07.000Z</time>
      </trkpt>
      <trkpt lat="45.8427" lon="6.38985">
        <ele>1239.8000488281</ele>
        <time>2011-07-23T09:36:11.000Z</time>
      </trkpt>
      <trkpt lat="45.84275" lon="6.38974">
        <ele>1238.1999511719</ele>
        <time>2011-07-23T09:36:15.000Z</time>
      </trkpt>
      <trkpt lat="45.84277" lon="6.38971">
        <ele>1238</ele>
        <time>2011-07-23T09:36:16.000Z</time>
      </trkpt>
      <trkpt lat="45.84286" lon="6.38956">
        <ele>1235.8000488281</ele>
        <time>2011-07-23T09:36:22.000Z</time>
      </trkpt>
      <trkpt lat="45.84287" lon="6.38953">
        <ele>1235.5999755859</ele>
        <time>2011-07-23T09:36:23.000Z</time>
      </trkpt>
      <trkpt lat="45.84288" lon="6.38949">
        <ele>1235.1999511719</ele>
        <time>2011-07-23T09:36:24.000Z</time>
      </trkpt>
      <trkpt lat="45.84288" lon="6.38943">
        <ele>1234.8000488281</ele>
        <time>2011-07-23T09:36:26.000Z</time>
      </trkpt>
      <trkpt lat="45.84285" lon="6.38938">
        <ele>1234.8000488281</ele>
        <time>2011-07-23T09:36:28.000Z</time>
      </trkpt>
      <trkpt lat="45.8428" lon="6.38934">
        <ele>1235</ele>
        <time>2011-07-23T09:36:30.000Z</time>
      </trkpt>
      <trkpt lat="45.84278" lon="6.38933">
        <ele>1235.1999511719</ele>
        <time>2011-07-23T09:36:31.000Z</time>
      </trkpt>
      <trkpt lat="45.8427" lon="6.38933">
        <ele>1235.8000488281</ele>
        <time>2011-07-23T09:36:34.000Z</time>
      </trkpt>
      <trkpt lat="45.84264" lon="6.38933">
        <ele>1236.1999511719</ele>
        <time>2011-07-23T09:36:36.000Z</time>
      </trkpt>
      <trkpt lat="45.84259" lon="6.38934">
        <ele>1236.8000488281</ele>
        <time>2011-07-23T09:36:38.000Z</time>
      </trkpt>
      <trkpt lat="45.84251" lon="6.38936">
        <ele>1237.5999755859</ele>
        <time>2011-07-23T09:36:42.000Z</time>
      </trkpt>
      <trkpt lat="45.84243" lon="6.38936">
        <ele>1238.4000244141</ele>
        <time>2011-07-23T09:36:45.000Z</time>
      </trkpt>
      <trkpt lat="45.84237" lon="6.38936">
        <ele>1239</ele>
        <time>2011-07-23T09:36:47.000Z</time>
      </trkpt>
      <trkpt lat="45.84225" lon="6.38929">
        <ele>1239.8000488281</ele>
        <time>2011-07-23T09:36:52.000Z</time>
      </trkpt>
      <trkpt lat="45.84223" lon="6.38927">
        <ele>1239.8000488281</ele>
        <time>2011-07-23T09:36:53.000Z</time>
      </trkpt>
      <trkpt lat="45.84215" lon="6.38916">
        <ele>1239.8000488281</ele>
        <time>2011-07-23T09:36:57.000Z</time>
      </trkpt>
      <trkpt lat="45.84211" lon="6.38909">
        <ele>1239.8000488281</ele>
        <time>2011-07-23T09:36:59.000Z</time>
      </trkpt>
      <trkpt lat="45.84206" lon="6.38896">
        <ele>1240</ele>
        <time>2011-07-23T09:37:03.000Z</time>
      </trkpt>
      <trkpt lat="45.84202" lon="6.38886">
        <ele>1240.1999511719</ele>
        <time>2011-07-23T09:37:06.000Z</time>
      </trkpt>
      <trkpt lat="45.84197" lon="6.38873">
        <ele>1240.5999755859</ele>
        <time>2011-07-23T09:37:10.000Z</time>
      </trkpt>
      <trkpt lat="45.84193" lon="6.38863">
        <ele>1241</ele>
        <time>2011-07-23T09:37:13.000Z</time>
      </trkpt>
      <trkpt lat="45.8419" lon="6.38856">
        <ele>1241.4000244141</ele>
        <time>2011-07-23T09:37:15.000Z</time>
      </trkpt>
      <trkpt lat="45.84183" lon="6.3884">
        <ele>1242.1999511719</ele>
        <time>2011-07-23T09:37:20.000Z</time>
      </trkpt>
      <trkpt lat="45.84183" lon="6.38821">
        <ele>1242.1999511719</ele>
        <time>2011-07-23T09:37:25.000Z</time>
      </trkpt>
      <trkpt lat="45.84185" lon="6.38816">
        <ele>1241.8000488281</ele>
        <time>2011-07-23T09:37:26.000Z</time>
      </trkpt>
      <trkpt lat="45.84195" lon="6.38801">
        <ele>1240.4000244141</ele>
        <time>2011-07-23T09:37:31.000Z</time>
      </trkpt>
      <trkpt lat="45.84194" lon="6.38791">
        <ele>1240.5999755859</ele>
        <time>2011-07-23T09:37:33.000Z</time>
      </trkpt>
      <trkpt lat="45.84196" lon="6.38781">
        <ele>1240.4000244141</ele>
        <time>2011-07-23T09:37:36.000Z</time>
      </trkpt>
      <trkpt lat="45.84206" lon="6.38769">
        <ele>1239</ele>
        <time>2011-07-23T09:37:41.000Z</time>
      </trkpt>
      <trkpt lat="45.84208" lon="6.38767">
        <ele>1238.8000488281</ele>
        <time>2011-07-23T09:37:42.000Z</time>
      </trkpt>
      <trkpt lat="45.84215" lon="6.38753">
        <ele>1237.8000488281</ele>
        <time>2011-07-23T09:37:47.000Z</time>
      </trkpt>
      <trkpt lat="45.84218" lon="6.38746">
        <ele>1238.1999511719</ele>
        <time>2011-07-23T09:37:49.000Z</time>
      </trkpt>
      <trkpt lat="45.84225" lon="6.38733">
        <ele>1239.4000244141</ele>
        <time>2011-07-23T09:37:54.000Z</time>
      </trkpt>
      <trkpt lat="45.84231" lon="6.38731">
        <ele>1238.8000488281</ele>
        <time>2011-07-23T09:37:56.000Z</time>
      </trkpt>
      <trkpt lat="45.84239" lon="6.3873">
        <ele>1237.8000488281</ele>
        <time>2011-07-23T09:37:59.000Z</time>
      </trkpt>
      <trkpt lat="45.8425" lon="6.38732">
        <ele>1235.8000488281</ele>
        <time>2011-07-23T09:38:03.000Z</time>
      </trkpt>
      <trkpt lat="45.84255" lon="6.38733">
        <ele>1235.4000244141</ele>
        <time>2011-07-23T09:38:05.000Z</time>
      </trkpt>
      <trkpt lat="45.8427" lon="6.38738">
        <ele>1234.4000244141</ele>
        <time>2011-07-23T09:38:10.000Z</time>
      </trkpt>
      <trkpt lat="45.84272" lon="6.38739">
        <ele>1234.1999511719</ele>
        <time>2011-07-23T09:38:12.000Z</time>
      </trkpt>
      <trkpt lat="45.84288" lon="6.38748">
        <ele>1233.1999511719</ele>
        <time>2011-07-23T09:38:18.000Z</time>
      </trkpt>
      <trkpt lat="45.843" lon="6.38749">
        <ele>1233</ele>
        <time>2011-07-23T09:38:24.000Z</time>
      </trkpt>
      <trkpt lat="45.84304" lon="6.38745">
        <ele>1233.1999511719</ele>
        <time>2011-07-23T09:38:26.000Z</time>
      </trkpt>
      <trkpt lat="45.8431" lon="6.38729">
        <ele>1234.1999511719</ele>
        <time>2011-07-23T09:38:30.000Z</time>
      </trkpt>
      <trkpt lat="45.84312" lon="6.38722">
        <ele>1234.5999755859</ele>
        <time>2011-07-23T09:38:33.000Z</time>
      </trkpt>
      <trkpt lat="45.84314" lon="6.38709">
        <ele>1235.1999511719</ele>
        <time>2011-07-23T09:38:35.000Z</time>
      </trkpt>
      <trkpt lat="45.84313" lon="6.38694">
        <ele>1236</ele>
        <time>2011-07-23T09:38:39.000Z</time>
      </trkpt>
      <trkpt lat="45.84313" lon="6.3869">
        <ele>1236.1999511719</ele>
        <time>2011-07-23T09:38:40.000Z</time>
      </trkpt>
      <trkpt lat="45.84313" lon="6.38675">
        <ele>1237</ele>
        <time>2011-07-23T09:38:42.000Z</time>
      </trkpt>
      <trkpt lat="45.84318" lon="6.3867">
        <ele>1236.8000488281</ele>
        <time>2011-07-23T09:38:44.000Z</time>
      </trkpt>
      <trkpt lat="45.8432" lon="6.38667">
        <ele>1236.5999755859</ele>
        <time>2011-07-23T09:38:45.000Z</time>
      </trkpt>
      <trkpt lat="45.84321" lon="6.38664">
        <ele>1236.8000488281</ele>
        <time>2011-07-23T09:38:46.000Z</time>
      </trkpt>
      <trkpt lat="45.84322" lon="6.3866">
        <ele>1237.1999511719</ele>
        <time>2011-07-23T09:38:48.000Z</time>
      </trkpt>
      <trkpt lat="45.84331" lon="6.38646">
        <ele>1237.4000244141</ele>
        <time>2011-07-23T09:38:52.000Z</time>
      </trkpt>
      <trkpt lat="45.8434" lon="6.38631">
        <ele>1237</ele>
        <time>2011-07-23T09:38:56.000Z</time>
      </trkpt>
      <trkpt lat="45.84344" lon="6.38623">
        <ele>1236.8000488281</ele>
        <time>2011-07-23T09:38:58.000Z</time>
      </trkpt>
      <trkpt lat="45.84347" lon="6.38617">
        <ele>1236.5999755859</ele>
        <time>2011-07-23T09:39:00.000Z</time>
      </trkpt>
      <trkpt lat="45.84355" lon="6.38609">
        <ele>1235.5999755859</ele>
        <time>2011-07-23T09:39:04.000Z</time>
      </trkpt>
      <trkpt lat="45.84369" lon="6.38595">
        <ele>1233.5999755859</ele>
        <time>2011-07-23T09:39:09.000Z</time>
      </trkpt>
      <trkpt lat="45.84373" lon="6.38588">
        <ele>1233.1999511719</ele>
        <time>2011-07-23T09:39:10.000Z</time>
      </trkpt>
      <trkpt lat="45.84385" lon="6.38566">
        <ele>1235.4000244141</ele>
        <time>2011-07-23T09:39:16.000Z</time>
      </trkpt>
      <trkpt lat="45.84393" lon="6.38555">
        <ele>1236.4000244141</ele>
        <time>2011-07-23T09:39:21.000Z</time>
      </trkpt>
      <trkpt lat="45.844" lon="6.38549">
        <ele>1236.1999511719</ele>
        <time>2011-07-23T09:39:23.000Z</time>
      </trkpt>
      <trkpt lat="45.84404" lon="6.38541">
        <ele>1237.4000244141</ele>
        <time>2011-07-23T09:39:26.000Z</time>
      </trkpt>
      <trkpt lat="45.84417" lon="6.38533">
        <ele>1236.5999755859</ele>
        <time>2011-07-23T09:39:31.000Z</time>
      </trkpt>
      <trkpt lat="45.84417" lon="6.38533">
        <ele>1236.5999755859</ele>
        <time>2011-07-23T09:39:32.000Z</time>
      </trkpt>
      <trkpt lat="45.84433" lon="6.3852">
        <ele>1233.1999511719</ele>
        <time>2011-07-23T09:39:37.000Z</time>
      </trkpt>
      <trkpt lat="45.84444" lon="6.38506">
        <ele>1232</ele>
        <time>2011-07-23T09:39:41.000Z</time>
      </trkpt>
      <trkpt lat="45.84445" lon="6.38502">
        <ele>1232.4000244141</ele>
        <time>2011-07-23T09:39:42.000Z</time>
      </trkpt>
      <trkpt lat="45.84446" lon="6.38498">
        <ele>1232.8000488281</ele>
        <time>2011-07-23T09:39:43.000Z</time>
      </trkpt>
      <trkpt lat="45.84451" lon="6.38484">
        <ele>1231.4000244141</ele>
        <time>2011-07-23T09:39:47.000Z</time>
      </trkpt>
      <trkpt lat="45.84449" lon="6.38474">
        <ele>1233.1999511719</ele>
        <time>2011-07-23T09:39:49.000Z</time>
      </trkpt>
      <trkpt lat="45.8445" lon="6.38461">
        <ele>1234.1999511719</ele>
        <time>2011-07-23T09:39:52.000Z</time>
      </trkpt>
      <trkpt lat="45.84448" lon="6.38448">
        <ele>1236</ele>
        <time>2011-07-23T09:39:55.000Z</time>
      </trkpt>
      <trkpt lat="45.84447" lon="6.38443">
        <ele>1236.8000488281</ele>
        <time>2011-07-23T09:39:56.000Z</time>
      </trkpt>
      <trkpt lat="45.84449" lon="6.38422">
        <ele>1237.8000488281</ele>
        <time>2011-07-23T09:40:01.000Z</time>
      </trkpt>
      <trkpt lat="45.84452" lon="6.38394">
        <ele>1239.1999511719</ele>
        <time>2011-07-23T09:40:07.000Z</time>
      </trkpt>
      <trkpt lat="45.84464" lon="6.38372">
        <ele>1237.4000244141</ele>
        <time>2011-07-23T09:40:13.000Z</time>
      </trkpt>
      <trkpt lat="45.84476" lon="6.38359">
        <ele>1234.1999511719</ele>
        <time>2011-07-23T09:40:19.000Z</time>
      </trkpt>
      <trkpt lat="45.84479" lon="6.38359">
        <ele>1233.4000244141</ele>
        <time>2011-07-23T09:40:20.000Z</time>
      </trkpt>
      <trkpt lat="45.8449" lon="6.38358">
        <ele>1229.1999511719</ele>
        <time>2011-07-23T09:40:24.000Z</time>
      </trkpt>
      <trkpt lat="45.84494" lon="6.38358">
        <ele>1227.8000488281</ele>
        <time>2011-07-23T09:40:25.000Z</time>
      </trkpt>
      <trkpt lat="45.84497" lon="6.38357">
        <ele>1226.8000488281</ele>
        <time>2011-07-23T09:40:26.000Z</time>
      </trkpt>
      <trkpt lat="45.84512" lon="6.38355">
        <ele>1222.4000244141</ele>
        <time>2011-07-23T09:40:30.000Z</time>
      </trkpt>
      <trkpt lat="45.84515" lon="6.38356">
        <ele>1221.1999511719</ele>
        <time>2011-07-23T09:40:31.000Z</time>
      </trkpt>
      <trkpt lat="45.84529" lon="6.38349">
        <ele>1218.1999511719</ele>
        <time>2011-07-23T09:40:36.000Z</time>
      </trkpt>
      <trkpt lat="45.84532" lon="6.38343">
        <ele>1218.4000244141</ele>
        <time>2011-07-23T09:40:38.000Z</time>
      </trkpt>
      <trkpt lat="45.84538" lon="6.38336">
        <ele>1217.5999755859</ele>
        <time>2011-07-23T09:40:41.000Z</time>
      </trkpt>
      <trkpt lat="45.84548" lon="6.3833">
        <ele>1215.4000244141</ele>
        <time>2011-07-23T09:40:44.000Z</time>
      </trkpt>
      <trkpt lat="45.84554" lon="6.38326">
        <ele>1213.8000488281</ele>
        <time>2011-07-23T09:40:46.000Z</time>
      </trkpt>
      <trkpt lat="45.84565" lon="6.38315">
        <ele>1211.5999755859</ele>
        <time>2011-07-23T09:40:50.000Z</time>
      </trkpt>
      <trkpt lat="45.84574" lon="6.38301">
        <ele>1210</ele>
        <time>2011-07-23T09:40:54.000Z</time>
      </trkpt>
      <trkpt lat="45.84578" lon="6.38294">
        <ele>1209.4000244141</ele>
        <time>2011-07-23T09:40:56.000Z</time>
      </trkpt>
      <trkpt lat="45.84583" lon="6.38283">
        <ele>1208.8000488281</ele>
        <time>2011-07-23T09:40:59.000Z</time>
      </trkpt>
      <trkpt lat="45.84587" lon="6.38271">
        <ele>1208.4000244141</ele>
        <time>2011-07-23T09:41:02.000Z</time>
      </trkpt>
      <trkpt lat="45.84589" lon="6.38263">
        <ele>1208.4000244141</ele>
        <time>2011-07-23T09:41:04.000Z</time>
      </trkpt>
      <trkpt lat="45.84592" lon="6.38245">
        <ele>1208.8000488281</ele>
        <time>2011-07-23T09:41:08.000Z</time>
      </trkpt>
      <trkpt lat="45.84592" lon="6.38235">
        <ele>1209</ele>
        <time>2011-07-23T09:41:10.000Z</time>
      </trkpt>
      <trkpt lat="45.84591" lon="6.38218">
        <ele>1210.4000244141</ele>
        <time>2011-07-23T09:41:13.000Z</time>
      </trkpt>
      <trkpt lat="45.84592" lon="6.38214">
        <ele>1210.1999511719</ele>
        <time>2011-07-23T09:41:14.000Z</time>
      </trkpt>
      <trkpt lat="45.84596" lon="6.38193">
        <ele>1210.1999511719</ele>
        <time>2011-07-23T09:41:18.000Z</time>
      </trkpt>
      <trkpt lat="45.84598" lon="6.38183">
        <ele>1209.8000488281</ele>
        <time>2011-07-23T09:41:20.000Z</time>
      </trkpt>
      <trkpt lat="45.84602" lon="6.38175">
        <ele>1208.8000488281</ele>
        <time>2011-07-23T09:41:22.000Z</time>
      </trkpt>
      <trkpt lat="45.84605" lon="6.38167">
        <ele>1207.8000488281</ele>
        <time>2011-07-23T09:41:24.000Z</time>
      </trkpt>
      <trkpt lat="45.84609" lon="6.38143">
        <ele>1208.1999511719</ele>
        <time>2011-07-23T09:41:29.000Z</time>
      </trkpt>
      <trkpt lat="45.8461" lon="6.38139">
        <ele>1208</ele>
        <time>2011-07-23T09:41:30.000Z</time>
      </trkpt>
      <trkpt lat="45.84617" lon="6.3812">
        <ele>1207</ele>
        <time>2011-07-23T09:41:35.000Z</time>
      </trkpt>
      <trkpt lat="45.84618" lon="6.38116">
        <ele>1206.8000488281</ele>
        <time>2011-07-23T09:41:36.000Z</time>
      </trkpt>
      <trkpt lat="45.84624" lon="6.381">
        <ele>1206.4000244141</ele>
        <time>2011-07-23T09:41:40.000Z</time>
      </trkpt>
      <trkpt lat="45.84626" lon="6.38092">
        <ele>1206.4000244141</ele>
        <time>2011-07-23T09:41:42.000Z</time>
      </trkpt>
      <trkpt lat="45.84631" lon="6.38076">
        <ele>1207</ele>
        <time>2011-07-23T09:41:46.000Z</time>
      </trkpt>
      <trkpt lat="45.84634" lon="6.38068">
        <ele>1207.4000244141</ele>
        <time>2011-07-23T09:41:48.000Z</time>
      </trkpt>
      <trkpt lat="45.84643" lon="6.38049">
        <ele>1207.8000488281</ele>
        <time>2011-07-23T09:41:53.000Z</time>
      </trkpt>
      <trkpt lat="45.84646" lon="6.38046">
        <ele>1207.8000488281</ele>
        <time>2011-07-23T09:41:54.000Z</time>
      </trkpt>
      <trkpt lat="45.84656" lon="6.38035">
        <ele>1206.4000244141</ele>
        <time>2011-07-23T09:41:58.000Z</time>
      </trkpt>
      <trkpt lat="45.84663" lon="6.38029">
        <ele>1205.1999511719</ele>
        <time>2011-07-23T09:42:01.000Z</time>
      </trkpt>
      <trkpt lat="45.84668" lon="6.38026">
        <ele>1204.1999511719</ele>
        <time>2011-07-23T09:42:03.000Z</time>
      </trkpt>
      <trkpt lat="45.84682" lon="6.3802">
        <ele>1200.8000488281</ele>
        <time>2011-07-23T09:42:08.000Z</time>
      </trkpt>
      <trkpt lat="45.84685" lon="6.38018">
        <ele>1200.4000244141</ele>
        <time>2011-07-23T09:42:09.000Z</time>
      </trkpt>
      <trkpt lat="45.84697" lon="6.38008">
        <ele>1198.5999755859</ele>
        <time>2011-07-23T09:42:14.000Z</time>
      </trkpt>
      <trkpt lat="45.84699" lon="6.38006">
        <ele>1198</ele>
        <time>2011-07-23T09:42:15.000Z</time>
      </trkpt>
      <trkpt lat="45.84711" lon="6.37991">
        <ele>1196.5999755859</ele>
        <time>2011-07-23T09:42:20.000Z</time>
      </trkpt>
      <trkpt lat="45.84713" lon="6.37988">
        <ele>1196.1999511719</ele>
        <time>2011-07-23T09:42:21.000Z</time>
      </trkpt>
      <trkpt lat="45.84726" lon="6.37967">
        <ele>1194.5999755859</ele>
        <time>2011-07-23T09:42:27.000Z</time>
      </trkpt>
      <trkpt lat="45.84737" lon="6.37946">
        <ele>1193.4000244141</ele>
        <time>2011-07-23T09:42:33.000Z</time>
      </trkpt>
      <trkpt lat="45.84738" lon="6.37943">
        <ele>1193.1999511719</ele>
        <time>2011-07-23T09:42:34.000Z</time>
      </trkpt>
      <trkpt lat="45.84747" lon="6.37919">
        <ele>1192.8000488281</ele>
        <time>2011-07-23T09:42:40.000Z</time>
      </trkpt>
      <trkpt lat="45.84754" lon="6.37895">
        <ele>1191.8000488281</ele>
        <time>2011-07-23T09:42:46.000Z</time>
      </trkpt>
      <trkpt lat="45.8476" lon="6.3787">
        <ele>1191.4000244141</ele>
        <time>2011-07-23T09:42:52.000Z</time>
      </trkpt>
      <trkpt lat="45.84764" lon="6.37853">
        <ele>1191.1999511719</ele>
        <time>2011-07-23T09:42:56.000Z</time>
      </trkpt>
      <trkpt lat="45.84766" lon="6.37845">
        <ele>1191</ele>
        <time>2011-07-23T09:42:58.000Z</time>
      </trkpt>
      <trkpt lat="45.84769" lon="6.37832">
        <ele>1190.4000244141</ele>
        <time>2011-07-23T09:43:01.000Z</time>
      </trkpt>
      <trkpt lat="45.84772" lon="6.37819">
        <ele>1189.1999511719</ele>
        <time>2011-07-23T09:43:04.000Z</time>
      </trkpt>
      <trkpt lat="45.84775" lon="6.37802">
        <ele>1187.8000488281</ele>
        <time>2011-07-23T09:43:08.000Z</time>
      </trkpt>
      <trkpt lat="45.84777" lon="6.37793">
        <ele>1187.1999511719</ele>
        <time>2011-07-23T09:43:10.000Z</time>
      </trkpt>
      <trkpt lat="45.8478" lon="6.37776">
        <ele>1186</ele>
        <time>2011-07-23T09:43:14.000Z</time>
      </trkpt>
      <trkpt lat="45.84783" lon="6.37764">
        <ele>1185.4000244141</ele>
        <time>2011-07-23T09:43:17.000Z</time>
      </trkpt>
      <trkpt lat="45.84787" lon="6.37746">
        <ele>1184.4000244141</ele>
        <time>2011-07-23T09:43:21.000Z</time>
      </trkpt>
      <trkpt lat="45.84788" lon="6.37737">
        <ele>1183.8000488281</ele>
        <time>2011-07-23T09:43:23.000Z</time>
      </trkpt>
      <trkpt lat="45.84792" lon="6.37725">
        <ele>1182.5999755859</ele>
        <time>2011-07-23T09:43:26.000Z</time>
      </trkpt>
      <trkpt lat="45.84796" lon="6.37713">
        <ele>1181.5999755859</ele>
        <time>2011-07-23T09:43:29.000Z</time>
      </trkpt>
      <trkpt lat="45.84801" lon="6.37702">
        <ele>1180.5999755859</ele>
        <time>2011-07-23T09:43:32.000Z</time>
      </trkpt>
      <trkpt lat="45.84809" lon="6.37695">
        <ele>1179.1999511719</ele>
        <time>2011-07-23T09:43:35.000Z</time>
      </trkpt>
      <trkpt lat="45.84819" lon="6.37689">
        <ele>1178</ele>
        <time>2011-07-23T09:43:38.000Z</time>
      </trkpt>
      <trkpt lat="45.84827" lon="6.37685">
        <ele>1177</ele>
        <time>2011-07-23T09:43:41.000Z</time>
      </trkpt>
      <trkpt lat="45.84837" lon="6.37684">
        <ele>1176</ele>
        <time>2011-07-23T09:43:44.000Z</time>
      </trkpt>
      <trkpt lat="45.84846" lon="6.37684">
        <ele>1175.4000244141</ele>
        <time>2011-07-23T09:43:47.000Z</time>
      </trkpt>
      <trkpt lat="45.84856" lon="6.37688">
        <ele>1174.4000244141</ele>
        <time>2011-07-23T09:43:50.000Z</time>
      </trkpt>
      <trkpt lat="45.84866" lon="6.37691">
        <ele>1173.4000244141</ele>
        <time>2011-07-23T09:43:53.000Z</time>
      </trkpt>
      <trkpt lat="45.84874" lon="6.37696">
        <ele>1172.5999755859</ele>
        <time>2011-07-23T09:43:56.000Z</time>
      </trkpt>
      <trkpt lat="45.84883" lon="6.377">
        <ele>1171.5999755859</ele>
        <time>2011-07-23T09:43:59.000Z</time>
      </trkpt>
      <trkpt lat="45.84892" lon="6.37704">
        <ele>1170.5999755859</ele>
        <time>2011-07-23T09:44:02.000Z</time>
      </trkpt>
      <trkpt lat="45.849" lon="6.37707">
        <ele>1169.4000244141</ele>
        <time>2011-07-23T09:44:05.000Z</time>
      </trkpt>
      <trkpt lat="45.84919" lon="6.37714">
        <ele>1167</ele>
        <time>2011-07-23T09:44:11.000Z</time>
      </trkpt>
      <trkpt lat="45.84937" lon="6.37716">
        <ele>1164.1999511719</ele>
        <time>2011-07-23T09:44:17.000Z</time>
      </trkpt>
      <trkpt lat="45.84952" lon="6.37711">
        <ele>1162.8000488281</ele>
        <time>2011-07-23T09:44:22.000Z</time>
      </trkpt>
      <trkpt lat="45.84955" lon="6.37709">
        <ele>1162.5999755859</ele>
        <time>2011-07-23T09:44:23.000Z</time>
      </trkpt>
      <trkpt lat="45.84966" lon="6.37698">
        <ele>1162</ele>
        <time>2011-07-23T09:44:27.000Z</time>
      </trkpt>
      <trkpt lat="45.8497" lon="6.37691">
        <ele>1162</ele>
        <time>2011-07-23T09:44:29.000Z</time>
      </trkpt>
      <trkpt lat="45.84976" lon="6.37676">
        <ele>1162.4000244141</ele>
        <time>2011-07-23T09:44:33.000Z</time>
      </trkpt>
      <trkpt lat="45.84979" lon="6.37667">
        <ele>1162.8000488281</ele>
        <time>2011-07-23T09:44:35.000Z</time>
      </trkpt>
      <trkpt lat="45.84983" lon="6.37649">
        <ele>1162.4000244141</ele>
        <time>2011-07-23T09:44:39.000Z</time>
      </trkpt>
      <trkpt lat="45.84985" lon="6.3764">
        <ele>1162.1999511719</ele>
        <time>2011-07-23T09:44:41.000Z</time>
      </trkpt>
      <trkpt lat="45.84989" lon="6.37622">
        <ele>1162</ele>
        <time>2011-07-23T09:44:45.000Z</time>
      </trkpt>
      <trkpt lat="45.84992" lon="6.37613">
        <ele>1161.8000488281</ele>
        <time>2011-07-23T09:44:47.000Z</time>
      </trkpt>
      <trkpt lat="45.84994" lon="6.376">
        <ele>1162</ele>
        <time>2011-07-23T09:44:50.000Z</time>
      </trkpt>
      <trkpt lat="45.84994" lon="6.37586">
        <ele>1162.1999511719</ele>
        <time>2011-07-23T09:44:53.000Z</time>
      </trkpt>
      <trkpt lat="45.84992" lon="6.37577">
        <ele>1162</ele>
        <time>2011-07-23T09:44:55.000Z</time>
      </trkpt>
      <trkpt lat="45.84988" lon="6.37561">
        <ele>1161.4000244141</ele>
        <time>2011-07-23T09:44:59.000Z</time>
      </trkpt>
      <trkpt lat="45.84986" lon="6.37558">
        <ele>1161.4000244141</ele>
        <time>2011-07-23T09:45:00.000Z</time>
      </trkpt>
      <trkpt lat="45.84977" lon="6.37549">
        <ele>1160.8000488281</ele>
        <time>2011-07-23T09:45:04.000Z</time>
      </trkpt>
      <trkpt lat="45.84971" lon="6.37546">
        <ele>1160.4000244141</ele>
        <time>2011-07-23T09:45:06.000Z</time>
      </trkpt>
      <trkpt lat="45.84962" lon="6.37543">
        <ele>1160.1999511719</ele>
        <time>2011-07-23T09:45:09.000Z</time>
      </trkpt>
      <trkpt lat="45.84953" lon="6.37542">
        <ele>1159.8000488281</ele>
        <time>2011-07-23T09:45:12.000Z</time>
      </trkpt>
      <trkpt lat="45.84944" lon="6.37542">
        <ele>1159.5999755859</ele>
        <time>2011-07-23T09:45:15.000Z</time>
      </trkpt>
      <trkpt lat="45.84932" lon="6.37543">
        <ele>1159.4000244141</ele>
        <time>2011-07-23T09:45:19.000Z</time>
      </trkpt>
      <trkpt lat="45.84923" lon="6.37544">
        <ele>1159.4000244141</ele>
        <time>2011-07-23T09:45:22.000Z</time>
      </trkpt>
      <trkpt lat="45.84913" lon="6.37545">
        <ele>1159.1999511719</ele>
        <time>2011-07-23T09:45:25.000Z</time>
      </trkpt>
      <trkpt lat="45.84904" lon="6.37544">
        <ele>1158.4000244141</ele>
        <time>2011-07-23T09:45:28.000Z</time>
      </trkpt>
      <trkpt lat="45.84895" lon="6.37545">
        <ele>1157.8000488281</ele>
        <time>2011-07-23T09:45:31.000Z</time>
      </trkpt>
      <trkpt lat="45.84884" lon="6.37545">
        <ele>1157.1999511719</ele>
        <time>2011-07-23T09:45:35.000Z</time>
      </trkpt>
      <trkpt lat="45.84875" lon="6.37545">
        <ele>1156.5999755859</ele>
        <time>2011-07-23T09:45:38.000Z</time>
      </trkpt>
      <trkpt lat="45.84864" lon="6.37544">
        <ele>1155.5999755859</ele>
        <time>2011-07-23T09:45:42.000Z</time>
      </trkpt>
      <trkpt lat="45.84858" lon="6.37544">
        <ele>1155.1999511719</ele>
        <time>2011-07-23T09:45:45.000Z</time>
      </trkpt>
      <trkpt lat="45.84844" lon="6.37543">
        <ele>1154</ele>
        <time>2011-07-23T09:45:49.000Z</time>
      </trkpt>
      <trkpt lat="45.84836" lon="6.37544">
        <ele>1153.4000244141</ele>
        <time>2011-07-23T09:45:52.000Z</time>
      </trkpt>
      <trkpt lat="45.84824" lon="6.3754">
        <ele>1153.1999511719</ele>
        <time>2011-07-23T09:45:56.000Z</time>
      </trkpt>
      <trkpt lat="45.84816" lon="6.37538">
        <ele>1153.1999511719</ele>
        <time>2011-07-23T09:45:59.000Z</time>
      </trkpt>
      <trkpt lat="45.84805" lon="6.37536">
        <ele>1153.4000244141</ele>
        <time>2011-07-23T09:46:03.000Z</time>
      </trkpt>
      <trkpt lat="45.84796" lon="6.37531">
        <ele>1153</ele>
        <time>2011-07-23T09:46:06.000Z</time>
      </trkpt>
      <trkpt lat="45.84788" lon="6.37527">
        <ele>1152.5999755859</ele>
        <time>2011-07-23T09:46:09.000Z</time>
      </trkpt>
      <trkpt lat="45.84778" lon="6.37522">
        <ele>1152.1999511719</ele>
        <time>2011-07-23T09:46:13.000Z</time>
      </trkpt>
      <trkpt lat="45.84762" lon="6.37509">
        <ele>1150.1999511719</ele>
        <time>2011-07-23T09:46:19.000Z</time>
      </trkpt>
      <trkpt lat="45.84748" lon="6.37494">
        <ele>1148.5999755859</ele>
        <time>2011-07-23T09:46:24.000Z</time>
      </trkpt>
      <trkpt lat="45.84745" lon="6.37492">
        <ele>1149</ele>
        <time>2011-07-23T09:46:25.000Z</time>
      </trkpt>
      <trkpt lat="45.84738" lon="6.37483">
        <ele>1149.5999755859</ele>
        <time>2011-07-23T09:46:28.000Z</time>
      </trkpt>
      <trkpt lat="45.84731" lon="6.37474">
        <ele>1150</ele>
        <time>2011-07-23T09:46:31.000Z</time>
      </trkpt>
      <trkpt lat="45.84725" lon="6.37467">
        <ele>1150.1999511719</ele>
        <time>2011-07-23T09:46:33.000Z</time>
      </trkpt>
      <trkpt lat="45.84717" lon="6.37456">
        <ele>1150.1999511719</ele>
        <time>2011-07-23T09:46:37.000Z</time>
      </trkpt>
      <trkpt lat="45.84713" lon="6.37449">
        <ele>1150</ele>
        <time>2011-07-23T09:46:39.000Z</time>
      </trkpt>
      <trkpt lat="45.84706" lon="6.37435">
        <ele>1149.1999511719</ele>
        <time>2011-07-23T09:46:43.000Z</time>
      </trkpt>
      <trkpt lat="45.84701" lon="6.37427">
        <ele>1148.8000488281</ele>
        <time>2011-07-23T09:46:45.000Z</time>
      </trkpt>
      <trkpt lat="45.84694" lon="6.37414">
        <ele>1148</ele>
        <time>2011-07-23T09:46:48.000Z</time>
      </trkpt>
      <trkpt lat="45.8469" lon="6.37407">
        <ele>1147.8000488281</ele>
        <time>2011-07-23T09:46:50.000Z</time>
      </trkpt>
      <trkpt lat="45.84682" lon="6.37389">
        <ele>1147.5999755859</ele>
        <time>2011-07-23T09:46:55.000Z</time>
      </trkpt>
      <trkpt lat="45.8468" lon="6.37384">
        <ele>1147.4000244141</ele>
        <time>2011-07-23T09:46:56.000Z</time>
      </trkpt>
      <trkpt lat="45.84673" lon="6.37366">
        <ele>1146.8000488281</ele>
        <time>2011-07-23T09:47:00.000Z</time>
      </trkpt>
      <trkpt lat="45.84672" lon="6.37361">
        <ele>1146.5999755859</ele>
        <time>2011-07-23T09:47:01.000Z</time>
      </trkpt>
      <trkpt lat="45.84666" lon="6.37342">
        <ele>1146</ele>
        <time>2011-07-23T09:47:05.000Z</time>
      </trkpt>
      <trkpt lat="45.84662" lon="6.37332">
        <ele>1145.4000244141</ele>
        <time>2011-07-23T09:47:07.000Z</time>
      </trkpt>
      <trkpt lat="45.84658" lon="6.37318">
        <ele>1143.5999755859</ele>
        <time>2011-07-23T09:47:10.000Z</time>
      </trkpt>
      <trkpt lat="45.8465" lon="6.37303">
        <ele>1142.4000244141</ele>
        <time>2011-07-23T09:47:13.000Z</time>
      </trkpt>
      <trkpt lat="45.84647" lon="6.37295">
        <ele>1141.5999755859</ele>
        <time>2011-07-23T09:47:15.000Z</time>
      </trkpt>
      <trkpt lat="45.84642" lon="6.37283">
        <ele>1140.5999755859</ele>
        <time>2011-07-23T09:47:18.000Z</time>
      </trkpt>
      <trkpt lat="45.84639" lon="6.37272">
        <ele>1139.1999511719</ele>
        <time>2011-07-23T09:47:21.000Z</time>
      </trkpt>
      <trkpt lat="45.84634" lon="6.37262">
        <ele>1138.8000488281</ele>
        <time>2011-07-23T09:47:23.000Z</time>
      </trkpt>
      <trkpt lat="45.84631" lon="6.37247">
        <ele>1137</ele>
        <time>2011-07-23T09:47:28.000Z</time>
      </trkpt>
      <trkpt lat="45.84631" lon="6.37246">
        <ele>1136.8000488281</ele>
        <time>2011-07-23T09:47:29.000Z</time>
      </trkpt>
      <trkpt lat="45.84631" lon="6.37241">
        <ele>1135.8000488281</ele>
        <time>2011-07-23T09:47:34.000Z</time>
      </trkpt>
      <trkpt lat="45.84632" lon="6.37236">
        <ele>1134.5999755859</ele>
        <time>2011-07-23T09:47:38.000Z</time>
      </trkpt>
      <trkpt lat="45.84632" lon="6.37235">
        <ele>1134.4000244141</ele>
        <time>2011-07-23T09:47:39.000Z</time>
      </trkpt>
      <trkpt lat="45.84633" lon="6.37241">
        <ele>1135.4000244141</ele>
        <time>2011-07-23T09:48:03.000Z</time>
      </trkpt>
      <trkpt lat="45.84634" lon="6.37238">
        <ele>1134.5999755859</ele>
        <time>2011-07-23T09:48:06.000Z</time>
      </trkpt>
      <trkpt lat="45.84632" lon="6.37235">
        <ele>1134.4000244141</ele>
        <time>2011-07-23T09:48:08.000Z</time>
      </trkpt>
      <trkpt lat="45.8463" lon="6.37235">
        <ele>1134.8000488281</ele>
        <time>2011-07-23T09:48:10.000Z</time>
      </trkpt>
      <trkpt lat="45.84626" lon="6.37231">
        <ele>1134.8000488281</ele>
        <time>2011-07-23T09:48:21.000Z</time>
      </trkpt>
      <trkpt lat="45.84634" lon="6.37235">
        <ele>1134</ele>
        <time>2011-07-23T09:49:14.000Z</time>
      </trkpt>
      <trkpt lat="45.84635" lon="6.37236">
        <ele>1134</ele>
        <time>2011-07-23T09:49:15.000Z</time>
      </trkpt>
      <trkpt lat="45.84643" lon="6.37242">
        <ele>1133.4000244141</ele>
        <time>2011-07-23T09:49:20.000Z</time>
      </trkpt>
      <trkpt lat="45.84645" lon="6.37245">
        <ele>1133.8000488281</ele>
        <time>2011-07-23T09:49:22.000Z</time>
      </trkpt>
      <trkpt lat="45.8465" lon="6.3725">
        <ele>1133.4000244141</ele>
        <time>2011-07-23T09:49:26.000Z</time>
      </trkpt>
      <trkpt lat="45.84653" lon="6.37255">
        <ele>1133.8000488281</ele>
        <time>2011-07-23T09:49:30.000Z</time>
      </trkpt>
      <trkpt lat="45.84655" lon="6.37265">
        <ele>1135</ele>
        <time>2011-07-23T09:49:38.000Z</time>
      </trkpt>
      <trkpt lat="45.84657" lon="6.37274">
        <ele>1136</ele>
        <time>2011-07-23T09:49:45.000Z</time>
      </trkpt>
      <trkpt lat="45.8466" lon="6.37278">
        <ele>1136.4000244141</ele>
        <time>2011-07-23T09:49:51.000Z</time>
      </trkpt>
      <trkpt lat="45.84656" lon="6.37274">
        <ele>1136.4000244141</ele>
        <time>2011-07-23T09:49:55.000Z</time>
      </trkpt>
      <trkpt lat="45.84655" lon="6.37274">
        <ele>1136.4000244141</ele>
        <time>2011-07-23T09:49:56.000Z</time>
      </trkpt>
      <trkpt lat="45.84657" lon="6.37271">
        <ele>1135.5999755859</ele>
        <time>2011-07-23T09:50:23.000Z</time>
      </trkpt>
      <trkpt lat="45.84648" lon="6.37265">
        <ele>1136.4000244141</ele>
        <time>2011-07-23T09:50:42.000Z</time>
      </trkpt>
      <trkpt lat="45.8465" lon="6.37271">
        <ele>1137</ele>
        <time>2011-07-23T09:50:46.000Z</time>
      </trkpt>
      <trkpt lat="45.84646" lon="6.37267">
        <ele>1137.1999511719</ele>
        <time>2011-07-23T09:50:54.000Z</time>
      </trkpt>
      <trkpt lat="45.84644" lon="6.37265">
        <ele>1137.1999511719</ele>
        <time>2011-07-23T09:50:56.000Z</time>
      </trkpt>
      <trkpt lat="45.84644" lon="6.37261">
        <ele>1136.5999755859</ele>
        <time>2011-07-23T09:51:00.000Z</time>
      </trkpt>
      <trkpt lat="45.84643" lon="6.37257">
        <ele>1136.1999511719</ele>
        <time>2011-07-23T09:51:02.000Z</time>
      </trkpt>
      <trkpt lat="45.84634" lon="6.37244">
        <ele>1135.5999755859</ele>
        <time>2011-07-23T09:51:07.000Z</time>
      </trkpt>
      <trkpt lat="45.84632" lon="6.3724">
        <ele>1135.4000244141</ele>
        <time>2011-07-23T09:51:08.000Z</time>
      </trkpt>
      <trkpt lat="45.84625" lon="6.37229">
        <ele>1134.8000488281</ele>
        <time>2011-07-23T09:51:13.000Z</time>
      </trkpt>
      <trkpt lat="45.84621" lon="6.37225">
        <ele>1134.8000488281</ele>
        <time>2011-07-23T09:51:16.000Z</time>
      </trkpt>
      <trkpt lat="45.84618" lon="6.3722">
        <ele>1134.1999511719</ele>
        <time>2011-07-23T09:51:18.000Z</time>
      </trkpt>
      <trkpt lat="45.84612" lon="6.37206">
        <ele>1133</ele>
        <time>2011-07-23T09:51:23.000Z</time>
      </trkpt>
      <trkpt lat="45.84611" lon="6.37203">
        <ele>1132.5999755859</ele>
        <time>2011-07-23T09:51:24.000Z</time>
      </trkpt>
      <trkpt lat="45.84608" lon="6.37191">
        <ele>1130.8000488281</ele>
        <time>2011-07-23T09:51:28.000Z</time>
      </trkpt>
      <trkpt lat="45.84604" lon="6.37181">
        <ele>1129.5999755859</ele>
        <time>2011-07-23T09:51:31.000Z</time>
      </trkpt>
      <trkpt lat="45.84604" lon="6.37178">
        <ele>1128.8000488281</ele>
        <time>2011-07-23T09:51:32.000Z</time>
      </trkpt>
      <trkpt lat="45.84603" lon="6.37174">
        <ele>1128.1999511719</ele>
        <time>2011-07-23T09:51:33.000Z</time>
      </trkpt>
      <trkpt lat="45.84602" lon="6.37167">
        <ele>1127</ele>
        <time>2011-07-23T09:51:35.000Z</time>
      </trkpt>
      <trkpt lat="45.846" lon="6.37152">
        <ele>1125</ele>
        <time>2011-07-23T09:51:39.000Z</time>
      </trkpt>
      <trkpt lat="45.84599" lon="6.37149">
        <ele>1124.4000244141</ele>
        <time>2011-07-23T09:51:40.000Z</time>
      </trkpt>
      <trkpt lat="45.84597" lon="6.37127">
        <ele>1121.1999511719</ele>
        <time>2011-07-23T09:51:46.000Z</time>
      </trkpt>
      <trkpt lat="45.84595" lon="6.37123">
        <ele>1120.8000488281</ele>
        <time>2011-07-23T09:51:47.000Z</time>
      </trkpt>
      <trkpt lat="45.84594" lon="6.37102">
        <ele>1117.1999511719</ele>
        <time>2011-07-23T09:51:53.000Z</time>
      </trkpt>
      <trkpt lat="45.84592" lon="6.37095">
        <ele>1116.1999511719</ele>
        <time>2011-07-23T09:51:55.000Z</time>
      </trkpt>
      <trkpt lat="45.8459" lon="6.37088">
        <ele>1115.4000244141</ele>
        <time>2011-07-23T09:51:57.000Z</time>
      </trkpt>
      <trkpt lat="45.84583" lon="6.3707">
        <ele>1114.5999755859</ele>
        <time>2011-07-23T09:52:02.000Z</time>
      </trkpt>
      <trkpt lat="45.84576" lon="6.37051">
        <ele>1114.4000244141</ele>
        <time>2011-07-23T09:52:08.000Z</time>
      </trkpt>
      <trkpt lat="45.84575" lon="6.37048">
        <ele>1114.4000244141</ele>
        <time>2011-07-23T09:52:09.000Z</time>
      </trkpt>
      <trkpt lat="45.84571" lon="6.37028">
        <ele>1113.4000244141</ele>
        <time>2011-07-23T09:52:15.000Z</time>
      </trkpt>
      <trkpt lat="45.8457" lon="6.37022">
        <ele>1113</ele>
        <time>2011-07-23T09:52:17.000Z</time>
      </trkpt>
      <trkpt lat="45.84566" lon="6.37004">
        <ele>1112.1999511719</ele>
        <time>2011-07-23T09:52:22.000Z</time>
      </trkpt>
      <trkpt lat="45.84565" lon="6.36997">
        <ele>1112</ele>
        <time>2011-07-23T09:52:24.000Z</time>
      </trkpt>
      <trkpt lat="45.84564" lon="6.36985">
        <ele>1111.1999511719</ele>
        <time>2011-07-23T09:52:27.000Z</time>
      </trkpt>
      <trkpt lat="45.84566" lon="6.3697">
        <ele>1109.5999755859</ele>
        <time>2011-07-23T09:52:31.000Z</time>
      </trkpt>
      <trkpt lat="45.84566" lon="6.36967">
        <ele>1109.1999511719</ele>
        <time>2011-07-23T09:52:32.000Z</time>
      </trkpt>
      <trkpt lat="45.84569" lon="6.36945">
        <ele>1106.5999755859</ele>
        <time>2011-07-23T09:52:38.000Z</time>
      </trkpt>
      <trkpt lat="45.84569" lon="6.36941">
        <ele>1106</ele>
        <time>2011-07-23T09:52:39.000Z</time>
      </trkpt>
      <trkpt lat="45.84573" lon="6.36927">
        <ele>1103.5999755859</ele>
        <time>2011-07-23T09:52:43.000Z</time>
      </trkpt>
      <trkpt lat="45.84574" lon="6.36916">
        <ele>1102</ele>
        <time>2011-07-23T09:52:46.000Z</time>
      </trkpt>
      <trkpt lat="45.84576" lon="6.36909">
        <ele>1100.8000488281</ele>
        <time>2011-07-23T09:52:48.000Z</time>
      </trkpt>
      <trkpt lat="45.84578" lon="6.36887">
        <ele>1098</ele>
        <time>2011-07-23T09:52:54.000Z</time>
      </trkpt>
      <trkpt lat="45.84577" lon="6.36869">
        <ele>1096.4000244141</ele>
        <time>2011-07-23T09:52:59.000Z</time>
      </trkpt>
      <trkpt lat="45.84576" lon="6.36862">
        <ele>1096</ele>
        <time>2011-07-23T09:53:01.000Z</time>
      </trkpt>
      <trkpt lat="45.84574" lon="6.36847">
        <ele>1095.1999511719</ele>
        <time>2011-07-23T09:53:05.000Z</time>
      </trkpt>
      <trkpt lat="45.84573" lon="6.36836">
        <ele>1094.8000488281</ele>
        <time>2011-07-23T09:53:08.000Z</time>
      </trkpt>
      <trkpt lat="45.8457" lon="6.36824">
        <ele>1094.8000488281</ele>
        <time>2011-07-23T09:53:11.000Z</time>
      </trkpt>
      <trkpt lat="45.84566" lon="6.36808">
        <ele>1094.5999755859</ele>
        <time>2011-07-23T09:53:15.000Z</time>
      </trkpt>
      <trkpt lat="45.84564" lon="6.36805">
        <ele>1094.8000488281</ele>
        <time>2011-07-23T09:53:16.000Z</time>
      </trkpt>
      <trkpt lat="45.84554" lon="6.36794">
        <ele>1097.5999755859</ele>
        <time>2011-07-23T09:53:20.000Z</time>
      </trkpt>
      <trkpt lat="45.84552" lon="6.36791">
        <ele>1098.4000244141</ele>
        <time>2011-07-23T09:53:21.000Z</time>
      </trkpt>
      <trkpt lat="45.84543" lon="6.36783">
        <ele>1101.1999511719</ele>
        <time>2011-07-23T09:53:24.000Z</time>
      </trkpt>
      <trkpt lat="45.84535" lon="6.36778">
        <ele>1103.4000244141</ele>
        <time>2011-07-23T09:53:27.000Z</time>
      </trkpt>
      <trkpt lat="45.84529" lon="6.36767">
        <ele>1104.8000488281</ele>
        <time>2011-07-23T09:53:30.000Z</time>
      </trkpt>
      <trkpt lat="45.84525" lon="6.36754">
        <ele>1104.5999755859</ele>
        <time>2011-07-23T09:53:33.000Z</time>
      </trkpt>
      <trkpt lat="45.84524" lon="6.36742">
        <ele>1104.4000244141</ele>
        <time>2011-07-23T09:53:35.000Z</time>
      </trkpt>
      <trkpt lat="45.84522" lon="6.36723">
        <ele>1104.4000244141</ele>
        <time>2011-07-23T09:53:38.000Z</time>
      </trkpt>
      <trkpt lat="45.8452" lon="6.36709">
        <ele>1104.8000488281</ele>
        <time>2011-07-23T09:53:40.000Z</time>
      </trkpt>
      <trkpt lat="45.8452" lon="6.36703">
        <ele>1104.5999755859</ele>
        <time>2011-07-23T09:53:41.000Z</time>
      </trkpt>
      <trkpt lat="45.84521" lon="6.36698">
        <ele>1104.1999511719</ele>
        <time>2011-07-23T09:53:42.000Z</time>
      </trkpt>
      <trkpt lat="45.84522" lon="6.36694">
        <ele>1103.5999755859</ele>
        <time>2011-07-23T09:53:43.000Z</time>
      </trkpt>
      <trkpt lat="45.84524" lon="6.36691">
        <ele>1102.8000488281</ele>
        <time>2011-07-23T09:53:44.000Z</time>
      </trkpt>
      <trkpt lat="45.84527" lon="6.36674">
        <ele>1100.5999755859</ele>
        <time>2011-07-23T09:53:48.000Z</time>
      </trkpt>
      <trkpt lat="45.84535" lon="6.36654">
        <ele>1098.4000244141</ele>
        <time>2011-07-23T09:53:53.000Z</time>
      </trkpt>
      <trkpt lat="45.84537" lon="6.3665">
        <ele>1098</ele>
        <time>2011-07-23T09:53:54.000Z</time>
      </trkpt>
      <trkpt lat="45.84543" lon="6.36625">
        <ele>1097.8000488281</ele>
        <time>2011-07-23T09:54:00.000Z</time>
      </trkpt>
      <trkpt lat="45.8455" lon="6.36612">
        <ele>1096.4000244141</ele>
        <time>2011-07-23T09:54:04.000Z</time>
      </trkpt>
      <trkpt lat="45.84551" lon="6.36598">
        <ele>1097.1999511719</ele>
        <time>2011-07-23T09:54:07.000Z</time>
      </trkpt>
      <trkpt lat="45.84554" lon="6.36595">
        <ele>1096.4000244141</ele>
        <time>2011-07-23T09:54:08.000Z</time>
      </trkpt>
      <trkpt lat="45.84557" lon="6.36593">
        <ele>1095.4000244141</ele>
        <time>2011-07-23T09:54:09.000Z</time>
      </trkpt>
      <trkpt lat="45.84568" lon="6.36581">
        <ele>1092.4000244141</ele>
        <time>2011-07-23T09:54:13.000Z</time>
      </trkpt>
      <trkpt lat="45.8457" lon="6.36574">
        <ele>1092.4000244141</ele>
        <time>2011-07-23T09:54:15.000Z</time>
      </trkpt>
      <trkpt lat="45.84584" lon="6.3657">
        <ele>1087.8000488281</ele>
        <time>2011-07-23T09:54:19.000Z</time>
      </trkpt>
      <trkpt lat="45.84588" lon="6.36566">
        <ele>1086.5999755859</ele>
        <time>2011-07-23T09:54:21.000Z</time>
      </trkpt>
      <trkpt lat="45.84591" lon="6.36552">
        <ele>1087.5999755859</ele>
        <time>2011-07-23T09:54:25.000Z</time>
      </trkpt>
      <trkpt lat="45.84592" lon="6.36545">
        <ele>1088.4000244141</ele>
        <time>2011-07-23T09:54:27.000Z</time>
      </trkpt>
      <trkpt lat="45.84595" lon="6.36535">
        <ele>1088.8000488281</ele>
        <time>2011-07-23T09:54:31.000Z</time>
      </trkpt>
      <trkpt lat="45.84602" lon="6.36522">
        <ele>1088.4000244141</ele>
        <time>2011-07-23T09:54:36.000Z</time>
      </trkpt>
      <trkpt lat="45.84612" lon="6.36509">
        <ele>1086.5999755859</ele>
        <time>2011-07-23T09:54:43.000Z</time>
      </trkpt>
      <trkpt lat="45.84614" lon="6.36505">
        <ele>1086.8000488281</ele>
        <time>2011-07-23T09:54:45.000Z</time>
      </trkpt>
      <trkpt lat="45.84614" lon="6.36502">
        <ele>1087</ele>
        <time>2011-07-23T09:54:46.000Z</time>
      </trkpt>
      <trkpt lat="45.84615" lon="6.36499">
        <ele>1087</ele>
        <time>2011-07-23T09:54:47.000Z</time>
      </trkpt>
      <trkpt lat="45.84616" lon="6.36493">
        <ele>1087.8000488281</ele>
        <time>2011-07-23T09:54:49.000Z</time>
      </trkpt>
      <trkpt lat="45.84621" lon="6.36488">
        <ele>1087.1999511719</ele>
        <time>2011-07-23T09:54:52.000Z</time>
      </trkpt>
      <trkpt lat="45.84626" lon="6.36481">
        <ele>1086.1999511719</ele>
        <time>2011-07-23T09:54:56.000Z</time>
      </trkpt>
      <trkpt lat="45.84631" lon="6.36476">
        <ele>1085.8000488281</ele>
        <time>2011-07-23T09:54:59.000Z</time>
      </trkpt>
      <trkpt lat="45.84638" lon="6.36464">
        <ele>1085.4000244141</ele>
        <time>2011-07-23T09:55:05.000Z</time>
      </trkpt>
      <trkpt lat="45.8464" lon="6.36462">
        <ele>1085.4000244141</ele>
        <time>2011-07-23T09:55:06.000Z</time>
      </trkpt>
      <trkpt lat="45.84646" lon="6.36453">
        <ele>1085.1999511719</ele>
        <time>2011-07-23T09:55:11.000Z</time>
      </trkpt>
      <trkpt lat="45.84652" lon="6.36443">
        <ele>1085.5999755859</ele>
        <time>2011-07-23T09:55:16.000Z</time>
      </trkpt>
      <trkpt lat="45.84656" lon="6.36437">
        <ele>1086</ele>
        <time>2011-07-23T09:55:19.000Z</time>
      </trkpt>
      <trkpt lat="45.84663" lon="6.36427">
        <ele>1086.4000244141</ele>
        <time>2011-07-23T09:55:24.000Z</time>
      </trkpt>
      <trkpt lat="45.84665" lon="6.36423">
        <ele>1086.8000488281</ele>
        <time>2011-07-23T09:55:26.000Z</time>
      </trkpt>
      <trkpt lat="45.84671" lon="6.36417">
        <ele>1087.1999511719</ele>
        <time>2011-07-23T09:55:30.000Z</time>
      </trkpt>
      <trkpt lat="45.84677" lon="6.36407">
        <ele>1088</ele>
        <time>2011-07-23T09:55:35.000Z</time>
      </trkpt>
      <trkpt lat="45.84678" lon="6.36405">
        <ele>1088.1999511719</ele>
        <time>2011-07-23T09:55:36.000Z</time>
      </trkpt>
      <trkpt lat="45.84686" lon="6.36393">
        <ele>1089.4000244141</ele>
        <time>2011-07-23T09:55:42.000Z</time>
      </trkpt>
      <trkpt lat="45.84691" lon="6.36385">
        <ele>1090.1999511719</ele>
        <time>2011-07-23T09:55:47.000Z</time>
      </trkpt>
      <trkpt lat="45.84693" lon="6.36383">
        <ele>1090.1999511719</ele>
        <time>2011-07-23T09:55:48.000Z</time>
      </trkpt>
      <trkpt lat="45.84696" lon="6.36379">
        <ele>1090.5999755859</ele>
        <time>2011-07-23T09:55:51.000Z</time>
      </trkpt>
      <trkpt lat="45.84698" lon="6.36373">
        <ele>1091.4000244141</ele>
        <time>2011-07-23T09:55:54.000Z</time>
      </trkpt>
      <trkpt lat="45.84701" lon="6.36367">
        <ele>1092.1999511719</ele>
        <time>2011-07-23T09:55:57.000Z</time>
      </trkpt>
      <trkpt lat="45.84703" lon="6.36363">
        <ele>1092.8000488281</ele>
        <time>2011-07-23T09:55:59.000Z</time>
      </trkpt>
      <trkpt lat="45.84706" lon="6.36348">
        <ele>1095.1999511719</ele>
        <time>2011-07-23T09:56:05.000Z</time>
      </trkpt>
      <trkpt lat="45.8471" lon="6.36337">
        <ele>1097</ele>
        <time>2011-07-23T09:56:10.000Z</time>
      </trkpt>
      <trkpt lat="45.84711" lon="6.36332">
        <ele>1097.4000244141</ele>
        <time>2011-07-23T09:56:12.000Z</time>
      </trkpt>
      <trkpt lat="45.84712" lon="6.36326">
        <ele>1097.8000488281</ele>
        <time>2011-07-23T09:56:14.000Z</time>
      </trkpt>
      <trkpt lat="45.84712" lon="6.3632">
        <ele>1098.1999511719</ele>
        <time>2011-07-23T09:56:16.000Z</time>
      </trkpt>
      <trkpt lat="45.84714" lon="6.36311">
        <ele>1098.1999511719</ele>
        <time>2011-07-23T09:56:19.000Z</time>
      </trkpt>
      <trkpt lat="45.84716" lon="6.36305">
        <ele>1098.4000244141</ele>
        <time>2011-07-23T09:56:21.000Z</time>
      </trkpt>
      <trkpt lat="45.84713" lon="6.36296">
        <ele>1099.4000244141</ele>
        <time>2011-07-23T09:56:24.000Z</time>
      </trkpt>
      <trkpt lat="45.84713" lon="6.3629">
        <ele>1100</ele>
        <time>2011-07-23T09:56:26.000Z</time>
      </trkpt>
      <trkpt lat="45.84714" lon="6.36285">
        <ele>1100.1999511719</ele>
        <time>2011-07-23T09:56:28.000Z</time>
      </trkpt>
      <trkpt lat="45.84714" lon="6.36278">
        <ele>1100.5999755859</ele>
        <time>2011-07-23T09:56:31.000Z</time>
      </trkpt>
      <trkpt lat="45.84716" lon="6.36265">
        <ele>1101.4000244141</ele>
        <time>2011-07-23T09:56:36.000Z</time>
      </trkpt>
      <trkpt lat="45.84714" lon="6.36258">
        <ele>1102</ele>
        <time>2011-07-23T09:56:38.000Z</time>
      </trkpt>
      <trkpt lat="45.84711" lon="6.36249">
        <ele>1102.8000488281</ele>
        <time>2011-07-23T09:56:41.000Z</time>
      </trkpt>
      <trkpt lat="45.84707" lon="6.36239">
        <ele>1103.5999755859</ele>
        <time>2011-07-23T09:56:46.000Z</time>
      </trkpt>
      <trkpt lat="45.84704" lon="6.36234">
        <ele>1104</ele>
        <time>2011-07-23T09:56:48.000Z</time>
      </trkpt>
      <trkpt lat="45.84696" lon="6.36227">
        <ele>1104.5999755859</ele>
        <time>2011-07-23T09:56:52.000Z</time>
      </trkpt>
      <trkpt lat="45.84686" lon="6.36222">
        <ele>1105</ele>
        <time>2011-07-23T09:56:57.000Z</time>
      </trkpt>
      <trkpt lat="45.84674" lon="6.36218">
        <ele>1105.4000244141</ele>
        <time>2011-07-23T09:57:03.000Z</time>
      </trkpt>
      <trkpt lat="45.84668" lon="6.36218">
        <ele>1105.4000244141</ele>
        <time>2011-07-23T09:57:06.000Z</time>
      </trkpt>
      <trkpt lat="45.84665" lon="6.36218">
        <ele>1106</ele>
        <time>2011-07-23T09:57:08.000Z</time>
      </trkpt>
      <trkpt lat="45.84654" lon="6.36219">
        <ele>1108.1999511719</ele>
        <time>2011-07-23T09:57:14.000Z</time>
      </trkpt>
      <trkpt lat="45.8465" lon="6.36221">
        <ele>1108.8000488281</ele>
        <time>2011-07-23T09:57:16.000Z</time>
      </trkpt>
      <trkpt lat="45.84645" lon="6.36224">
        <ele>1109.8000488281</ele>
        <time>2011-07-23T09:57:19.000Z</time>
      </trkpt>
      <trkpt lat="45.84633" lon="6.36234">
        <ele>1111.8000488281</ele>
        <time>2011-07-23T09:57:27.000Z</time>
      </trkpt>
      <trkpt lat="45.84625" lon="6.36242">
        <ele>1112.8000488281</ele>
        <time>2011-07-23T09:57:33.000Z</time>
      </trkpt>
      <trkpt lat="45.8462" lon="6.36252">
        <ele>1113.1999511719</ele>
        <time>2011-07-23T09:57:40.000Z</time>
      </trkpt>
      <trkpt lat="45.84614" lon="6.36263">
        <ele>1113.8000488281</ele>
        <time>2011-07-23T09:57:47.000Z</time>
      </trkpt>
      <trkpt lat="45.84614" lon="6.36276">
        <ele>1113.5999755859</ele>
        <time>2011-07-23T09:57:54.000Z</time>
      </trkpt>
      <trkpt lat="45.84614" lon="6.36278">
        <ele>1113.8000488281</ele>
        <time>2011-07-23T09:57:55.000Z</time>
      </trkpt>
      <trkpt lat="45.84613" lon="6.36291">
        <ele>1113.5999755859</ele>
        <time>2011-07-23T09:58:01.000Z</time>
      </trkpt>
      <trkpt lat="45.84612" lon="6.36298">
        <ele>1113.5999755859</ele>
        <time>2011-07-23T09:58:05.000Z</time>
      </trkpt>
      <trkpt lat="45.84611" lon="6.36302">
        <ele>1113.8000488281</ele>
        <time>2011-07-23T09:58:07.000Z</time>
      </trkpt>
      <trkpt lat="45.84609" lon="6.36307">
        <ele>1114</ele>
        <time>2011-07-23T09:58:09.000Z</time>
      </trkpt>
      <trkpt lat="45.84605" lon="6.36318">
        <ele>1114.4000244141</ele>
        <time>2011-07-23T09:58:13.000Z</time>
      </trkpt>
      <trkpt lat="45.846" lon="6.36325">
        <ele>1114.8000488281</ele>
        <time>2011-07-23T09:58:16.000Z</time>
      </trkpt>
      <trkpt lat="45.84598" lon="6.3633">
        <ele>1115</ele>
        <time>2011-07-23T09:58:18.000Z</time>
      </trkpt>
      <trkpt lat="45.84591" lon="6.36344">
        <ele>1114.5999755859</ele>
        <time>2011-07-23T09:58:24.000Z</time>
      </trkpt>
      <trkpt lat="45.84589" lon="6.36347">
        <ele>1114.5999755859</ele>
        <time>2011-07-23T09:58:25.000Z</time>
      </trkpt>
      <trkpt lat="45.84582" lon="6.36357">
        <ele>1114.5999755859</ele>
        <time>2011-07-23T09:58:30.000Z</time>
      </trkpt>
      <trkpt lat="45.84578" lon="6.36366">
        <ele>1114.8000488281</ele>
        <time>2011-07-23T09:58:34.000Z</time>
      </trkpt>
      <trkpt lat="45.84575" lon="6.3637">
        <ele>1114.8000488281</ele>
        <time>2011-07-23T09:58:36.000Z</time>
      </trkpt>
      <trkpt lat="45.84566" lon="6.36387">
        <ele>1115.1999511719</ele>
        <time>2011-07-23T09:58:43.000Z</time>
      </trkpt>
      <trkpt lat="45.84563" lon="6.36392">
        <ele>1115.5999755859</ele>
        <time>2011-07-23T09:58:45.000Z</time>
      </trkpt>
      <trkpt lat="45.84554" lon="6.36406">
        <ele>1116.4000244141</ele>
        <time>2011-07-23T09:58:51.000Z</time>
      </trkpt>
      <trkpt lat="45.84551" lon="6.3641">
        <ele>1116.8000488281</ele>
        <time>2011-07-23T09:58:53.000Z</time>
      </trkpt>
      <trkpt lat="45.84542" lon="6.36421">
        <ele>1118</ele>
        <time>2011-07-23T09:58:59.000Z</time>
      </trkpt>
      <trkpt lat="45.84541" lon="6.36423">
        <ele>1118</ele>
        <time>2011-07-23T09:59:00.000Z</time>
      </trkpt>
      <trkpt lat="45.84542" lon="6.36424">
        <ele>1117.8000488281</ele>
        <time>2011-07-23T09:59:01.000Z</time>
      </trkpt>
      <trkpt lat="45.84541" lon="6.36427">
        <ele>1117.8000488281</ele>
        <time>2011-07-23T09:59:03.000Z</time>
      </trkpt>
      <trkpt lat="45.8454" lon="6.36428">
        <ele>1117.8000488281</ele>
        <time>2011-07-23T09:59:04.000Z</time>
      </trkpt>
      <trkpt lat="45.84535" lon="6.36433">
        <ele>1118.5999755859</ele>
        <time>2011-07-23T09:59:09.000Z</time>
      </trkpt>
      <trkpt lat="45.84534" lon="6.36434">
        <ele>1119</ele>
        <time>2011-07-23T09:59:10.000Z</time>
      </trkpt>
      <trkpt lat="45.84528" lon="6.36442">
        <ele>1119.8000488281</ele>
        <time>2011-07-23T09:59:14.000Z</time>
      </trkpt>
      <trkpt lat="45.84527" lon="6.36444">
        <ele>1120</ele>
        <time>2011-07-23T09:59:15.000Z</time>
      </trkpt>
      <trkpt lat="45.84518" lon="6.36456">
        <ele>1121.5999755859</ele>
        <time>2011-07-23T09:59:21.000Z</time>
      </trkpt>
      <trkpt lat="45.84515" lon="6.3646">
        <ele>1122.1999511719</ele>
        <time>2011-07-23T09:59:23.000Z</time>
      </trkpt>
      <trkpt lat="45.84509" lon="6.36468">
        <ele>1123.4000244141</ele>
        <time>2011-07-23T09:59:27.000Z</time>
      </trkpt>
      <trkpt lat="45.84501" lon="6.36478">
        <ele>1124.8000488281</ele>
        <time>2011-07-23T09:59:32.000Z</time>
      </trkpt>
      <trkpt lat="45.84493" lon="6.36491">
        <ele>1126</ele>
        <time>2011-07-23T09:59:38.000Z</time>
      </trkpt>
      <trkpt lat="45.84489" lon="6.36498">
        <ele>1126.4000244141</ele>
        <time>2011-07-23T09:59:41.000Z</time>
      </trkpt>
      <trkpt lat="45.84486" lon="6.36503">
        <ele>1126.5999755859</ele>
        <time>2011-07-23T09:59:43.000Z</time>
      </trkpt>
      <trkpt lat="45.84478" lon="6.36517">
        <ele>1127.8000488281</ele>
        <time>2011-07-23T09:59:49.000Z</time>
      </trkpt>
      <trkpt lat="45.84477" lon="6.36519">
        <ele>1128</ele>
        <time>2011-07-23T09:59:50.000Z</time>
      </trkpt>
      <trkpt lat="45.84469" lon="6.36528">
        <ele>1129.1999511719</ele>
        <time>2011-07-23T09:59:55.000Z</time>
      </trkpt>
      <trkpt lat="45.84461" lon="6.36537">
        <ele>1130.4000244141</ele>
        <time>2011-07-23T10:00:00.000Z</time>
      </trkpt>
      <trkpt lat="45.84452" lon="6.36546">
        <ele>1132.1999511719</ele>
        <time>2011-07-23T10:00:06.000Z</time>
      </trkpt>
      <trkpt lat="45.84445" lon="6.36553">
        <ele>1133.4000244141</ele>
        <time>2011-07-23T10:00:10.000Z</time>
      </trkpt>
      <trkpt lat="45.84439" lon="6.36559">
        <ele>1134.5999755859</ele>
        <time>2011-07-23T10:00:14.000Z</time>
      </trkpt>
      <trkpt lat="45.84429" lon="6.36566">
        <ele>1136.5999755859</ele>
        <time>2011-07-23T10:00:19.000Z</time>
      </trkpt>
      <trkpt lat="45.84419" lon="6.36573">
        <ele>1138.8000488281</ele>
        <time>2011-07-23T10:00:25.000Z</time>
      </trkpt>
      <trkpt lat="45.84411" lon="6.36577">
        <ele>1140</ele>
        <time>2011-07-23T10:00:29.000Z</time>
      </trkpt>
      <trkpt lat="45.84405" lon="6.3658">
        <ele>1141</ele>
        <time>2011-07-23T10:00:32.000Z</time>
      </trkpt>
      <trkpt lat="45.84393" lon="6.36586">
        <ele>1143</ele>
        <time>2011-07-23T10:00:38.000Z</time>
      </trkpt>
      <trkpt lat="45.84391" lon="6.36587">
        <ele>1143.4000244141</ele>
        <time>2011-07-23T10:00:39.000Z</time>
      </trkpt>
      <trkpt lat="45.84382" lon="6.36596">
        <ele>1144.8000488281</ele>
        <time>2011-07-23T10:00:45.000Z</time>
      </trkpt>
      <trkpt lat="45.84377" lon="6.366">
        <ele>1145.4000244141</ele>
        <time>2011-07-23T10:00:49.000Z</time>
      </trkpt>
      <trkpt lat="45.84375" lon="6.36601">
        <ele>1146</ele>
        <time>2011-07-23T10:00:51.000Z</time>
      </trkpt>
      <trkpt lat="45.84364" lon="6.36611">
        <ele>1147.5999755859</ele>
        <time>2011-07-23T10:01:00.000Z</time>
      </trkpt>
      <trkpt lat="45.84361" lon="6.36614">
        <ele>1148</ele>
        <time>2011-07-23T10:01:03.000Z</time>
      </trkpt>
      <trkpt lat="45.84356" lon="6.36621">
        <ele>1148.5999755859</ele>
        <time>2011-07-23T10:01:08.000Z</time>
      </trkpt>
      <trkpt lat="45.84346" lon="6.36628">
        <ele>1150</ele>
        <time>2011-07-23T10:01:16.000Z</time>
      </trkpt>
      <trkpt lat="45.84345" lon="6.36628">
        <ele>1150.1999511719</ele>
        <time>2011-07-23T10:01:17.000Z</time>
      </trkpt>
      <trkpt lat="45.84344" lon="6.3663">
        <ele>1150.4000244141</ele>
        <time>2011-07-23T10:01:18.000Z</time>
      </trkpt>
      <trkpt lat="45.8434" lon="6.36635">
        <ele>1151</ele>
        <time>2011-07-23T10:01:22.000Z</time>
      </trkpt>
      <trkpt lat="45.84339" lon="6.36636">
        <ele>1151</ele>
        <time>2011-07-23T10:01:23.000Z</time>
      </trkpt>
      <trkpt lat="45.84335" lon="6.36643">
        <ele>1151.4000244141</ele>
        <time>2011-07-23T10:01:27.000Z</time>
      </trkpt>
      <trkpt lat="45.8433" lon="6.36644">
        <ele>1153</ele>
        <time>2011-07-23T10:01:32.000Z</time>
      </trkpt>
      <trkpt lat="45.84329" lon="6.36646">
        <ele>1153.4000244141</ele>
        <time>2011-07-23T10:01:33.000Z</time>
      </trkpt>
      <trkpt lat="45.8432" lon="6.36648">
        <ele>1156.5999755859</ele>
        <time>2011-07-23T10:01:40.000Z</time>
      </trkpt>
      <trkpt lat="45.84319" lon="6.36649">
        <ele>1157.1999511719</ele>
        <time>2011-07-23T10:01:41.000Z</time>
      </trkpt>
      <trkpt lat="45.84313" lon="6.36654">
        <ele>1159.1999511719</ele>
        <time>2011-07-23T10:01:46.000Z</time>
      </trkpt>
      <trkpt lat="45.84305" lon="6.3666">
        <ele>1162.1999511719</ele>
        <time>2011-07-23T10:01:52.000Z</time>
      </trkpt>
      <trkpt lat="45.84303" lon="6.36674">
        <ele>1163</ele>
        <time>2011-07-23T10:01:58.000Z</time>
      </trkpt>
      <trkpt lat="45.84305" lon="6.36681">
        <ele>1162.5999755859</ele>
        <time>2011-07-23T10:02:01.000Z</time>
      </trkpt>
      <trkpt lat="45.84307" lon="6.36688">
        <ele>1162.1999511719</ele>
        <time>2011-07-23T10:02:04.000Z</time>
      </trkpt>
      <trkpt lat="45.84311" lon="6.36698">
        <ele>1161.4000244141</ele>
        <time>2011-07-23T10:02:08.000Z</time>
      </trkpt>
      <trkpt lat="45.84313" lon="6.36706">
        <ele>1161</ele>
        <time>2011-07-23T10:02:11.000Z</time>
      </trkpt>
      <trkpt lat="45.84316" lon="6.36721">
        <ele>1160.8000488281</ele>
        <time>2011-07-23T10:02:16.000Z</time>
      </trkpt>
      <trkpt lat="45.84316" lon="6.36723">
        <ele>1161</ele>
        <time>2011-07-23T10:02:17.000Z</time>
      </trkpt>
      <trkpt lat="45.84318" lon="6.36738">
        <ele>1161.1999511719</ele>
        <time>2011-07-23T10:02:22.000Z</time>
      </trkpt>
      <trkpt lat="45.84321" lon="6.3675">
        <ele>1160.8000488281</ele>
        <time>2011-07-23T10:02:26.000Z</time>
      </trkpt>
      <trkpt lat="45.84322" lon="6.36756">
        <ele>1161</ele>
        <time>2011-07-23T10:02:28.000Z</time>
      </trkpt>
      <trkpt lat="45.84328" lon="6.3677">
        <ele>1161</ele>
        <time>2011-07-23T10:02:34.000Z</time>
      </trkpt>
      <trkpt lat="45.8433" lon="6.36774">
        <ele>1160.5999755859</ele>
        <time>2011-07-23T10:02:36.000Z</time>
      </trkpt>
      <trkpt lat="45.84335" lon="6.36785">
        <ele>1160.5999755859</ele>
        <time>2011-07-23T10:02:41.000Z</time>
      </trkpt>
      <trkpt lat="45.84338" lon="6.36796">
        <ele>1161.4000244141</ele>
        <time>2011-07-23T10:02:46.000Z</time>
      </trkpt>
      <trkpt lat="45.84339" lon="6.36797">
        <ele>1161.4000244141</ele>
        <time>2011-07-23T10:02:47.000Z</time>
      </trkpt>
      <trkpt lat="45.8434" lon="6.36804">
        <ele>1162.1999511719</ele>
        <time>2011-07-23T10:02:51.000Z</time>
      </trkpt>
      <trkpt lat="45.84341" lon="6.36808">
        <ele>1162.5999755859</ele>
        <time>2011-07-23T10:02:53.000Z</time>
      </trkpt>
      <trkpt lat="45.84342" lon="6.36811">
        <ele>1162.5999755859</ele>
        <time>2011-07-23T10:02:55.000Z</time>
      </trkpt>
      <trkpt lat="45.84346" lon="6.36822">
        <ele>1163.4000244141</ele>
        <time>2011-07-23T10:03:01.000Z</time>
      </trkpt>
      <trkpt lat="45.84348" lon="6.36826">
        <ele>1163.5999755859</ele>
        <time>2011-07-23T10:03:03.000Z</time>
      </trkpt>
      <trkpt lat="45.84351" lon="6.36834">
        <ele>1164</ele>
        <time>2011-07-23T10:03:08.000Z</time>
      </trkpt>
      <trkpt lat="45.84353" lon="6.36836">
        <ele>1164</ele>
        <time>2011-07-23T10:03:10.000Z</time>
      </trkpt>
      <trkpt lat="45.84354" lon="6.36839">
        <ele>1164.1999511719</ele>
        <time>2011-07-23T10:03:12.000Z</time>
      </trkpt>
      <trkpt lat="45.84356" lon="6.36844">
        <ele>1164.4000244141</ele>
        <time>2011-07-23T10:03:15.000Z</time>
      </trkpt>
      <trkpt lat="45.84358" lon="6.36849">
        <ele>1164.5999755859</ele>
        <time>2011-07-23T10:03:17.000Z</time>
      </trkpt>
      <trkpt lat="45.84364" lon="6.36867">
        <ele>1165.4000244141</ele>
        <time>2011-07-23T10:03:23.000Z</time>
      </trkpt>
      <trkpt lat="45.84365" lon="6.3687">
        <ele>1165.5999755859</ele>
        <time>2011-07-23T10:03:24.000Z</time>
      </trkpt>
      <trkpt lat="45.84369" lon="6.36882">
        <ele>1166.1999511719</ele>
        <time>2011-07-23T10:03:28.000Z</time>
      </trkpt>
      <trkpt lat="45.84371" lon="6.36896">
        <ele>1167.1999511719</ele>
        <time>2011-07-23T10:03:32.000Z</time>
      </trkpt>
      <trkpt lat="45.84372" lon="6.36899">
        <ele>1167.5999755859</ele>
        <time>2011-07-23T10:03:33.000Z</time>
      </trkpt>
      <trkpt lat="45.84373" lon="6.36923">
        <ele>1169.4000244141</ele>
        <time>2011-07-23T10:03:40.000Z</time>
      </trkpt>
      <trkpt lat="45.84374" lon="6.36943">
        <ele>1169.1999511719</ele>
        <time>2011-07-23T10:03:46.000Z</time>
      </trkpt>
      <trkpt lat="45.84375" lon="6.3695">
        <ele>1169</ele>
        <time>2011-07-23T10:03:48.000Z</time>
      </trkpt>
      <trkpt lat="45.84377" lon="6.36966">
        <ele>1168.1999511719</ele>
        <time>2011-07-23T10:03:53.000Z</time>
      </trkpt>
      <trkpt lat="45.84377" lon="6.36977">
        <ele>1168.1999511719</ele>
        <time>2011-07-23T10:03:58.000Z</time>
      </trkpt>
      <trkpt lat="45.84374" lon="6.3699">
        <ele>1169.4000244141</ele>
        <time>2011-07-23T10:04:05.000Z</time>
      </trkpt>
      <trkpt lat="45.84367" lon="6.37">
        <ele>1171.4000244141</ele>
        <time>2011-07-23T10:04:11.000Z</time>
      </trkpt>
      <trkpt lat="45.84366" lon="6.37001">
        <ele>1171.8000488281</ele>
        <time>2011-07-23T10:04:12.000Z</time>
      </trkpt>
      <trkpt lat="45.84357" lon="6.37015">
        <ele>1175.5999755859</ele>
        <time>2011-07-23T10:04:21.000Z</time>
      </trkpt>
      <trkpt lat="45.84355" lon="6.3702">
        <ele>1176.8000488281</ele>
        <time>2011-07-23T10:04:24.000Z</time>
      </trkpt>
      <trkpt lat="45.84351" lon="6.37029">
        <ele>1178.8000488281</ele>
        <time>2011-07-23T10:04:29.000Z</time>
      </trkpt>
      <trkpt lat="45.84349" lon="6.37046">
        <ele>1181</ele>
        <time>2011-07-23T10:04:36.000Z</time>
      </trkpt>
      <trkpt lat="45.84349" lon="6.37048">
        <ele>1181.4000244141</ele>
        <time>2011-07-23T10:04:37.000Z</time>
      </trkpt>
      <trkpt lat="45.8435" lon="6.37062">
        <ele>1182</ele>
        <time>2011-07-23T10:04:43.000Z</time>
      </trkpt>
      <trkpt lat="45.84354" lon="6.37072">
        <ele>1181.8000488281</ele>
        <time>2011-07-23T10:04:48.000Z</time>
      </trkpt>
      <trkpt lat="45.84356" lon="6.37078">
        <ele>1181.5999755859</ele>
        <time>2011-07-23T10:04:51.000Z</time>
      </trkpt>
      <trkpt lat="45.84355" lon="6.37097">
        <ele>1184.1999511719</ele>
        <time>2011-07-23T10:04:59.000Z</time>
      </trkpt>
      <trkpt lat="45.84355" lon="6.37099">
        <ele>1184.5999755859</ele>
        <time>2011-07-23T10:05:00.000Z</time>
      </trkpt>
      <trkpt lat="45.84356" lon="6.3711">
        <ele>1185.8000488281</ele>
        <time>2011-07-23T10:05:05.000Z</time>
      </trkpt>
      <trkpt lat="45.84353" lon="6.37123">
        <ele>1188.8000488281</ele>
        <time>2011-07-23T10:05:11.000Z</time>
      </trkpt>
      <trkpt lat="45.84351" lon="6.37124">
        <ele>1189.5999755859</ele>
        <time>2011-07-23T10:05:12.000Z</time>
      </trkpt>
      <trkpt lat="45.84345" lon="6.37126">
        <ele>1192</ele>
        <time>2011-07-23T10:05:17.000Z</time>
      </trkpt>
      <trkpt lat="45.8434" lon="6.37121">
        <ele>1193</ele>
        <time>2011-07-23T10:05:22.000Z</time>
      </trkpt>
      <trkpt lat="45.84336" lon="6.37115">
        <ele>1193.5999755859</ele>
        <time>2011-07-23T10:05:25.000Z</time>
      </trkpt>
      <trkpt lat="45.84329" lon="6.37104">
        <ele>1193.8000488281</ele>
        <time>2011-07-23T10:05:30.000Z</time>
      </trkpt>
      <trkpt lat="45.84323" lon="6.37095">
        <ele>1193.8000488281</ele>
        <time>2011-07-23T10:05:35.000Z</time>
      </trkpt>
      <trkpt lat="45.8432" lon="6.37092">
        <ele>1193.8000488281</ele>
        <time>2011-07-23T10:05:37.000Z</time>
      </trkpt>
      <trkpt lat="45.84312" lon="6.37083">
        <ele>1194.4000244141</ele>
        <time>2011-07-23T10:05:43.000Z</time>
      </trkpt>
      <trkpt lat="45.84308" lon="6.37079">
        <ele>1195.1999511719</ele>
        <time>2011-07-23T10:05:47.000Z</time>
      </trkpt>
      <trkpt lat="45.84302" lon="6.37072">
        <ele>1196</ele>
        <time>2011-07-23T10:05:52.000Z</time>
      </trkpt>
      <trkpt lat="45.84295" lon="6.37059">
        <ele>1196.8000488281</ele>
        <time>2011-07-23T10:05:59.000Z</time>
      </trkpt>
      <trkpt lat="45.84292" lon="6.37041">
        <ele>1196.8000488281</ele>
        <time>2011-07-23T10:06:06.000Z</time>
      </trkpt>
      <trkpt lat="45.84293" lon="6.37032">
        <ele>1196</ele>
        <time>2011-07-23T10:06:09.000Z</time>
      </trkpt>
      <trkpt lat="45.84294" lon="6.37025">
        <ele>1195.4000244141</ele>
        <time>2011-07-23T10:06:11.000Z</time>
      </trkpt>
      <trkpt lat="45.84296" lon="6.37006">
        <ele>1194</ele>
        <time>2011-07-23T10:06:16.000Z</time>
      </trkpt>
      <trkpt lat="45.84296" lon="6.37002">
        <ele>1193.8000488281</ele>
        <time>2011-07-23T10:06:17.000Z</time>
      </trkpt>
      <trkpt lat="45.84292" lon="6.36983">
        <ele>1194.4000244141</ele>
        <time>2011-07-23T10:06:23.000Z</time>
      </trkpt>
      <trkpt lat="45.84291" lon="6.3698">
        <ele>1194.8000488281</ele>
        <time>2011-07-23T10:06:24.000Z</time>
      </trkpt>
      <trkpt lat="45.84284" lon="6.36962">
        <ele>1196.1999511719</ele>
        <time>2011-07-23T10:06:30.000Z</time>
      </trkpt>
      <trkpt lat="45.84282" lon="6.36957">
        <ele>1196.8000488281</ele>
        <time>2011-07-23T10:06:32.000Z</time>
      </trkpt>
      <trkpt lat="45.8428" lon="6.36955">
        <ele>1197</ele>
        <time>2011-07-23T10:06:33.000Z</time>
      </trkpt>
      <trkpt lat="45.8428" lon="6.36952">
        <ele>1197.1999511719</ele>
        <time>2011-07-23T10:06:34.000Z</time>
      </trkpt>
      <trkpt lat="45.84277" lon="6.36935">
        <ele>1197.4000244141</ele>
        <time>2011-07-23T10:06:39.000Z</time>
      </trkpt>
      <trkpt lat="45.84276" lon="6.36932">
        <ele>1197.5999755859</ele>
        <time>2011-07-23T10:06:40.000Z</time>
      </trkpt>
      <trkpt lat="45.84269" lon="6.36918">
        <ele>1198.8000488281</ele>
        <time>2011-07-23T10:06:45.000Z</time>
      </trkpt>
      <trkpt lat="45.84264" lon="6.36912">
        <ele>1199.8000488281</ele>
        <time>2011-07-23T10:06:48.000Z</time>
      </trkpt>
      <trkpt lat="45.84258" lon="6.36907">
        <ele>1201</ele>
        <time>2011-07-23T10:06:51.000Z</time>
      </trkpt>
      <trkpt lat="45.84249" lon="6.36897">
        <ele>1202.4000244141</ele>
        <time>2011-07-23T10:06:56.000Z</time>
      </trkpt>
      <trkpt lat="45.84248" lon="6.36894">
        <ele>1202.4000244141</ele>
        <time>2011-07-23T10:06:57.000Z</time>
      </trkpt>
      <trkpt lat="45.84243" lon="6.36878">
        <ele>1202</ele>
        <time>2011-07-23T10:07:02.000Z</time>
      </trkpt>
      <trkpt lat="45.84241" lon="6.36872">
        <ele>1201.8000488281</ele>
        <time>2011-07-23T10:07:04.000Z</time>
      </trkpt>
      <trkpt lat="45.84236" lon="6.3686">
        <ele>1201.8000488281</ele>
        <time>2011-07-23T10:07:08.000Z</time>
      </trkpt>
      <trkpt lat="45.8423" lon="6.3685">
        <ele>1202</ele>
        <time>2011-07-23T10:07:12.000Z</time>
      </trkpt>
      <trkpt lat="45.84227" lon="6.36846">
        <ele>1202.1999511719</ele>
        <time>2011-07-23T10:07:14.000Z</time>
      </trkpt>
      <trkpt lat="45.84216" lon="6.36833">
        <ele>1203</ele>
        <time>2011-07-23T10:07:20.000Z</time>
      </trkpt>
      <trkpt lat="45.84215" lon="6.36832">
        <ele>1203</ele>
        <time>2011-07-23T10:07:21.000Z</time>
      </trkpt>
      <trkpt lat="45.84211" lon="6.36827">
        <ele>1203.1999511719</ele>
        <time>2011-07-23T10:07:26.000Z</time>
      </trkpt>
      <trkpt lat="45.84202" lon="6.3682">
        <ele>1204.1999511719</ele>
        <time>2011-07-23T10:07:33.000Z</time>
      </trkpt>
      <trkpt lat="45.84201" lon="6.36819">
        <ele>1204.4000244141</ele>
        <time>2011-07-23T10:07:34.000Z</time>
      </trkpt>
      <trkpt lat="45.84198" lon="6.36818">
        <ele>1204.5999755859</ele>
        <time>2011-07-23T10:07:36.000Z</time>
      </trkpt>
      <trkpt lat="45.84197" lon="6.36816">
        <ele>1204.8000488281</ele>
        <time>2011-07-23T10:07:37.000Z</time>
      </trkpt>
      <trkpt lat="45.84195" lon="6.36814">
        <ele>1204.8000488281</ele>
        <time>2011-07-23T10:07:38.000Z</time>
      </trkpt>
      <trkpt lat="45.84188" lon="6.36811">
        <ele>1205.8000488281</ele>
        <time>2011-07-23T10:07:43.000Z</time>
      </trkpt>
      <trkpt lat="45.8418" lon="6.36808">
        <ele>1206.8000488281</ele>
        <time>2011-07-23T10:07:48.000Z</time>
      </trkpt>
      <trkpt lat="45.84175" lon="6.36806">
        <ele>1207.5999755859</ele>
        <time>2011-07-23T10:07:52.000Z</time>
      </trkpt>
      <trkpt lat="45.84161" lon="6.36802">
        <ele>1209.8000488281</ele>
        <time>2011-07-23T10:07:59.000Z</time>
      </trkpt>
      <trkpt lat="45.84146" lon="6.36804">
        <ele>1213.1999511719</ele>
        <time>2011-07-23T10:08:05.000Z</time>
      </trkpt>
      <trkpt lat="45.84143" lon="6.36804">
        <ele>1213.8000488281</ele>
        <time>2011-07-23T10:08:06.000Z</time>
      </trkpt>
      <trkpt lat="45.84129" lon="6.36809">
        <ele>1217.1999511719</ele>
        <time>2011-07-23T10:08:11.000Z</time>
      </trkpt>
      <trkpt lat="45.84124" lon="6.36812">
        <ele>1218.5999755859</ele>
        <time>2011-07-23T10:08:13.000Z</time>
      </trkpt>
      <trkpt lat="45.84114" lon="6.36813">
        <ele>1221</ele>
        <time>2011-07-23T10:08:17.000Z</time>
      </trkpt>
      <trkpt lat="45.84106" lon="6.36808">
        <ele>1222.1999511719</ele>
        <time>2011-07-23T10:08:20.000Z</time>
      </trkpt>
      <trkpt lat="45.84104" lon="6.36803">
        <ele>1222.4000244141</ele>
        <time>2011-07-23T10:08:22.000Z</time>
      </trkpt>
      <trkpt lat="45.84095" lon="6.36788">
        <ele>1223</ele>
        <time>2011-07-23T10:08:28.000Z</time>
      </trkpt>
      <trkpt lat="45.84092" lon="6.36783">
        <ele>1223.4000244141</ele>
        <time>2011-07-23T10:08:30.000Z</time>
      </trkpt>
      <trkpt lat="45.84087" lon="6.36777">
        <ele>1224</ele>
        <time>2011-07-23T10:08:34.000Z</time>
      </trkpt>
      <trkpt lat="45.84083" lon="6.36769">
        <ele>1224.4000244141</ele>
        <time>2011-07-23T10:08:40.000Z</time>
      </trkpt>
      <trkpt lat="45.84082" lon="6.36768">
        <ele>1224.5999755859</ele>
        <time>2011-07-23T10:08:41.000Z</time>
      </trkpt>
      <trkpt lat="45.84075" lon="6.3676">
        <ele>1226</ele>
        <time>2011-07-23T10:08:47.000Z</time>
      </trkpt>
      <trkpt lat="45.84066" lon="6.36754">
        <ele>1227.8000488281</ele>
        <time>2011-07-23T10:08:54.000Z</time>
      </trkpt>
      <trkpt lat="45.84065" lon="6.36752">
        <ele>1228</ele>
        <time>2011-07-23T10:08:55.000Z</time>
      </trkpt>
      <trkpt lat="45.84062" lon="6.36744">
        <ele>1228.4000244141</ele>
        <time>2011-07-23T10:08:59.000Z</time>
      </trkpt>
      <trkpt lat="45.84055" lon="6.3673">
        <ele>1229.5999755859</ele>
        <time>2011-07-23T10:09:06.000Z</time>
      </trkpt>
      <trkpt lat="45.84053" lon="6.36724">
        <ele>1230</ele>
        <time>2011-07-23T10:09:09.000Z</time>
      </trkpt>
      <trkpt lat="45.84052" lon="6.36719">
        <ele>1230.1999511719</ele>
        <time>2011-07-23T10:09:11.000Z</time>
      </trkpt>
      <trkpt lat="45.84044" lon="6.36709">
        <ele>1232</ele>
        <time>2011-07-23T10:09:16.000Z</time>
      </trkpt>
      <trkpt lat="45.84043" lon="6.36706">
        <ele>1232.1999511719</ele>
        <time>2011-07-23T10:09:17.000Z</time>
      </trkpt>
      <trkpt lat="45.8404" lon="6.36698">
        <ele>1232.8000488281</ele>
        <time>2011-07-23T10:09:21.000Z</time>
      </trkpt>
      <trkpt lat="45.8404" lon="6.36697">
        <ele>1232.8000488281</ele>
        <time>2011-07-23T10:09:23.000Z</time>
      </trkpt>
      <trkpt lat="45.84037" lon="6.3669">
        <ele>1233.4000244141</ele>
        <time>2011-07-23T10:09:27.000Z</time>
      </trkpt>
      <trkpt lat="45.84035" lon="6.36685">
        <ele>1233.8000488281</ele>
        <time>2011-07-23T10:09:29.000Z</time>
      </trkpt>
      <trkpt lat="45.84033" lon="6.36683">
        <ele>1234.1999511719</ele>
        <time>2011-07-23T10:09:30.000Z</time>
      </trkpt>
      <trkpt lat="45.8403" lon="6.36674">
        <ele>1234.8000488281</ele>
        <time>2011-07-23T10:09:36.000Z</time>
      </trkpt>
      <trkpt lat="45.84028" lon="6.3666">
        <ele>1236</ele>
        <time>2011-07-23T10:09:43.000Z</time>
      </trkpt>
      <trkpt lat="45.84028" lon="6.36659">
        <ele>1236</ele>
        <time>2011-07-23T10:09:44.000Z</time>
      </trkpt>
      <trkpt lat="45.84029" lon="6.36649">
        <ele>1237</ele>
        <time>2011-07-23T10:09:48.000Z</time>
      </trkpt>
      <trkpt lat="45.84029" lon="6.36644">
        <ele>1237.1999511719</ele>
        <time>2011-07-23T10:09:50.000Z</time>
      </trkpt>
      <trkpt lat="45.84029" lon="6.36642">
        <ele>1237.5999755859</ele>
        <time>2011-07-23T10:09:51.000Z</time>
      </trkpt>
      <trkpt lat="45.84028" lon="6.36636">
        <ele>1238.5999755859</ele>
        <time>2011-07-23T10:09:53.000Z</time>
      </trkpt>
      <trkpt lat="45.84028" lon="6.36634">
        <ele>1238.8000488281</ele>
        <time>2011-07-23T10:09:54.000Z</time>
      </trkpt>
      <trkpt lat="45.8403" lon="6.36619">
        <ele>1240</ele>
        <time>2011-07-23T10:10:00.000Z</time>
      </trkpt>
      <trkpt lat="45.84033" lon="6.36609">
        <ele>1239.5999755859</ele>
        <time>2011-07-23T10:10:06.000Z</time>
      </trkpt>
      <trkpt lat="45.84028" lon="6.36604">
        <ele>1242</ele>
        <time>2011-07-23T10:10:36.000Z</time>
      </trkpt>
      <trkpt lat="45.84029" lon="6.36603">
        <ele>1242</ele>
        <time>2011-07-23T10:10:38.000Z</time>
      </trkpt>
      <trkpt lat="45.84031" lon="6.36608">
        <ele>1240.8000488281</ele>
        <time>2011-07-23T10:10:42.000Z</time>
      </trkpt>
      <trkpt lat="45.84034" lon="6.36614">
        <ele>1238.8000488281</ele>
        <time>2011-07-23T10:10:59.000Z</time>
      </trkpt>
      <trkpt lat="45.8403" lon="6.36611">
        <ele>1240.5999755859</ele>
        <time>2011-07-23T10:11:09.000Z</time>
      </trkpt>
      <trkpt lat="45.8403" lon="6.36613">
        <ele>1240.4000244141</ele>
        <time>2011-07-23T10:11:17.000Z</time>
      </trkpt>
    </trkseg>
  </trk>
</gpx>